<?xml version="1.0" encoding="utf-8"?>
<gpx xmlns:xsi="http://www.w3.org/2001/XMLSchema-instance" xmlns:xsd="http://www.w3.org/2001/XMLSchema" version="1.1" creator="Shapelink.com" xmlns="http://www.topografix.com/GPX/1/1" xmlns:gpxtpx="http://www.garmin.com/xmlschemas/TrackPointExtension/v1">
  <metadata>
    <name>Cykling 73.42 km, 2012-08-01</name>
    <desc></desc>
    <author><name>Alexander Engvall</name></author> 
    <time>2012-08-01T18:13:10Z</time>
  </metadata>
  <trk>
    <name>Cykling 73.42 km, 2012-08-01</name>
    <trkseg>
      <trkpt lat="59.4587074993" lon="17.804679178">
        <ele>3.8</ele>
        <time>2012-08-01T18:13:10Z</time>
      </trkpt>
      <trkpt lat="59.4586703675" lon="17.8046669404">
        <ele>4</ele>
        <time>2012-08-01T18:13:11Z</time>
      </trkpt>
      <trkpt lat="59.458411283" lon="17.8046176548">
        <ele>4</ele>
        <time>2012-08-01T18:13:16Z</time>
      </trkpt>
      <trkpt lat="59.4582884881" lon="17.8046169004">
        <ele>4</ele>
        <time>2012-08-01T18:13:18Z</time>
      </trkpt>
      <trkpt lat="59.458157982" lon="17.8046098597">
        <ele>4</ele>
        <time>2012-08-01T18:13:20Z</time>
      </trkpt>
      <trkpt lat="59.457970395" lon="17.8046292218">
        <ele>4</ele>
        <time>2012-08-01T18:13:23Z</time>
      </trkpt>
      <trkpt lat="59.4578367037" lon="17.8047199978">
        <ele>4</ele>
        <time>2012-08-01T18:13:25Z</time>
      </trkpt>
      <trkpt lat="59.4576859133" lon="17.8048418706">
        <ele>4.6</ele>
        <time>2012-08-01T18:13:27Z</time>
      </trkpt>
      <trkpt lat="59.4576152539" lon="17.8049011307">
        <ele>5</ele>
        <time>2012-08-01T18:13:28Z</time>
      </trkpt>
      <trkpt lat="59.457547612" lon="17.8049661742">
        <ele>5.4</ele>
        <time>2012-08-01T18:13:29Z</time>
      </trkpt>
      <trkpt lat="59.4574865079" lon="17.8050347382">
        <ele>6</ele>
        <time>2012-08-01T18:13:30Z</time>
      </trkpt>
      <trkpt lat="59.4574368033" lon="17.8051145338">
        <ele>6.4</ele>
        <time>2012-08-01T18:13:31Z</time>
      </trkpt>
      <trkpt lat="59.457256341" lon="17.8054521568">
        <ele>6.4</ele>
        <time>2012-08-01T18:13:35Z</time>
      </trkpt>
      <trkpt lat="59.4571943149" lon="17.8056007679">
        <ele>6.4</ele>
        <time>2012-08-01T18:13:37Z</time>
      </trkpt>
      <trkpt lat="59.4571851786" lon="17.8056469521">
        <ele>6.4</ele>
        <time>2012-08-01T18:13:38Z</time>
      </trkpt>
      <trkpt lat="59.4571878609" lon="17.8057492951">
        <ele>6.4</ele>
        <time>2012-08-01T18:13:42Z</time>
      </trkpt>
      <trkpt lat="59.4572596937" lon="17.8058404064">
        <ele>6.4</ele>
        <time>2012-08-01T18:13:45Z</time>
      </trkpt>
      <trkpt lat="59.4573052913" lon="17.8058746884">
        <ele>6.4</ele>
        <time>2012-08-01T18:13:46Z</time>
      </trkpt>
      <trkpt lat="59.4575062054" lon="17.8060218745">
        <ele>6.4</ele>
        <time>2012-08-01T18:13:49Z</time>
      </trkpt>
      <trkpt lat="59.4578788647" lon="17.8061844834">
        <ele>6.4</ele>
        <time>2012-08-01T18:13:54Z</time>
      </trkpt>
      <trkpt lat="59.4584262866" lon="17.8064140636">
        <ele>6.4</ele>
        <time>2012-08-01T18:14:01Z</time>
      </trkpt>
      <trkpt lat="59.4585028133" lon="17.8064433165">
        <ele>6.4</ele>
        <time>2012-08-01T18:14:02Z</time>
      </trkpt>
      <trkpt lat="59.4588015442" lon="17.8065335057">
        <ele>6.8</ele>
        <time>2012-08-01T18:14:06Z</time>
      </trkpt>
      <trkpt lat="59.4588774004" lon="17.8065545443">
        <ele>7.4</ele>
        <time>2012-08-01T18:14:07Z</time>
      </trkpt>
      <trkpt lat="59.4589504906" lon="17.8065709728">
        <ele>7.8</ele>
        <time>2012-08-01T18:14:08Z</time>
      </trkpt>
      <trkpt lat="59.4590219044" lon="17.8065806958">
        <ele>8.2</ele>
        <time>2012-08-01T18:14:09Z</time>
      </trkpt>
      <trkpt lat="59.4590948269" lon="17.8065878204">
        <ele>8.6</ele>
        <time>2012-08-01T18:14:10Z</time>
      </trkpt>
      <trkpt lat="59.4593840863" lon="17.8066148939">
        <ele>8.6</ele>
        <time>2012-08-01T18:14:14Z</time>
      </trkpt>
      <trkpt lat="59.4594582661" lon="17.8066305681">
        <ele>9.2</ele>
        <time>2012-08-01T18:14:15Z</time>
      </trkpt>
      <trkpt lat="59.4595331165" lon="17.8066420513">
        <ele>10.2</ele>
        <time>2012-08-01T18:14:16Z</time>
      </trkpt>
      <trkpt lat="59.4596093918" lon="17.8066521934">
        <ele>10.8</ele>
        <time>2012-08-01T18:14:17Z</time>
      </trkpt>
      <trkpt lat="59.4596855832" lon="17.8066660235">
        <ele>11.4</ele>
        <time>2012-08-01T18:14:18Z</time>
      </trkpt>
      <trkpt lat="59.4598485274" lon="17.8066967013">
        <ele>11.4</ele>
        <time>2012-08-01T18:14:20Z</time>
      </trkpt>
      <trkpt lat="59.4602594919" lon="17.8067231043">
        <ele>11.8</ele>
        <time>2012-08-01T18:14:25Z</time>
      </trkpt>
      <trkpt lat="59.4603465799" lon="17.8067310671">
        <ele>12.2</ele>
        <time>2012-08-01T18:14:26Z</time>
      </trkpt>
      <trkpt lat="59.4604385293" lon="17.8067404548">
        <ele>12.6</ele>
        <time>2012-08-01T18:14:27Z</time>
      </trkpt>
      <trkpt lat="59.4605215101" lon="17.8067514351">
        <ele>13</ele>
        <time>2012-08-01T18:14:28Z</time>
      </trkpt>
      <trkpt lat="59.4606050777" lon="17.8067609905">
        <ele>13.4</ele>
        <time>2012-08-01T18:14:29Z</time>
      </trkpt>
      <trkpt lat="59.4611192234" lon="17.8067642594">
        <ele>13.4</ele>
        <time>2012-08-01T18:14:35Z</time>
      </trkpt>
      <trkpt lat="59.4616583472" lon="17.8067231043">
        <ele>13.4</ele>
        <time>2012-08-01T18:14:42Z</time>
      </trkpt>
      <trkpt lat="59.4619942938" lon="17.8066788478">
        <ele>13.4</ele>
        <time>2012-08-01T18:14:47Z</time>
      </trkpt>
      <trkpt lat="59.4623842198" lon="17.8066474157">
        <ele>13.4</ele>
        <time>2012-08-01T18:14:52Z</time>
      </trkpt>
      <trkpt lat="59.4628381835" lon="17.8064804483">
        <ele>13.4</ele>
        <time>2012-08-01T18:14:58Z</time>
      </trkpt>
      <trkpt lat="59.4632870342" lon="17.8064540453">
        <ele>13.4</ele>
        <time>2012-08-01T18:15:04Z</time>
      </trkpt>
      <trkpt lat="59.463747452" lon="17.8066162351">
        <ele>13.4</ele>
        <time>2012-08-01T18:15:10Z</time>
      </trkpt>
      <trkpt lat="59.4639638726" lon="17.806803822">
        <ele>13.4</ele>
        <time>2012-08-01T18:15:13Z</time>
      </trkpt>
      <trkpt lat="59.4640291676" lon="17.8069060812">
        <ele>13.4</ele>
        <time>2012-08-01T18:15:14Z</time>
      </trkpt>
      <trkpt lat="59.4642417326" lon="17.8074282735">
        <ele>13.4</ele>
        <time>2012-08-01T18:15:18Z</time>
      </trkpt>
      <trkpt lat="59.4643220312" lon="17.8077369789">
        <ele>13.4</ele>
        <time>2012-08-01T18:15:20Z</time>
      </trkpt>
      <trkpt lat="59.4643720712" lon="17.8080955566">
        <ele>13.4</ele>
        <time>2012-08-01T18:15:22Z</time>
      </trkpt>
      <trkpt lat="59.4643568161" lon="17.8086303218">
        <ele>13.4</ele>
        <time>2012-08-01T18:15:25Z</time>
      </trkpt>
      <trkpt lat="59.4643358614" lon="17.8097115869">
        <ele>13.4</ele>
        <time>2012-08-01T18:15:31Z</time>
      </trkpt>
      <trkpt lat="59.4643489371" lon="17.8098802307">
        <ele>13.4</ele>
        <time>2012-08-01T18:15:32Z</time>
      </trkpt>
      <trkpt lat="59.4644813711" lon="17.8105384613">
        <ele>13.4</ele>
        <time>2012-08-01T18:15:36Z</time>
      </trkpt>
      <trkpt lat="59.4647418806" lon="17.8115857797">
        <ele>13.4</ele>
        <time>2012-08-01T18:15:43Z</time>
      </trkpt>
      <trkpt lat="59.4649821897" lon="17.8124769434">
        <ele>13.4</ele>
        <time>2012-08-01T18:15:50Z</time>
      </trkpt>
      <trkpt lat="59.4650678527" lon="17.8126911009">
        <ele>13.8</ele>
        <time>2012-08-01T18:15:52Z</time>
      </trkpt>
      <trkpt lat="59.4651106842" lon="17.8127846429">
        <ele>14.2</ele>
        <time>2012-08-01T18:15:53Z</time>
      </trkpt>
      <trkpt lat="59.4651530966" lon="17.8128703059">
        <ele>14.6</ele>
        <time>2012-08-01T18:15:54Z</time>
      </trkpt>
      <trkpt lat="59.4651938326" lon="17.8129335054">
        <ele>15.4</ele>
        <time>2012-08-01T18:15:55Z</time>
      </trkpt>
      <trkpt lat="59.4652549367" lon="17.8130247005">
        <ele>15.4</ele>
        <time>2012-08-01T18:15:58Z</time>
      </trkpt>
      <trkpt lat="59.4653604648" lon="17.8131216791">
        <ele>15.4</ele>
        <time>2012-08-01T18:16:03Z</time>
      </trkpt>
      <trkpt lat="59.4654018714" lon="17.8130959467">
        <ele>15.4</ele>
        <time>2012-08-01T18:16:04Z</time>
      </trkpt>
      <trkpt lat="59.4654936532" lon="17.8129539573">
        <ele>15.4</ele>
        <time>2012-08-01T18:16:06Z</time>
      </trkpt>
      <trkpt lat="59.4656190464" lon="17.812610467">
        <ele>15.8</ele>
        <time>2012-08-01T18:16:09Z</time>
      </trkpt>
      <trkpt lat="59.4656602854" lon="17.812479877">
        <ele>16.2</ele>
        <time>2012-08-01T18:16:10Z</time>
      </trkpt>
      <trkpt lat="59.4656995127" lon="17.8123415757">
        <ele>16.6</ele>
        <time>2012-08-01T18:16:11Z</time>
      </trkpt>
      <trkpt lat="59.4657406678" lon="17.8122103151">
        <ele>17.2</ele>
        <time>2012-08-01T18:16:12Z</time>
      </trkpt>
      <trkpt lat="59.4657823258" lon="17.81207654">
        <ele>17.6</ele>
        <time>2012-08-01T18:16:13Z</time>
      </trkpt>
      <trkpt lat="59.4660195336" lon="17.8113917388">
        <ele>17.6</ele>
        <time>2012-08-01T18:16:18Z</time>
      </trkpt>
      <trkpt lat="59.4663548096" lon="17.8105342704">
        <ele>17.6</ele>
        <time>2012-08-01T18:16:24Z</time>
      </trkpt>
      <trkpt lat="59.4666632635" lon="17.8099999243">
        <ele>17.6</ele>
        <time>2012-08-01T18:16:28Z</time>
      </trkpt>
      <trkpt lat="59.4667486751" lon="17.8098891994">
        <ele>17.2</ele>
        <time>2012-08-01T18:16:29Z</time>
      </trkpt>
      <trkpt lat="59.4668346734" lon="17.8097834198">
        <ele>16.6</ele>
        <time>2012-08-01T18:16:30Z</time>
      </trkpt>
      <trkpt lat="59.4669250303" lon="17.8096887881">
        <ele>16.2</ele>
        <time>2012-08-01T18:16:31Z</time>
      </trkpt>
      <trkpt lat="59.467018237" lon="17.8096029575">
        <ele>15.8</ele>
        <time>2012-08-01T18:16:32Z</time>
      </trkpt>
      <trkpt lat="59.4671153832" lon="17.8095326333">
        <ele>15.4</ele>
        <time>2012-08-01T18:16:33Z</time>
      </trkpt>
      <trkpt lat="59.4676016172" lon="17.8092937492">
        <ele>14.8</ele>
        <time>2012-08-01T18:16:38Z</time>
      </trkpt>
      <trkpt lat="59.4676996855" lon="17.8092854511">
        <ele>14.4</ele>
        <time>2012-08-01T18:16:39Z</time>
      </trkpt>
      <trkpt lat="59.4678060518" lon="17.8093057353">
        <ele>14</ele>
        <time>2012-08-01T18:16:40Z</time>
      </trkpt>
      <trkpt lat="59.4679118313" lon="17.8093445435">
        <ele>13.4</ele>
        <time>2012-08-01T18:16:41Z</time>
      </trkpt>
      <trkpt lat="59.4680118274" lon="17.8093872074">
        <ele>13</ele>
        <time>2012-08-01T18:16:42Z</time>
      </trkpt>
      <trkpt lat="59.4682964767" lon="17.8095144446">
        <ele>12.2</ele>
        <time>2012-08-01T18:16:45Z</time>
      </trkpt>
      <trkpt lat="59.4683847381" lon="17.8095769736">
        <ele>11.6</ele>
        <time>2012-08-01T18:16:46Z</time>
      </trkpt>
      <trkpt lat="59.4684650367" lon="17.8096665761">
        <ele>11.2</ele>
        <time>2012-08-01T18:16:47Z</time>
      </trkpt>
      <trkpt lat="59.46853578" lon="17.8097731939">
        <ele>10.8</ele>
        <time>2012-08-01T18:16:48Z</time>
      </trkpt>
      <trkpt lat="59.4686071938" lon="17.8098775485">
        <ele>10.8</ele>
        <time>2012-08-01T18:16:49Z</time>
      </trkpt>
      <trkpt lat="59.4688394562" lon="17.8099081425">
        <ele>10.8</ele>
        <time>2012-08-01T18:16:52Z</time>
      </trkpt>
      <trkpt lat="59.4688955311" lon="17.8096785622">
        <ele>10.8</ele>
        <time>2012-08-01T18:16:54Z</time>
      </trkpt>
      <trkpt lat="59.4689009794" lon="17.8093595471">
        <ele>10.8</ele>
        <time>2012-08-01T18:16:56Z</time>
      </trkpt>
      <trkpt lat="59.468922437" lon="17.8090209183">
        <ele>10.8</ele>
        <time>2012-08-01T18:16:58Z</time>
      </trkpt>
      <trkpt lat="59.4690324076" lon="17.8081454289">
        <ele>10.8</ele>
        <time>2012-08-01T18:17:03Z</time>
      </trkpt>
      <trkpt lat="59.4690783404" lon="17.8077639686">
        <ele>10.8</ele>
        <time>2012-08-01T18:17:05Z</time>
      </trkpt>
      <trkpt lat="59.4691701222" lon="17.8071836897">
        <ele>10.8</ele>
        <time>2012-08-01T18:17:08Z</time>
      </trkpt>
      <trkpt lat="59.4693412806" lon="17.8062739183">
        <ele>10.4</ele>
        <time>2012-08-01T18:17:13Z</time>
      </trkpt>
      <trkpt lat="59.4693868781" lon="17.806098988">
        <ele>10</ele>
        <time>2012-08-01T18:17:14Z</time>
      </trkpt>
      <trkpt lat="59.4694356608" lon="17.8059114011">
        <ele>9.6</ele>
        <time>2012-08-01T18:17:15Z</time>
      </trkpt>
      <trkpt lat="59.4694838567" lon="17.8057197908">
        <ele>9</ele>
        <time>2012-08-01T18:17:16Z</time>
      </trkpt>
      <trkpt lat="59.4695352377" lon="17.8055273424">
        <ele>8.6</ele>
        <time>2012-08-01T18:17:17Z</time>
      </trkpt>
      <trkpt lat="59.4695854453" lon="17.805327015">
        <ele>8.2</ele>
        <time>2012-08-01T18:17:18Z</time>
      </trkpt>
      <trkpt lat="59.4696366587" lon="17.8051271067">
        <ele>7.6</ele>
        <time>2012-08-01T18:17:19Z</time>
      </trkpt>
      <trkpt lat="59.4696849385" lon="17.8049237618">
        <ele>6.8</ele>
        <time>2012-08-01T18:17:20Z</time>
      </trkpt>
      <trkpt lat="59.4697374092" lon="17.8047053295">
        <ele>6</ele>
        <time>2012-08-01T18:17:21Z</time>
      </trkpt>
      <trkpt lat="59.4697875329" lon="17.8044970393">
        <ele>5</ele>
        <time>2012-08-01T18:17:22Z</time>
      </trkpt>
      <trkpt lat="59.4698375729" lon="17.8042869889">
        <ele>4</ele>
        <time>2012-08-01T18:17:23Z</time>
      </trkpt>
      <trkpt lat="59.4698887863" lon="17.8040776928">
        <ele>3</ele>
        <time>2012-08-01T18:17:24Z</time>
      </trkpt>
      <trkpt lat="59.4699420952" lon="17.8038673071">
        <ele>2</ele>
        <time>2012-08-01T18:17:25Z</time>
      </trkpt>
      <trkpt lat="59.4699943982" lon="17.8036590169">
        <ele>1</ele>
        <time>2012-08-01T18:17:26Z</time>
      </trkpt>
      <trkpt lat="59.470044522" lon="17.8034462005">
        <ele>0.4</ele>
        <time>2012-08-01T18:17:27Z</time>
      </trkpt>
      <trkpt lat="59.4700898681" lon="17.8032225714">
        <ele>0</ele>
        <time>2012-08-01T18:17:28Z</time>
      </trkpt>
      <trkpt lat="59.4701208811" lon="17.8030023789">
        <ele>0</ele>
        <time>2012-08-01T18:17:29Z</time>
      </trkpt>
      <trkpt lat="59.4701379802" lon="17.8027761514">
        <ele>0</ele>
        <time>2012-08-01T18:17:30Z</time>
      </trkpt>
      <trkpt lat="59.4701353818" lon="17.802546655">
        <ele>0</ele>
        <time>2012-08-01T18:17:31Z</time>
      </trkpt>
      <trkpt lat="59.470080648" lon="17.8020857343">
        <ele>0</ele>
        <time>2012-08-01T18:17:33Z</time>
      </trkpt>
      <trkpt lat="59.4700389061" lon="17.8018674696">
        <ele>0</ele>
        <time>2012-08-01T18:17:34Z</time>
      </trkpt>
      <trkpt lat="59.4699806519" lon="17.8016460198">
        <ele>0</ele>
        <time>2012-08-01T18:17:35Z</time>
      </trkpt>
      <trkpt lat="59.4699101601" lon="17.8014461953">
        <ele>0</ele>
        <time>2012-08-01T18:17:36Z</time>
      </trkpt>
      <trkpt lat="59.4698327952" lon="17.8012535793">
        <ele>0</ele>
        <time>2012-08-01T18:17:37Z</time>
      </trkpt>
      <trkpt lat="59.469750904" lon="17.8010731169">
        <ele>0</ele>
        <time>2012-08-01T18:17:38Z</time>
      </trkpt>
      <trkpt lat="59.4696726171" lon="17.8008965941">
        <ele>0</ele>
        <time>2012-08-01T18:17:39Z</time>
      </trkpt>
      <trkpt lat="59.4695950007" lon="17.8007270283">
        <ele>0</ele>
        <time>2012-08-01T18:17:40Z</time>
      </trkpt>
      <trkpt lat="59.4695202341" lon="17.8005604799">
        <ele>0</ele>
        <time>2012-08-01T18:17:41Z</time>
      </trkpt>
      <trkpt lat="59.4694452161" lon="17.8003966138">
        <ele>0</ele>
        <time>2012-08-01T18:17:42Z</time>
      </trkpt>
      <trkpt lat="59.4693667616" lon="17.8002283052">
        <ele>0</ele>
        <time>2012-08-01T18:17:43Z</time>
      </trkpt>
      <trkpt lat="59.4692945096" lon="17.8000740783">
        <ele>0</ele>
        <time>2012-08-01T18:17:44Z</time>
      </trkpt>
      <trkpt lat="59.4692237663" lon="17.7999242937">
        <ele>0</ele>
        <time>2012-08-01T18:17:45Z</time>
      </trkpt>
      <trkpt lat="59.4690904103" lon="17.7996188573">
        <ele>0</ele>
        <time>2012-08-01T18:17:47Z</time>
      </trkpt>
      <trkpt lat="59.4690322399" lon="17.7994502135">
        <ele>0</ele>
        <time>2012-08-01T18:17:48Z</time>
      </trkpt>
      <trkpt lat="59.4689883188" lon="17.7992791389">
        <ele>0</ele>
        <time>2012-08-01T18:17:49Z</time>
      </trkpt>
      <trkpt lat="59.468957641" lon="17.7991032028">
        <ele>0</ele>
        <time>2012-08-01T18:17:50Z</time>
      </trkpt>
      <trkpt lat="59.4689392008" lon="17.7989198907">
        <ele>0</ele>
        <time>2012-08-01T18:17:51Z</time>
      </trkpt>
      <trkpt lat="59.4689375245" lon="17.798752085">
        <ele>0</ele>
        <time>2012-08-01T18:17:52Z</time>
      </trkpt>
      <trkpt lat="59.4689481695" lon="17.7985815134">
        <ele>0</ele>
        <time>2012-08-01T18:17:53Z</time>
      </trkpt>
      <trkpt lat="59.4690524403" lon="17.7981015658">
        <ele>0</ele>
        <time>2012-08-01T18:17:56Z</time>
      </trkpt>
      <trkpt lat="59.4692375127" lon="17.7977330974">
        <ele>0</ele>
        <time>2012-08-01T18:17:59Z</time>
      </trkpt>
      <trkpt lat="59.4693754787" lon="17.7975512102">
        <ele>0</ele>
        <time>2012-08-01T18:18:01Z</time>
      </trkpt>
      <trkpt lat="59.4695699388" lon="17.7973019325">
        <ele>0</ele>
        <time>2012-08-01T18:18:04Z</time>
      </trkpt>
      <trkpt lat="59.4697021214" lon="17.797139156">
        <ele>0</ele>
        <time>2012-08-01T18:18:06Z</time>
      </trkpt>
      <trkpt lat="59.4697663267" lon="17.7970596956">
        <ele>0</ele>
        <time>2012-08-01T18:18:07Z</time>
      </trkpt>
      <trkpt lat="59.4698320408" lon="17.7969762957">
        <ele>0</ele>
        <time>2012-08-01T18:18:08Z</time>
      </trkpt>
      <trkpt lat="59.4698978387" lon="17.7968935663">
        <ele>0</ele>
        <time>2012-08-01T18:18:09Z</time>
      </trkpt>
      <trkpt lat="59.4699629661" lon="17.79680849">
        <ele>0</ele>
        <time>2012-08-01T18:18:10Z</time>
      </trkpt>
      <trkpt lat="59.4701667301" lon="17.7965338152">
        <ele>0</ele>
        <time>2012-08-01T18:18:13Z</time>
      </trkpt>
      <trkpt lat="59.4703090547" lon="17.796364417">
        <ele>0</ele>
        <time>2012-08-01T18:18:15Z</time>
      </trkpt>
      <trkpt lat="59.4703879284" lon="17.7962985352">
        <ele>0</ele>
        <time>2012-08-01T18:18:16Z</time>
      </trkpt>
      <trkpt lat="59.4704659639" lon="17.7962358386">
        <ele>0</ele>
        <time>2012-08-01T18:18:17Z</time>
      </trkpt>
      <trkpt lat="59.470545592" lon="17.7961795123">
        <ele>0</ele>
        <time>2012-08-01T18:18:18Z</time>
      </trkpt>
      <trkpt lat="59.470627986" lon="17.7961235212">
        <ele>0</ele>
        <time>2012-08-01T18:18:19Z</time>
      </trkpt>
      <trkpt lat="59.4710295629" lon="17.7958126365">
        <ele>0</ele>
        <time>2012-08-01T18:18:24Z</time>
      </trkpt>
      <trkpt lat="59.4711013958" lon="17.7957294881">
        <ele>0</ele>
        <time>2012-08-01T18:18:25Z</time>
      </trkpt>
      <trkpt lat="59.4716193972" lon="17.7951380612">
        <ele>0</ele>
        <time>2012-08-01T18:18:32Z</time>
      </trkpt>
      <trkpt lat="59.472084425" lon="17.7947850156">
        <ele>0</ele>
        <time>2012-08-01T18:18:38Z</time>
      </trkpt>
      <trkpt lat="59.47231828" lon="17.794557447">
        <ele>0</ele>
        <time>2012-08-01T18:18:41Z</time>
      </trkpt>
      <trkpt lat="59.4723783782" lon="17.7944335625">
        <ele>0</ele>
        <time>2012-08-01T18:18:42Z</time>
      </trkpt>
      <trkpt lat="59.4725181045" lon="17.7940152219">
        <ele>0</ele>
        <time>2012-08-01T18:18:45Z</time>
      </trkpt>
      <trkpt lat="59.4725506263" lon="17.7938718076">
        <ele>0</ele>
        <time>2012-08-01T18:18:46Z</time>
      </trkpt>
      <trkpt lat="59.4727064458" lon="17.7928737747">
        <ele>0</ele>
        <time>2012-08-01T18:18:52Z</time>
      </trkpt>
      <trkpt lat="59.4727356986" lon="17.7927088189">
        <ele>0</ele>
        <time>2012-08-01T18:18:53Z</time>
      </trkpt>
      <trkpt lat="59.4727630236" lon="17.7925452042">
        <ele>0</ele>
        <time>2012-08-01T18:18:54Z</time>
      </trkpt>
      <trkpt lat="59.4727913544" lon="17.7923825116">
        <ele>0</ele>
        <time>2012-08-01T18:18:55Z</time>
      </trkpt>
      <trkpt lat="59.4728198529" lon="17.7922166338">
        <ele>0</ele>
        <time>2012-08-01T18:18:56Z</time>
      </trkpt>
      <trkpt lat="59.4728954576" lon="17.7916980456">
        <ele>0</ele>
        <time>2012-08-01T18:18:59Z</time>
      </trkpt>
      <trkpt lat="59.4730506066" lon="17.7909243962">
        <ele>0</ele>
        <time>2012-08-01T18:19:04Z</time>
      </trkpt>
      <trkpt lat="59.473090253" lon="17.7908043674">
        <ele>0</ele>
        <time>2012-08-01T18:19:05Z</time>
      </trkpt>
      <trkpt lat="59.4732650156" lon="17.7902919819">
        <ele>0</ele>
        <time>2012-08-01T18:19:10Z</time>
      </trkpt>
      <trkpt lat="59.4733691188" lon="17.7900008785">
        <ele>0</ele>
        <time>2012-08-01T18:19:13Z</time>
      </trkpt>
      <trkpt lat="59.473402814" lon="17.789893674">
        <ele>0</ele>
        <time>2012-08-01T18:19:14Z</time>
      </trkpt>
      <trkpt lat="59.4734396944" lon="17.7897896546">
        <ele>0</ele>
        <time>2012-08-01T18:19:15Z</time>
      </trkpt>
      <trkpt lat="59.4734717133" lon="17.7896773372">
        <ele>0</ele>
        <time>2012-08-01T18:19:16Z</time>
      </trkpt>
      <trkpt lat="59.4735038159" lon="17.7895650197">
        <ele>0</ele>
        <time>2012-08-01T18:19:17Z</time>
      </trkpt>
      <trkpt lat="59.4735322306" lon="17.7894658618">
        <ele>0</ele>
        <time>2012-08-01T18:19:18Z</time>
      </trkpt>
      <trkpt lat="59.4735494135" lon="17.7893627645">
        <ele>0</ele>
        <time>2012-08-01T18:19:19Z</time>
      </trkpt>
      <trkpt lat="59.473568608" lon="17.7892596671">
        <ele>0</ele>
        <time>2012-08-01T18:19:20Z</time>
      </trkpt>
      <trkpt lat="59.4735879702" lon="17.7891529655">
        <ele>0</ele>
        <time>2012-08-01T18:19:21Z</time>
      </trkpt>
      <trkpt lat="59.473608925" lon="17.7890376306">
        <ele>0</ele>
        <time>2012-08-01T18:19:22Z</time>
      </trkpt>
      <trkpt lat="59.4736479846" lon="17.7888126604">
        <ele>0</ele>
        <time>2012-08-01T18:19:24Z</time>
      </trkpt>
      <trkpt lat="59.4736738009" lon="17.7887064617">
        <ele>0</ele>
        <time>2012-08-01T18:19:25Z</time>
      </trkpt>
      <trkpt lat="59.4736996171" lon="17.7885969103">
        <ele>0</ele>
        <time>2012-08-01T18:19:26Z</time>
      </trkpt>
      <trkpt lat="59.4737224159" lon="17.7884839222">
        <ele>0</ele>
        <time>2012-08-01T18:19:27Z</time>
      </trkpt>
      <trkpt lat="59.4737457176" lon="17.7883701799">
        <ele>0</ele>
        <time>2012-08-01T18:19:28Z</time>
      </trkpt>
      <trkpt lat="59.4738138624" lon="17.7881465508">
        <ele>0</ele>
        <time>2012-08-01T18:19:30Z</time>
      </trkpt>
      <trkpt lat="59.4739081588" lon="17.7879526774">
        <ele>0</ele>
        <time>2012-08-01T18:19:32Z</time>
      </trkpt>
      <trkpt lat="59.4741948198" lon="17.7876174014">
        <ele>0</ele>
        <time>2012-08-01T18:19:36Z</time>
      </trkpt>
      <trkpt lat="59.4745435068" lon="17.7873256275">
        <ele>0</ele>
        <time>2012-08-01T18:19:41Z</time>
      </trkpt>
      <trkpt lat="59.4746308462" lon="17.7872571474">
        <ele>0</ele>
        <time>2012-08-01T18:19:42Z</time>
      </trkpt>
      <trkpt lat="59.474716593" lon="17.7871885834">
        <ele>0</ele>
        <time>2012-08-01T18:19:43Z</time>
      </trkpt>
      <trkpt lat="59.474800412" lon="17.7871235399">
        <ele>0</ele>
        <time>2012-08-01T18:19:44Z</time>
      </trkpt>
      <trkpt lat="59.4748892602" lon="17.7870626873">
        <ele>0</ele>
        <time>2012-08-01T18:19:45Z</time>
      </trkpt>
      <trkpt lat="59.4749747556" lon="17.7870081211">
        <ele>0</ele>
        <time>2012-08-01T18:19:46Z</time>
      </trkpt>
      <trkpt lat="59.4750641066" lon="17.7869612663">
        <ele>0</ele>
        <time>2012-08-01T18:19:47Z</time>
      </trkpt>
      <trkpt lat="59.4751539606" lon="17.786917848">
        <ele>0</ele>
        <time>2012-08-01T18:19:48Z</time>
      </trkpt>
      <trkpt lat="59.4752446527" lon="17.7868760224">
        <ele>0</ele>
        <time>2012-08-01T18:19:49Z</time>
      </trkpt>
      <trkpt lat="59.4753344229" lon="17.7868397287">
        <ele>0</ele>
        <time>2012-08-01T18:19:50Z</time>
      </trkpt>
      <trkpt lat="59.4758879636" lon="17.7866317738">
        <ele>0</ele>
        <time>2012-08-01T18:19:56Z</time>
      </trkpt>
      <trkpt lat="59.4760748799" lon="17.786573771">
        <ele>0</ele>
        <time>2012-08-01T18:19:58Z</time>
      </trkpt>
      <trkpt lat="59.4766439271" lon="17.78638719">
        <ele>0</ele>
        <time>2012-08-01T18:20:04Z</time>
      </trkpt>
      <trkpt lat="59.4768383872" lon="17.786329271">
        <ele>0</ele>
        <time>2012-08-01T18:20:06Z</time>
      </trkpt>
      <trkpt lat="59.4774333345" lon="17.7861512395">
        <ele>0</ele>
        <time>2012-08-01T18:20:12Z</time>
      </trkpt>
      <trkpt lat="59.4776215919" lon="17.7860938235">
        <ele>0</ele>
        <time>2012-08-01T18:20:14Z</time>
      </trkpt>
      <trkpt lat="59.4781317144" lon="17.7858719546">
        <ele>0</ele>
        <time>2012-08-01T18:20:20Z</time>
      </trkpt>
      <trkpt lat="59.4786710058" lon="17.785517484">
        <ele>0</ele>
        <time>2012-08-01T18:20:27Z</time>
      </trkpt>
      <trkpt lat="59.4787396536" lon="17.7854581402">
        <ele>0</ele>
        <time>2012-08-01T18:20:28Z</time>
      </trkpt>
      <trkpt lat="59.4791382968" lon="17.785065532">
        <ele>0</ele>
        <time>2012-08-01T18:20:34Z</time>
      </trkpt>
      <trkpt lat="59.4792015801" lon="17.7849912683">
        <ele>0</ele>
        <time>2012-08-01T18:20:35Z</time>
      </trkpt>
      <trkpt lat="59.479262768" lon="17.7849170885">
        <ele>0</ele>
        <time>2012-08-01T18:20:36Z</time>
      </trkpt>
      <trkpt lat="59.479322028" lon="17.7848373766">
        <ele>0</ele>
        <time>2012-08-01T18:20:37Z</time>
      </trkpt>
      <trkpt lat="59.4793802822" lon="17.7847559046">
        <ele>0</ele>
        <time>2012-08-01T18:20:38Z</time>
      </trkpt>
      <trkpt lat="59.4795552963" lon="17.7844948084">
        <ele>0</ele>
        <time>2012-08-01T18:20:41Z</time>
      </trkpt>
      <trkpt lat="59.479612377" lon="17.7844031104">
        <ele>0</ele>
        <time>2012-08-01T18:20:42Z</time>
      </trkpt>
      <trkpt lat="59.4796717209" lon="17.7843132564">
        <ele>0</ele>
        <time>2012-08-01T18:20:43Z</time>
      </trkpt>
      <trkpt lat="59.479727209" lon="17.7842174513">
        <ele>0</ele>
        <time>2012-08-01T18:20:44Z</time>
      </trkpt>
      <trkpt lat="59.4797799312" lon="17.7841187964">
        <ele>0</ele>
        <time>2012-08-01T18:20:45Z</time>
      </trkpt>
      <trkpt lat="59.4798894826" lon="17.7839070696">
        <ele>0</ele>
        <time>2012-08-01T18:20:47Z</time>
      </trkpt>
      <trkpt lat="59.4799400255" lon="17.7838028825">
        <ele>0</ele>
        <time>2012-08-01T18:20:48Z</time>
      </trkpt>
      <trkpt lat="59.4799904007" lon="17.7836895593">
        <ele>0</ele>
        <time>2012-08-01T18:20:49Z</time>
      </trkpt>
      <trkpt lat="59.4800390995" lon="17.7835776609">
        <ele>0</ele>
        <time>2012-08-01T18:20:50Z</time>
      </trkpt>
      <trkpt lat="59.480088888" lon="17.7834566263">
        <ele>0</ele>
        <time>2012-08-01T18:20:51Z</time>
      </trkpt>
      <trkpt lat="59.4801410234" lon="17.7833281317">
        <ele>0</ele>
        <time>2012-08-01T18:20:52Z</time>
      </trkpt>
      <trkpt lat="59.4801872077" lon="17.7832053369">
        <ele>0</ele>
        <time>2012-08-01T18:20:53Z</time>
      </trkpt>
      <trkpt lat="59.4802344816" lon="17.7830847214">
        <ele>0</ele>
        <time>2012-08-01T18:20:54Z</time>
      </trkpt>
      <trkpt lat="59.4802799115" lon="17.7829651955">
        <ele>0</ele>
        <time>2012-08-01T18:20:55Z</time>
      </trkpt>
      <trkpt lat="59.4803245871" lon="17.7828452505">
        <ele>0</ele>
        <time>2012-08-01T18:20:56Z</time>
      </trkpt>
      <trkpt lat="59.4803652393" lon="17.7827169236">
        <ele>0</ele>
        <time>2012-08-01T18:20:57Z</time>
      </trkpt>
      <trkpt lat="59.4804882856" lon="17.7823228066">
        <ele>0</ele>
        <time>2012-08-01T18:21:00Z</time>
      </trkpt>
      <trkpt lat="59.4806995933" lon="17.7815161326">
        <ele>0</ele>
        <time>2012-08-01T18:21:06Z</time>
      </trkpt>
      <trkpt lat="59.4807979968" lon="17.7811214289">
        <ele>0</ele>
        <time>2012-08-01T18:21:09Z</time>
      </trkpt>
      <trkpt lat="59.4808271658" lon="17.781000981">
        <ele>0</ele>
        <time>2012-08-01T18:21:10Z</time>
      </trkpt>
      <trkpt lat="59.480857173" lon="17.7808775994">
        <ele>0</ele>
        <time>2012-08-01T18:21:11Z</time>
      </trkpt>
      <trkpt lat="59.4808855038" lon="17.7807567324">
        <ele>0.4</ele>
        <time>2012-08-01T18:21:12Z</time>
      </trkpt>
      <trkpt lat="59.4809128288" lon="17.7806434092">
        <ele>0.8</ele>
        <time>2012-08-01T18:21:13Z</time>
      </trkpt>
      <trkpt lat="59.4810647088" lon="17.7800607833">
        <ele>0.8</ele>
        <time>2012-08-01T18:21:18Z</time>
      </trkpt>
      <trkpt lat="59.4812353643" lon="17.7793779937">
        <ele>0.8</ele>
        <time>2012-08-01T18:21:24Z</time>
      </trkpt>
      <trkpt lat="59.48126051" lon="17.7792768242">
        <ele>1.2</ele>
        <time>2012-08-01T18:21:25Z</time>
      </trkpt>
      <trkpt lat="59.4812864101" lon="17.7791718828">
        <ele>1.6</ele>
        <time>2012-08-01T18:21:26Z</time>
      </trkpt>
      <trkpt lat="59.4813110529" lon="17.7790622475">
        <ele>2</ele>
        <time>2012-08-01T18:21:27Z</time>
      </trkpt>
      <trkpt lat="59.4813390484" lon="17.7789537858">
        <ele>2.4</ele>
        <time>2012-08-01T18:21:28Z</time>
      </trkpt>
      <trkpt lat="59.4813675469" lon="17.7788405463">
        <ele>3</ele>
        <time>2012-08-01T18:21:29Z</time>
      </trkpt>
      <trkpt lat="59.4814227836" lon="17.7785886702">
        <ele>3</ele>
        <time>2012-08-01T18:21:31Z</time>
      </trkpt>
      <trkpt lat="59.4815652759" lon="17.7779976624">
        <ele>3.4</ele>
        <time>2012-08-01T18:21:36Z</time>
      </trkpt>
      <trkpt lat="59.4815909245" lon="17.777888111">
        <ele>4</ele>
        <time>2012-08-01T18:21:37Z</time>
      </trkpt>
      <trkpt lat="59.4816133042" lon="17.7777773023">
        <ele>4.6</ele>
        <time>2012-08-01T18:21:38Z</time>
      </trkpt>
      <trkpt lat="59.4816413835" lon="17.7776646495">
        <ele>5</ele>
        <time>2012-08-01T18:21:39Z</time>
      </trkpt>
      <trkpt lat="59.4816690438" lon="17.7775582832">
        <ele>5.6</ele>
        <time>2012-08-01T18:21:40Z</time>
      </trkpt>
      <trkpt lat="59.4817498453" lon="17.7772116078">
        <ele>6</ele>
        <time>2012-08-01T18:21:43Z</time>
      </trkpt>
      <trkpt lat="59.4817750749" lon="17.7770935069">
        <ele>6.4</ele>
        <time>2012-08-01T18:21:44Z</time>
      </trkpt>
      <trkpt lat="59.4818034057" lon="17.776980435">
        <ele>6.8</ele>
        <time>2012-08-01T18:21:45Z</time>
      </trkpt>
      <trkpt lat="59.4818298925" lon="17.776866525">
        <ele>7.4</ele>
        <time>2012-08-01T18:21:46Z</time>
      </trkpt>
      <trkpt lat="59.4818552058" lon="17.776747502">
        <ele>7.8</ele>
        <time>2012-08-01T18:21:47Z</time>
      </trkpt>
      <trkpt lat="59.4818975344" lon="17.7765280639">
        <ele>7.8</ele>
        <time>2012-08-01T18:21:49Z</time>
      </trkpt>
      <trkpt lat="59.4819356721" lon="17.7763139064">
        <ele>8.2</ele>
        <time>2012-08-01T18:21:51Z</time>
      </trkpt>
      <trkpt lat="59.4819536931" lon="17.7762087973">
        <ele>8.6</ele>
        <time>2012-08-01T18:21:52Z</time>
      </trkpt>
      <trkpt lat="59.4819678586" lon="17.7761063705">
        <ele>9</ele>
        <time>2012-08-01T18:21:53Z</time>
      </trkpt>
      <trkpt lat="59.4819821078" lon="17.7760078832">
        <ele>9.4</ele>
        <time>2012-08-01T18:21:54Z</time>
      </trkpt>
      <trkpt lat="59.4819975305" lon="17.7759118266">
        <ele>9.8</ele>
        <time>2012-08-01T18:21:55Z</time>
      </trkpt>
      <trkpt lat="59.4820787511" lon="17.7752470581">
        <ele>9.8</ele>
        <time>2012-08-01T18:22:01Z</time>
      </trkpt>
      <trkpt lat="59.4821158829" lon="17.7750017199">
        <ele>10.2</ele>
        <time>2012-08-01T18:22:03Z</time>
      </trkpt>
      <trkpt lat="59.4821323114" lon="17.7748861335">
        <ele>10.8</ele>
        <time>2012-08-01T18:22:04Z</time>
      </trkpt>
      <trkpt lat="59.4821473989" lon="17.774775241">
        <ele>11.2</ele>
        <time>2012-08-01T18:22:05Z</time>
      </trkpt>
      <trkpt lat="59.4821608937" lon="17.7746644323">
        <ele>12</ele>
        <time>2012-08-01T18:22:06Z</time>
      </trkpt>
      <trkpt lat="59.4822455509" lon="17.7740172658">
        <ele>12</ele>
        <time>2012-08-01T18:22:12Z</time>
      </trkpt>
      <trkpt lat="59.4822582076" lon="17.773907882">
        <ele>12.4</ele>
        <time>2012-08-01T18:22:13Z</time>
      </trkpt>
      <trkpt lat="59.4822701099" lon="17.7737948939">
        <ele>12.8</ele>
        <time>2012-08-01T18:22:14Z</time>
      </trkpt>
      <trkpt lat="59.4822846944" lon="17.77368375">
        <ele>13.2</ele>
        <time>2012-08-01T18:22:15Z</time>
      </trkpt>
      <trkpt lat="59.4822983569" lon="17.7735704267">
        <ele>13.6</ele>
        <time>2012-08-01T18:22:16Z</time>
      </trkpt>
      <trkpt lat="59.4823125223" lon="17.7734469613">
        <ele>14</ele>
        <time>2012-08-01T18:22:17Z</time>
      </trkpt>
      <trkpt lat="59.4823588742" lon="17.7730871263">
        <ele>14</ele>
        <time>2012-08-01T18:22:20Z</time>
      </trkpt>
      <trkpt lat="59.4824897995" lon="17.7720150813">
        <ele>14</ele>
        <time>2012-08-01T18:22:28Z</time>
      </trkpt>
      <trkpt lat="59.4826188807" lon="17.7709606383">
        <ele>14</ele>
        <time>2012-08-01T18:22:35Z</time>
      </trkpt>
      <trkpt lat="59.4827182901" lon="17.7701821274">
        <ele>13.6</ele>
        <time>2012-08-01T18:22:40Z</time>
      </trkpt>
      <trkpt lat="59.482735473" lon="17.7700260564">
        <ele>13.2</ele>
        <time>2012-08-01T18:22:41Z</time>
      </trkpt>
      <trkpt lat="59.4827555057" lon="17.7698685605">
        <ele>12.8</ele>
        <time>2012-08-01T18:22:42Z</time>
      </trkpt>
      <trkpt lat="59.4827745326" lon="17.769707628">
        <ele>12.4</ele>
        <time>2012-08-01T18:22:43Z</time>
      </trkpt>
      <trkpt lat="59.4827954035" lon="17.769542337">
        <ele>12</ele>
        <time>2012-08-01T18:22:44Z</time>
      </trkpt>
      <trkpt lat="59.4829383988" lon="17.7684436375">
        <ele>12</ele>
        <time>2012-08-01T18:22:50Z</time>
      </trkpt>
      <trkpt lat="59.4830108184" lon="17.7678368718">
        <ele>11.6</ele>
        <time>2012-08-01T18:22:53Z</time>
      </trkpt>
      <trkpt lat="59.4830358803" lon="17.7676232172">
        <ele>11</ele>
        <time>2012-08-01T18:22:54Z</time>
      </trkpt>
      <trkpt lat="59.483061948" lon="17.7674105684">
        <ele>10.6</ele>
        <time>2012-08-01T18:22:55Z</time>
      </trkpt>
      <trkpt lat="59.4830857526" lon="17.7671969137">
        <ele>9.4</ele>
        <time>2012-08-01T18:22:56Z</time>
      </trkpt>
      <trkpt lat="59.4831139157" lon="17.7669853546">
        <ele>8.8</ele>
        <time>2012-08-01T18:22:57Z</time>
      </trkpt>
      <trkpt lat="59.4831398996" lon="17.7667667546">
        <ele>8</ele>
        <time>2012-08-01T18:22:58Z</time>
      </trkpt>
      <trkpt lat="59.4831667217" lon="17.7665463945">
        <ele>7.2</ele>
        <time>2012-08-01T18:22:59Z</time>
      </trkpt>
      <trkpt lat="59.4831958907" lon="17.7663272916">
        <ele>6.4</ele>
        <time>2012-08-01T18:23:00Z</time>
      </trkpt>
      <trkpt lat="59.4832258979" lon="17.766093269">
        <ele>5.4</ele>
        <time>2012-08-01T18:23:01Z</time>
      </trkpt>
      <trkpt lat="59.4832512113" lon="17.7658659518">
        <ele>4.4</ele>
        <time>2012-08-01T18:23:02Z</time>
      </trkpt>
      <trkpt lat="59.4832794583" lon="17.765634779">
        <ele>3.6</ele>
        <time>2012-08-01T18:23:03Z</time>
      </trkpt>
      <trkpt lat="59.4833085435" lon="17.7654049473">
        <ele>2.6</ele>
        <time>2012-08-01T18:23:04Z</time>
      </trkpt>
      <trkpt lat="59.4833363714" lon="17.7651779655">
        <ele>1.6</ele>
        <time>2012-08-01T18:23:05Z</time>
      </trkpt>
      <trkpt lat="59.483443073" lon="17.7642398632">
        <ele>1.2</ele>
        <time>2012-08-01T18:23:09Z</time>
      </trkpt>
      <trkpt lat="59.4834745889" lon="17.7640061759">
        <ele>0.8</ele>
        <time>2012-08-01T18:23:10Z</time>
      </trkpt>
      <trkpt lat="59.4835005728" lon="17.7637682975">
        <ele>0.4</ele>
        <time>2012-08-01T18:23:11Z</time>
      </trkpt>
      <trkpt lat="59.4835323402" lon="17.7635327661">
        <ele>0</ele>
        <time>2012-08-01T18:23:12Z</time>
      </trkpt>
      <trkpt lat="59.4835621798" lon="17.7632940496">
        <ele>0</ele>
        <time>2012-08-01T18:23:13Z</time>
      </trkpt>
      <trkpt lat="59.4835871578" lon="17.7630494658">
        <ele>0</ele>
        <time>2012-08-01T18:23:14Z</time>
      </trkpt>
      <trkpt lat="59.4835964617" lon="17.7628061392">
        <ele>0</ele>
        <time>2012-08-01T18:23:15Z</time>
      </trkpt>
      <trkpt lat="59.48358984" lon="17.7625592085">
        <ele>0</ele>
        <time>2012-08-01T18:23:16Z</time>
      </trkpt>
      <trkpt lat="59.4835770157" lon="17.7623117748">
        <ele>0</ele>
        <time>2012-08-01T18:23:17Z</time>
      </trkpt>
      <trkpt lat="59.4835456674" lon="17.7620857987">
        <ele>0</ele>
        <time>2012-08-01T18:23:18Z</time>
      </trkpt>
      <trkpt lat="59.4835139" lon="17.7618802746">
        <ele>0</ele>
        <time>2012-08-01T18:23:19Z</time>
      </trkpt>
      <trkpt lat="59.4834396364" lon="17.7614885045">
        <ele>0</ele>
        <time>2012-08-01T18:23:21Z</time>
      </trkpt>
      <trkpt lat="59.4833966372" lon="17.7613065335">
        <ele>0</ele>
        <time>2012-08-01T18:23:22Z</time>
      </trkpt>
      <trkpt lat="59.4833463458" lon="17.7611351236">
        <ele>0</ele>
        <time>2012-08-01T18:23:23Z</time>
      </trkpt>
      <trkpt lat="59.4832916958" lon="17.7609694135">
        <ele>0</ele>
        <time>2012-08-01T18:23:24Z</time>
      </trkpt>
      <trkpt lat="59.4831701583" lon="17.7606757117">
        <ele>0</ele>
        <time>2012-08-01T18:23:26Z</time>
      </trkpt>
      <trkpt lat="59.4831040251" lon="17.7605467981">
        <ele>0</ele>
        <time>2012-08-01T18:23:27Z</time>
      </trkpt>
      <trkpt lat="59.4830394006" lon="17.7604271884">
        <ele>0</ele>
        <time>2012-08-01T18:23:28Z</time>
      </trkpt>
      <trkpt lat="59.4829725969" lon="17.7603142004">
        <ele>0</ele>
        <time>2012-08-01T18:23:29Z</time>
      </trkpt>
      <trkpt lat="59.4828960702" lon="17.7602214965">
        <ele>0</ele>
        <time>2012-08-01T18:23:30Z</time>
      </trkpt>
      <trkpt lat="59.4828170288" lon="17.760147652">
        <ele>0</ele>
        <time>2012-08-01T18:23:31Z</time>
      </trkpt>
      <trkpt lat="59.4824049746" lon="17.7599142161">
        <ele>0</ele>
        <time>2012-08-01T18:23:36Z</time>
      </trkpt>
      <trkpt lat="59.4819583032" lon="17.7597809439">
        <ele>0</ele>
        <time>2012-08-01T18:23:42Z</time>
      </trkpt>
      <trkpt lat="59.481568461" lon="17.7595624277">
        <ele>0</ele>
        <time>2012-08-01T18:23:48Z</time>
      </trkpt>
      <trkpt lat="59.4815117156" lon="17.7595173331">
        <ele>0</ele>
        <time>2012-08-01T18:23:49Z</time>
      </trkpt>
      <trkpt lat="59.4814569817" lon="17.7594667064">
        <ele>0</ele>
        <time>2012-08-01T18:23:50Z</time>
      </trkpt>
      <trkpt lat="59.4814038405" lon="17.7594104639">
        <ele>0</ele>
        <time>2012-08-01T18:23:51Z</time>
      </trkpt>
      <trkpt lat="59.4813512022" lon="17.7593494437">
        <ele>0</ele>
        <time>2012-08-01T18:23:52Z</time>
      </trkpt>
      <trkpt lat="59.4812963007" lon="17.7592904351">
        <ele>0</ele>
        <time>2012-08-01T18:23:53Z</time>
      </trkpt>
      <trkpt lat="59.4811884257" lon="17.7591420755">
        <ele>0</ele>
        <time>2012-08-01T18:23:55Z</time>
      </trkpt>
      <trkpt lat="59.4811409003" lon="17.7590652973">
        <ele>0</ele>
        <time>2012-08-01T18:23:56Z</time>
      </trkpt>
      <trkpt lat="59.4810895193" lon="17.7589869265">
        <ele>0</ele>
        <time>2012-08-01T18:23:57Z</time>
      </trkpt>
      <trkpt lat="59.4810425806" lon="17.7589073823">
        <ele>0</ele>
        <time>2012-08-01T18:23:58Z</time>
      </trkpt>
      <trkpt lat="59.48099933" lon="17.7588268322">
        <ele>0</ele>
        <time>2012-08-01T18:23:59Z</time>
      </trkpt>
      <trkpt lat="59.4809153434" lon="17.7586428495">
        <ele>0</ele>
        <time>2012-08-01T18:24:01Z</time>
      </trkpt>
      <trkpt lat="59.4808709193" lon="17.7585418476">
        <ele>0</ele>
        <time>2012-08-01T18:24:02Z</time>
      </trkpt>
      <trkpt lat="59.4808331169" lon="17.7584444499">
        <ele>0</ele>
        <time>2012-08-01T18:24:03Z</time>
      </trkpt>
      <trkpt lat="59.4807995893" lon="17.7583523328">
        <ele>0</ele>
        <time>2012-08-01T18:24:04Z</time>
      </trkpt>
      <trkpt lat="59.4807642177" lon="17.7582575336">
        <ele>0</ele>
        <time>2012-08-01T18:24:05Z</time>
      </trkpt>
      <trkpt lat="59.4807278403" lon="17.7581635725">
        <ele>0</ele>
        <time>2012-08-01T18:24:06Z</time>
      </trkpt>
      <trkpt lat="59.4806934745" lon="17.7580706172">
        <ele>0</ele>
        <time>2012-08-01T18:24:07Z</time>
      </trkpt>
      <trkpt lat="59.4806581029" lon="17.7579793383">
        <ele>0</ele>
        <time>2012-08-01T18:24:08Z</time>
      </trkpt>
      <trkpt lat="59.4806222283" lon="17.7578865507">
        <ele>0</ele>
        <time>2012-08-01T18:24:09Z</time>
      </trkpt>
      <trkpt lat="59.4805363139" lon="17.7576848821">
        <ele>0</ele>
        <time>2012-08-01T18:24:11Z</time>
      </trkpt>
      <trkpt lat="59.4801940809" lon="17.7568010108">
        <ele>0</ele>
        <time>2012-08-01T18:24:19Z</time>
      </trkpt>
      <trkpt lat="59.4801437895" lon="17.7566741926">
        <ele>0</ele>
        <time>2012-08-01T18:24:20Z</time>
      </trkpt>
      <trkpt lat="59.4798490819" lon="17.7558386849">
        <ele>0</ele>
        <time>2012-08-01T18:24:26Z</time>
      </trkpt>
      <trkpt lat="59.4795533684" lon="17.7552025825">
        <ele>0</ele>
        <time>2012-08-01T18:24:31Z</time>
      </trkpt>
      <trkpt lat="59.4792649473" lon="17.7545070524">
        <ele>0</ele>
        <time>2012-08-01T18:24:36Z</time>
      </trkpt>
      <trkpt lat="59.4792058549" lon="17.7543741993">
        <ele>0</ele>
        <time>2012-08-01T18:24:37Z</time>
      </trkpt>
      <trkpt lat="59.4791521269" lon="17.7542355627">
        <ele>0</ele>
        <time>2012-08-01T18:24:38Z</time>
      </trkpt>
      <trkpt lat="59.4790980636" lon="17.7540964231">
        <ele>0</ele>
        <time>2012-08-01T18:24:39Z</time>
      </trkpt>
      <trkpt lat="59.4790388874" lon="17.7539594629">
        <ele>0</ele>
        <time>2012-08-01T18:24:40Z</time>
      </trkpt>
      <trkpt lat="59.4789248936" lon="17.7536601452">
        <ele>0</ele>
        <time>2012-08-01T18:24:42Z</time>
      </trkpt>
      <trkpt lat="59.4788185273" lon="17.7533776752">
        <ele>0</ele>
        <time>2012-08-01T18:24:44Z</time>
      </trkpt>
      <trkpt lat="59.4787630391" lon="17.7532409664">
        <ele>0</ele>
        <time>2012-08-01T18:24:45Z</time>
      </trkpt>
      <trkpt lat="59.4787051202" lon="17.7531001505">
        <ele>0</ele>
        <time>2012-08-01T18:24:46Z</time>
      </trkpt>
      <trkpt lat="59.4786494643" lon="17.7529676326">
        <ele>0</ele>
        <time>2012-08-01T18:24:47Z</time>
      </trkpt>
      <trkpt lat="59.4785927189" lon="17.7528329355">
        <ele>0</ele>
        <time>2012-08-01T18:24:48Z</time>
      </trkpt>
      <trkpt lat="59.4785334588" lon="17.7526931254">
        <ele>0</ele>
        <time>2012-08-01T18:24:49Z</time>
      </trkpt>
      <trkpt lat="59.4782510726" lon="17.7520702664">
        <ele>0</ele>
        <time>2012-08-01T18:24:54Z</time>
      </trkpt>
      <trkpt lat="59.4779224183" lon="17.7513899076">
        <ele>0</ele>
        <time>2012-08-01T18:25:00Z</time>
      </trkpt>
      <trkpt lat="59.4776767448" lon="17.7507287433">
        <ele>0</ele>
        <time>2012-08-01T18:25:06Z</time>
      </trkpt>
      <trkpt lat="59.4776464862" lon="17.7506212874">
        <ele>0</ele>
        <time>2012-08-01T18:25:07Z</time>
      </trkpt>
      <trkpt lat="59.4775366833" lon="17.7503031943">
        <ele>0</ele>
        <time>2012-08-01T18:25:10Z</time>
      </trkpt>
      <trkpt lat="59.4773875693" lon="17.7498758012">
        <ele>0</ele>
        <time>2012-08-01T18:25:14Z</time>
      </trkpt>
      <trkpt lat="59.4773524491" lon="17.7497770624">
        <ele>0</ele>
        <time>2012-08-01T18:25:15Z</time>
      </trkpt>
      <trkpt lat="59.4772692169" lon="17.7493607334">
        <ele>0</ele>
        <time>2012-08-01T18:25:19Z</time>
      </trkpt>
      <trkpt lat="59.4772589071" lon="17.7492544509">
        <ele>0</ele>
        <time>2012-08-01T18:25:20Z</time>
      </trkpt>
      <trkpt lat="59.477237198" lon="17.749152527">
        <ele>0</ele>
        <time>2012-08-01T18:25:21Z</time>
      </trkpt>
      <trkpt lat="59.4771984736" lon="17.7490715579">
        <ele>0</ele>
        <time>2012-08-01T18:25:22Z</time>
      </trkpt>
      <trkpt lat="59.4771501101" lon="17.7490024072">
        <ele>0</ele>
        <time>2012-08-01T18:25:23Z</time>
      </trkpt>
      <trkpt lat="59.4769369584" lon="17.7487136508">
        <ele>0</ele>
        <time>2012-08-01T18:25:27Z</time>
      </trkpt>
      <trkpt lat="59.4768096373" lon="17.7483777042">
        <ele>0</ele>
        <time>2012-08-01T18:25:30Z</time>
      </trkpt>
      <trkpt lat="59.476769488" lon="17.7482487068">
        <ele>0</ele>
        <time>2012-08-01T18:25:31Z</time>
      </trkpt>
      <trkpt lat="59.4765461104" lon="17.7473577108">
        <ele>0</ele>
        <time>2012-08-01T18:25:37Z</time>
      </trkpt>
      <trkpt lat="59.4763220622" lon="17.7461868432">
        <ele>0</ele>
        <time>2012-08-01T18:25:44Z</time>
      </trkpt>
      <trkpt lat="59.4762970003" lon="17.746014176">
        <ele>0</ele>
        <time>2012-08-01T18:25:45Z</time>
      </trkpt>
      <trkpt lat="59.476190634" lon="17.7451220066">
        <ele>0</ele>
        <time>2012-08-01T18:25:50Z</time>
      </trkpt>
      <trkpt lat="59.476178564" lon="17.7449422987">
        <ele>0</ele>
        <time>2012-08-01T18:25:51Z</time>
      </trkpt>
      <trkpt lat="59.4761709365" lon="17.7447589027">
        <ele>0</ele>
        <time>2012-08-01T18:25:52Z</time>
      </trkpt>
      <trkpt lat="59.4761672485" lon="17.7445736627">
        <ele>0</ele>
        <time>2012-08-01T18:25:53Z</time>
      </trkpt>
      <trkpt lat="59.4761659912" lon="17.7443973914">
        <ele>0</ele>
        <time>2012-08-01T18:25:54Z</time>
      </trkpt>
      <trkpt lat="59.476166075" lon="17.7442096368">
        <ele>0</ele>
        <time>2012-08-01T18:25:55Z</time>
      </trkpt>
      <trkpt lat="59.4762167017" lon="17.7431113564">
        <ele>0</ele>
        <time>2012-08-01T18:26:01Z</time>
      </trkpt>
      <trkpt lat="59.4762288554" lon="17.7429293016">
        <ele>0</ele>
        <time>2012-08-01T18:26:02Z</time>
      </trkpt>
      <trkpt lat="59.4762402548" lon="17.7427425528">
        <ele>0</ele>
        <time>2012-08-01T18:26:03Z</time>
      </trkpt>
      <trkpt lat="59.4762565157" lon="17.7425550497">
        <ele>0</ele>
        <time>2012-08-01T18:26:04Z</time>
      </trkpt>
      <trkpt lat="59.4762750397" lon="17.7423556443">
        <ele>0</ele>
        <time>2012-08-01T18:26:05Z</time>
      </trkpt>
      <trkpt lat="59.4763214754" lon="17.7419809734">
        <ele>0</ele>
        <time>2012-08-01T18:26:07Z</time>
      </trkpt>
      <trkpt lat="59.4763508121" lon="17.7417920454">
        <ele>0</ele>
        <time>2012-08-01T18:26:08Z</time>
      </trkpt>
      <trkpt lat="59.4763791429" lon="17.7416047099">
        <ele>0</ele>
        <time>2012-08-01T18:26:09Z</time>
      </trkpt>
      <trkpt lat="59.4764103236" lon="17.7414128482">
        <ele>0</ele>
        <time>2012-08-01T18:26:10Z</time>
      </trkpt>
      <trkpt lat="59.4764463657" lon="17.7412109282">
        <ele>0</ele>
        <time>2012-08-01T18:26:11Z</time>
      </trkpt>
      <trkpt lat="59.4764834137" lon="17.7410204915">
        <ele>0</ele>
        <time>2012-08-01T18:26:12Z</time>
      </trkpt>
      <trkpt lat="59.476522641" lon="17.7408324855">
        <ele>0</ele>
        <time>2012-08-01T18:26:13Z</time>
      </trkpt>
      <trkpt lat="59.4765667298" lon="17.7406487542">
        <ele>0</ele>
        <time>2012-08-01T18:26:14Z</time>
      </trkpt>
      <trkpt lat="59.476614339" lon="17.7404685434">
        <ele>0</ele>
        <time>2012-08-01T18:26:15Z</time>
      </trkpt>
      <trkpt lat="59.4766591822" lon="17.7402910147">
        <ele>0</ele>
        <time>2012-08-01T18:26:16Z</time>
      </trkpt>
      <trkpt lat="59.4767105632" lon="17.7401210298">
        <ele>0</ele>
        <time>2012-08-01T18:26:17Z</time>
      </trkpt>
      <trkpt lat="59.4767610223" lon="17.7399507934">
        <ele>0</ele>
        <time>2012-08-01T18:26:18Z</time>
      </trkpt>
      <trkpt lat="59.4768742617" lon="17.7396158527">
        <ele>0</ele>
        <time>2012-08-01T18:26:20Z</time>
      </trkpt>
      <trkpt lat="59.4769291632" lon="17.7394478794">
        <ele>0</ele>
        <time>2012-08-01T18:26:21Z</time>
      </trkpt>
      <trkpt lat="59.4769807119" lon="17.7392751284">
        <ele>0</ele>
        <time>2012-08-01T18:26:22Z</time>
      </trkpt>
      <trkpt lat="59.4770273991" lon="17.7391000306">
        <ele>0</ele>
        <time>2012-08-01T18:26:23Z</time>
      </trkpt>
      <trkpt lat="59.4770752597" lon="17.7389314705">
        <ele>0</ele>
        <time>2012-08-01T18:26:24Z</time>
      </trkpt>
      <trkpt lat="59.4771212763" lon="17.7387628267">
        <ele>0</ele>
        <time>2012-08-01T18:26:25Z</time>
      </trkpt>
      <trkpt lat="59.4771676282" lon="17.7385909139">
        <ele>0</ele>
        <time>2012-08-01T18:26:26Z</time>
      </trkpt>
      <trkpt lat="59.4774786806" lon="17.7375516422">
        <ele>0</ele>
        <time>2012-08-01T18:26:32Z</time>
      </trkpt>
      <trkpt lat="59.4777790878" lon="17.7365640029">
        <ele>0</ele>
        <time>2012-08-01T18:26:38Z</time>
      </trkpt>
      <trkpt lat="59.4780281979" lon="17.7356192789">
        <ele>0</ele>
        <time>2012-08-01T18:26:44Z</time>
      </trkpt>
      <trkpt lat="59.4782492286" lon="17.7345544424">
        <ele>0</ele>
        <time>2012-08-01T18:26:51Z</time>
      </trkpt>
      <trkpt lat="59.4783986779" lon="17.7336419887">
        <ele>0</ele>
        <time>2012-08-01T18:26:57Z</time>
      </trkpt>
      <trkpt lat="59.4784955727" lon="17.7327998592">
        <ele>0</ele>
        <time>2012-08-01T18:27:03Z</time>
      </trkpt>
      <trkpt lat="59.4785247417" lon="17.7325056545">
        <ele>0</ele>
        <time>2012-08-01T18:27:05Z</time>
      </trkpt>
      <trkpt lat="59.4785345485" lon="17.7323607315">
        <ele>0</ele>
        <time>2012-08-01T18:27:06Z</time>
      </trkpt>
      <trkpt lat="59.4785482948" lon="17.7322148026">
        <ele>0</ele>
        <time>2012-08-01T18:27:07Z</time>
      </trkpt>
      <trkpt lat="59.4785589398" lon="17.732071053">
        <ele>0</ele>
        <time>2012-08-01T18:27:08Z</time>
      </trkpt>
      <trkpt lat="59.4785670703" lon="17.7319345957">
        <ele>0</ele>
        <time>2012-08-01T18:27:09Z</time>
      </trkpt>
      <trkpt lat="59.4786161882" lon="17.7309667377">
        <ele>0</ele>
        <time>2012-08-01T18:27:16Z</time>
      </trkpt>
      <trkpt lat="59.4786312756" lon="17.7299129652">
        <ele>0</ele>
        <time>2012-08-01T18:27:24Z</time>
      </trkpt>
      <trkpt lat="59.4786687427" lon="17.7294456743">
        <ele>0</ele>
        <time>2012-08-01T18:27:28Z</time>
      </trkpt>
      <trkpt lat="59.4787023541" lon="17.7292073769">
        <ele>0</ele>
        <time>2012-08-01T18:27:30Z</time>
      </trkpt>
      <trkpt lat="59.4787349597" lon="17.7289430956">
        <ele>0</ele>
        <time>2012-08-01T18:27:32Z</time>
      </trkpt>
      <trkpt lat="59.4787104846" lon="17.728686358">
        <ele>0</ele>
        <time>2012-08-01T18:27:34Z</time>
      </trkpt>
      <trkpt lat="59.4786840816" lon="17.7285592884">
        <ele>0</ele>
        <time>2012-08-01T18:27:35Z</time>
      </trkpt>
      <trkpt lat="59.4786595226" lon="17.7284374156">
        <ele>0</ele>
        <time>2012-08-01T18:27:36Z</time>
      </trkpt>
      <trkpt lat="59.4786419206" lon="17.728317722">
        <ele>0</ele>
        <time>2012-08-01T18:27:37Z</time>
      </trkpt>
      <trkpt lat="59.478632952" lon="17.7281976932">
        <ele>0</ele>
        <time>2012-08-01T18:27:38Z</time>
      </trkpt>
      <trkpt lat="59.4786260788" lon="17.7280782511">
        <ele>0</ele>
        <time>2012-08-01T18:27:39Z</time>
      </trkpt>
      <trkpt lat="59.4786161882" lon="17.7273368721">
        <ele>0</ele>
        <time>2012-08-01T18:27:45Z</time>
      </trkpt>
      <trkpt lat="59.4786156015" lon="17.7272132391">
        <ele>0</ele>
        <time>2012-08-01T18:27:46Z</time>
      </trkpt>
      <trkpt lat="59.4786129193" lon="17.7270937132">
        <ele>0</ele>
        <time>2012-08-01T18:27:47Z</time>
      </trkpt>
      <trkpt lat="59.4786105723" lon="17.72697754">
        <ele>0</ele>
        <time>2012-08-01T18:27:48Z</time>
      </trkpt>
      <trkpt lat="59.4786106561" lon="17.7268601096">
        <ele>0</ele>
        <time>2012-08-01T18:27:49Z</time>
      </trkpt>
      <trkpt lat="59.4786016037" lon="17.7262582054">
        <ele>0</ele>
        <time>2012-08-01T18:27:54Z</time>
      </trkpt>
      <trkpt lat="59.4785818224" lon="17.7253340171">
        <ele>0</ele>
        <time>2012-08-01T18:28:02Z</time>
      </trkpt>
      <trkpt lat="59.4785829959" lon="17.7252103002">
        <ele>0</ele>
        <time>2012-08-01T18:28:03Z</time>
      </trkpt>
      <trkpt lat="59.4785737758" lon="17.7248233079">
        <ele>0</ele>
        <time>2012-08-01T18:28:06Z</time>
      </trkpt>
      <trkpt lat="59.4785568443" lon="17.7238875526">
        <ele>0</ele>
        <time>2012-08-01T18:28:14Z</time>
      </trkpt>
      <trkpt lat="59.4785540783" lon="17.7237726368">
        <ele>0</ele>
        <time>2012-08-01T18:28:15Z</time>
      </trkpt>
      <trkpt lat="59.4785559223" lon="17.7236616604">
        <ele>0</ele>
        <time>2012-08-01T18:28:16Z</time>
      </trkpt>
      <trkpt lat="59.4785539107" lon="17.7235519413">
        <ele>0</ele>
        <time>2012-08-01T18:28:17Z</time>
      </trkpt>
      <trkpt lat="59.4785511447" lon="17.7234538731">
        <ele>0</ele>
        <time>2012-08-01T18:28:18Z</time>
      </trkpt>
      <trkpt lat="59.4785529887" lon="17.7232336806">
        <ele>0</ele>
        <time>2012-08-01T18:28:20Z</time>
      </trkpt>
      <trkpt lat="59.4785543298" lon="17.7230134043">
        <ele>0</ele>
        <time>2012-08-01T18:28:22Z</time>
      </trkpt>
      <trkpt lat="59.4785562576" lon="17.7227770347">
        <ele>0</ele>
        <time>2012-08-01T18:28:24Z</time>
      </trkpt>
      <trkpt lat="59.4785510608" lon="17.7224098236">
        <ele>0</ele>
        <time>2012-08-01T18:28:27Z</time>
      </trkpt>
      <trkpt lat="59.4785487139" lon="17.7222845142">
        <ele>0</ele>
        <time>2012-08-01T18:28:28Z</time>
      </trkpt>
      <trkpt lat="59.4785409187" lon="17.7221568579">
        <ele>0</ele>
        <time>2012-08-01T18:28:29Z</time>
      </trkpt>
      <trkpt lat="59.4785374822" lon="17.7220304588">
        <ele>0</ele>
        <time>2012-08-01T18:28:30Z</time>
      </trkpt>
      <trkpt lat="59.478533375" lon="17.7219100109">
        <ele>0</ele>
        <time>2012-08-01T18:28:31Z</time>
      </trkpt>
      <trkpt lat="59.4785257475" lon="17.7217883057">
        <ele>0</ele>
        <time>2012-08-01T18:28:32Z</time>
      </trkpt>
      <trkpt lat="59.4785200478" lon="17.7216669358">
        <ele>0</ele>
        <time>2012-08-01T18:28:33Z</time>
      </trkpt>
      <trkpt lat="59.4785195449" lon="17.721547829">
        <ele>0</ele>
        <time>2012-08-01T18:28:34Z</time>
      </trkpt>
      <trkpt lat="59.4785170303" lon="17.7214233578">
        <ele>0</ele>
        <time>2012-08-01T18:28:35Z</time>
      </trkpt>
      <trkpt lat="59.4785004342" lon="17.7206265744">
        <ele>0</ele>
        <time>2012-08-01T18:28:41Z</time>
      </trkpt>
      <trkpt lat="59.4784951536" lon="17.7198346525">
        <ele>0</ele>
        <time>2012-08-01T18:28:47Z</time>
      </trkpt>
      <trkpt lat="59.4785316986" lon="17.7187801257">
        <ele>0</ele>
        <time>2012-08-01T18:28:55Z</time>
      </trkpt>
      <trkpt lat="59.4786315271" lon="17.7176368345">
        <ele>0</ele>
        <time>2012-08-01T18:29:03Z</time>
      </trkpt>
      <trkpt lat="59.4787710019" lon="17.7165679746">
        <ele>0</ele>
        <time>2012-08-01T18:29:10Z</time>
      </trkpt>
      <trkpt lat="59.478790867" lon="17.7164188606">
        <ele>0</ele>
        <time>2012-08-01T18:29:11Z</time>
      </trkpt>
      <trkpt lat="59.4789382208" lon="17.7153632441">
        <ele>0</ele>
        <time>2012-08-01T18:29:18Z</time>
      </trkpt>
      <trkpt lat="59.4789616063" lon="17.7152117832">
        <ele>0</ele>
        <time>2012-08-01T18:29:19Z</time>
      </trkpt>
      <trkpt lat="59.4791023384" lon="17.7141005947">
        <ele>0</ele>
        <time>2012-08-01T18:29:26Z</time>
      </trkpt>
      <trkpt lat="59.4791211977" lon="17.7139409195">
        <ele>0</ele>
        <time>2012-08-01T18:29:27Z</time>
      </trkpt>
      <trkpt lat="59.4792457527" lon="17.7130109477">
        <ele>0</ele>
        <time>2012-08-01T18:29:33Z</time>
      </trkpt>
      <trkpt lat="59.4794085292" lon="17.7120820655">
        <ele>0</ele>
        <time>2012-08-01T18:29:39Z</time>
      </trkpt>
      <trkpt lat="59.4796236926" lon="17.7111852023">
        <ele>0</ele>
        <time>2012-08-01T18:29:45Z</time>
      </trkpt>
      <trkpt lat="59.4799111918" lon="17.7101407337">
        <ele>0</ele>
        <time>2012-08-01T18:29:52Z</time>
      </trkpt>
      <trkpt lat="59.4799979444" lon="17.7098635443">
        <ele>0</ele>
        <time>2012-08-01T18:29:54Z</time>
      </trkpt>
      <trkpt lat="59.4800370041" lon="17.7097278413">
        <ele>0</ele>
        <time>2012-08-01T18:29:55Z</time>
      </trkpt>
      <trkpt lat="59.4800781592" lon="17.7095915516">
        <ele>0</ele>
        <time>2012-08-01T18:29:56Z</time>
      </trkpt>
      <trkpt lat="59.4801245949" lon="17.7094497299">
        <ele>0</ele>
        <time>2012-08-01T18:29:57Z</time>
      </trkpt>
      <trkpt lat="59.4801675103" lon="17.7093105903">
        <ele>0</ele>
        <time>2012-08-01T18:29:58Z</time>
      </trkpt>
      <trkpt lat="59.4802924006" lon="17.7088764917">
        <ele>0</ele>
        <time>2012-08-01T18:30:01Z</time>
      </trkpt>
      <trkpt lat="59.4806125053" lon="17.7078785427">
        <ele>0</ele>
        <time>2012-08-01T18:30:08Z</time>
      </trkpt>
      <trkpt lat="59.4807389044" lon="17.7074499762">
        <ele>0</ele>
        <time>2012-08-01T18:30:11Z</time>
      </trkpt>
      <trkpt lat="59.4810562431" lon="17.7064635942">
        <ele>0</ele>
        <time>2012-08-01T18:30:18Z</time>
      </trkpt>
      <trkpt lat="59.4810963086" lon="17.7063219401">
        <ele>0</ele>
        <time>2012-08-01T18:30:19Z</time>
      </trkpt>
      <trkpt lat="59.4814099593" lon="17.7053319538">
        <ele>0</ele>
        <time>2012-08-01T18:30:26Z</time>
      </trkpt>
      <trkpt lat="59.4814979692" lon="17.7050612185">
        <ele>0</ele>
        <time>2012-08-01T18:30:28Z</time>
      </trkpt>
      <trkpt lat="59.4817973707" lon="17.7042441509">
        <ele>0</ele>
        <time>2012-08-01T18:30:35Z</time>
      </trkpt>
      <trkpt lat="59.4821577086" lon="17.703352652">
        <ele>0</ele>
        <time>2012-08-01T18:30:43Z</time>
      </trkpt>
      <trkpt lat="59.4822109337" lon="17.7032337966">
        <ele>0</ele>
        <time>2012-08-01T18:30:44Z</time>
      </trkpt>
      <trkpt lat="59.4823167971" lon="17.7029930685">
        <ele>0</ele>
        <time>2012-08-01T18:30:46Z</time>
      </trkpt>
      <trkpt lat="59.4823707765" lon="17.7028740455">
        <ele>0</ele>
        <time>2012-08-01T18:30:47Z</time>
      </trkpt>
      <trkpt lat="59.4824262647" lon="17.7027574533">
        <ele>0</ele>
        <time>2012-08-01T18:30:48Z</time>
      </trkpt>
      <trkpt lat="59.4824751311" lon="17.7026301322">
        <ele>0</ele>
        <time>2012-08-01T18:30:49Z</time>
      </trkpt>
      <trkpt lat="59.4825296135" lon="17.7025090137">
        <ele>0.4</ele>
        <time>2012-08-01T18:30:50Z</time>
      </trkpt>
      <trkpt lat="59.4825856046" lon="17.7023918348">
        <ele>0.4</ele>
        <time>2012-08-01T18:30:51Z</time>
      </trkpt>
      <trkpt lat="59.4827467885" lon="17.7020403817">
        <ele>0.8</ele>
        <time>2012-08-01T18:30:54Z</time>
      </trkpt>
      <trkpt lat="59.4828004327" lon="17.7019229513">
        <ele>1.2</ele>
        <time>2012-08-01T18:30:55Z</time>
      </trkpt>
      <trkpt lat="59.4828535739" lon="17.7018042636">
        <ele>1.6</ele>
        <time>2012-08-01T18:30:56Z</time>
      </trkpt>
      <trkpt lat="59.4829047035" lon="17.7016895992">
        <ele>2</ele>
        <time>2012-08-01T18:30:57Z</time>
      </trkpt>
      <trkpt lat="59.482958683" lon="17.7015625296">
        <ele>2.4</ele>
        <time>2012-08-01T18:30:58Z</time>
      </trkpt>
      <trkpt lat="59.4831129937" lon="17.7012215539">
        <ele>2.4</ele>
        <time>2012-08-01T18:31:01Z</time>
      </trkpt>
      <trkpt lat="59.4832148338" lon="17.700997841">
        <ele>2.8</ele>
        <time>2012-08-01T18:31:03Z</time>
      </trkpt>
      <trkpt lat="59.4832689809" lon="17.7008893792">
        <ele>3.2</ele>
        <time>2012-08-01T18:31:04Z</time>
      </trkpt>
      <trkpt lat="59.4833237147" lon="17.7007803307">
        <ele>3.6</ele>
        <time>2012-08-01T18:31:05Z</time>
      </trkpt>
      <trkpt lat="59.4833795382" lon="17.7006584579">
        <ele>4</ele>
        <time>2012-08-01T18:31:06Z</time>
      </trkpt>
      <trkpt lat="59.4834338529" lon="17.7005411951">
        <ele>4.6</ele>
        <time>2012-08-01T18:31:07Z</time>
      </trkpt>
      <trkpt lat="59.4835450807" lon="17.7003150514">
        <ele>4.6</ele>
        <time>2012-08-01T18:31:09Z</time>
      </trkpt>
      <trkpt lat="59.4837511078" lon="17.6998599981">
        <ele>5</ele>
        <time>2012-08-01T18:31:13Z</time>
      </trkpt>
      <trkpt lat="59.4838013992" lon="17.6997486864">
        <ele>5.4</ele>
        <time>2012-08-01T18:31:14Z</time>
      </trkpt>
      <trkpt lat="59.483853367" lon="17.6996421525">
        <ele>5.8</ele>
        <time>2012-08-01T18:31:15Z</time>
      </trkpt>
      <trkpt lat="59.4839025687" lon="17.6995328525">
        <ele>6.2</ele>
        <time>2012-08-01T18:31:16Z</time>
      </trkpt>
      <trkpt lat="59.483957554" lon="17.699403436">
        <ele>6.8</ele>
        <time>2012-08-01T18:31:17Z</time>
      </trkpt>
      <trkpt lat="59.4841342444" lon="17.6990130909">
        <ele>6.8</ele>
        <time>2012-08-01T18:31:20Z</time>
      </trkpt>
      <trkpt lat="59.4845500705" lon="17.6981124557">
        <ele>6.8</ele>
        <time>2012-08-01T18:31:27Z</time>
      </trkpt>
      <trkpt lat="59.4846148626" lon="17.6979718075">
        <ele>6.8</ele>
        <time>2012-08-01T18:31:28Z</time>
      </trkpt>
      <trkpt lat="59.484864727" lon="17.6974258105">
        <ele>6.2</ele>
        <time>2012-08-01T18:31:32Z</time>
      </trkpt>
      <trkpt lat="59.4849291" lon="17.6972859166">
        <ele>5.8</ele>
        <time>2012-08-01T18:31:33Z</time>
      </trkpt>
      <trkpt lat="59.4849959037" lon="17.6971425023">
        <ele>5.2</ele>
        <time>2012-08-01T18:31:34Z</time>
      </trkpt>
      <trkpt lat="59.4850622046" lon="17.6969952323">
        <ele>4.2</ele>
        <time>2012-08-01T18:31:35Z</time>
      </trkpt>
      <trkpt lat="59.485200003" lon="17.6966872813">
        <ele>4.2</ele>
        <time>2012-08-01T18:31:37Z</time>
      </trkpt>
      <trkpt lat="59.4852683155" lon="17.6965400113">
        <ele>3.8</ele>
        <time>2012-08-01T18:31:38Z</time>
      </trkpt>
      <trkpt lat="59.4853386396" lon="17.6963903944">
        <ele>3.4</ele>
        <time>2012-08-01T18:31:39Z</time>
      </trkpt>
      <trkpt lat="59.4854075389" lon="17.69624237">
        <ele>3</ele>
        <time>2012-08-01T18:31:40Z</time>
      </trkpt>
      <trkpt lat="59.4854823892" lon="17.6960921664">
        <ele>2.6</ele>
        <time>2012-08-01T18:31:41Z</time>
      </trkpt>
      <trkpt lat="59.4855573234" lon="17.695924696">
        <ele>2</ele>
        <time>2012-08-01T18:31:42Z</time>
      </trkpt>
      <trkpt lat="59.4856308327" lon="17.6957586506">
        <ele>1.4</ele>
        <time>2012-08-01T18:31:43Z</time>
      </trkpt>
      <trkpt lat="59.4856985584" lon="17.6955895877">
        <ele>0.8</ele>
        <time>2012-08-01T18:31:44Z</time>
      </trkpt>
      <trkpt lat="59.4857796114" lon="17.6954180102">
        <ele>0.2</ele>
        <time>2012-08-01T18:31:45Z</time>
      </trkpt>
      <trkpt lat="59.4858623408" lon="17.6952466003">
        <ele>0</ele>
        <time>2012-08-01T18:31:46Z</time>
      </trkpt>
      <trkpt lat="59.4859461598" lon="17.6950732626">
        <ele>0</ele>
        <time>2012-08-01T18:31:47Z</time>
      </trkpt>
      <trkpt lat="59.4860285538" lon="17.694890621">
        <ele>0</ele>
        <time>2012-08-01T18:31:48Z</time>
      </trkpt>
      <trkpt lat="59.486115055" lon="17.6947075603">
        <ele>0</ele>
        <time>2012-08-01T18:31:49Z</time>
      </trkpt>
      <trkpt lat="59.4861983711" lon="17.6945311213">
        <ele>0</ele>
        <time>2012-08-01T18:31:50Z</time>
      </trkpt>
      <trkpt lat="59.4862848723" lon="17.6943370803">
        <ele>0</ele>
        <time>2012-08-01T18:31:51Z</time>
      </trkpt>
      <trkpt lat="59.4863681884" lon="17.6941541873">
        <ele>0</ele>
        <time>2012-08-01T18:31:52Z</time>
      </trkpt>
      <trkpt lat="59.4864448828" lon="17.6939668518">
        <ele>0</ele>
        <time>2012-08-01T18:31:53Z</time>
      </trkpt>
      <trkpt lat="59.48652954" lon="17.6938034048">
        <ele>0</ele>
        <time>2012-08-01T18:31:54Z</time>
      </trkpt>
      <trkpt lat="59.4866103415" lon="17.6936426399">
        <ele>0</ele>
        <time>2012-08-01T18:31:55Z</time>
      </trkpt>
      <trkpt lat="59.4866926518" lon="17.6934899217">
        <ele>0</ele>
        <time>2012-08-01T18:31:56Z</time>
      </trkpt>
      <trkpt lat="59.4867758002" lon="17.6933497763">
        <ele>0</ele>
        <time>2012-08-01T18:31:57Z</time>
      </trkpt>
      <trkpt lat="59.4868613794" lon="17.6932014167">
        <ele>0</ele>
        <time>2012-08-01T18:31:58Z</time>
      </trkpt>
      <trkpt lat="59.4869405045" lon="17.6930609361">
        <ele>0</ele>
        <time>2012-08-01T18:31:59Z</time>
      </trkpt>
      <trkpt lat="59.4870173666" lon="17.6929222994">
        <ele>0</ele>
        <time>2012-08-01T18:32:00Z</time>
      </trkpt>
      <trkpt lat="59.4873808058" lon="17.6922691818">
        <ele>0</ele>
        <time>2012-08-01T18:32:05Z</time>
      </trkpt>
      <trkpt lat="59.4877797842" lon="17.6915828718">
        <ele>0</ele>
        <time>2012-08-01T18:32:11Z</time>
      </trkpt>
      <trkpt lat="59.4878403015" lon="17.6914727336">
        <ele>0</ele>
        <time>2012-08-01T18:32:12Z</time>
      </trkpt>
      <trkpt lat="59.488246656" lon="17.6907870104">
        <ele>0</ele>
        <time>2012-08-01T18:32:18Z</time>
      </trkpt>
      <trkpt lat="59.4886984404" lon="17.6900035542">
        <ele>0</ele>
        <time>2012-08-01T18:32:25Z</time>
      </trkpt>
      <trkpt lat="59.4887649089" lon="17.6898951763">
        <ele>0</ele>
        <time>2012-08-01T18:32:26Z</time>
      </trkpt>
      <trkpt lat="59.4892185373" lon="17.68925438">
        <ele>0</ele>
        <time>2012-08-01T18:32:32Z</time>
      </trkpt>
      <trkpt lat="59.4894586788" lon="17.6889911045">
        <ele>0</ele>
        <time>2012-08-01T18:32:35Z</time>
      </trkpt>
      <trkpt lat="59.4895425816" lon="17.6889027593">
        <ele>0</ele>
        <time>2012-08-01T18:32:36Z</time>
      </trkpt>
      <trkpt lat="59.489620198" lon="17.688821371">
        <ele>0</ele>
        <time>2012-08-01T18:32:37Z</time>
      </trkpt>
      <trkpt lat="59.4896988202" lon="17.6887410724">
        <ele>0</ele>
        <time>2012-08-01T18:32:38Z</time>
      </trkpt>
      <trkpt lat="59.4897752631" lon="17.6886628693">
        <ele>0</ele>
        <time>2012-08-01T18:32:39Z</time>
      </trkpt>
      <trkpt lat="59.4902386984" lon="17.6882169522">
        <ele>0</ele>
        <time>2012-08-01T18:32:45Z</time>
      </trkpt>
      <trkpt lat="59.4907187298" lon="17.6877494098">
        <ele>0</ele>
        <time>2012-08-01T18:32:51Z</time>
      </trkpt>
      <trkpt lat="59.4908029679" lon="17.6876738889">
        <ele>0</ele>
        <time>2012-08-01T18:32:52Z</time>
      </trkpt>
      <trkpt lat="59.4908904749" lon="17.6876019722">
        <ele>0</ele>
        <time>2012-08-01T18:32:53Z</time>
      </trkpt>
      <trkpt lat="59.4909794907" lon="17.6875320672">
        <ele>0</ele>
        <time>2012-08-01T18:32:54Z</time>
      </trkpt>
      <trkpt lat="59.4910701829" lon="17.6874619107">
        <ele>0</ele>
        <time>2012-08-01T18:32:55Z</time>
      </trkpt>
      <trkpt lat="59.4912591109" lon="17.6873213462">
        <ele>0</ele>
        <time>2012-08-01T18:32:57Z</time>
      </trkpt>
      <trkpt lat="59.4913549998" lon="17.687257057">
        <ele>0</ele>
        <time>2012-08-01T18:32:58Z</time>
      </trkpt>
      <trkpt lat="59.4914527328" lon="17.6871905048">
        <ele>0</ele>
        <time>2012-08-01T18:32:59Z</time>
      </trkpt>
      <trkpt lat="59.4915444308" lon="17.687117666">
        <ele>0</ele>
        <time>2012-08-01T18:33:00Z</time>
      </trkpt>
      <trkpt lat="59.4916396491" lon="17.6870541312">
        <ele>0</ele>
        <time>2012-08-01T18:33:01Z</time>
      </trkpt>
      <trkpt lat="59.4921677927" lon="17.6866272411">
        <ele>0</ele>
        <time>2012-08-01T18:33:07Z</time>
      </trkpt>
      <trkpt lat="59.4925477442" lon="17.6860800706">
        <ele>0</ele>
        <time>2012-08-01T18:33:12Z</time>
      </trkpt>
      <trkpt lat="59.4929685994" lon="17.6853779189">
        <ele>0</ele>
        <time>2012-08-01T18:33:18Z</time>
      </trkpt>
      <trkpt lat="59.4930957528" lon="17.6851294794">
        <ele>0</ele>
        <time>2012-08-01T18:33:20Z</time>
      </trkpt>
      <trkpt lat="59.4935419213" lon="17.6842920437">
        <ele>0</ele>
        <time>2012-08-01T18:33:27Z</time>
      </trkpt>
      <trkpt lat="59.493884322" lon="17.683557454">
        <ele>0</ele>
        <time>2012-08-01T18:33:33Z</time>
      </trkpt>
      <trkpt lat="59.4942597473" lon="17.6827321721">
        <ele>0</ele>
        <time>2012-08-01T18:33:40Z</time>
      </trkpt>
      <trkpt lat="59.494308027" lon="17.6826195194">
        <ele>0</ele>
        <time>2012-08-01T18:33:41Z</time>
      </trkpt>
      <trkpt lat="59.4946193308" lon="17.6818158628">
        <ele>0</ele>
        <time>2012-08-01T18:33:48Z</time>
      </trkpt>
      <trkpt lat="59.4948898985" lon="17.6810723045">
        <ele>0</ele>
        <time>2012-08-01T18:33:54Z</time>
      </trkpt>
      <trkpt lat="59.4951649925" lon="17.6803414028">
        <ele>0</ele>
        <time>2012-08-01T18:34:00Z</time>
      </trkpt>
      <trkpt lat="59.4954713509" lon="17.6795342258">
        <ele>0</ele>
        <time>2012-08-01T18:34:07Z</time>
      </trkpt>
      <trkpt lat="59.4955169484" lon="17.67942392">
        <ele>0</ele>
        <time>2012-08-01T18:34:08Z</time>
      </trkpt>
      <trkpt lat="59.495561624" lon="17.6793136142">
        <ele>0</ele>
        <time>2012-08-01T18:34:09Z</time>
      </trkpt>
      <trkpt lat="59.4956039526" lon="17.6792055715">
        <ele>0</ele>
        <time>2012-08-01T18:34:10Z</time>
      </trkpt>
      <trkpt lat="59.4956478737" lon="17.6791048211">
        <ele>0</ele>
        <time>2012-08-01T18:34:11Z</time>
      </trkpt>
      <trkpt lat="59.4958867579" lon="17.6785799465">
        <ele>0</ele>
        <time>2012-08-01T18:34:16Z</time>
      </trkpt>
      <trkpt lat="59.4962565673" lon="17.6777503061">
        <ele>0</ele>
        <time>2012-08-01T18:34:23Z</time>
      </trkpt>
      <trkpt lat="59.4966692921" lon="17.6768469049">
        <ele>0</ele>
        <time>2012-08-01T18:34:30Z</time>
      </trkpt>
      <trkpt lat="59.4967289712" lon="17.6767113696">
        <ele>0</ele>
        <time>2012-08-01T18:34:31Z</time>
      </trkpt>
      <trkpt lat="59.497140271" lon="17.6757943897">
        <ele>0</ele>
        <time>2012-08-01T18:34:38Z</time>
      </trkpt>
      <trkpt lat="59.4971979385" lon="17.6756708405">
        <ele>0</ele>
        <time>2012-08-01T18:34:39Z</time>
      </trkpt>
      <trkpt lat="59.4972561089" lon="17.6755425974">
        <ele>0</ele>
        <time>2012-08-01T18:34:40Z</time>
      </trkpt>
      <trkpt lat="59.4973131896" lon="17.6754146896">
        <ele>0</ele>
        <time>2012-08-01T18:34:41Z</time>
      </trkpt>
      <trkpt lat="59.4973731202" lon="17.6752825909">
        <ele>0</ele>
        <time>2012-08-01T18:34:42Z</time>
      </trkpt>
      <trkpt lat="59.4974291113" lon="17.6751538449">
        <ele>0</ele>
        <time>2012-08-01T18:34:43Z</time>
      </trkpt>
      <trkpt lat="59.4977246571" lon="17.6745423853">
        <ele>0</ele>
        <time>2012-08-01T18:34:48Z</time>
      </trkpt>
      <trkpt lat="59.4981750166" lon="17.673744177">
        <ele>0</ele>
        <time>2012-08-01T18:34:55Z</time>
      </trkpt>
      <trkpt lat="59.4982409821" lon="17.6736333682">
        <ele>0</ele>
        <time>2012-08-01T18:34:56Z</time>
      </trkpt>
      <trkpt lat="59.4986704707" lon="17.6729009578">
        <ele>0</ele>
        <time>2012-08-01T18:35:03Z</time>
      </trkpt>
      <trkpt lat="59.4987870629" lon="17.6727075874">
        <ele>0</ele>
        <time>2012-08-01T18:35:05Z</time>
      </trkpt>
      <trkpt lat="59.4992080857" lon="17.671994623">
        <ele>0</ele>
        <time>2012-08-01T18:35:12Z</time>
      </trkpt>
      <trkpt lat="59.4996404242" lon="17.6712842569">
        <ele>0</ele>
        <time>2012-08-01T18:35:19Z</time>
      </trkpt>
      <trkpt lat="59.4997063059" lon="17.671173532">
        <ele>0</ele>
        <time>2012-08-01T18:35:20Z</time>
      </trkpt>
      <trkpt lat="59.5001678133" lon="17.6704251122">
        <ele>0</ele>
        <time>2012-08-01T18:35:27Z</time>
      </trkpt>
      <trkpt lat="59.5003567413" lon="17.6701152334">
        <ele>0</ele>
        <time>2012-08-01T18:35:30Z</time>
      </trkpt>
      <trkpt lat="59.5006112158" lon="17.669691193">
        <ele>0</ele>
        <time>2012-08-01T18:35:34Z</time>
      </trkpt>
      <trkpt lat="59.5006677936" lon="17.6695891853">
        <ele>0</ele>
        <time>2012-08-01T18:35:35Z</time>
      </trkpt>
      <trkpt lat="59.5007237847" lon="17.6694859203">
        <ele>0</ele>
        <time>2012-08-01T18:35:36Z</time>
      </trkpt>
      <trkpt lat="59.500779692" lon="17.6693815656">
        <ele>0</ele>
        <time>2012-08-01T18:35:37Z</time>
      </trkpt>
      <trkpt lat="59.5008355993" lon="17.6692776301">
        <ele>0</ele>
        <time>2012-08-01T18:35:38Z</time>
      </trkpt>
      <trkpt lat="59.501213623" lon="17.6684805952">
        <ele>0</ele>
        <time>2012-08-01T18:35:45Z</time>
      </trkpt>
      <trkpt lat="59.5016515772" lon="17.6677195187">
        <ele>0</ele>
        <time>2012-08-01T18:35:52Z</time>
      </trkpt>
      <trkpt lat="59.5017175428" lon="17.6676279045">
        <ele>0</ele>
        <time>2012-08-01T18:35:53Z</time>
      </trkpt>
      <trkpt lat="59.5021761165" lon="17.6669790617">
        <ele>0</ele>
        <time>2012-08-01T18:36:00Z</time>
      </trkpt>
      <trkpt lat="59.5026460897" lon="17.6663584658">
        <ele>0</ele>
        <time>2012-08-01T18:36:07Z</time>
      </trkpt>
      <trkpt lat="59.5027123905" lon="17.6662697853">
        <ele>0</ele>
        <time>2012-08-01T18:36:08Z</time>
      </trkpt>
      <trkpt lat="59.5031310664" lon="17.6657240398">
        <ele>0</ele>
        <time>2012-08-01T18:36:14Z</time>
      </trkpt>
      <trkpt lat="59.5035449646" lon="17.6651628716">
        <ele>0</ele>
        <time>2012-08-01T18:36:20Z</time>
      </trkpt>
      <trkpt lat="59.5039847629" lon="17.6645270206">
        <ele>0</ele>
        <time>2012-08-01T18:36:27Z</time>
      </trkpt>
      <trkpt lat="59.5044181072" lon="17.663917405">
        <ele>0</ele>
        <time>2012-08-01T18:36:34Z</time>
      </trkpt>
      <trkpt lat="59.5048608391" lon="17.6632269041">
        <ele>0</ele>
        <time>2012-08-01T18:36:41Z</time>
      </trkpt>
      <trkpt lat="59.5052495916" lon="17.6624397599">
        <ele>0</ele>
        <time>2012-08-01T18:36:48Z</time>
      </trkpt>
      <trkpt lat="59.5053075944" lon="17.6623232515">
        <ele>0</ele>
        <time>2012-08-01T18:36:49Z</time>
      </trkpt>
      <trkpt lat="59.5057302936" lon="17.6615676232">
        <ele>0</ele>
        <time>2012-08-01T18:36:56Z</time>
      </trkpt>
      <trkpt lat="59.5060182119" lon="17.6613211115">
        <ele>0</ele>
        <time>2012-08-01T18:37:00Z</time>
      </trkpt>
      <trkpt lat="59.5063243188" lon="17.6613312536">
        <ele>0</ele>
        <time>2012-08-01T18:37:04Z</time>
      </trkpt>
      <trkpt lat="59.5064611953" lon="17.6614711475">
        <ele>0</ele>
        <time>2012-08-01T18:37:06Z</time>
      </trkpt>
      <trkpt lat="59.5065384764" lon="17.6614589099">
        <ele>0</ele>
        <time>2012-08-01T18:37:07Z</time>
      </trkpt>
      <trkpt lat="59.506636377" lon="17.6612679703">
        <ele>0</ele>
        <time>2012-08-01T18:37:09Z</time>
      </trkpt>
      <trkpt lat="59.5067087128" lon="17.6608737695">
        <ele>0</ele>
        <time>2012-08-01T18:37:12Z</time>
      </trkpt>
      <trkpt lat="59.5068309209" lon="17.6604584464">
        <ele>0</ele>
        <time>2012-08-01T18:37:15Z</time>
      </trkpt>
      <trkpt lat="59.5068714055" lon="17.6603152835">
        <ele>0</ele>
        <time>2012-08-01T18:37:16Z</time>
      </trkpt>
      <trkpt lat="59.5071653587" lon="17.659394448">
        <ele>0</ele>
        <time>2012-08-01T18:37:23Z</time>
      </trkpt>
      <trkpt lat="59.5074568812" lon="17.6585418411">
        <ele>0</ele>
        <time>2012-08-01T18:37:30Z</time>
      </trkpt>
      <trkpt lat="59.5077883015" lon="17.6577297188">
        <ele>0</ele>
        <time>2012-08-01T18:37:37Z</time>
      </trkpt>
      <trkpt lat="59.5081797362" lon="17.6569393895">
        <ele>0</ele>
        <time>2012-08-01T18:37:44Z</time>
      </trkpt>
      <trkpt lat="59.5086077999" lon="17.6562369024">
        <ele>0</ele>
        <time>2012-08-01T18:37:51Z</time>
      </trkpt>
      <trkpt lat="59.508670245" lon="17.6561415164">
        <ele>0</ele>
        <time>2012-08-01T18:37:52Z</time>
      </trkpt>
      <trkpt lat="59.5090312535" lon="17.6556187373">
        <ele>0</ele>
        <time>2012-08-01T18:37:58Z</time>
      </trkpt>
      <trkpt lat="59.5092018251" lon="17.6553688729">
        <ele>0</ele>
        <time>2012-08-01T18:38:01Z</time>
      </trkpt>
      <trkpt lat="59.5093735703" lon="17.6551022446">
        <ele>0</ele>
        <time>2012-08-01T18:38:04Z</time>
      </trkpt>
      <trkpt lat="59.5096489995" lon="17.6546487">
        <ele>0</ele>
        <time>2012-08-01T18:38:09Z</time>
      </trkpt>
      <trkpt lat="59.5100522527" lon="17.6540411799">
        <ele>0</ele>
        <time>2012-08-01T18:38:16Z</time>
      </trkpt>
      <trkpt lat="59.5102205612" lon="17.6538246754">
        <ele>0</ele>
        <time>2012-08-01T18:38:19Z</time>
      </trkpt>
      <trkpt lat="59.5102305357" lon="17.653693834">
        <ele>0</ele>
        <time>2012-08-01T18:38:20Z</time>
      </trkpt>
      <trkpt lat="59.5101484769" lon="17.6534949315">
        <ele>0</ele>
        <time>2012-08-01T18:38:22Z</time>
      </trkpt>
      <trkpt lat="59.5099683499" lon="17.653289994">
        <ele>0</ele>
        <time>2012-08-01T18:38:25Z</time>
      </trkpt>
      <trkpt lat="59.5097783322" lon="17.6528353598">
        <ele>0</ele>
        <time>2012-08-01T18:38:29Z</time>
      </trkpt>
      <trkpt lat="59.5097377638" lon="17.6527040154">
        <ele>0</ele>
        <time>2012-08-01T18:38:30Z</time>
      </trkpt>
      <trkpt lat="59.5097077566" lon="17.6525681448">
        <ele>0</ele>
        <time>2012-08-01T18:38:31Z</time>
      </trkpt>
      <trkpt lat="59.5096063356" lon="17.6521772968">
        <ele>0</ele>
        <time>2012-08-01T18:38:34Z</time>
      </trkpt>
      <trkpt lat="59.5093661942" lon="17.6511025696">
        <ele>0</ele>
        <time>2012-08-01T18:38:42Z</time>
      </trkpt>
      <trkpt lat="59.5091556409" lon="17.6500774632">
        <ele>0</ele>
        <time>2012-08-01T18:38:50Z</time>
      </trkpt>
      <trkpt lat="59.5089503681" lon="17.6491088509">
        <ele>0</ele>
        <time>2012-08-01T18:38:58Z</time>
      </trkpt>
      <trkpt lat="59.5088668844" lon="17.6486324237">
        <ele>0</ele>
        <time>2012-08-01T18:39:03Z</time>
      </trkpt>
      <trkpt lat="59.508793459" lon="17.6482439226">
        <ele>0</ele>
        <time>2012-08-01T18:39:07Z</time>
      </trkpt>
      <trkpt lat="59.5087688162" lon="17.6480471156">
        <ele>0</ele>
        <time>2012-08-01T18:39:09Z</time>
      </trkpt>
      <trkpt lat="59.5087341989" lon="17.6478537451">
        <ele>0</ele>
        <time>2012-08-01T18:39:11Z</time>
      </trkpt>
      <trkpt lat="59.5087156749" lon="17.6477730274">
        <ele>0</ele>
        <time>2012-08-01T18:39:12Z</time>
      </trkpt>
      <trkpt lat="59.50869757" lon="17.6476727799">
        <ele>0</ele>
        <time>2012-08-01T18:39:13Z</time>
      </trkpt>
      <trkpt lat="59.5086889367" lon="17.6475807467">
        <ele>0</ele>
        <time>2012-08-01T18:39:14Z</time>
      </trkpt>
      <trkpt lat="59.5086802195" lon="17.6474965086">
        <ele>0</ele>
        <time>2012-08-01T18:39:15Z</time>
      </trkpt>
      <trkpt lat="59.5086706641" lon="17.6474124381">
        <ele>0</ele>
        <time>2012-08-01T18:39:16Z</time>
      </trkpt>
      <trkpt lat="59.5086583427" lon="17.6473207401">
        <ele>0</ele>
        <time>2012-08-01T18:39:17Z</time>
      </trkpt>
      <trkpt lat="59.508640154" lon="17.6472226719">
        <ele>0</ele>
        <time>2012-08-01T18:39:18Z</time>
      </trkpt>
      <trkpt lat="59.5086231387" lon="17.6471277888">
        <ele>0</ele>
        <time>2012-08-01T18:39:19Z</time>
      </trkpt>
      <trkpt lat="59.5086033575" lon="17.6470395274">
        <ele>0</ele>
        <time>2012-08-01T18:39:20Z</time>
      </trkpt>
      <trkpt lat="59.5085549101" lon="17.6467587337">
        <ele>0</ele>
        <time>2012-08-01T18:39:23Z</time>
      </trkpt>
      <trkpt lat="59.5085376434" lon="17.6466680416">
        <ele>0</ele>
        <time>2012-08-01T18:39:24Z</time>
      </trkpt>
      <trkpt lat="59.5085212148" lon="17.6465728232">
        <ele>0</ele>
        <time>2012-08-01T18:39:25Z</time>
      </trkpt>
      <trkpt lat="59.5085041158" lon="17.6464776886">
        <ele>0</ele>
        <time>2012-08-01T18:39:26Z</time>
      </trkpt>
      <trkpt lat="59.5083944805" lon="17.6457847569">
        <ele>0</ele>
        <time>2012-08-01T18:39:33Z</time>
      </trkpt>
      <trkpt lat="59.5082505633" lon="17.6449090999">
        <ele>0</ele>
        <time>2012-08-01T18:39:40Z</time>
      </trkpt>
      <trkpt lat="59.5081223202" lon="17.6440772801">
        <ele>0</ele>
        <time>2012-08-01T18:39:45Z</time>
      </trkpt>
      <trkpt lat="59.5080352323" lon="17.643539665">
        <ele>0</ele>
        <time>2012-08-01T18:39:48Z</time>
      </trkpt>
      <trkpt lat="59.5080094998" lon="17.6433584484">
        <ele>0</ele>
        <time>2012-08-01T18:39:49Z</time>
      </trkpt>
      <trkpt lat="59.5079857791" lon="17.6431727055">
        <ele>0</ele>
        <time>2012-08-01T18:39:50Z</time>
      </trkpt>
      <trkpt lat="59.5079638185" lon="17.642998781">
        <ele>0</ele>
        <time>2012-08-01T18:39:51Z</time>
      </trkpt>
      <trkpt lat="59.5079415226" lon="17.6428325679">
        <ele>0</ele>
        <time>2012-08-01T18:39:52Z</time>
      </trkpt>
      <trkpt lat="59.5079229148" lon="17.6426640918">
        <ele>0</ele>
        <time>2012-08-01T18:39:53Z</time>
      </trkpt>
      <trkpt lat="59.5078337314" lon="17.641832272">
        <ele>0</ele>
        <time>2012-08-01T18:39:58Z</time>
      </trkpt>
      <trkpt lat="59.5077434583" lon="17.640880172">
        <ele>0</ele>
        <time>2012-08-01T18:40:04Z</time>
      </trkpt>
      <trkpt lat="59.5076344098" lon="17.6398130723">
        <ele>0</ele>
        <time>2012-08-01T18:40:11Z</time>
      </trkpt>
      <trkpt lat="59.5075285464" lon="17.6387322263">
        <ele>0</ele>
        <time>2012-08-01T18:40:18Z</time>
      </trkpt>
      <trkpt lat="59.5075126208" lon="17.638579089">
        <ele>0</ele>
        <time>2012-08-01T18:40:19Z</time>
      </trkpt>
      <trkpt lat="59.5074938454" lon="17.6382692101">
        <ele>0</ele>
        <time>2012-08-01T18:40:21Z</time>
      </trkpt>
      <trkpt lat="59.5074919175" lon="17.638116911">
        <ele>0</ele>
        <time>2012-08-01T18:40:22Z</time>
      </trkpt>
      <trkpt lat="59.5074939292" lon="17.6379660368">
        <ele>0</ele>
        <time>2012-08-01T18:40:23Z</time>
      </trkpt>
      <trkpt lat="59.5074957732" lon="17.6378166714">
        <ele>0</ele>
        <time>2012-08-01T18:40:24Z</time>
      </trkpt>
      <trkpt lat="59.5074990421" lon="17.6376671383">
        <ele>0</ele>
        <time>2012-08-01T18:40:25Z</time>
      </trkpt>
      <trkpt lat="59.507550507" lon="17.6369289443">
        <ele>0</ele>
        <time>2012-08-01T18:40:30Z</time>
      </trkpt>
      <trkpt lat="59.5076758164" lon="17.6360935203">
        <ele>0</ele>
        <time>2012-08-01T18:40:36Z</time>
      </trkpt>
      <trkpt lat="59.5078968471" lon="17.6352055419">
        <ele>0</ele>
        <time>2012-08-01T18:40:43Z</time>
      </trkpt>
      <trkpt lat="59.5079339789" lon="17.6350912966">
        <ele>0</ele>
        <time>2012-08-01T18:40:44Z</time>
      </trkpt>
      <trkpt lat="59.5082505633" lon="17.6341944333">
        <ele>0</ele>
        <time>2012-08-01T18:40:52Z</time>
      </trkpt>
      <trkpt lat="59.5083328735" lon="17.6339758333">
        <ele>0</ele>
        <time>2012-08-01T18:40:54Z</time>
      </trkpt>
      <trkpt lat="59.5086456861" lon="17.6330825742">
        <ele>0</ele>
        <time>2012-08-01T18:41:02Z</time>
      </trkpt>
      <trkpt lat="59.5087650443" lon="17.6327324623">
        <ele>0</ele>
        <time>2012-08-01T18:41:05Z</time>
      </trkpt>
      <trkpt lat="59.508801757" lon="17.6326232461">
        <ele>0</ele>
        <time>2012-08-01T18:41:06Z</time>
      </trkpt>
      <trkpt lat="59.5088380507" lon="17.6325150358">
        <ele>0</ele>
        <time>2012-08-01T18:41:07Z</time>
      </trkpt>
      <trkpt lat="59.5088789543" lon="17.6324053167">
        <ele>0</ele>
        <time>2012-08-01T18:41:08Z</time>
      </trkpt>
      <trkpt lat="59.5089179302" lon="17.6322882216">
        <ele>0</ele>
        <time>2012-08-01T18:41:09Z</time>
      </trkpt>
      <trkpt lat="59.5089634439" lon="17.632162996">
        <ele>0</ele>
        <time>2012-08-01T18:41:10Z</time>
      </trkpt>
      <trkpt lat="59.509000911" lon="17.6320470743">
        <ele>0</ele>
        <time>2012-08-01T18:41:11Z</time>
      </trkpt>
      <trkpt lat="59.5090422337" lon="17.6319279675">
        <ele>0</ele>
        <time>2012-08-01T18:41:12Z</time>
      </trkpt>
      <trkpt lat="59.5090824669" lon="17.6318143928">
        <ele>0</ele>
        <time>2012-08-01T18:41:13Z</time>
      </trkpt>
      <trkpt lat="59.5092390408" lon="17.6313662964">
        <ele>0</ele>
        <time>2012-08-01T18:41:17Z</time>
      </trkpt>
      <trkpt lat="59.5093160704" lon="17.6311488699">
        <ele>0</ele>
        <time>2012-08-01T18:41:19Z</time>
      </trkpt>
      <trkpt lat="59.5093576446" lon="17.631037223">
        <ele>0</ele>
        <time>2012-08-01T18:41:20Z</time>
      </trkpt>
      <trkpt lat="59.5093977939" lon="17.630931192">
        <ele>0</ele>
        <time>2012-08-01T18:41:21Z</time>
      </trkpt>
      <trkpt lat="59.5094354287" lon="17.6308254962">
        <ele>0</ele>
        <time>2012-08-01T18:41:22Z</time>
      </trkpt>
      <trkpt lat="59.5094702974" lon="17.63071628">
        <ele>0</ele>
        <time>2012-08-01T18:41:23Z</time>
      </trkpt>
      <trkpt lat="59.5095447286" lon="17.6305118455">
        <ele>0</ele>
        <time>2012-08-01T18:41:25Z</time>
      </trkpt>
      <trkpt lat="59.5098954273" lon="17.6295429817">
        <ele>0</ele>
        <time>2012-08-01T18:41:34Z</time>
      </trkpt>
      <trkpt lat="59.5102175438" lon="17.6286464537">
        <ele>0</ele>
        <time>2012-08-01T18:41:42Z</time>
      </trkpt>
      <trkpt lat="59.5103697591" lon="17.628216546">
        <ele>0</ele>
        <time>2012-08-01T18:41:46Z</time>
      </trkpt>
      <trkpt lat="59.5107093937" lon="17.6272698942">
        <ele>0</ele>
        <time>2012-08-01T18:41:55Z</time>
      </trkpt>
      <trkpt lat="59.5108181907" lon="17.6269690678">
        <ele>0</ele>
        <time>2012-08-01T18:41:58Z</time>
      </trkpt>
      <trkpt lat="59.511093117" lon="17.6262017887">
        <ele>0</ele>
        <time>2012-08-01T18:42:05Z</time>
      </trkpt>
      <trkpt lat="59.5112104636" lon="17.6258528502">
        <ele>0</ele>
        <time>2012-08-01T18:42:08Z</time>
      </trkpt>
      <trkpt lat="59.5112511159" lon="17.6257369285">
        <ele>0</ele>
        <time>2012-08-01T18:42:09Z</time>
      </trkpt>
      <trkpt lat="59.5112903431" lon="17.6256333282">
        <ele>0</ele>
        <time>2012-08-01T18:42:10Z</time>
      </trkpt>
      <trkpt lat="59.5113244575" lon="17.6255238606">
        <ele>0</ele>
        <time>2012-08-01T18:42:11Z</time>
      </trkpt>
      <trkpt lat="59.5113599967" lon="17.6254096992">
        <ele>0</ele>
        <time>2012-08-01T18:42:12Z</time>
      </trkpt>
      <trkpt lat="59.5113957874" lon="17.6253043387">
        <ele>0</ele>
        <time>2012-08-01T18:42:13Z</time>
      </trkpt>
      <trkpt lat="59.5114317458" lon="17.6252025824">
        <ele>0</ele>
        <time>2012-08-01T18:42:14Z</time>
      </trkpt>
      <trkpt lat="59.5114684585" lon="17.6250992336">
        <ele>0</ele>
        <time>2012-08-01T18:42:15Z</time>
      </trkpt>
      <trkpt lat="59.5115059256" lon="17.6249966391">
        <ele>0</ele>
        <time>2012-08-01T18:42:16Z</time>
      </trkpt>
      <trkpt lat="59.5116507648" lon="17.6245797234">
        <ele>0</ele>
        <time>2012-08-01T18:42:20Z</time>
      </trkpt>
      <trkpt lat="59.5117186582" lon="17.6243632189">
        <ele>0</ele>
        <time>2012-08-01T18:42:22Z</time>
      </trkpt>
      <trkpt lat="59.5118240187" lon="17.6240207345">
        <ele>0</ele>
        <time>2012-08-01T18:42:25Z</time>
      </trkpt>
      <trkpt lat="59.5121088357" lon="17.6230334305">
        <ele>0</ele>
        <time>2012-08-01T18:42:33Z</time>
      </trkpt>
      <trkpt lat="59.512142028" lon="17.622908624">
        <ele>0</ele>
        <time>2012-08-01T18:42:34Z</time>
      </trkpt>
      <trkpt lat="59.5123006135" lon="17.6222359765">
        <ele>0</ele>
        <time>2012-08-01T18:42:39Z</time>
      </trkpt>
      <trkpt lat="59.5123304531" lon="17.6220965017">
        <ele>0</ele>
        <time>2012-08-01T18:42:40Z</time>
      </trkpt>
      <trkpt lat="59.5123590354" lon="17.6219581166">
        <ele>0</ele>
        <time>2012-08-01T18:42:41Z</time>
      </trkpt>
      <trkpt lat="59.5123875339" lon="17.6218218269">
        <ele>0</ele>
        <time>2012-08-01T18:42:42Z</time>
      </trkpt>
      <trkpt lat="59.5125858496" lon="17.6207354488">
        <ele>0</ele>
        <time>2012-08-01T18:42:50Z</time>
      </trkpt>
      <trkpt lat="59.5126068882" lon="17.6206003326">
        <ele>0</ele>
        <time>2012-08-01T18:42:51Z</time>
      </trkpt>
      <trkpt lat="59.5127230613" lon="17.6198218217">
        <ele>0</ele>
        <time>2012-08-01T18:42:57Z</time>
      </trkpt>
      <trkpt lat="59.5128242308" lon="17.6188455818">
        <ele>0</ele>
        <time>2012-08-01T18:43:04Z</time>
      </trkpt>
      <trkpt lat="59.5128581775" lon="17.6184453461">
        <ele>0</ele>
        <time>2012-08-01T18:43:07Z</time>
      </trkpt>
      <trkpt lat="59.5128662242" lon="17.618318025">
        <ele>0</ele>
        <time>2012-08-01T18:43:08Z</time>
      </trkpt>
      <trkpt lat="59.5128746061" lon="17.6181943082">
        <ele>0</ele>
        <time>2012-08-01T18:43:09Z</time>
      </trkpt>
      <trkpt lat="59.512882988" lon="17.6180711781">
        <ele>0</ele>
        <time>2012-08-01T18:43:10Z</time>
      </trkpt>
      <trkpt lat="59.5128900288" lon="17.6179496405">
        <ele>0</ele>
        <time>2012-08-01T18:43:11Z</time>
      </trkpt>
      <trkpt lat="59.5129275797" lon="17.6172961038">
        <ele>0</ele>
        <time>2012-08-01T18:43:16Z</time>
      </trkpt>
      <trkpt lat="59.5129594309" lon="17.6169096982">
        <ele>0</ele>
        <time>2012-08-01T18:43:19Z</time>
      </trkpt>
      <trkpt lat="59.5129764461" lon="17.6167820418">
        <ele>0</ele>
        <time>2012-08-01T18:43:20Z</time>
      </trkpt>
      <trkpt lat="59.5130143323" lon="17.6165268968">
        <ele>0</ele>
        <time>2012-08-01T18:43:22Z</time>
      </trkpt>
      <trkpt lat="59.5130578344" lon="17.6163047765">
        <ele>0</ele>
        <time>2012-08-01T18:43:24Z</time>
      </trkpt>
      <trkpt lat="59.5130747658" lon="17.6161932134">
        <ele>0</ele>
        <time>2012-08-01T18:43:25Z</time>
      </trkpt>
      <trkpt lat="59.513086752" lon="17.616077627">
        <ele>0</ele>
        <time>2012-08-01T18:43:26Z</time>
      </trkpt>
      <trkpt lat="59.5130942118" lon="17.6159535748">
        <ele>0</ele>
        <time>2012-08-01T18:43:27Z</time>
      </trkpt>
      <trkpt lat="59.5130998277" lon="17.6158309477">
        <ele>0</ele>
        <time>2012-08-01T18:43:28Z</time>
      </trkpt>
      <trkpt lat="59.5131031805" lon="17.6155866991">
        <ele>0</ele>
        <time>2012-08-01T18:43:30Z</time>
      </trkpt>
      <trkpt lat="59.5130246421" lon="17.6151220065">
        <ele>0</ele>
        <time>2012-08-01T18:43:34Z</time>
      </trkpt>
      <trkpt lat="59.5130076268" lon="17.6149955237">
        <ele>0</ele>
        <time>2012-08-01T18:43:35Z</time>
      </trkpt>
      <trkpt lat="59.5130060343" lon="17.6147320806">
        <ele>0</ele>
        <time>2012-08-01T18:43:37Z</time>
      </trkpt>
      <trkpt lat="59.5130327725" lon="17.6142111455">
        <ele>0</ele>
        <time>2012-08-01T18:43:41Z</time>
      </trkpt>
      <trkpt lat="59.5130601813" lon="17.6134763043">
        <ele>0</ele>
        <time>2012-08-01T18:43:46Z</time>
      </trkpt>
      <trkpt lat="59.5130710778" lon="17.6133279447">
        <ele>0</ele>
        <time>2012-08-01T18:43:47Z</time>
      </trkpt>
      <trkpt lat="59.5130830639" lon="17.6131790821">
        <ele>0</ele>
        <time>2012-08-01T18:43:48Z</time>
      </trkpt>
      <trkpt lat="59.5130933737" lon="17.6130292138">
        <ele>0</ele>
        <time>2012-08-01T18:43:49Z</time>
      </trkpt>
      <trkpt lat="59.5131033481" lon="17.612878591">
        <ele>0</ele>
        <time>2012-08-01T18:43:50Z</time>
      </trkpt>
      <trkpt lat="59.5131395579" lon="17.6124335121">
        <ele>0</ele>
        <time>2012-08-01T18:43:53Z</time>
      </trkpt>
      <trkpt lat="59.513295126" lon="17.6114689231">
        <ele>0</ele>
        <time>2012-08-01T18:44:00Z</time>
      </trkpt>
      <trkpt lat="59.5135186713" lon="17.610567785">
        <ele>0</ele>
        <time>2012-08-01T18:44:07Z</time>
      </trkpt>
      <trkpt lat="59.5138069248" lon="17.6097486219">
        <ele>0</ele>
        <time>2012-08-01T18:44:14Z</time>
      </trkpt>
      <trkpt lat="59.5138552884" lon="17.6096489611">
        <ele>0</ele>
        <time>2012-08-01T18:44:15Z</time>
      </trkpt>
      <trkpt lat="59.5140437135" lon="17.6092602924">
        <ele>0</ele>
        <time>2012-08-01T18:44:19Z</time>
      </trkpt>
      <trkpt lat="59.5143104255" lon="17.6087990365">
        <ele>0</ele>
        <time>2012-08-01T18:44:24Z</time>
      </trkpt>
      <trkpt lat="59.5143623095" lon="17.608702477">
        <ele>0</ele>
        <time>2012-08-01T18:44:25Z</time>
      </trkpt>
      <trkpt lat="59.5144107569" lon="17.6086053308">
        <ele>0.4</ele>
        <time>2012-08-01T18:44:26Z</time>
      </trkpt>
      <trkpt lat="59.5144567735" lon="17.6085077654">
        <ele>0.8</ele>
        <time>2012-08-01T18:44:27Z</time>
      </trkpt>
      <trkpt lat="59.5145063105" lon="17.6084066797">
        <ele>1.2</ele>
        <time>2012-08-01T18:44:28Z</time>
      </trkpt>
      <trkpt lat="59.5147571808" lon="17.6078787038">
        <ele>1.2</ele>
        <time>2012-08-01T18:44:33Z</time>
      </trkpt>
      <trkpt lat="59.5151145012" lon="17.6071135202">
        <ele>1.2</ele>
        <time>2012-08-01T18:44:40Z</time>
      </trkpt>
      <trkpt lat="59.5154542196" lon="17.606276336">
        <ele>1.2</ele>
        <time>2012-08-01T18:44:47Z</time>
      </trkpt>
      <trkpt lat="59.5155491865" lon="17.606015156">
        <ele>1.2</ele>
        <time>2012-08-01T18:44:49Z</time>
      </trkpt>
      <trkpt lat="59.5158797687" lon="17.6050798198">
        <ele>1.2</ele>
        <time>2012-08-01T18:44:56Z</time>
      </trkpt>
      <trkpt lat="59.5161697824" lon="17.6040638497">
        <ele>1.2</ele>
        <time>2012-08-01T18:45:03Z</time>
      </trkpt>
      <trkpt lat="59.5162530985" lon="17.6037703156">
        <ele>1.2</ele>
        <time>2012-08-01T18:45:05Z</time>
      </trkpt>
      <trkpt lat="59.5165363229" lon="17.6027328878">
        <ele>1.2</ele>
        <time>2012-08-01T18:45:12Z</time>
      </trkpt>
      <trkpt lat="59.5168050466" lon="17.6017252996">
        <ele>1.2</ele>
        <time>2012-08-01T18:45:19Z</time>
      </trkpt>
      <trkpt lat="59.5168871892" lon="17.6014482778">
        <ele>1.2</ele>
        <time>2012-08-01T18:45:21Z</time>
      </trkpt>
      <trkpt lat="59.5171735149" lon="17.6004592974">
        <ele>1.2</ele>
        <time>2012-08-01T18:45:28Z</time>
      </trkpt>
      <trkpt lat="59.5172134128" lon="17.6003177271">
        <ele>1.2</ele>
        <time>2012-08-01T18:45:29Z</time>
      </trkpt>
      <trkpt lat="59.5174761853" lon="17.5995235421">
        <ele>1.2</ele>
        <time>2012-08-01T18:45:35Z</time>
      </trkpt>
      <trkpt lat="59.5178535385" lon="17.5987250823">
        <ele>1.2</ele>
        <time>2012-08-01T18:45:42Z</time>
      </trkpt>
      <trkpt lat="59.5182973601" lon="17.5979867207">
        <ele>1.2</ele>
        <time>2012-08-01T18:45:49Z</time>
      </trkpt>
      <trkpt lat="59.5183654211" lon="17.5978940169">
        <ele>1.2</ele>
        <time>2012-08-01T18:45:50Z</time>
      </trkpt>
      <trkpt lat="59.5187975919" lon="17.5973303342">
        <ele>1.2</ele>
        <time>2012-08-01T18:45:56Z</time>
      </trkpt>
      <trkpt lat="59.5192917887" lon="17.5966881968">
        <ele>1.2</ele>
        <time>2012-08-01T18:46:03Z</time>
      </trkpt>
      <trkpt lat="59.5194289166" lon="17.5965044655">
        <ele>1.2</ele>
        <time>2012-08-01T18:46:05Z</time>
      </trkpt>
      <trkpt lat="59.5198403841" lon="17.5959766573">
        <ele>1.2</ele>
        <time>2012-08-01T18:46:11Z</time>
      </trkpt>
      <trkpt lat="59.5202240236" lon="17.5956017349">
        <ele>1.2</ele>
        <time>2012-08-01T18:46:16Z</time>
      </trkpt>
      <trkpt lat="59.5208172945" lon="17.5952545566">
        <ele>1.2</ele>
        <time>2012-08-01T18:46:23Z</time>
      </trkpt>
      <trkpt lat="59.5210097429" lon="17.5952211967">
        <ele>1.2</ele>
        <time>2012-08-01T18:46:25Z</time>
      </trkpt>
      <trkpt lat="59.5212086454" lon="17.5952707337">
        <ele>1.2</ele>
        <time>2012-08-01T18:46:27Z</time>
      </trkpt>
      <trkpt lat="59.5213049534" lon="17.5953198516">
        <ele>0.8</ele>
        <time>2012-08-01T18:46:28Z</time>
      </trkpt>
      <trkpt lat="59.5213987469" lon="17.5953799498">
        <ele>0.4</ele>
        <time>2012-08-01T18:46:29Z</time>
      </trkpt>
      <trkpt lat="59.5214921213" lon="17.5954512798">
        <ele>0</ele>
        <time>2012-08-01T18:46:30Z</time>
      </trkpt>
      <trkpt lat="59.5215880102" lon="17.5955356855">
        <ele>0</ele>
        <time>2012-08-01T18:46:31Z</time>
      </trkpt>
      <trkpt lat="59.5216781995" lon="17.595622522">
        <ele>0</ele>
        <time>2012-08-01T18:46:32Z</time>
      </trkpt>
      <trkpt lat="59.5221056764" lon="17.5960258591">
        <ele>0</ele>
        <time>2012-08-01T18:46:37Z</time>
      </trkpt>
      <trkpt lat="59.5223232705" lon="17.5962307965">
        <ele>0</ele>
        <time>2012-08-01T18:46:40Z</time>
      </trkpt>
      <trkpt lat="59.5223938461" lon="17.5962667549">
        <ele>0</ele>
        <time>2012-08-01T18:46:41Z</time>
      </trkpt>
      <trkpt lat="59.5225944249" lon="17.596241693">
        <ele>0</ele>
        <time>2012-08-01T18:46:44Z</time>
      </trkpt>
      <trkpt lat="59.5227726241" lon="17.5959992884">
        <ele>0</ele>
        <time>2012-08-01T18:46:47Z</time>
      </trkpt>
      <trkpt lat="59.522893072" lon="17.5955765892">
        <ele>0</ele>
        <time>2012-08-01T18:46:50Z</time>
      </trkpt>
      <trkpt lat="59.5231494744" lon="17.5945596971">
        <ele>0</ele>
        <time>2012-08-01T18:46:57Z</time>
      </trkpt>
      <trkpt lat="59.5231870253" lon="17.5944192165">
        <ele>0</ele>
        <time>2012-08-01T18:46:58Z</time>
      </trkpt>
      <trkpt lat="59.5234379794" lon="17.593469631">
        <ele>0</ele>
        <time>2012-08-01T18:47:05Z</time>
      </trkpt>
      <trkpt lat="59.5235058727" lon="17.5931983089">
        <ele>0</ele>
        <time>2012-08-01T18:47:07Z</time>
      </trkpt>
      <trkpt lat="59.5237374646" lon="17.5922908844">
        <ele>0</ele>
        <time>2012-08-01T18:47:14Z</time>
      </trkpt>
      <trkpt lat="59.52376831" lon="17.5921699336">
        <ele>0.2</ele>
        <time>2012-08-01T18:47:15Z</time>
      </trkpt>
      <trkpt lat="59.5238013347" lon="17.5920453786">
        <ele>0.6</ele>
        <time>2012-08-01T18:47:16Z</time>
      </trkpt>
      <trkpt lat="59.5238307552" lon="17.5919292892">
        <ele>1</ele>
        <time>2012-08-01T18:47:17Z</time>
      </trkpt>
      <trkpt lat="59.5238604271" lon="17.5918152116">
        <ele>1.4</ele>
        <time>2012-08-01T18:47:18Z</time>
      </trkpt>
      <trkpt lat="59.5239574895" lon="17.5914443125">
        <ele>1.4</ele>
        <time>2012-08-01T18:47:21Z</time>
      </trkpt>
      <trkpt lat="59.5239895922" lon="17.5913172429">
        <ele>1.4</ele>
        <time>2012-08-01T18:47:22Z</time>
      </trkpt>
      <trkpt lat="59.5241561405" lon="17.5906782907">
        <ele>1.4</ele>
        <time>2012-08-01T18:47:27Z</time>
      </trkpt>
      <trkpt lat="59.5243766683" lon="17.5898239236">
        <ele>1.8</ele>
        <time>2012-08-01T18:47:34Z</time>
      </trkpt>
      <trkpt lat="59.5244079328" lon="17.5897011288">
        <ele>2.2</ele>
        <time>2012-08-01T18:47:35Z</time>
      </trkpt>
      <trkpt lat="59.5244414604" lon="17.5895776634">
        <ele>2.6</ele>
        <time>2012-08-01T18:47:36Z</time>
      </trkpt>
      <trkpt lat="59.5244756586" lon="17.5894546171">
        <ele>3.4</ele>
        <time>2012-08-01T18:47:37Z</time>
      </trkpt>
      <trkpt lat="59.5246260299" lon="17.5888916049">
        <ele>3.4</ele>
        <time>2012-08-01T18:47:41Z</time>
      </trkpt>
      <trkpt lat="59.5249167142" lon="17.5878147822">
        <ele>3.4</ele>
        <time>2012-08-01T18:47:48Z</time>
      </trkpt>
      <trkpt lat="59.5249589589" lon="17.5876513351">
        <ele>3.4</ele>
        <time>2012-08-01T18:47:49Z</time>
      </trkpt>
      <trkpt lat="59.5252277665" lon="17.5866887577">
        <ele>3.4</ele>
        <time>2012-08-01T18:47:55Z</time>
      </trkpt>
      <trkpt lat="59.5253188777" lon="17.5863865064">
        <ele>3.4</ele>
        <time>2012-08-01T18:47:57Z</time>
      </trkpt>
      <trkpt lat="59.5254999268" lon="17.5858042996">
        <ele>2.6</ele>
        <time>2012-08-01T18:48:01Z</time>
      </trkpt>
      <trkpt lat="59.5255487094" lon="17.5856670041">
        <ele>2.2</ele>
        <time>2012-08-01T18:48:02Z</time>
      </trkpt>
      <trkpt lat="59.5256005934" lon="17.5855281999">
        <ele>1.6</ele>
        <time>2012-08-01T18:48:03Z</time>
      </trkpt>
      <trkpt lat="59.5256499628" lon="17.5853923293">
        <ele>1.2</ele>
        <time>2012-08-01T18:48:04Z</time>
      </trkpt>
      <trkpt lat="59.5260081214" lon="17.584439894">
        <ele>1.2</ele>
        <time>2012-08-01T18:48:11Z</time>
      </trkpt>
      <trkpt lat="59.5263926829" lon="17.5835107603">
        <ele>1.2</ele>
        <time>2012-08-01T18:48:18Z</time>
      </trkpt>
      <trkpt lat="59.5267891468" lon="17.5826467541">
        <ele>1.2</ele>
        <time>2012-08-01T18:48:25Z</time>
      </trkpt>
      <trkpt lat="59.5269062419" lon="17.5824096301">
        <ele>1.2</ele>
        <time>2012-08-01T18:48:27Z</time>
      </trkpt>
      <trkpt lat="59.5273179609" lon="17.5816338015">
        <ele>1.2</ele>
        <time>2012-08-01T18:48:34Z</time>
      </trkpt>
      <trkpt lat="59.5273788135" lon="17.5815286925">
        <ele>1.2</ele>
        <time>2012-08-01T18:48:35Z</time>
      </trkpt>
      <trkpt lat="59.5278090564" lon="17.5808106151">
        <ele>1.2</ele>
        <time>2012-08-01T18:48:42Z</time>
      </trkpt>
      <trkpt lat="59.5278715854" lon="17.5807091103">
        <ele>1.2</ele>
        <time>2012-08-01T18:48:43Z</time>
      </trkpt>
      <trkpt lat="59.5279934582" lon="17.5805116327">
        <ele>0.8</ele>
        <time>2012-08-01T18:48:45Z</time>
      </trkpt>
      <trkpt lat="59.5280568254" lon="17.5804093735">
        <ele>0.4</ele>
        <time>2012-08-01T18:48:46Z</time>
      </trkpt>
      <trkpt lat="59.5281200249" lon="17.5803102157">
        <ele>0</ele>
        <time>2012-08-01T18:48:47Z</time>
      </trkpt>
      <trkpt lat="59.5281836435" lon="17.5802159193">
        <ele>0</ele>
        <time>2012-08-01T18:48:48Z</time>
      </trkpt>
      <trkpt lat="59.5282485194" lon="17.5801273226">
        <ele>0</ele>
        <time>2012-08-01T18:48:49Z</time>
      </trkpt>
      <trkpt lat="59.5283101264" lon="17.5800450123">
        <ele>0</ele>
        <time>2012-08-01T18:48:50Z</time>
      </trkpt>
      <trkpt lat="59.5287871403" lon="17.5794467123">
        <ele>0</ele>
        <time>2012-08-01T18:48:57Z</time>
      </trkpt>
      <trkpt lat="59.5289199096" lon="17.5793027113">
        <ele>0</ele>
        <time>2012-08-01T18:48:59Z</time>
      </trkpt>
      <trkpt lat="59.5289840311" lon="17.5792364943">
        <ele>0</ele>
        <time>2012-08-01T18:49:00Z</time>
      </trkpt>
      <trkpt lat="59.5290477336" lon="17.5791681818">
        <ele>0.6</ele>
        <time>2012-08-01T18:49:01Z</time>
      </trkpt>
      <trkpt lat="59.5291126933" lon="17.5790945049">
        <ele>1</ele>
        <time>2012-08-01T18:49:02Z</time>
      </trkpt>
      <trkpt lat="59.5291795809" lon="17.5790187325">
        <ele>1.6</ele>
        <time>2012-08-01T18:49:03Z</time>
      </trkpt>
      <trkpt lat="59.5294492266" lon="17.5786992983">
        <ele>1.6</ele>
        <time>2012-08-01T18:49:07Z</time>
      </trkpt>
      <trkpt lat="59.5299606063" lon="17.5781036805">
        <ele>1.6</ele>
        <time>2012-08-01T18:49:14Z</time>
      </trkpt>
      <trkpt lat="59.530436782" lon="17.5775569291">
        <ele>1.6</ele>
        <time>2012-08-01T18:49:21Z</time>
      </trkpt>
      <trkpt lat="59.5307528635" lon="17.5772224075">
        <ele>1.6</ele>
        <time>2012-08-01T18:49:26Z</time>
      </trkpt>
      <trkpt lat="59.531167097" lon="17.5767814358">
        <ele>1.6</ele>
        <time>2012-08-01T18:49:32Z</time>
      </trkpt>
      <trkpt lat="59.5316346394" lon="17.5762889991">
        <ele>1.6</ele>
        <time>2012-08-01T18:49:38Z</time>
      </trkpt>
      <trkpt lat="59.5321108989" lon="17.5757538986">
        <ele>1.2</ele>
        <time>2012-08-01T18:49:44Z</time>
      </trkpt>
      <trkpt lat="59.5321915328" lon="17.5756600213">
        <ele>0.6</ele>
        <time>2012-08-01T18:49:45Z</time>
      </trkpt>
      <trkpt lat="59.5322727534" lon="17.5755673175">
        <ele>0.2</ele>
        <time>2012-08-01T18:49:46Z</time>
      </trkpt>
      <trkpt lat="59.5323553989" lon="17.5754732726">
        <ele>0</ele>
        <time>2012-08-01T18:49:47Z</time>
      </trkpt>
      <trkpt lat="59.532436871" lon="17.5753778866">
        <ele>0</ele>
        <time>2012-08-01T18:49:48Z</time>
      </trkpt>
      <trkpt lat="59.532849931" lon="17.5748921555">
        <ele>0</ele>
        <time>2012-08-01T18:49:53Z</time>
      </trkpt>
      <trkpt lat="59.533338512" lon="17.5743030756">
        <ele>0</ele>
        <time>2012-08-01T18:49:59Z</time>
      </trkpt>
      <trkpt lat="59.5335813356" lon="17.5740128104">
        <ele>0</ele>
        <time>2012-08-01T18:50:02Z</time>
      </trkpt>
      <trkpt lat="59.5340855069" lon="17.5734135045">
        <ele>0</ele>
        <time>2012-08-01T18:50:08Z</time>
      </trkpt>
      <trkpt lat="59.5342516362" lon="17.573210914">
        <ele>0</ele>
        <time>2012-08-01T18:50:10Z</time>
      </trkpt>
      <trkpt lat="59.5344195256" lon="17.5730007798">
        <ele>0</ele>
        <time>2012-08-01T18:50:12Z</time>
      </trkpt>
      <trkpt lat="59.5345049372" lon="17.5729037174">
        <ele>0</ele>
        <time>2012-08-01T18:50:13Z</time>
      </trkpt>
      <trkpt lat="59.5345905164" lon="17.5728086666">
        <ele>0</ele>
        <time>2012-08-01T18:50:14Z</time>
      </trkpt>
      <trkpt lat="59.5346760956" lon="17.5727110175">
        <ele>0</ele>
        <time>2012-08-01T18:50:15Z</time>
      </trkpt>
      <trkpt lat="59.5347610042" lon="17.5726108538">
        <ele>0</ele>
        <time>2012-08-01T18:50:16Z</time>
      </trkpt>
      <trkpt lat="59.5348452423" lon="17.5725075888">
        <ele>0</ele>
        <time>2012-08-01T18:50:17Z</time>
      </trkpt>
      <trkpt lat="59.5353461447" lon="17.5719112166">
        <ele>0</ele>
        <time>2012-08-01T18:50:23Z</time>
      </trkpt>
      <trkpt lat="59.5355881301" lon="17.5716151679">
        <ele>0</ele>
        <time>2012-08-01T18:50:26Z</time>
      </trkpt>
      <trkpt lat="59.5360815726" lon="17.5710224837">
        <ele>0</ele>
        <time>2012-08-01T18:50:32Z</time>
      </trkpt>
      <trkpt lat="59.5361638828" lon="17.570926511">
        <ele>0</ele>
        <time>2012-08-01T18:50:33Z</time>
      </trkpt>
      <trkpt lat="59.5362461931" lon="17.5708337233">
        <ele>0</ele>
        <time>2012-08-01T18:50:34Z</time>
      </trkpt>
      <trkpt lat="59.5363326943" lon="17.570733392">
        <ele>0</ele>
        <time>2012-08-01T18:50:35Z</time>
      </trkpt>
      <trkpt lat="59.5364158428" lon="17.5706379221">
        <ele>0</ele>
        <time>2012-08-01T18:50:36Z</time>
      </trkpt>
      <trkpt lat="59.5368985564" lon="17.5700553801">
        <ele>0</ele>
        <time>2012-08-01T18:50:42Z</time>
      </trkpt>
      <trkpt lat="59.5374357524" lon="17.5694508775">
        <ele>0</ele>
        <time>2012-08-01T18:50:49Z</time>
      </trkpt>
      <trkpt lat="59.5375828547" lon="17.5692715048">
        <ele>0</ele>
        <time>2012-08-01T18:50:51Z</time>
      </trkpt>
      <trkpt lat="59.5379421029" lon="17.5688543376">
        <ele>0</ele>
        <time>2012-08-01T18:50:56Z</time>
      </trkpt>
      <trkpt lat="59.5380896244" lon="17.5686896333">
        <ele>0</ele>
        <time>2012-08-01T18:50:58Z</time>
      </trkpt>
      <trkpt lat="59.5381604514" lon="17.5686084127">
        <ele>0</ele>
        <time>2012-08-01T18:50:59Z</time>
      </trkpt>
      <trkpt lat="59.5382322843" lon="17.5685248452">
        <ele>0</ele>
        <time>2012-08-01T18:51:00Z</time>
      </trkpt>
      <trkpt lat="59.5383031952" lon="17.5684467258">
        <ele>0</ele>
        <time>2012-08-01T18:51:01Z</time>
      </trkpt>
      <trkpt lat="59.5383747766" lon="17.5683634098">
        <ele>0</ele>
        <time>2012-08-01T18:51:02Z</time>
      </trkpt>
      <trkpt lat="59.5385862519" lon="17.5681017268">
        <ele>0</ele>
        <time>2012-08-01T18:51:05Z</time>
      </trkpt>
      <trkpt lat="59.5389289878" lon="17.5677106274">
        <ele>0</ele>
        <time>2012-08-01T18:51:10Z</time>
      </trkpt>
      <trkpt lat="59.5389964621" lon="17.5676365314">
        <ele>0</ele>
        <time>2012-08-01T18:51:11Z</time>
      </trkpt>
      <trkpt lat="59.5390629306" lon="17.5675654529">
        <ele>0</ele>
        <time>2012-08-01T18:51:12Z</time>
      </trkpt>
      <trkpt lat="59.5391331709" lon="17.5674921951">
        <ele>0</ele>
        <time>2012-08-01T18:51:13Z</time>
      </trkpt>
      <trkpt lat="59.5392027407" lon="17.5674235473">
        <ele>0</ele>
        <time>2012-08-01T18:51:14Z</time>
      </trkpt>
      <trkpt lat="59.5394668544" lon="17.567133785">
        <ele>0</ele>
        <time>2012-08-01T18:51:18Z</time>
      </trkpt>
      <trkpt lat="59.5399817545" lon="17.5665604631">
        <ele>0</ele>
        <time>2012-08-01T18:51:26Z</time>
      </trkpt>
      <trkpt lat="59.5400341414" lon="17.5664684298">
        <ele>0</ele>
        <time>2012-08-01T18:51:27Z</time>
      </trkpt>
      <trkpt lat="59.5401828363" lon="17.5659738977">
        <ele>0</ele>
        <time>2012-08-01T18:51:31Z</time>
      </trkpt>
      <trkpt lat="59.5402239914" lon="17.5658452355">
        <ele>0</ele>
        <time>2012-08-01T18:51:32Z</time>
      </trkpt>
      <trkpt lat="59.5403373147" lon="17.5656583192">
        <ele>0</ele>
        <time>2012-08-01T18:51:34Z</time>
      </trkpt>
      <trkpt lat="59.5405320262" lon="17.5654341033">
        <ele>0</ele>
        <time>2012-08-01T18:51:37Z</time>
      </trkpt>
      <trkpt lat="59.5405912024" lon="17.5653646174">
        <ele>0</ele>
        <time>2012-08-01T18:51:38Z</time>
      </trkpt>
      <trkpt lat="59.5406497919" lon="17.5652914434">
        <ele>0</ele>
        <time>2012-08-01T18:51:39Z</time>
      </trkpt>
      <trkpt lat="59.5407063697" lon="17.5652186047">
        <ele>0</ele>
        <time>2012-08-01T18:51:40Z</time>
      </trkpt>
      <trkpt lat="59.5407621094" lon="17.5651453469">
        <ele>0</ele>
        <time>2012-08-01T18:51:41Z</time>
      </trkpt>
      <trkpt lat="59.5409325134" lon="17.5648951472">
        <ele>0</ele>
        <time>2012-08-01T18:51:44Z</time>
      </trkpt>
      <trkpt lat="59.5409823857" lon="17.5648036168">
        <ele>0</ele>
        <time>2012-08-01T18:51:45Z</time>
      </trkpt>
      <trkpt lat="59.5410298273" lon="17.5647058001">
        <ele>0</ele>
        <time>2012-08-01T18:51:46Z</time>
      </trkpt>
      <trkpt lat="59.5410776041" lon="17.5646056364">
        <ele>0</ele>
        <time>2012-08-01T18:51:47Z</time>
      </trkpt>
      <trkpt lat="59.5411213576" lon="17.5645036286">
        <ele>0</ele>
        <time>2012-08-01T18:51:48Z</time>
      </trkpt>
      <trkpt lat="59.541340209" lon="17.5639564582">
        <ele>0</ele>
        <time>2012-08-01T18:51:53Z</time>
      </trkpt>
      <trkpt lat="59.5416767423" lon="17.5631460123">
        <ele>0</ele>
        <time>2012-08-01T18:52:00Z</time>
      </trkpt>
      <trkpt lat="59.5420029658" lon="17.5623158689">
        <ele>0</ele>
        <time>2012-08-01T18:52:06Z</time>
      </trkpt>
      <trkpt lat="59.5423338833" lon="17.5614960353">
        <ele>0</ele>
        <time>2012-08-01T18:52:11Z</time>
      </trkpt>
      <trkpt lat="59.5424090689" lon="17.5613256312">
        <ele>0</ele>
        <time>2012-08-01T18:52:12Z</time>
      </trkpt>
      <trkpt lat="59.5424901219" lon="17.5611527965">
        <ele>0</ele>
        <time>2012-08-01T18:52:13Z</time>
      </trkpt>
      <trkpt lat="59.542572935" lon="17.5609882598">
        <ele>0</ele>
        <time>2012-08-01T18:52:14Z</time>
      </trkpt>
      <trkpt lat="59.5426565026" lon="17.5608315182">
        <ele>0</ele>
        <time>2012-08-01T18:52:15Z</time>
      </trkpt>
      <trkpt lat="59.5427460213" lon="17.5606863437">
        <ele>0</ele>
        <time>2012-08-01T18:52:16Z</time>
      </trkpt>
      <trkpt lat="59.5428424131" lon="17.5605547479">
        <ele>0</ele>
        <time>2012-08-01T18:52:17Z</time>
      </trkpt>
      <trkpt lat="59.5429439179" lon="17.5604374013">
        <ele>0</ele>
        <time>2012-08-01T18:52:18Z</time>
      </trkpt>
      <trkpt lat="59.5430489431" lon="17.560336567">
        <ele>0</ele>
        <time>2012-08-01T18:52:19Z</time>
      </trkpt>
      <trkpt lat="59.5431552256" lon="17.5602528319">
        <ele>0</ele>
        <time>2012-08-01T18:52:20Z</time>
      </trkpt>
      <trkpt lat="59.5432664535" lon="17.5601821724">
        <ele>0</ele>
        <time>2012-08-01T18:52:21Z</time>
      </trkpt>
      <trkpt lat="59.5433726521" lon="17.5601231639">
        <ele>0</ele>
        <time>2012-08-01T18:52:22Z</time>
      </trkpt>
      <trkpt lat="59.543481533" lon="17.5600728725">
        <ele>0</ele>
        <time>2012-08-01T18:52:23Z</time>
      </trkpt>
      <trkpt lat="59.5435896595" lon="17.5600178872">
        <ele>0</ele>
        <time>2012-08-01T18:52:24Z</time>
      </trkpt>
      <trkpt lat="59.5436976184" lon="17.5599611417">
        <ele>0</ele>
        <time>2012-08-01T18:52:25Z</time>
      </trkpt>
      <trkpt lat="59.5438078404" lon="17.5599118562">
        <ele>0</ele>
        <time>2012-08-01T18:52:26Z</time>
      </trkpt>
      <trkpt lat="59.5439214151" lon="17.5598665101">
        <ele>0</ele>
        <time>2012-08-01T18:52:27Z</time>
      </trkpt>
      <trkpt lat="59.544038175" lon="17.5598122792">
        <ele>0</ele>
        <time>2012-08-01T18:52:28Z</time>
      </trkpt>
      <trkpt lat="59.5441461339" lon="17.5597585512">
        <ele>0</ele>
        <time>2012-08-01T18:52:29Z</time>
      </trkpt>
      <trkpt lat="59.5446993393" lon="17.5594943537">
        <ele>0</ele>
        <time>2012-08-01T18:52:34Z</time>
      </trkpt>
      <trkpt lat="59.5448094774" lon="17.5594382788">
        <ele>0</ele>
        <time>2012-08-01T18:52:35Z</time>
      </trkpt>
      <trkpt lat="59.5449248962" lon="17.5593805275">
        <ele>0</ele>
        <time>2012-08-01T18:52:36Z</time>
      </trkpt>
      <trkpt lat="59.5450340285" lon="17.5593255423">
        <ele>0</ele>
        <time>2012-08-01T18:52:37Z</time>
      </trkpt>
      <trkpt lat="59.545147268" lon="17.559276592">
        <ele>0</ele>
        <time>2012-08-01T18:52:38Z</time>
      </trkpt>
      <trkpt lat="59.5452572385" lon="17.5592216905">
        <ele>0</ele>
        <time>2012-08-01T18:52:39Z</time>
      </trkpt>
      <trkpt lat="59.5453682987" lon="17.5591675435">
        <ele>0</ele>
        <time>2012-08-01T18:52:40Z</time>
      </trkpt>
      <trkpt lat="59.5454750003" lon="17.5591133964">
        <ele>0</ele>
        <time>2012-08-01T18:52:41Z</time>
      </trkpt>
      <trkpt lat="59.5455813666" lon="17.5590647814">
        <ele>0</ele>
        <time>2012-08-01T18:52:42Z</time>
      </trkpt>
      <trkpt lat="59.5456925106" lon="17.559013065">
        <ele>0</ele>
        <time>2012-08-01T18:52:43Z</time>
      </trkpt>
      <trkpt lat="59.546109091" lon="17.5588130729">
        <ele>0</ele>
        <time>2012-08-01T18:52:47Z</time>
      </trkpt>
      <trkpt lat="59.546519385" lon="17.5586154277">
        <ele>0</ele>
        <time>2012-08-01T18:52:51Z</time>
      </trkpt>
      <trkpt lat="59.5466206384" lon="17.5585690758">
        <ele>0</ele>
        <time>2012-08-01T18:52:52Z</time>
      </trkpt>
      <trkpt lat="59.5467211374" lon="17.5585261605">
        <ele>0</ele>
        <time>2012-08-01T18:52:53Z</time>
      </trkpt>
      <trkpt lat="59.546820882" lon="17.5584832451">
        <ele>0</ele>
        <time>2012-08-01T18:52:54Z</time>
      </trkpt>
      <trkpt lat="59.5469186149" lon="17.558449047">
        <ele>0</ele>
        <time>2012-08-01T18:52:55Z</time>
      </trkpt>
      <trkpt lat="59.5471226304" lon="17.558403198">
        <ele>0</ele>
        <time>2012-08-01T18:52:57Z</time>
      </trkpt>
      <trkpt lat="59.547231176" lon="17.5583894517">
        <ele>0</ele>
        <time>2012-08-01T18:52:58Z</time>
      </trkpt>
      <trkpt lat="59.547334441" lon="17.558386518">
        <ele>0</ele>
        <time>2012-08-01T18:52:59Z</time>
      </trkpt>
      <trkpt lat="59.5474356105" lon="17.5583945646">
        <ele>0</ele>
        <time>2012-08-01T18:53:00Z</time>
      </trkpt>
      <trkpt lat="59.5476245385" lon="17.5584391563">
        <ele>0</ele>
        <time>2012-08-01T18:53:02Z</time>
      </trkpt>
      <trkpt lat="59.5481000437" lon="17.5586373883">
        <ele>0</ele>
        <time>2012-08-01T18:53:07Z</time>
      </trkpt>
      <trkpt lat="59.5486705997" lon="17.558768565">
        <ele>0</ele>
        <time>2012-08-01T18:53:13Z</time>
      </trkpt>
      <trkpt lat="59.5492939616" lon="17.5587734265">
        <ele>0</ele>
        <time>2012-08-01T18:53:20Z</time>
      </trkpt>
      <trkpt lat="59.5498933512" lon="17.5585989154">
        <ele>0</ele>
        <time>2012-08-01T18:53:27Z</time>
      </trkpt>
      <trkpt lat="59.5502006317" lon="17.5582575206">
        <ele>0</ele>
        <time>2012-08-01T18:53:31Z</time>
      </trkpt>
      <trkpt lat="59.5506260969" lon="17.5575797601">
        <ele>0</ele>
        <time>2012-08-01T18:53:37Z</time>
      </trkpt>
      <trkpt lat="59.5506959182" lon="17.5574729747">
        <ele>0</ele>
        <time>2012-08-01T18:53:38Z</time>
      </trkpt>
      <trkpt lat="59.5511764525" lon="17.5567190228">
        <ele>0</ele>
        <time>2012-08-01T18:53:45Z</time>
      </trkpt>
      <trkpt lat="59.5513036059" lon="17.5565021831">
        <ele>0</ele>
        <time>2012-08-01T18:53:47Z</time>
      </trkpt>
      <trkpt lat="59.551567049" lon="17.5560732812">
        <ele>0</ele>
        <time>2012-08-01T18:53:51Z</time>
      </trkpt>
      <trkpt lat="59.5516333499" lon="17.5559639813">
        <ele>0</ele>
        <time>2012-08-01T18:53:52Z</time>
      </trkpt>
      <trkpt lat="59.5516983934" lon="17.5558483111">
        <ele>0</ele>
        <time>2012-08-01T18:53:53Z</time>
      </trkpt>
      <trkpt lat="59.5517646104" lon="17.55574228">
        <ele>0</ele>
        <time>2012-08-01T18:53:54Z</time>
      </trkpt>
      <trkpt lat="59.5518315818" lon="17.5556366681">
        <ele>0</ele>
        <time>2012-08-01T18:53:55Z</time>
      </trkpt>
      <trkpt lat="59.5522980345" lon="17.5549011564">
        <ele>0</ele>
        <time>2012-08-01T18:54:02Z</time>
      </trkpt>
      <trkpt lat="59.5527400959" lon="17.5541517307">
        <ele>0</ele>
        <time>2012-08-01T18:54:09Z</time>
      </trkpt>
      <trkpt lat="59.552991972" lon="17.5535374212">
        <ele>0</ele>
        <time>2012-08-01T18:54:14Z</time>
      </trkpt>
      <trkpt lat="59.5531575984" lon="17.5527781049">
        <ele>0</ele>
        <time>2012-08-01T18:54:19Z</time>
      </trkpt>
      <trkpt lat="59.5531757871" lon="17.5526174239">
        <ele>0</ele>
        <time>2012-08-01T18:54:20Z</time>
      </trkpt>
      <trkpt lat="59.5531950655" lon="17.5521366381">
        <ele>0</ele>
        <time>2012-08-01T18:54:23Z</time>
      </trkpt>
      <trkpt lat="59.5532113263" lon="17.5514307983">
        <ele>0</ele>
        <time>2012-08-01T18:54:28Z</time>
      </trkpt>
      <trkpt lat="59.55321426" lon="17.5512944248">
        <ele>0</ele>
        <time>2012-08-01T18:54:29Z</time>
      </trkpt>
      <trkpt lat="59.5532165231" lon="17.5511714623">
        <ele>0</ele>
        <time>2012-08-01T18:54:30Z</time>
      </trkpt>
      <trkpt lat="59.5532158526" lon="17.5510507629">
        <ele>0</ele>
        <time>2012-08-01T18:54:31Z</time>
      </trkpt>
      <trkpt lat="59.5532145953" lon="17.5509314047">
        <ele>0</ele>
        <time>2012-08-01T18:54:32Z</time>
      </trkpt>
      <trkpt lat="59.5532164393" lon="17.5506092045">
        <ele>0</ele>
        <time>2012-08-01T18:54:35Z</time>
      </trkpt>
      <trkpt lat="59.553229096" lon="17.550502922">
        <ele>0</ele>
        <time>2012-08-01T18:54:36Z</time>
      </trkpt>
      <trkpt lat="59.553248542" lon="17.5502703242">
        <ele>0</ele>
        <time>2012-08-01T18:54:38Z</time>
      </trkpt>
      <trkpt lat="59.5532938881" lon="17.5496645643">
        <ele>0</ele>
        <time>2012-08-01T18:54:43Z</time>
      </trkpt>
      <trkpt lat="59.553305958" lon="17.5495343096">
        <ele>0</ele>
        <time>2012-08-01T18:54:44Z</time>
      </trkpt>
      <trkpt lat="59.5533196205" lon="17.549393829">
        <ele>0</ele>
        <time>2012-08-01T18:54:45Z</time>
      </trkpt>
      <trkpt lat="59.5533368872" lon="17.549259048">
        <ele>0</ele>
        <time>2012-08-01T18:54:46Z</time>
      </trkpt>
      <trkpt lat="59.5533540701" lon="17.5491220878">
        <ele>0</ele>
        <time>2012-08-01T18:54:47Z</time>
      </trkpt>
      <trkpt lat="59.5534204548" lon="17.5487156494">
        <ele>0</ele>
        <time>2012-08-01T18:54:50Z</time>
      </trkpt>
      <trkpt lat="59.553452306" lon="17.5485786892">
        <ele>0</ele>
        <time>2012-08-01T18:54:51Z</time>
      </trkpt>
      <trkpt lat="59.5534874261" lon="17.5484359454">
        <ele>0</ele>
        <time>2012-08-01T18:54:52Z</time>
      </trkpt>
      <trkpt lat="59.5535280783" lon="17.5483045172">
        <ele>0</ele>
        <time>2012-08-01T18:54:53Z</time>
      </trkpt>
      <trkpt lat="59.5535761905" lon="17.5481801298">
        <ele>0</ele>
        <time>2012-08-01T18:54:54Z</time>
      </trkpt>
      <trkpt lat="59.5536844008" lon="17.5479554949">
        <ele>0</ele>
        <time>2012-08-01T18:54:56Z</time>
      </trkpt>
      <trkpt lat="59.5537997357" lon="17.5477526529">
        <ele>0</ele>
        <time>2012-08-01T18:54:58Z</time>
      </trkpt>
      <trkpt lat="59.554049684" lon="17.5473461308">
        <ele>0</ele>
        <time>2012-08-01T18:55:02Z</time>
      </trkpt>
      <trkpt lat="59.5544828606" lon="17.5467095255">
        <ele>0</ele>
        <time>2012-08-01T18:55:09Z</time>
      </trkpt>
      <trkpt lat="59.5545480718" lon="17.5466182466">
        <ele>0</ele>
        <time>2012-08-01T18:55:10Z</time>
      </trkpt>
      <trkpt lat="59.554745717" lon="17.5464095373">
        <ele>0</ele>
        <time>2012-08-01T18:55:13Z</time>
      </trkpt>
      <trkpt lat="59.5550807415" lon="17.5461833098">
        <ele>0</ele>
        <time>2012-08-01T18:55:18Z</time>
      </trkpt>
      <trkpt lat="59.5552144328" lon="17.5460995746">
        <ele>0</ele>
        <time>2012-08-01T18:55:20Z</time>
      </trkpt>
      <trkpt lat="59.5552848408" lon="17.5460637001">
        <ele>0</ele>
        <time>2012-08-01T18:55:21Z</time>
      </trkpt>
      <trkpt lat="59.5553630439" lon="17.5460304239">
        <ele>0</ele>
        <time>2012-08-01T18:55:22Z</time>
      </trkpt>
      <trkpt lat="59.5554327813" lon="17.5459972316">
        <ele>0</ele>
        <time>2012-08-01T18:55:23Z</time>
      </trkpt>
      <trkpt lat="59.5555024349" lon="17.5459632849">
        <ele>0</ele>
        <time>2012-08-01T18:55:24Z</time>
      </trkpt>
      <trkpt lat="59.5558203604" lon="17.5457963175">
        <ele>0</ele>
        <time>2012-08-01T18:55:29Z</time>
      </trkpt>
      <trkpt lat="59.5559590808" lon="17.5457381471">
        <ele>0</ele>
        <time>2012-08-01T18:55:31Z</time>
      </trkpt>
      <trkpt lat="59.5560267227" lon="17.5457197069">
        <ele>0</ele>
        <time>2012-08-01T18:55:32Z</time>
      </trkpt>
      <trkpt lat="59.5560942809" lon="17.5457005962">
        <ele>0</ele>
        <time>2012-08-01T18:55:33Z</time>
      </trkpt>
      <trkpt lat="59.5561606655" lon="17.5456814016">
        <ele>0</ele>
        <time>2012-08-01T18:55:34Z</time>
      </trkpt>
      <trkpt lat="59.5562315764" lon="17.5456606983">
        <ele>0</ele>
        <time>2012-08-01T18:55:35Z</time>
      </trkpt>
      <trkpt lat="59.5568416111" lon="17.5455351375">
        <ele>0</ele>
        <time>2012-08-01T18:55:43Z</time>
      </trkpt>
      <trkpt lat="59.5574271706" lon="17.5454120912">
        <ele>0</ele>
        <time>2012-08-01T18:55:50Z</time>
      </trkpt>
      <trkpt lat="59.5575124983" lon="17.5453920584">
        <ele>0</ele>
        <time>2012-08-01T18:55:51Z</time>
      </trkpt>
      <trkpt lat="59.5580353613" lon="17.5451970116">
        <ele>0</ele>
        <time>2012-08-01T18:55:57Z</time>
      </trkpt>
      <trkpt lat="59.5585684501" lon="17.5449234264">
        <ele>0</ele>
        <time>2012-08-01T18:56:03Z</time>
      </trkpt>
      <trkpt lat="59.5589867069" lon="17.5447015575">
        <ele>0</ele>
        <time>2012-08-01T18:56:08Z</time>
      </trkpt>
      <trkpt lat="59.5590722861" lon="17.5446930918">
        <ele>0</ele>
        <time>2012-08-01T18:56:09Z</time>
      </trkpt>
      <trkpt lat="59.5593292752" lon="17.5447857956">
        <ele>0</ele>
        <time>2012-08-01T18:56:12Z</time>
      </trkpt>
      <trkpt lat="59.5594162793" lon="17.544749502">
        <ele>0</ele>
        <time>2012-08-01T18:56:13Z</time>
      </trkpt>
      <trkpt lat="59.5594879445" lon="17.5446592289">
        <ele>0</ele>
        <time>2012-08-01T18:56:14Z</time>
      </trkpt>
      <trkpt lat="59.5595466178" lon="17.5445441454">
        <ele>0</ele>
        <time>2012-08-01T18:56:15Z</time>
      </trkpt>
      <trkpt lat="59.5596046206" lon="17.5444245357">
        <ele>0</ele>
        <time>2012-08-01T18:56:16Z</time>
      </trkpt>
      <trkpt lat="59.5597290918" lon="17.5442045947">
        <ele>0</ele>
        <time>2012-08-01T18:56:18Z</time>
      </trkpt>
      <trkpt lat="59.5600938721" lon="17.5437245633">
        <ele>0</ele>
        <time>2012-08-01T18:56:23Z</time>
      </trkpt>
      <trkpt lat="59.560605168" lon="17.5430970104">
        <ele>0</ele>
        <time>2012-08-01T18:56:30Z</time>
      </trkpt>
      <trkpt lat="59.5608256119" lon="17.5425609879">
        <ele>0</ele>
        <time>2012-08-01T18:56:34Z</time>
      </trkpt>
      <trkpt lat="59.5611116024" lon="17.541636632">
        <ele>0</ele>
        <time>2012-08-01T18:56:40Z</time>
      </trkpt>
      <trkpt lat="59.5611635702" lon="17.5415001746">
        <ele>0</ele>
        <time>2012-08-01T18:56:41Z</time>
      </trkpt>
      <trkpt lat="59.5612171305" lon="17.5413695846">
        <ele>0</ele>
        <time>2012-08-01T18:56:42Z</time>
      </trkpt>
      <trkpt lat="59.5612638177" lon="17.5412302775">
        <ele>0</ele>
        <time>2012-08-01T18:56:43Z</time>
      </trkpt>
      <trkpt lat="59.5613011171" lon="17.5410835104">
        <ele>0</ele>
        <time>2012-08-01T18:56:44Z</time>
      </trkpt>
      <trkpt lat="59.561342859" lon="17.5409382521">
        <ele>0</ele>
        <time>2012-08-01T18:56:45Z</time>
      </trkpt>
      <trkpt lat="59.5616710942" lon="17.5399309153">
        <ele>0</ele>
        <time>2012-08-01T18:56:52Z</time>
      </trkpt>
      <trkpt lat="59.561730438" lon="17.5398098807">
        <ele>0</ele>
        <time>2012-08-01T18:56:53Z</time>
      </trkpt>
      <trkpt lat="59.5620461004" lon="17.5392939747">
        <ele>0</ele>
        <time>2012-08-01T18:56:58Z</time>
      </trkpt>
      <trkpt lat="59.5624617588" lon="17.538824756">
        <ele>0</ele>
        <time>2012-08-01T18:57:04Z</time>
      </trkpt>
      <trkpt lat="59.5628971985" lon="17.5383970276">
        <ele>0</ele>
        <time>2012-08-01T18:57:10Z</time>
      </trkpt>
      <trkpt lat="59.5633806665" lon="17.5378689679">
        <ele>0</ele>
        <time>2012-08-01T18:57:17Z</time>
      </trkpt>
      <trkpt lat="59.5634505716" lon="17.5377879149">
        <ele>0</ele>
        <time>2012-08-01T18:57:18Z</time>
      </trkpt>
      <trkpt lat="59.563879641" lon="17.537272009">
        <ele>0</ele>
        <time>2012-08-01T18:57:24Z</time>
      </trkpt>
      <trkpt lat="59.5643718262" lon="17.5366557717">
        <ele>0</ele>
        <time>2012-08-01T18:57:31Z</time>
      </trkpt>
      <trkpt lat="59.5645105466" lon="17.5364772372">
        <ele>0</ele>
        <time>2012-08-01T18:57:33Z</time>
      </trkpt>
      <trkpt lat="59.5649848784" lon="17.5358700524">
        <ele>0</ele>
        <time>2012-08-01T18:57:40Z</time>
      </trkpt>
      <trkpt lat="59.5651173124" lon="17.5356960442">
        <ele>0</ele>
        <time>2012-08-01T18:57:42Z</time>
      </trkpt>
      <trkpt lat="59.5651810148" lon="17.5356052682">
        <ele>0</ele>
        <time>2012-08-01T18:57:43Z</time>
      </trkpt>
      <trkpt lat="59.5652457231" lon="17.5355153304">
        <ele>0</ele>
        <time>2012-08-01T18:57:44Z</time>
      </trkpt>
      <trkpt lat="59.5653092579" lon="17.5354274043">
        <ele>0</ele>
        <time>2012-08-01T18:57:45Z</time>
      </trkpt>
      <trkpt lat="59.5653774866" lon="17.535331683">
        <ele>0</ele>
        <time>2012-08-01T18:57:46Z</time>
      </trkpt>
      <trkpt lat="59.5655034665" lon="17.5351486223">
        <ele>0</ele>
        <time>2012-08-01T18:57:48Z</time>
      </trkpt>
      <trkpt lat="59.5659332065" lon="17.5345343966">
        <ele>0</ele>
        <time>2012-08-01T18:57:55Z</time>
      </trkpt>
      <trkpt lat="59.5663907744" lon="17.5338593184">
        <ele>0</ele>
        <time>2012-08-01T18:58:02Z</time>
      </trkpt>
      <trkpt lat="59.566852198" lon="17.5331702424">
        <ele>0</ele>
        <time>2012-08-01T18:58:09Z</time>
      </trkpt>
      <trkpt lat="59.5669184989" lon="17.5330823163">
        <ele>0</ele>
        <time>2012-08-01T18:58:10Z</time>
      </trkpt>
      <trkpt lat="59.5669924272" lon="17.5330146743">
        <ele>0</ele>
        <time>2012-08-01T18:58:11Z</time>
      </trkpt>
      <trkpt lat="59.5671404516" lon="17.5328751157">
        <ele>0</ele>
        <time>2012-08-01T18:58:13Z</time>
      </trkpt>
      <trkpt lat="59.5673038148" lon="17.5325125985">
        <ele>0</ele>
        <time>2012-08-01T18:58:16Z</time>
      </trkpt>
      <trkpt lat="59.567367182" lon="17.5323927374">
        <ele>0</ele>
        <time>2012-08-01T18:58:17Z</time>
      </trkpt>
      <trkpt lat="59.567563067" lon="17.5320768236">
        <ele>0</ele>
        <time>2012-08-01T18:58:20Z</time>
      </trkpt>
      <trkpt lat="59.5679989258" lon="17.5313232069">
        <ele>0</ele>
        <time>2012-08-01T18:58:27Z</time>
      </trkpt>
      <trkpt lat="59.5684387241" lon="17.5305611246">
        <ele>0</ele>
        <time>2012-08-01T18:58:34Z</time>
      </trkpt>
      <trkpt lat="59.5685557354" lon="17.5303430275">
        <ele>0</ele>
        <time>2012-08-01T18:58:36Z</time>
      </trkpt>
      <trkpt lat="59.5687284025" lon="17.5300024709">
        <ele>0</ele>
        <time>2012-08-01T18:58:39Z</time>
      </trkpt>
      <trkpt lat="59.5687876626" lon="17.5299081746">
        <ele>0</ele>
        <time>2012-08-01T18:58:40Z</time>
      </trkpt>
      <trkpt lat="59.5688589925" lon="17.5298514291">
        <ele>0</ele>
        <time>2012-08-01T18:58:41Z</time>
      </trkpt>
      <trkpt lat="59.5689323342" lon="17.5298215057">
        <ele>0</ele>
        <time>2012-08-01T18:58:42Z</time>
      </trkpt>
      <trkpt lat="59.5690786821" lon="17.5297210067">
        <ele>0</ele>
        <time>2012-08-01T18:58:44Z</time>
      </trkpt>
      <trkpt lat="59.5691899938" lon="17.5294892472">
        <ele>0</ele>
        <time>2012-08-01T18:58:46Z</time>
      </trkpt>
      <trkpt lat="59.5692451467" lon="17.5293659495">
        <ele>0</ele>
        <time>2012-08-01T18:58:47Z</time>
      </trkpt>
      <trkpt lat="59.5693448075" lon="17.5291304181">
        <ele>0</ele>
        <time>2012-08-01T18:58:49Z</time>
      </trkpt>
      <trkpt lat="59.569390405" lon="17.5290209505">
        <ele>0</ele>
        <time>2012-08-01T18:58:50Z</time>
      </trkpt>
      <trkpt lat="59.5694395229" lon="17.5289126563">
        <ele>0</ele>
        <time>2012-08-01T18:58:51Z</time>
      </trkpt>
      <trkpt lat="59.5694906525" lon="17.5288039431">
        <ele>0</ele>
        <time>2012-08-01T18:58:52Z</time>
      </trkpt>
      <trkpt lat="59.569544129" lon="17.5286946431">
        <ele>0</ele>
        <time>2012-08-01T18:58:53Z</time>
      </trkpt>
      <trkpt lat="59.5698227434" lon="17.5281767255">
        <ele>0</ele>
        <time>2012-08-01T18:58:58Z</time>
      </trkpt>
      <trkpt lat="59.570103118" lon="17.5276632503">
        <ele>0</ele>
        <time>2012-08-01T18:59:03Z</time>
      </trkpt>
      <trkpt lat="59.5702672356" lon="17.5273709734">
        <ele>0</ele>
        <time>2012-08-01T18:59:06Z</time>
      </trkpt>
      <trkpt lat="59.5703191195" lon="17.5272786049">
        <ele>0</ele>
        <time>2012-08-01T18:59:07Z</time>
      </trkpt>
      <trkpt lat="59.570373099" lon="17.5271901759">
        <ele>0</ele>
        <time>2012-08-01T18:59:08Z</time>
      </trkpt>
      <trkpt lat="59.570426324" lon="17.5270966339">
        <ele>0</ele>
        <time>2012-08-01T18:59:09Z</time>
      </trkpt>
      <trkpt lat="59.5706906053" lon="17.5266176083">
        <ele>0</ele>
        <time>2012-08-01T18:59:14Z</time>
      </trkpt>
      <trkpt lat="59.57106075" lon="17.5259428653">
        <ele>0</ele>
        <time>2012-08-01T18:59:21Z</time>
      </trkpt>
      <trkpt lat="59.5713500094" lon="17.5253729799">
        <ele>0</ele>
        <time>2012-08-01T18:59:26Z</time>
      </trkpt>
      <trkpt lat="59.5715901508" lon="17.5246279967">
        <ele>0</ele>
        <time>2012-08-01T18:59:31Z</time>
      </trkpt>
      <trkpt lat="59.5717985249" lon="17.5238423612">
        <ele>0</ele>
        <time>2012-08-01T18:59:36Z</time>
      </trkpt>
      <trkpt lat="59.5718367463" lon="17.5236973543">
        <ele>0</ele>
        <time>2012-08-01T18:59:37Z</time>
      </trkpt>
      <trkpt lat="59.5718745487" lon="17.5235554487">
        <ele>0</ele>
        <time>2012-08-01T18:59:38Z</time>
      </trkpt>
      <trkpt lat="59.5719159553" lon="17.5234084302">
        <ele>0</ele>
        <time>2012-08-01T18:59:39Z</time>
      </trkpt>
      <trkpt lat="59.5719602117" lon="17.5232697936">
        <ele>0</ele>
        <time>2012-08-01T18:59:40Z</time>
      </trkpt>
      <trkpt lat="59.5720025403" lon="17.5231239485">
        <ele>0</ele>
        <time>2012-08-01T18:59:41Z</time>
      </trkpt>
      <trkpt lat="59.5720890415" lon="17.5228360303">
        <ele>0</ele>
        <time>2012-08-01T18:59:43Z</time>
      </trkpt>
      <trkpt lat="59.5723311946" lon="17.5221597786">
        <ele>0</ele>
        <time>2012-08-01T18:59:48Z</time>
      </trkpt>
      <trkpt lat="59.5723819051" lon="17.5220386601">
        <ele>0</ele>
        <time>2012-08-01T18:59:49Z</time>
      </trkpt>
      <trkpt lat="59.5724360522" lon="17.5219210621">
        <ele>0</ele>
        <time>2012-08-01T18:59:50Z</time>
      </trkpt>
      <trkpt lat="59.5724913727" lon="17.5218078226">
        <ele>0</ele>
        <time>2012-08-01T18:59:51Z</time>
      </trkpt>
      <trkpt lat="59.5725480344" lon="17.5216950022">
        <ele>0</ele>
        <time>2012-08-01T18:59:52Z</time>
      </trkpt>
      <trkpt lat="59.5726045284" lon="17.5215794158">
        <ele>0</ele>
        <time>2012-08-01T18:59:53Z</time>
      </trkpt>
      <trkpt lat="59.5727675563" lon="17.521204242">
        <ele>0</ele>
        <time>2012-08-01T18:59:56Z</time>
      </trkpt>
      <trkpt lat="59.5731401318" lon="17.5203285849">
        <ele>0</ele>
        <time>2012-08-01T19:00:03Z</time>
      </trkpt>
      <trkpt lat="59.5734944347" lon="17.5195589588">
        <ele>0</ele>
        <time>2012-08-01T19:00:09Z</time>
      </trkpt>
      <trkpt lat="59.5739161281" lon="17.5187104591">
        <ele>0</ele>
        <time>2012-08-01T19:00:16Z</time>
      </trkpt>
      <trkpt lat="59.5742349756" lon="17.5180963173">
        <ele>0</ele>
        <time>2012-08-01T19:00:22Z</time>
      </trkpt>
      <trkpt lat="59.5744634662" lon="17.5176737019">
        <ele>0</ele>
        <time>2012-08-01T19:00:26Z</time>
      </trkpt>
      <trkpt lat="59.5745182" lon="17.5175678385">
        <ele>0</ele>
        <time>2012-08-01T19:00:27Z</time>
      </trkpt>
      <trkpt lat="59.5745696648" lon="17.5174666689">
        <ele>0</ele>
        <time>2012-08-01T19:00:28Z</time>
      </trkpt>
      <trkpt lat="59.5746207106" lon="17.5173660023">
        <ele>0</ele>
        <time>2012-08-01T19:00:29Z</time>
      </trkpt>
      <trkpt lat="59.5746725107" lon="17.5172655872">
        <ele>0</ele>
        <time>2012-08-01T19:00:30Z</time>
      </trkpt>
      <trkpt lat="59.5747248976" lon="17.5171620707">
        <ele>0</ele>
        <time>2012-08-01T19:00:31Z</time>
      </trkpt>
      <trkpt lat="59.5747782065" lon="17.517067942">
        <ele>0</ele>
        <time>2012-08-01T19:00:32Z</time>
      </trkpt>
      <trkpt lat="59.5748303419" lon="17.5169722207">
        <ele>0</ele>
        <time>2012-08-01T19:00:33Z</time>
      </trkpt>
      <trkpt lat="59.5751554758" lon="17.5163610963">
        <ele>0</ele>
        <time>2012-08-01T19:00:39Z</time>
      </trkpt>
      <trkpt lat="59.5755868084" lon="17.5155058911">
        <ele>0</ele>
        <time>2012-08-01T19:00:47Z</time>
      </trkpt>
      <trkpt lat="59.5759615631" lon="17.5147976205">
        <ele>0</ele>
        <time>2012-08-01T19:00:54Z</time>
      </trkpt>
      <trkpt lat="59.5763233259" lon="17.5140674732">
        <ele>0</ele>
        <time>2012-08-01T19:01:01Z</time>
      </trkpt>
      <trkpt lat="59.5765313647" lon="17.5136752841">
        <ele>0</ele>
        <time>2012-08-01T19:01:05Z</time>
      </trkpt>
      <trkpt lat="59.5765819076" lon="17.5135795628">
        <ele>0</ele>
        <time>2012-08-01T19:01:06Z</time>
      </trkpt>
      <trkpt lat="59.5766341268" lon="17.5134845959">
        <ele>0</ele>
        <time>2012-08-01T19:01:07Z</time>
      </trkpt>
      <trkpt lat="59.5766853402" lon="17.513387282">
        <ele>0</ele>
        <time>2012-08-01T19:01:08Z</time>
      </trkpt>
      <trkpt lat="59.5767366374" lon="17.513288208">
        <ele>0</ele>
        <time>2012-08-01T19:01:09Z</time>
      </trkpt>
      <trkpt lat="59.5768957259" lon="17.5129952606">
        <ele>0</ele>
        <time>2012-08-01T19:01:12Z</time>
      </trkpt>
      <trkpt lat="59.5770630286" lon="17.5127248605">
        <ele>0</ele>
        <time>2012-08-01T19:01:15Z</time>
      </trkpt>
      <trkpt lat="59.5773091212" lon="17.5124137243">
        <ele>0</ele>
        <time>2012-08-01T19:01:19Z</time>
      </trkpt>
      <trkpt lat="59.5773762602" lon="17.5123470882">
        <ele>0</ele>
        <time>2012-08-01T19:01:20Z</time>
      </trkpt>
      <trkpt lat="59.577787141" lon="17.5119902708">
        <ele>0</ele>
        <time>2012-08-01T19:01:26Z</time>
      </trkpt>
      <trkpt lat="59.5778707923" lon="17.5119523846">
        <ele>0</ele>
        <time>2012-08-01T19:01:27Z</time>
      </trkpt>
      <trkpt lat="59.5783117641" lon="17.5118023486">
        <ele>0</ele>
        <time>2012-08-01T19:01:32Z</time>
      </trkpt>
      <trkpt lat="59.578600772" lon="17.511699335">
        <ele>0</ele>
        <time>2012-08-01T19:01:35Z</time>
      </trkpt>
      <trkpt lat="59.5787615368" lon="17.511572433">
        <ele>0</ele>
        <time>2012-08-01T19:01:37Z</time>
      </trkpt>
      <trkpt lat="59.5789963977" lon="17.5112264282">
        <ele>0</ele>
        <time>2012-08-01T19:01:41Z</time>
      </trkpt>
      <trkpt lat="59.579051802" lon="17.5111205648">
        <ele>0</ele>
        <time>2012-08-01T19:01:42Z</time>
      </trkpt>
      <trkpt lat="59.5792585835" lon="17.5106978656">
        <ele>0</ele>
        <time>2012-08-01T19:01:46Z</time>
      </trkpt>
      <trkpt lat="59.5793118086" lon="17.5105812734">
        <ele>0</ele>
        <time>2012-08-01T19:01:47Z</time>
      </trkpt>
      <trkpt lat="59.5793638602" lon="17.5104655193">
        <ele>0</ele>
        <time>2012-08-01T19:01:48Z</time>
      </trkpt>
      <trkpt lat="59.5794163309" lon="17.5103518608">
        <ele>0</ele>
        <time>2012-08-01T19:01:49Z</time>
      </trkpt>
      <trkpt lat="59.5794773511" lon="17.510245243">
        <ele>0</ele>
        <time>2012-08-01T19:01:50Z</time>
      </trkpt>
      <trkpt lat="59.5795382875" lon="17.5101527068">
        <ele>0</ele>
        <time>2012-08-01T19:01:51Z</time>
      </trkpt>
      <trkpt lat="59.5795977152" lon="17.5100696422">
        <ele>0</ele>
        <time>2012-08-01T19:01:52Z</time>
      </trkpt>
      <trkpt lat="59.5796609147" lon="17.5100005753">
        <ele>0</ele>
        <time>2012-08-01T19:01:53Z</time>
      </trkpt>
      <trkpt lat="59.5797288919" lon="17.5099568218">
        <ele>0</ele>
        <time>2012-08-01T19:01:54Z</time>
      </trkpt>
      <trkpt lat="59.5797922591" lon="17.509908123">
        <ele>0</ele>
        <time>2012-08-01T19:01:55Z</time>
      </trkpt>
      <trkpt lat="59.5802735478" lon="17.509586258">
        <ele>0</ele>
        <time>2012-08-01T19:02:03Z</time>
      </trkpt>
      <trkpt lat="59.5805087439" lon="17.5094742758">
        <ele>0</ele>
        <time>2012-08-01T19:02:06Z</time>
      </trkpt>
      <trkpt lat="59.5807441076" lon="17.5093607011">
        <ele>0</ele>
        <time>2012-08-01T19:02:09Z</time>
      </trkpt>
      <trkpt lat="59.5812494524" lon="17.5090127684">
        <ele>0</ele>
        <time>2012-08-01T19:02:15Z</time>
      </trkpt>
      <trkpt lat="59.5817526179" lon="17.5086705354">
        <ele>0</ele>
        <time>2012-08-01T19:02:21Z</time>
      </trkpt>
      <trkpt lat="59.5818302342" lon="17.5086231777">
        <ele>0</ele>
        <time>2012-08-01T19:02:22Z</time>
      </trkpt>
      <trkpt lat="59.5821278755" lon="17.5084453976">
        <ele>0</ele>
        <time>2012-08-01T19:02:26Z</time>
      </trkpt>
      <trkpt lat="59.5822009657" lon="17.5083912505">
        <ele>0</ele>
        <time>2012-08-01T19:02:27Z</time>
      </trkpt>
      <trkpt lat="59.5822819348" lon="17.5083417135">
        <ele>0</ele>
        <time>2012-08-01T19:02:28Z</time>
      </trkpt>
      <trkpt lat="59.5823635745" lon="17.5082939367">
        <ele>0</ele>
        <time>2012-08-01T19:02:29Z</time>
      </trkpt>
      <trkpt lat="59.5824395146" lon="17.508246998">
        <ele>0</ele>
        <time>2012-08-01T19:02:30Z</time>
      </trkpt>
      <trkpt lat="59.5827984275" lon="17.5079731614">
        <ele>0</ele>
        <time>2012-08-01T19:02:35Z</time>
      </trkpt>
      <trkpt lat="59.5828710148" lon="17.5078999874">
        <ele>0</ele>
        <time>2012-08-01T19:02:36Z</time>
      </trkpt>
      <trkpt lat="59.583222384" lon="17.5075450977">
        <ele>0</ele>
        <time>2012-08-01T19:02:41Z</time>
      </trkpt>
      <trkpt lat="59.5837126414" lon="17.5070079856">
        <ele>0</ele>
        <time>2012-08-01T19:02:48Z</time>
      </trkpt>
      <trkpt lat="59.5838491825" lon="17.506853591">
        <ele>0</ele>
        <time>2012-08-01T19:02:50Z</time>
      </trkpt>
      <trkpt lat="59.5839968716" lon="17.5066950893">
        <ele>0</ele>
        <time>2012-08-01T19:02:52Z</time>
      </trkpt>
      <trkpt lat="59.5840815288" lon="17.5066686863">
        <ele>0</ele>
        <time>2012-08-01T19:02:53Z</time>
      </trkpt>
      <trkpt lat="59.5841622465" lon="17.5067139485">
        <ele>0</ele>
        <time>2012-08-01T19:02:54Z</time>
      </trkpt>
      <trkpt lat="59.5842334088" lon="17.5067984381">
        <ele>0</ele>
        <time>2012-08-01T19:02:55Z</time>
      </trkpt>
      <trkpt lat="59.5843054931" lon="17.5068849393">
        <ele>0</ele>
        <time>2012-08-01T19:02:56Z</time>
      </trkpt>
      <trkpt lat="59.5843869652" lon="17.5069603764">
        <ele>0</ele>
        <time>2012-08-01T19:02:57Z</time>
      </trkpt>
      <trkpt lat="59.5847716106" lon="17.5072764578">
        <ele>0</ele>
        <time>2012-08-01T19:03:02Z</time>
      </trkpt>
      <trkpt lat="59.585262287" lon="17.5075844088">
        <ele>0</ele>
        <time>2012-08-01T19:03:09Z</time>
      </trkpt>
      <trkpt lat="59.5856295819" lon="17.5077514601">
        <ele>0</ele>
        <time>2012-08-01T19:03:14Z</time>
      </trkpt>
      <trkpt lat="59.5857029235" lon="17.5077861612">
        <ele>0</ele>
        <time>2012-08-01T19:03:15Z</time>
      </trkpt>
      <trkpt lat="59.585778193" lon="17.5078231254">
        <ele>0</ele>
        <time>2012-08-01T19:03:16Z</time>
      </trkpt>
      <trkpt lat="59.585855977" lon="17.5078550604">
        <ele>0</ele>
        <time>2012-08-01T19:03:17Z</time>
      </trkpt>
      <trkpt lat="59.5863095216" lon="17.5080391269">
        <ele>0</ele>
        <time>2012-08-01T19:03:23Z</time>
      </trkpt>
      <trkpt lat="59.5868591228" lon="17.5082846328">
        <ele>0</ele>
        <time>2012-08-01T19:03:30Z</time>
      </trkpt>
      <trkpt lat="59.587030365" lon="17.5083601537">
        <ele>0</ele>
        <time>2012-08-01T19:03:32Z</time>
      </trkpt>
      <trkpt lat="59.5871097416" lon="17.5083928431">
        <ele>0</ele>
        <time>2012-08-01T19:03:33Z</time>
      </trkpt>
      <trkpt lat="59.587184592" lon="17.5084254487">
        <ele>0</ele>
        <time>2012-08-01T19:03:34Z</time>
      </trkpt>
      <trkpt lat="59.5872495517" lon="17.508455875">
        <ele>0</ele>
        <time>2012-08-01T19:03:35Z</time>
      </trkpt>
      <trkpt lat="59.5873106557" lon="17.5084838705">
        <ele>0</ele>
        <time>2012-08-01T19:03:36Z</time>
      </trkpt>
      <trkpt lat="59.5873611986" lon="17.5085087648">
        <ele>0</ele>
        <time>2012-08-01T19:03:37Z</time>
      </trkpt>
      <trkpt lat="59.5874119929" lon="17.508536425">
        <ele>0</ele>
        <time>2012-08-01T19:03:38Z</time>
      </trkpt>
      <trkpt lat="59.5874673973" lon="17.5085508419">
        <ele>0</ele>
        <time>2012-08-01T19:03:39Z</time>
      </trkpt>
      <trkpt lat="59.5875195327" lon="17.5085089324">
        <ele>0</ele>
        <time>2012-08-01T19:03:40Z</time>
      </trkpt>
      <trkpt lat="59.5875708299" lon="17.5084266222">
        <ele>0</ele>
        <time>2012-08-01T19:03:41Z</time>
      </trkpt>
      <trkpt lat="59.5876303414" lon="17.5081538751">
        <ele>0</ele>
        <time>2012-08-01T19:03:43Z</time>
      </trkpt>
      <trkpt lat="59.5876326045" lon="17.5076813874">
        <ele>0</ele>
        <time>2012-08-01T19:03:46Z</time>
      </trkpt>
      <trkpt lat="59.5876301738" lon="17.5075212093">
        <ele>0</ele>
        <time>2012-08-01T19:03:47Z</time>
      </trkpt>
      <trkpt lat="59.5876148349" lon="17.5065509206">
        <ele>0</ele>
        <time>2012-08-01T19:03:53Z</time>
      </trkpt>
      <trkpt lat="59.5876354544" lon="17.5055701545">
        <ele>0</ele>
        <time>2012-08-01T19:03:59Z</time>
      </trkpt>
      <trkpt lat="59.587650458" lon="17.5054099763">
        <ele>0</ele>
        <time>2012-08-01T19:04:00Z</time>
      </trkpt>
      <trkpt lat="59.5877915253" lon="17.5046449603">
        <ele>0</ele>
        <time>2012-08-01T19:04:05Z</time>
      </trkpt>
      <trkpt lat="59.5880718161" lon="17.5038211034">
        <ele>0</ele>
        <time>2012-08-01T19:04:11Z</time>
      </trkpt>
      <trkpt lat="59.5884156416" lon="17.5029052132">
        <ele>0</ele>
        <time>2012-08-01T19:04:18Z</time>
      </trkpt>
      <trkpt lat="59.5884648434" lon="17.502779317">
        <ele>0</ele>
        <time>2012-08-01T19:04:19Z</time>
      </trkpt>
      <trkpt lat="59.5885181523" lon="17.5026526665">
        <ele>0</ele>
        <time>2012-08-01T19:04:20Z</time>
      </trkpt>
      <trkpt lat="59.5885714611" lon="17.5025106771">
        <ele>0</ele>
        <time>2012-08-01T19:04:21Z</time>
      </trkpt>
      <trkpt lat="59.5886207467" lon="17.5023763153">
        <ele>0</ele>
        <time>2012-08-01T19:04:22Z</time>
      </trkpt>
      <trkpt lat="59.5886732174" lon="17.5022489104">
        <ele>0</ele>
        <time>2012-08-01T19:04:23Z</time>
      </trkpt>
      <trkpt lat="59.5887760633" lon="17.5019917537">
        <ele>0</ele>
        <time>2012-08-01T19:04:25Z</time>
      </trkpt>
      <trkpt lat="59.5890546777" lon="17.5012486145">
        <ele>0</ele>
        <time>2012-08-01T19:04:31Z</time>
      </trkpt>
      <trkpt lat="59.5893794763" lon="17.5003957561">
        <ele>0</ele>
        <time>2012-08-01T19:04:38Z</time>
      </trkpt>
      <trkpt lat="59.5894239842" lon="17.5002773199">
        <ele>0</ele>
        <time>2012-08-01T19:04:39Z</time>
      </trkpt>
      <trkpt lat="59.58961023" lon="17.4998031558">
        <ele>0</ele>
        <time>2012-08-01T19:04:43Z</time>
      </trkpt>
      <trkpt lat="59.5896561628" lon="17.4996815344">
        <ele>0</ele>
        <time>2012-08-01T19:04:44Z</time>
      </trkpt>
      <trkpt lat="59.5897018442" lon="17.4995625114">
        <ele>0</ele>
        <time>2012-08-01T19:04:45Z</time>
      </trkpt>
      <trkpt lat="59.589749621" lon="17.4994448296">
        <ele>0</ele>
        <time>2012-08-01T19:04:46Z</time>
      </trkpt>
      <trkpt lat="59.5897981522" lon="17.4993287403">
        <ele>0</ele>
        <time>2012-08-01T19:04:47Z</time>
      </trkpt>
      <trkpt lat="59.5900864057" lon="17.4988468648">
        <ele>0</ele>
        <time>2012-08-01T19:04:52Z</time>
      </trkpt>
      <trkpt lat="59.5902846377" lon="17.4986328749">
        <ele>0</ele>
        <time>2012-08-01T19:04:55Z</time>
      </trkpt>
      <trkpt lat="59.5903536207" lon="17.4985818291">
        <ele>0</ele>
        <time>2012-08-01T19:04:56Z</time>
      </trkpt>
      <trkpt lat="59.5904239449" lon="17.4985454517">
        <ele>0</ele>
        <time>2012-08-01T19:04:57Z</time>
      </trkpt>
      <trkpt lat="59.59050768" lon="17.4984951603">
        <ele>0</ele>
        <time>2012-08-01T19:04:58Z</time>
      </trkpt>
      <trkpt lat="59.5905952709" lon="17.4984631414">
        <ele>0</ele>
        <time>2012-08-01T19:04:59Z</time>
      </trkpt>
      <trkpt lat="59.5907762361" lon="17.4984312902">
        <ele>0</ele>
        <time>2012-08-01T19:05:01Z</time>
      </trkpt>
      <trkpt lat="59.5913622986" lon="17.4984389178">
        <ele>0</ele>
        <time>2012-08-01T19:05:07Z</time>
      </trkpt>
      <trkpt lat="59.5914640548" lon="17.4984343077">
        <ele>0</ele>
        <time>2012-08-01T19:05:08Z</time>
      </trkpt>
      <trkpt lat="59.5915643024" lon="17.4984353974">
        <ele>0</ele>
        <time>2012-08-01T19:05:09Z</time>
      </trkpt>
      <trkpt lat="59.5916641308" lon="17.4984370737">
        <ele>0</ele>
        <time>2012-08-01T19:05:10Z</time>
      </trkpt>
      <trkpt lat="59.5917614446" lon="17.4984413485">
        <ele>0</ele>
        <time>2012-08-01T19:05:11Z</time>
      </trkpt>
      <trkpt lat="59.5920672164" lon="17.4984487246">
        <ele>0</ele>
        <time>2012-08-01T19:05:14Z</time>
      </trkpt>
      <trkpt lat="59.5922679629" lon="17.4984021212">
        <ele>0</ele>
        <time>2012-08-01T19:05:16Z</time>
      </trkpt>
      <trkpt lat="59.5924589025" lon="17.4982667535">
        <ele>0</ele>
        <time>2012-08-01T19:05:18Z</time>
      </trkpt>
      <trkpt lat="59.5926881475" lon="17.4978885622">
        <ele>0</ele>
        <time>2012-08-01T19:05:21Z</time>
      </trkpt>
      <trkpt lat="59.5928414525" lon="17.4973988078">
        <ele>0</ele>
        <time>2012-08-01T19:05:24Z</time>
      </trkpt>
      <trkpt lat="59.5929371738" lon="17.4970889289">
        <ele>0</ele>
        <time>2012-08-01T19:05:26Z</time>
      </trkpt>
      <trkpt lat="59.5929814302" lon="17.4969309301">
        <ele>0</ele>
        <time>2012-08-01T19:05:27Z</time>
      </trkpt>
      <trkpt lat="59.5930276983" lon="17.4967688242">
        <ele>0</ele>
        <time>2012-08-01T19:05:28Z</time>
      </trkpt>
      <trkpt lat="59.5930730444" lon="17.4966099034">
        <ele>0</ele>
        <time>2012-08-01T19:05:29Z</time>
      </trkpt>
      <trkpt lat="59.5931198992" lon="17.4964477974">
        <ele>0</ele>
        <time>2012-08-01T19:05:30Z</time>
      </trkpt>
      <trkpt lat="59.5934258385" lon="17.4954048376">
        <ele>0</ele>
        <time>2012-08-01T19:05:37Z</time>
      </trkpt>
      <trkpt lat="59.5934715199" lon="17.4952563941">
        <ele>0</ele>
        <time>2012-08-01T19:05:38Z</time>
      </trkpt>
      <trkpt lat="59.5937451889" lon="17.4942346405">
        <ele>0</ele>
        <time>2012-08-01T19:05:45Z</time>
      </trkpt>
      <trkpt lat="59.5937676524" lon="17.4940840178">
        <ele>0</ele>
        <time>2012-08-01T19:05:46Z</time>
      </trkpt>
      <trkpt lat="59.5937788842" lon="17.4939272763">
        <ele>0</ele>
        <time>2012-08-01T19:05:47Z</time>
      </trkpt>
      <trkpt lat="59.5937900321" lon="17.4936116977">
        <ele>0</ele>
        <time>2012-08-01T19:05:49Z</time>
      </trkpt>
      <trkpt lat="59.5937857573" lon="17.4934508491">
        <ele>0</ele>
        <time>2012-08-01T19:05:50Z</time>
      </trkpt>
      <trkpt lat="59.5937165228" lon="17.4926810554">
        <ele>0</ele>
        <time>2012-08-01T19:05:55Z</time>
      </trkpt>
      <trkpt lat="59.5935958235" lon="17.491853678">
        <ele>0</ele>
        <time>2012-08-01T19:06:01Z</time>
      </trkpt>
      <trkpt lat="59.5934990125" lon="17.4911280569">
        <ele>0</ele>
        <time>2012-08-01T19:06:07Z</time>
      </trkpt>
      <trkpt lat="59.5934514033" lon="17.4905906933">
        <ele>0</ele>
        <time>2012-08-01T19:06:11Z</time>
      </trkpt>
      <trkpt lat="59.5934528282" lon="17.4904481172">
        <ele>0</ele>
        <time>2012-08-01T19:06:12Z</time>
      </trkpt>
      <trkpt lat="59.593522398" lon="17.4898852726">
        <ele>0</ele>
        <time>2012-08-01T19:06:16Z</time>
      </trkpt>
      <trkpt lat="59.5935823286" lon="17.4896381742">
        <ele>0</ele>
        <time>2012-08-01T19:06:18Z</time>
      </trkpt>
      <trkpt lat="59.5936750324" lon="17.4892707955">
        <ele>0</ele>
        <time>2012-08-01T19:06:21Z</time>
      </trkpt>
      <trkpt lat="59.5937046205" lon="17.489144145">
        <ele>0</ele>
        <time>2012-08-01T19:06:22Z</time>
      </trkpt>
      <trkpt lat="59.5937315264" lon="17.4890091126">
        <ele>0</ele>
        <time>2012-08-01T19:06:23Z</time>
      </trkpt>
      <trkpt lat="59.5937539899" lon="17.4888744155">
        <ele>0</ele>
        <time>2012-08-01T19:06:24Z</time>
      </trkpt>
      <trkpt lat="59.593769245" lon="17.4887403051">
        <ele>0</ele>
        <time>2012-08-01T19:06:25Z</time>
      </trkpt>
      <trkpt lat="59.5937802253" lon="17.4884710785">
        <ele>0</ele>
        <time>2012-08-01T19:06:27Z</time>
      </trkpt>
      <trkpt lat="59.5938004256" lon="17.4875361613">
        <ele>0</ele>
        <time>2012-08-01T19:06:34Z</time>
      </trkpt>
      <trkpt lat="59.5938005095" lon="17.4874000393">
        <ele>0</ele>
        <time>2012-08-01T19:06:35Z</time>
      </trkpt>
      <trkpt lat="59.5938023535" lon="17.4872650069">
        <ele>0</ele>
        <time>2012-08-01T19:06:36Z</time>
      </trkpt>
      <trkpt lat="59.5938052033" lon="17.4871344169">
        <ele>0</ele>
        <time>2012-08-01T19:06:37Z</time>
      </trkpt>
      <trkpt lat="59.593803024" lon="17.4869993006">
        <ele>0</ele>
        <time>2012-08-01T19:06:38Z</time>
      </trkpt>
      <trkpt lat="59.5938041137" lon="17.4868882405">
        <ele>0</ele>
        <time>2012-08-01T19:06:39Z</time>
      </trkpt>
      <trkpt lat="59.5938036108" lon="17.4867677087">
        <ele>0</ele>
        <time>2012-08-01T19:06:40Z</time>
      </trkpt>
      <trkpt lat="59.5938130823" lon="17.4861395692">
        <ele>0</ele>
        <time>2012-08-01T19:06:45Z</time>
      </trkpt>
      <trkpt lat="59.5938439277" lon="17.4853878804">
        <ele>0</ele>
        <time>2012-08-01T19:06:51Z</time>
      </trkpt>
      <trkpt lat="59.5938583446" lon="17.4852640797">
        <ele>0</ele>
        <time>2012-08-01T19:06:52Z</time>
      </trkpt>
      <trkpt lat="59.5938770362" lon="17.4851329868">
        <ele>0</ele>
        <time>2012-08-01T19:06:53Z</time>
      </trkpt>
      <trkpt lat="59.5938958955" lon="17.4850065877">
        <ele>0</ele>
        <time>2012-08-01T19:06:54Z</time>
      </trkpt>
      <trkpt lat="59.593916515" lon="17.4848810269">
        <ele>0</ele>
        <time>2012-08-01T19:06:55Z</time>
      </trkpt>
      <trkpt lat="59.5939402357" lon="17.4847533705">
        <ele>0</ele>
        <time>2012-08-01T19:06:56Z</time>
      </trkpt>
      <trkpt lat="59.5941534713" lon="17.4838702535">
        <ele>0</ele>
        <time>2012-08-01T19:07:03Z</time>
      </trkpt>
      <trkpt lat="59.5943981389" lon="17.4828731427">
        <ele>0</ele>
        <time>2012-08-01T19:07:11Z</time>
      </trkpt>
      <trkpt lat="59.5944584886" lon="17.4826299">
        <ele>0</ele>
        <time>2012-08-01T19:07:13Z</time>
      </trkpt>
      <trkpt lat="59.5946894938" lon="17.481667574">
        <ele>0</ele>
        <time>2012-08-01T19:07:21Z</time>
      </trkpt>
      <trkpt lat="59.59474867" lon="17.481425421">
        <ele>0</ele>
        <time>2012-08-01T19:07:23Z</time>
      </trkpt>
      <trkpt lat="59.5947722231" lon="17.4813017041">
        <ele>0</ele>
        <time>2012-08-01T19:07:24Z</time>
      </trkpt>
      <trkpt lat="59.59479125" lon="17.4811737963">
        <ele>0</ele>
        <time>2012-08-01T19:07:25Z</time>
      </trkpt>
      <trkpt lat="59.5948039905" lon="17.4810473134">
        <ele>0</ele>
        <time>2012-08-01T19:07:26Z</time>
      </trkpt>
      <trkpt lat="59.5948138812" lon="17.4809222555">
        <ele>0</ele>
        <time>2012-08-01T19:07:27Z</time>
      </trkpt>
      <trkpt lat="59.5948311479" lon="17.4805519432">
        <ele>0</ele>
        <time>2012-08-01T19:07:30Z</time>
      </trkpt>
      <trkpt lat="59.594832489" lon="17.4804430623">
        <ele>0</ele>
        <time>2012-08-01T19:07:31Z</time>
      </trkpt>
      <trkpt lat="59.5948341654" lon="17.4803098739">
        <ele>0</ele>
        <time>2012-08-01T19:07:32Z</time>
      </trkpt>
      <trkpt lat="59.5948356741" lon="17.4801865761">
        <ele>0</ele>
        <time>2012-08-01T19:07:33Z</time>
      </trkpt>
      <trkpt lat="59.5948432178" lon="17.4800553994">
        <ele>0</ele>
        <time>2012-08-01T19:07:34Z</time>
      </trkpt>
      <trkpt lat="59.5948503424" lon="17.4796430099">
        <ele>0</ele>
        <time>2012-08-01T19:07:37Z</time>
      </trkpt>
      <trkpt lat="59.5949189064" lon="17.4788542731">
        <ele>0</ele>
        <time>2012-08-01T19:07:42Z</time>
      </trkpt>
      <trkpt lat="59.5950235125" lon="17.4784133014">
        <ele>0</ele>
        <time>2012-08-01T19:07:45Z</time>
      </trkpt>
      <trkpt lat="59.5951339021" lon="17.4781573181">
        <ele>0</ele>
        <time>2012-08-01T19:07:47Z</time>
      </trkpt>
      <trkpt lat="59.5952556911" lon="17.4779337729">
        <ele>0</ele>
        <time>2012-08-01T19:07:49Z</time>
      </trkpt>
      <trkpt lat="59.5955092436" lon="17.4774958186">
        <ele>0</ele>
        <time>2012-08-01T19:07:53Z</time>
      </trkpt>
      <trkpt lat="59.5959680688" lon="17.4767550263">
        <ele>0</ele>
        <time>2012-08-01T19:08:00Z</time>
      </trkpt>
      <trkpt lat="59.5960300949" lon="17.4766484923">
        <ele>0</ele>
        <time>2012-08-01T19:08:01Z</time>
      </trkpt>
      <trkpt lat="59.5960931267" lon="17.4765378512">
        <ele>0</ele>
        <time>2012-08-01T19:08:02Z</time>
      </trkpt>
      <trkpt lat="59.5961610201" lon="17.4764210914">
        <ele>0</ele>
        <time>2012-08-01T19:08:03Z</time>
      </trkpt>
      <trkpt lat="59.5962223756" lon="17.4763039962">
        <ele>0</ele>
        <time>2012-08-01T19:08:04Z</time>
      </trkpt>
      <trkpt lat="59.5962831444" lon="17.476188326">
        <ele>0</ele>
        <time>2012-08-01T19:08:05Z</time>
      </trkpt>
      <trkpt lat="59.5963396384" lon="17.4760621784">
        <ele>0</ele>
        <time>2012-08-01T19:08:06Z</time>
      </trkpt>
      <trkpt lat="59.5966537082" lon="17.4752473739">
        <ele>0</ele>
        <time>2012-08-01T19:08:12Z</time>
      </trkpt>
      <trkpt lat="59.5969745673" lon="17.4742295598">
        <ele>0</ele>
        <time>2012-08-01T19:08:19Z</time>
      </trkpt>
      <trkpt lat="59.5970561232" lon="17.4737540546">
        <ele>0</ele>
        <time>2012-08-01T19:08:22Z</time>
      </trkpt>
      <trkpt lat="59.597071043" lon="17.4734219637">
        <ele>0</ele>
        <time>2012-08-01T19:08:24Z</time>
      </trkpt>
      <trkpt lat="59.5970881421" lon="17.4722652615">
        <ele>0</ele>
        <time>2012-08-01T19:08:31Z</time>
      </trkpt>
      <trkpt lat="59.5970759883" lon="17.4711606109">
        <ele>0</ele>
        <time>2012-08-01T19:08:38Z</time>
      </trkpt>
      <trkpt lat="59.5970853761" lon="17.4702411165">
        <ele>0</ele>
        <time>2012-08-01T19:08:44Z</time>
      </trkpt>
      <trkpt lat="59.5970930874" lon="17.4700899908">
        <ele>0</ele>
        <time>2012-08-01T19:08:45Z</time>
      </trkpt>
      <trkpt lat="59.5971024751" lon="17.4699447325">
        <ele>0</ele>
        <time>2012-08-01T19:08:46Z</time>
      </trkpt>
      <trkpt lat="59.5971116952" lon="17.4698011506">
        <ele>0</ele>
        <time>2012-08-01T19:08:47Z</time>
      </trkpt>
      <trkpt lat="59.5971244357" lon="17.4696646932">
        <ele>0</ele>
        <time>2012-08-01T19:08:48Z</time>
      </trkpt>
      <trkpt lat="59.5971932511" lon="17.4692488672">
        <ele>0</ele>
        <time>2012-08-01T19:08:51Z</time>
      </trkpt>
      <trkpt lat="59.597373462" lon="17.4684002836">
        <ele>0</ele>
        <time>2012-08-01T19:08:57Z</time>
      </trkpt>
      <trkpt lat="59.597572113" lon="17.4675750856">
        <ele>0</ele>
        <time>2012-08-01T19:09:03Z</time>
      </trkpt>
      <trkpt lat="59.5977912997" lon="17.4666043777">
        <ele>0</ele>
        <time>2012-08-01T19:09:10Z</time>
      </trkpt>
      <trkpt lat="59.5978199658" lon="17.4664644">
        <ele>0</ele>
        <time>2012-08-01T19:09:11Z</time>
      </trkpt>
      <trkpt lat="59.5980104026" lon="17.4654619248">
        <ele>0</ele>
        <time>2012-08-01T19:09:18Z</time>
      </trkpt>
      <trkpt lat="59.5980890248" lon="17.4650280776">
        <ele>0</ele>
        <time>2012-08-01T19:09:21Z</time>
      </trkpt>
      <trkpt lat="59.598319527" lon="17.4638971079">
        <ele>0</ele>
        <time>2012-08-01T19:09:29Z</time>
      </trkpt>
      <trkpt lat="59.5985902624" lon="17.4629403978">
        <ele>0</ele>
        <time>2012-08-01T19:09:36Z</time>
      </trkpt>
      <trkpt lat="59.5989091937" lon="17.4619894712">
        <ele>0</ele>
        <time>2012-08-01T19:09:43Z</time>
      </trkpt>
      <trkpt lat="59.5989550427" lon="17.4618541035">
        <ele>0</ele>
        <time>2012-08-01T19:09:44Z</time>
      </trkpt>
      <trkpt lat="59.5992737225" lon="17.4609070327">
        <ele>0</ele>
        <time>2012-08-01T19:09:51Z</time>
      </trkpt>
      <trkpt lat="59.5994038934" lon="17.4605223035">
        <ele>0</ele>
        <time>2012-08-01T19:09:54Z</time>
      </trkpt>
      <trkpt lat="59.5997068153" lon="17.4596169744">
        <ele>0</ele>
        <time>2012-08-01T19:10:01Z</time>
      </trkpt>
      <trkpt lat="59.5997934003" lon="17.4593651822">
        <ele>0</ele>
        <time>2012-08-01T19:10:03Z</time>
      </trkpt>
      <trkpt lat="59.6001081407" lon="17.4584386469">
        <ele>0</ele>
        <time>2012-08-01T19:10:10Z</time>
      </trkpt>
      <trkpt lat="59.6004067039" lon="17.457534659">
        <ele>0</ele>
        <time>2012-08-01T19:10:17Z</time>
      </trkpt>
      <trkpt lat="59.6004499545" lon="17.4574077571">
        <ele>0</ele>
        <time>2012-08-01T19:10:18Z</time>
      </trkpt>
      <trkpt lat="59.6007829674" lon="17.456408886">
        <ele>0</ele>
        <time>2012-08-01T19:10:26Z</time>
      </trkpt>
      <trkpt lat="59.6008239549" lon="17.4562923776">
        <ele>0</ele>
        <time>2012-08-01T19:10:27Z</time>
      </trkpt>
      <trkpt lat="59.6010982107" lon="17.4554686883">
        <ele>0</ele>
        <time>2012-08-01T19:10:34Z</time>
      </trkpt>
      <trkpt lat="59.6011347558" lon="17.455355365">
        <ele>0</ele>
        <time>2012-08-01T19:10:35Z</time>
      </trkpt>
      <trkpt lat="59.6011747374" lon="17.4552355877">
        <ele>0</ele>
        <time>2012-08-01T19:10:36Z</time>
      </trkpt>
      <trkpt lat="59.6012137971" lon="17.4551263715">
        <ele>0</ele>
        <time>2012-08-01T19:10:37Z</time>
      </trkpt>
      <trkpt lat="59.6012541979" lon="17.4550132997">
        <ele>0</ele>
        <time>2012-08-01T19:10:38Z</time>
      </trkpt>
      <trkpt lat="59.6014878852" lon="17.4543346172">
        <ele>0</ele>
        <time>2012-08-01T19:10:44Z</time>
      </trkpt>
      <trkpt lat="59.60156349" lon="17.4541094794">
        <ele>0</ele>
        <time>2012-08-01T19:10:46Z</time>
      </trkpt>
      <trkpt lat="59.6016011247" lon="17.4539998442">
        <ele>0</ele>
        <time>2012-08-01T19:10:47Z</time>
      </trkpt>
      <trkpt lat="59.6016357419" lon="17.4538911309">
        <ele>0</ele>
        <time>2012-08-01T19:10:48Z</time>
      </trkpt>
      <trkpt lat="59.6016701077" lon="17.4537858542">
        <ele>0</ele>
        <time>2012-08-01T19:10:49Z</time>
      </trkpt>
      <trkpt lat="59.6017063175" lon="17.4536809129">
        <ele>0</ele>
        <time>2012-08-01T19:10:50Z</time>
      </trkpt>
      <trkpt lat="59.6017478918" lon="17.4535714452">
        <ele>0</ele>
        <time>2012-08-01T19:10:51Z</time>
      </trkpt>
      <trkpt lat="59.6020141847" lon="17.4527738236">
        <ele>0</ele>
        <time>2012-08-01T19:10:58Z</time>
      </trkpt>
      <trkpt lat="59.6022638815" lon="17.4520249009">
        <ele>0</ele>
        <time>2012-08-01T19:11:04Z</time>
      </trkpt>
      <trkpt lat="59.6025673063" lon="17.451122757">
        <ele>0</ele>
        <time>2012-08-01T19:11:11Z</time>
      </trkpt>
      <trkpt lat="59.6028737486" lon="17.4502429089">
        <ele>0</ele>
        <time>2012-08-01T19:11:18Z</time>
      </trkpt>
      <trkpt lat="59.6029171668" lon="17.4501190245">
        <ele>0</ele>
        <time>2012-08-01T19:11:19Z</time>
      </trkpt>
      <trkpt lat="59.6030913427" lon="17.4496680782">
        <ele>0</ele>
        <time>2012-08-01T19:11:23Z</time>
      </trkpt>
      <trkpt lat="59.6031579788" lon="17.4496368137">
        <ele>0</ele>
        <time>2012-08-01T19:11:24Z</time>
      </trkpt>
      <trkpt lat="59.6032842102" lon="17.4497010191">
        <ele>0</ele>
        <time>2012-08-01T19:11:26Z</time>
      </trkpt>
      <trkpt lat="59.6033505949" lon="17.4497828264">
        <ele>0</ele>
        <time>2012-08-01T19:11:27Z</time>
      </trkpt>
      <trkpt lat="59.6034148002" lon="17.4498608619">
        <ele>0</ele>
        <time>2012-08-01T19:11:28Z</time>
      </trkpt>
      <trkpt lat="59.6034879742" lon="17.4499610256">
        <ele>0</ele>
        <time>2012-08-01T19:11:29Z</time>
      </trkpt>
      <trkpt lat="59.6035536883" lon="17.4500724211">
        <ele>0</ele>
        <time>2012-08-01T19:11:30Z</time>
      </trkpt>
      <trkpt lat="59.6036174746" lon="17.4502181823">
        <ele>0</ele>
        <time>2012-08-01T19:11:31Z</time>
      </trkpt>
      <trkpt lat="59.60372426" lon="17.4507682864">
        <ele>0</ele>
        <time>2012-08-01T19:11:34Z</time>
      </trkpt>
      <trkpt lat="59.6037407723" lon="17.4509526882">
        <ele>0</ele>
        <time>2012-08-01T19:11:35Z</time>
      </trkpt>
      <trkpt lat="59.6037606374" lon="17.4511379282">
        <ele>0</ele>
        <time>2012-08-01T19:11:36Z</time>
      </trkpt>
      <trkpt lat="59.6037777365" lon="17.4513101763">
        <ele>0</ele>
        <time>2012-08-01T19:11:37Z</time>
      </trkpt>
      <trkpt lat="59.6037907284" lon="17.4514871182">
        <ele>0</ele>
        <time>2012-08-01T19:11:38Z</time>
      </trkpt>
      <trkpt lat="59.6038017087" lon="17.4516680834">
        <ele>0</ele>
        <time>2012-08-01T19:11:39Z</time>
      </trkpt>
      <trkpt lat="59.6038026307" lon="17.451851647">
        <ele>0</ele>
        <time>2012-08-01T19:11:40Z</time>
      </trkpt>
      <trkpt lat="59.6037751381" lon="17.4523763539">
        <ele>0</ele>
        <time>2012-08-01T19:11:43Z</time>
      </trkpt>
      <trkpt lat="59.6037031376" lon="17.4534007059">
        <ele>0</ele>
        <time>2012-08-01T19:11:49Z</time>
      </trkpt>
      <trkpt lat="59.6036803388" lon="17.4537700125">
        <ele>0</ele>
        <time>2012-08-01T19:11:51Z</time>
      </trkpt>
      <trkpt lat="59.6036889722" lon="17.4543165123">
        <ele>0</ele>
        <time>2012-08-01T19:11:54Z</time>
      </trkpt>
      <trkpt lat="59.6037466396" lon="17.4552148844">
        <ele>0</ele>
        <time>2012-08-01T19:11:59Z</time>
      </trkpt>
      <trkpt lat="59.6037815083" lon="17.455383612">
        <ele>0</ele>
        <time>2012-08-01T19:12:00Z</time>
      </trkpt>
      <trkpt lat="59.6038107612" lon="17.4555607216">
        <ele>0</ele>
        <time>2012-08-01T19:12:01Z</time>
      </trkpt>
      <trkpt lat="59.6038356554" lon="17.4557421059">
        <ele>0</ele>
        <time>2012-08-01T19:12:02Z</time>
      </trkpt>
      <trkpt lat="59.6038542632" lon="17.4559239093">
        <ele>0</ele>
        <time>2012-08-01T19:12:03Z</time>
      </trkpt>
      <trkpt lat="59.6038654112" lon="17.4561100713">
        <ele>0</ele>
        <time>2012-08-01T19:12:04Z</time>
      </trkpt>
      <trkpt lat="59.6038608849" lon="17.4562983288">
        <ele>0</ele>
        <time>2012-08-01T19:12:05Z</time>
      </trkpt>
      <trkpt lat="59.6038447079" lon="17.4564911125">
        <ele>0</ele>
        <time>2012-08-01T19:12:06Z</time>
      </trkpt>
      <trkpt lat="59.603775641" lon="17.4575584636">
        <ele>0</ele>
        <time>2012-08-01T19:12:12Z</time>
      </trkpt>
      <trkpt lat="59.6037779879" lon="17.457736579">
        <ele>0</ele>
        <time>2012-08-01T19:12:13Z</time>
      </trkpt>
      <trkpt lat="59.6037927401" lon="17.4579182148">
        <ele>0</ele>
        <time>2012-08-01T19:12:14Z</time>
      </trkpt>
      <trkpt lat="59.6038259324" lon="17.4580833382">
        <ele>0</ele>
        <time>2012-08-01T19:12:15Z</time>
      </trkpt>
      <trkpt lat="59.6038741283" lon="17.4582304405">
        <ele>0</ele>
        <time>2012-08-01T19:12:16Z</time>
      </trkpt>
      <trkpt lat="59.6039957497" lon="17.4584930455">
        <ele>0</ele>
        <time>2012-08-01T19:12:18Z</time>
      </trkpt>
      <trkpt lat="59.6040534172" lon="17.4586295866">
        <ele>0</ele>
        <time>2012-08-01T19:12:19Z</time>
      </trkpt>
      <trkpt lat="59.6043394076" lon="17.4595404477">
        <ele>0</ele>
        <time>2012-08-01T19:12:25Z</time>
      </trkpt>
      <trkpt lat="59.6044549102" lon="17.4600224069">
        <ele>0</ele>
        <time>2012-08-01T19:12:28Z</time>
      </trkpt>
      <trkpt lat="59.6045885177" lon="17.4606842418">
        <ele>0</ele>
        <time>2012-08-01T19:12:32Z</time>
      </trkpt>
      <trkpt lat="59.604781469" lon="17.4616928358">
        <ele>0</ele>
        <time>2012-08-01T19:12:38Z</time>
      </trkpt>
      <trkpt lat="59.6048429922" lon="17.4620296205">
        <ele>0</ele>
        <time>2012-08-01T19:12:40Z</time>
      </trkpt>
      <trkpt lat="59.6049794495" lon="17.4630751787">
        <ele>0</ele>
        <time>2012-08-01T19:12:46Z</time>
      </trkpt>
      <trkpt lat="59.60506813" lon="17.463946142">
        <ele>0</ele>
        <time>2012-08-01T19:12:51Z</time>
      </trkpt>
      <trkpt lat="59.6051063515" lon="17.4641041408">
        <ele>0</ele>
        <time>2012-08-01T19:12:52Z</time>
      </trkpt>
      <trkpt lat="59.6052589859" lon="17.4645306957">
        <ele>0</ele>
        <time>2012-08-01T19:12:55Z</time>
      </trkpt>
      <trkpt lat="59.60531263" lon="17.4646730203">
        <ele>0</ele>
        <time>2012-08-01T19:12:56Z</time>
      </trkpt>
      <trkpt lat="59.6056096845" lon="17.46558824">
        <ele>0</ele>
        <time>2012-08-01T19:13:02Z</time>
      </trkpt>
      <trkpt lat="59.6058797494" lon="17.4665346403">
        <ele>0</ele>
        <time>2012-08-01T19:13:08Z</time>
      </trkpt>
      <trkpt lat="59.605978572" lon="17.4668344609">
        <ele>0</ele>
        <time>2012-08-01T19:13:10Z</time>
      </trkpt>
      <trkpt lat="59.6062643948" lon="17.46776569">
        <ele>0</ele>
        <time>2012-08-01T19:13:16Z</time>
      </trkpt>
      <trkpt lat="59.6063097408" lon="17.4679192464">
        <ele>0</ele>
        <time>2012-08-01T19:13:17Z</time>
      </trkpt>
      <trkpt lat="59.6065654726" lon="17.4688617072">
        <ele>0</ele>
        <time>2012-08-01T19:13:23Z</time>
      </trkpt>
      <trkpt lat="59.6066598528" lon="17.46918089">
        <ele>0</ele>
        <time>2012-08-01T19:13:25Z</time>
      </trkpt>
      <trkpt lat="59.6069207813" lon="17.4701634163">
        <ele>0</ele>
        <time>2012-08-01T19:13:31Z</time>
      </trkpt>
      <trkpt lat="59.6069627747" lon="17.4703230077">
        <ele>0</ele>
        <time>2012-08-01T19:13:32Z</time>
      </trkpt>
      <trkpt lat="59.6072185903" lon="17.471281897">
        <ele>0</ele>
        <time>2012-08-01T19:13:38Z</time>
      </trkpt>
      <trkpt lat="59.6072581528" lon="17.4714337771">
        <ele>0</ele>
        <time>2012-08-01T19:13:39Z</time>
      </trkpt>
      <trkpt lat="59.6074481705" lon="17.4723702029">
        <ele>0</ele>
        <time>2012-08-01T19:13:45Z</time>
      </trkpt>
      <trkpt lat="59.6075130464" lon="17.4729172057">
        <ele>0</ele>
        <time>2012-08-01T19:13:49Z</time>
      </trkpt>
      <trkpt lat="59.607530816" lon="17.473049975">
        <ele>0</ele>
        <time>2012-08-01T19:13:50Z</time>
      </trkpt>
      <trkpt lat="59.6075646789" lon="17.4731781343">
        <ele>0</ele>
        <time>2012-08-01T19:13:51Z</time>
      </trkpt>
      <trkpt lat="59.6076129586" lon="17.4733043657">
        <ele>0</ele>
        <time>2012-08-01T19:13:52Z</time>
      </trkpt>
      <trkpt lat="59.6076661837" lon="17.4734184433">
        <ele>0</ele>
        <time>2012-08-01T19:13:53Z</time>
      </trkpt>
      <trkpt lat="59.6077178162" lon="17.473513075">
        <ele>0</ele>
        <time>2012-08-01T19:13:54Z</time>
      </trkpt>
      <trkpt lat="59.6077761542" lon="17.4735999953">
        <ele>0</ele>
        <time>2012-08-01T19:13:55Z</time>
      </trkpt>
      <trkpt lat="59.6078353305" lon="17.4736831437">
        <ele>0</ele>
        <time>2012-08-01T19:13:56Z</time>
      </trkpt>
      <trkpt lat="59.6078956801" lon="17.4737668789">
        <ele>0</ele>
        <time>2012-08-01T19:13:57Z</time>
      </trkpt>
      <trkpt lat="59.6082000269" lon="17.4741473334">
        <ele>0</ele>
        <time>2012-08-01T19:14:02Z</time>
      </trkpt>
      <trkpt lat="59.6083006935" lon="17.4743200843">
        <ele>0</ele>
        <time>2012-08-01T19:14:04Z</time>
      </trkpt>
      <trkpt lat="59.6083465425" lon="17.4744288814">
        <ele>0</ele>
        <time>2012-08-01T19:14:05Z</time>
      </trkpt>
      <trkpt lat="59.608391721" lon="17.4745524306">
        <ele>0</ele>
        <time>2012-08-01T19:14:06Z</time>
      </trkpt>
      <trkpt lat="59.6084346363" lon="17.4746774885">
        <ele>0</ele>
        <time>2012-08-01T19:14:07Z</time>
      </trkpt>
      <trkpt lat="59.6084808206" lon="17.4748090005">
        <ele>0</ele>
        <time>2012-08-01T19:14:08Z</time>
      </trkpt>
      <trkpt lat="59.6086843331" lon="17.4754891079">
        <ele>0</ele>
        <time>2012-08-01T19:14:13Z</time>
      </trkpt>
      <trkpt lat="59.6088568326" lon="17.4761132242">
        <ele>0</ele>
        <time>2012-08-01T19:14:17Z</time>
      </trkpt>
      <trkpt lat="59.6089067887" lon="17.4762696304">
        <ele>0</ele>
        <time>2012-08-01T19:14:18Z</time>
      </trkpt>
      <trkpt lat="59.6089574154" lon="17.4764269587">
        <ele>0</ele>
        <time>2012-08-01T19:14:19Z</time>
      </trkpt>
      <trkpt lat="59.6090100537" lon="17.4765809342">
        <ele>0</ele>
        <time>2012-08-01T19:14:20Z</time>
      </trkpt>
      <trkpt lat="59.6090673859" lon="17.4767249353">
        <ele>0</ele>
        <time>2012-08-01T19:14:21Z</time>
      </trkpt>
      <trkpt lat="59.6092519554" lon="17.4771245842">
        <ele>0</ele>
        <time>2012-08-01T19:14:24Z</time>
      </trkpt>
      <trkpt lat="59.6093760913" lon="17.4773679108">
        <ele>0</ele>
        <time>2012-08-01T19:14:26Z</time>
      </trkpt>
      <trkpt lat="59.6094381174" lon="17.4774838325">
        <ele>0</ele>
        <time>2012-08-01T19:14:27Z</time>
      </trkpt>
      <trkpt lat="59.609497545" lon="17.4776079684">
        <ele>0</ele>
        <time>2012-08-01T19:14:28Z</time>
      </trkpt>
      <trkpt lat="59.6095567213" lon="17.4777446772">
        <ele>0</ele>
        <time>2012-08-01T19:14:29Z</time>
      </trkpt>
      <trkpt lat="59.6096176577" lon="17.4778750158">
        <ele>0</ele>
        <time>2012-08-01T19:14:30Z</time>
      </trkpt>
      <trkpt lat="59.6098150514" lon="17.4782434003">
        <ele>0</ele>
        <time>2012-08-01T19:14:33Z</time>
      </trkpt>
      <trkpt lat="59.6099830247" lon="17.4783626747">
        <ele>0</ele>
        <time>2012-08-01T19:14:35Z</time>
      </trkpt>
      <trkpt lat="59.6101504951" lon="17.4782838848">
        <ele>0</ele>
        <time>2012-08-01T19:14:37Z</time>
      </trkpt>
      <trkpt lat="59.6102292011" lon="17.4782210206">
        <ele>0</ele>
        <time>2012-08-01T19:14:38Z</time>
      </trkpt>
      <trkpt lat="59.6103022913" lon="17.4781627664">
        <ele>0</ele>
        <time>2012-08-01T19:14:39Z</time>
      </trkpt>
      <trkpt lat="59.610374208" lon="17.4781108824">
        <ele>0</ele>
        <time>2012-08-01T19:14:40Z</time>
      </trkpt>
      <trkpt lat="59.6104426881" lon="17.4780522929">
        <ele>0</ele>
        <time>2012-08-01T19:14:41Z</time>
      </trkpt>
      <trkpt lat="59.6105090727" lon="17.4779926138">
        <ele>0</ele>
        <time>2012-08-01T19:14:42Z</time>
      </trkpt>
      <trkpt lat="59.6107243199" lon="17.4778788714">
        <ele>0</ele>
        <time>2012-08-01T19:14:45Z</time>
      </trkpt>
      <trkpt lat="59.6107943926" lon="17.4779061964">
        <ele>0</ele>
        <time>2012-08-01T19:14:46Z</time>
      </trkpt>
      <trkpt lat="59.6108603582" lon="17.4781436556">
        <ele>0</ele>
        <time>2012-08-01T19:14:48Z</time>
      </trkpt>
      <trkpt lat="59.6108948916" lon="17.4784500979">
        <ele>0</ele>
        <time>2012-08-01T19:14:50Z</time>
      </trkpt>
      <trkpt lat="59.6109064586" lon="17.4786106113">
        <ele>0</ele>
        <time>2012-08-01T19:14:51Z</time>
      </trkpt>
      <trkpt lat="59.6109199535" lon="17.4787754833">
        <ele>0</ele>
        <time>2012-08-01T19:14:52Z</time>
      </trkpt>
      <trkpt lat="59.6109339512" lon="17.4789438756">
        <ele>0</ele>
        <time>2012-08-01T19:14:53Z</time>
      </trkpt>
      <trkpt lat="59.6109477814" lon="17.4791032156">
        <ele>0</ele>
        <time>2012-08-01T19:14:54Z</time>
      </trkpt>
      <trkpt lat="59.6110573328" lon="17.4802865722">
        <ele>0</ele>
        <time>2012-08-01T19:15:01Z</time>
      </trkpt>
      <trkpt lat="59.6111695665" lon="17.4813649036">
        <ele>0</ele>
        <time>2012-08-01T19:15:07Z</time>
      </trkpt>
      <trkpt lat="59.6112985639" lon="17.4825064346">
        <ele>0</ele>
        <time>2012-08-01T19:15:13Z</time>
      </trkpt>
      <trkpt lat="59.6113186805" lon="17.482701649">
        <ele>0</ele>
        <time>2012-08-01T19:15:14Z</time>
      </trkpt>
      <trkpt lat="59.6113336002" lon="17.4829173153">
        <ele>0</ele>
        <time>2012-08-01T19:15:15Z</time>
      </trkpt>
      <trkpt lat="59.6113499449" lon="17.4831287069">
        <ele>0</ele>
        <time>2012-08-01T19:15:16Z</time>
      </trkpt>
      <trkpt lat="59.611362434" lon="17.483335153">
        <ele>0</ele>
        <time>2012-08-01T19:15:17Z</time>
      </trkpt>
      <trkpt lat="59.6113740848" lon="17.4835540045">
        <ele>0</ele>
        <time>2012-08-01T19:15:18Z</time>
      </trkpt>
      <trkpt lat="59.6113835564" lon="17.4837762924">
        <ele>0</ele>
        <time>2012-08-01T19:15:19Z</time>
      </trkpt>
      <trkpt lat="59.6113879988" lon="17.4840019332">
        <ele>0</ele>
        <time>2012-08-01T19:15:20Z</time>
      </trkpt>
      <trkpt lat="59.6113896752" lon="17.484227071">
        <ele>0</ele>
        <time>2012-08-01T19:15:21Z</time>
      </trkpt>
      <trkpt lat="59.6113920221" lon="17.4844527118">
        <ele>0</ele>
        <time>2012-08-01T19:15:22Z</time>
      </trkpt>
      <trkpt lat="59.6113947043" lon="17.4846783525">
        <ele>0</ele>
        <time>2012-08-01T19:15:23Z</time>
      </trkpt>
      <trkpt lat="59.6113941176" lon="17.4849092739">
        <ele>0</ele>
        <time>2012-08-01T19:15:24Z</time>
      </trkpt>
      <trkpt lat="59.6113965483" lon="17.4851295502">
        <ele>0</ele>
        <time>2012-08-01T19:15:25Z</time>
      </trkpt>
      <trkpt lat="59.6113995658" lon="17.4853480663">
        <ele>0</ele>
        <time>2012-08-01T19:15:26Z</time>
      </trkpt>
      <trkpt lat="59.6113983085" lon="17.4855660796">
        <ele>0</ele>
        <time>2012-08-01T19:15:27Z</time>
      </trkpt>
      <trkpt lat="59.6113996496" lon="17.4857839251">
        <ele>0</ele>
        <time>2012-08-01T19:15:28Z</time>
      </trkpt>
      <trkpt lat="59.6114252982" lon="17.4866605881">
        <ele>0</ele>
        <time>2012-08-01T19:15:32Z</time>
      </trkpt>
      <trkpt lat="59.6114796968" lon="17.4876990216">
        <ele>0</ele>
        <time>2012-08-01T19:15:37Z</time>
      </trkpt>
      <trkpt lat="59.6114905932" lon="17.4879032047">
        <ele>0</ele>
        <time>2012-08-01T19:15:38Z</time>
      </trkpt>
      <trkpt lat="59.6114998971" lon="17.4881099024">
        <ele>0</ele>
        <time>2012-08-01T19:15:39Z</time>
      </trkpt>
      <trkpt lat="59.6115140625" lon="17.4883232217">
        <ele>0</ele>
        <time>2012-08-01T19:15:40Z</time>
      </trkpt>
      <trkpt lat="59.6115288985" lon="17.4885251417">
        <ele>0</ele>
        <time>2012-08-01T19:15:41Z</time>
      </trkpt>
      <trkpt lat="59.611531916" lon="17.488728319">
        <ele>0</ele>
        <time>2012-08-01T19:15:42Z</time>
      </trkpt>
      <trkpt lat="59.6115460814" lon="17.4889283949">
        <ele>0</ele>
        <time>2012-08-01T19:15:43Z</time>
      </trkpt>
      <trkpt lat="59.611561085" lon="17.48912889">
        <ele>0</ele>
        <time>2012-08-01T19:15:44Z</time>
      </trkpt>
      <trkpt lat="59.6116605782" lon="17.4897100909">
        <ele>0</ele>
        <time>2012-08-01T19:15:47Z</time>
      </trkpt>
      <trkpt lat="59.6117257055" lon="17.4898678383">
        <ele>0</ele>
        <time>2012-08-01T19:15:48Z</time>
      </trkpt>
      <trkpt lat="59.6119396116" lon="17.490278719">
        <ele>0</ele>
        <time>2012-08-01T19:15:51Z</time>
      </trkpt>
      <trkpt lat="59.6120110254" lon="17.4904089737">
        <ele>0</ele>
        <time>2012-08-01T19:15:52Z</time>
      </trkpt>
      <trkpt lat="59.6122863708" lon="17.4909431522">
        <ele>0</ele>
        <time>2012-08-01T19:15:56Z</time>
      </trkpt>
      <trkpt lat="59.6123323874" lon="17.4910972115">
        <ele>0</ele>
        <time>2012-08-01T19:15:57Z</time>
      </trkpt>
      <trkpt lat="59.6124480577" lon="17.4917285363">
        <ele>0</ele>
        <time>2012-08-01T19:16:01Z</time>
      </trkpt>
      <trkpt lat="59.6125489757" lon="17.4926620285">
        <ele>0</ele>
        <time>2012-08-01T19:16:07Z</time>
      </trkpt>
      <trkpt lat="59.6124215709" lon="17.4931254637">
        <ele>0</ele>
        <time>2012-08-01T19:16:10Z</time>
      </trkpt>
      <trkpt lat="59.6123666694" lon="17.4932568081">
        <ele>0</ele>
        <time>2012-08-01T19:16:11Z</time>
      </trkpt>
      <trkpt lat="59.6123147855" lon="17.4933914214">
        <ele>0</ele>
        <time>2012-08-01T19:16:12Z</time>
      </trkpt>
      <trkpt lat="59.6122623148" lon="17.4935264538">
        <ele>0</ele>
        <time>2012-08-01T19:16:13Z</time>
      </trkpt>
      <trkpt lat="59.6122065751" lon="17.4936583011">
        <ele>0</ele>
        <time>2012-08-01T19:16:14Z</time>
      </trkpt>
      <trkpt lat="59.6121517575" lon="17.4937920762">
        <ele>0</ele>
        <time>2012-08-01T19:16:15Z</time>
      </trkpt>
      <trkpt lat="59.6120976104" lon="17.4939222471">
        <ele>0</ele>
        <time>2012-08-01T19:16:16Z</time>
      </trkpt>
      <trkpt lat="59.6120453074" lon="17.4940544297">
        <ele>0</ele>
        <time>2012-08-01T19:16:17Z</time>
      </trkpt>
      <trkpt lat="59.6117019009" lon="17.4949439169">
        <ele>0</ele>
        <time>2012-08-01T19:16:24Z</time>
      </trkpt>
      <trkpt lat="59.6115208519" lon="17.4957580509">
        <ele>0</ele>
        <time>2012-08-01T19:16:30Z</time>
      </trkpt>
      <trkpt lat="59.6114263879" lon="17.4963845141">
        <ele>0</ele>
        <time>2012-08-01T19:16:35Z</time>
      </trkpt>
      <trkpt lat="59.611408283" lon="17.4965094882">
        <ele>0</ele>
        <time>2012-08-01T19:16:36Z</time>
      </trkpt>
      <trkpt lat="59.6113979732" lon="17.4966417546">
        <ele>0</ele>
        <time>2012-08-01T19:16:37Z</time>
      </trkpt>
      <trkpt lat="59.611390681" lon="17.4967790501">
        <ele>0</ele>
        <time>2012-08-01T19:16:38Z</time>
      </trkpt>
      <trkpt lat="59.6113874959" lon="17.4969111488">
        <ele>0</ele>
        <time>2012-08-01T19:16:39Z</time>
      </trkpt>
      <trkpt lat="59.6113703968" lon="17.4971831415">
        <ele>0</ele>
        <time>2012-08-01T19:16:41Z</time>
      </trkpt>
      <trkpt lat="59.6113515375" lon="17.4974408011">
        <ele>0</ele>
        <time>2012-08-01T19:16:43Z</time>
      </trkpt>
      <trkpt lat="59.6113418145" lon="17.4975764202">
        <ele>0</ele>
        <time>2012-08-01T19:16:44Z</time>
      </trkpt>
      <trkpt lat="59.6113310857" lon="17.4977111174">
        <ele>0</ele>
        <time>2012-08-01T19:16:45Z</time>
      </trkpt>
      <trkpt lat="59.6113143219" lon="17.4978438029">
        <ele>0</ele>
        <time>2012-08-01T19:16:46Z</time>
      </trkpt>
      <trkpt lat="59.6112994021" lon="17.4979769912">
        <ele>0</ele>
        <time>2012-08-01T19:16:47Z</time>
      </trkpt>
      <trkpt lat="59.6112860749" lon="17.4981214952">
        <ele>0</ele>
        <time>2012-08-01T19:16:48Z</time>
      </trkpt>
      <trkpt lat="59.6111756014" lon="17.4992351144">
        <ele>0</ele>
        <time>2012-08-01T19:16:56Z</time>
      </trkpt>
      <trkpt lat="59.6111587538" lon="17.499371907">
        <ele>0</ele>
        <time>2012-08-01T19:16:57Z</time>
      </trkpt>
      <trkpt lat="59.6111420738" lon="17.4995083644">
        <ele>0</ele>
        <time>2012-08-01T19:16:58Z</time>
      </trkpt>
      <trkpt lat="59.6111252262" lon="17.4996416366">
        <ele>0</ele>
        <time>2012-08-01T19:16:59Z</time>
      </trkpt>
      <trkpt lat="59.6111096359" lon="17.4997744897">
        <ele>0</ele>
        <time>2012-08-01T19:17:00Z</time>
      </trkpt>
      <trkpt lat="59.6110790419" lon="17.5002490729">
        <ele>0</ele>
        <time>2012-08-01T19:17:04Z</time>
      </trkpt>
      <trkpt lat="59.6111523836" lon="17.5004790722">
        <ele>0</ele>
        <time>2012-08-01T19:17:07Z</time>
      </trkpt>
      <trkpt lat="59.6113089575" lon="17.5006110871">
        <ele>0</ele>
        <time>2012-08-01T19:17:10Z</time>
      </trkpt>
      <trkpt lat="59.6115341791" lon="17.5005794036">
        <ele>0</ele>
        <time>2012-08-01T19:17:13Z</time>
      </trkpt>
      <trkpt lat="59.6116136395" lon="17.5005696806">
        <ele>0</ele>
        <time>2012-08-01T19:17:14Z</time>
      </trkpt>
      <trkpt lat="59.611960734" lon="17.5005158688">
        <ele>0</ele>
        <time>2012-08-01T19:17:18Z</time>
      </trkpt>
      <trkpt lat="59.6125069824" lon="17.5004299543">
        <ele>0</ele>
        <time>2012-08-01T19:17:24Z</time>
      </trkpt>
      <trkpt lat="59.6126012788" lon="17.5004178005">
        <ele>0</ele>
        <time>2012-08-01T19:17:25Z</time>
      </trkpt>
      <trkpt lat="59.6126936473" lon="17.5004030484">
        <ele>0</ele>
        <time>2012-08-01T19:17:26Z</time>
      </trkpt>
      <trkpt lat="59.6127869379" lon="17.5003890506">
        <ele>0</ele>
        <time>2012-08-01T19:17:27Z</time>
      </trkpt>
      <trkpt lat="59.6128786359" lon="17.5003754719">
        <ele>0</ele>
        <time>2012-08-01T19:17:28Z</time>
      </trkpt>
      <trkpt lat="59.6134220344" lon="17.5002887193">
        <ele>0</ele>
        <time>2012-08-01T19:17:34Z</time>
      </trkpt>
      <trkpt lat="59.6136840526" lon="17.5002548564">
        <ele>0</ele>
        <time>2012-08-01T19:17:37Z</time>
      </trkpt>
      <trkpt lat="59.6142875494" lon="17.5001230091">
        <ele>0</ele>
        <time>2012-08-01T19:17:44Z</time>
      </trkpt>
      <trkpt lat="59.6143713684" lon="17.5000956841">
        <ele>0</ele>
        <time>2012-08-01T19:17:45Z</time>
      </trkpt>
      <trkpt lat="59.6149683274" lon="17.4998416287">
        <ele>0</ele>
        <time>2012-08-01T19:17:52Z</time>
      </trkpt>
      <trkpt lat="59.615053236" lon="17.4998017309">
        <ele>0</ele>
        <time>2012-08-01T19:17:53Z</time>
      </trkpt>
      <trkpt lat="59.615542236" lon="17.4995716477">
        <ele>0</ele>
        <time>2012-08-01T19:17:59Z</time>
      </trkpt>
      <trkpt lat="59.6159390352" lon="17.4993873297">
        <ele>0</ele>
        <time>2012-08-01T19:18:04Z</time>
      </trkpt>
      <trkpt lat="59.6160153943" lon="17.4993534669">
        <ele>0</ele>
        <time>2012-08-01T19:18:05Z</time>
      </trkpt>
      <trkpt lat="59.616089155" lon="17.4993136528">
        <ele>0</ele>
        <time>2012-08-01T19:18:06Z</time>
      </trkpt>
      <trkpt lat="59.6161642568" lon="17.4992784489">
        <ele>0</ele>
        <time>2012-08-01T19:18:07Z</time>
      </trkpt>
      <trkpt lat="59.6162411189" lon="17.4992400598">
        <ele>0</ele>
        <time>2012-08-01T19:18:08Z</time>
      </trkpt>
      <trkpt lat="59.6167877864" lon="17.4989321087">
        <ele>0</ele>
        <time>2012-08-01T19:18:15Z</time>
      </trkpt>
      <trkpt lat="59.6168626368" lon="17.4988834937">
        <ele>0</ele>
        <time>2012-08-01T19:18:16Z</time>
      </trkpt>
      <trkpt lat="59.6169354755" lon="17.4988369742">
        <ele>0</ele>
        <time>2012-08-01T19:18:17Z</time>
      </trkpt>
      <trkpt lat="59.6170104097" lon="17.498796322">
        <ele>0</ele>
        <time>2012-08-01T19:18:18Z</time>
      </trkpt>
      <trkpt lat="59.6170829131" lon="17.4987439351">
        <ele>0</ele>
        <time>2012-08-01T19:18:19Z</time>
      </trkpt>
      <trkpt lat="59.6173155946" lon="17.498589289">
        <ele>0</ele>
        <time>2012-08-01T19:18:22Z</time>
      </trkpt>
      <trkpt lat="59.6176180136" lon="17.4983911409">
        <ele>0</ele>
        <time>2012-08-01T19:18:26Z</time>
      </trkpt>
      <trkpt lat="59.6176969711" lon="17.4983376644">
        <ele>0</ele>
        <time>2012-08-01T19:18:27Z</time>
      </trkpt>
      <trkpt lat="59.6177712347" lon="17.4982846908">
        <ele>0</ele>
        <time>2012-08-01T19:18:28Z</time>
      </trkpt>
      <trkpt lat="59.6178464204" lon="17.4982375007">
        <ele>0</ele>
        <time>2012-08-01T19:18:29Z</time>
      </trkpt>
      <trkpt lat="59.6180714744" lon="17.4981016301">
        <ele>0</ele>
        <time>2012-08-01T19:18:32Z</time>
      </trkpt>
      <trkpt lat="59.6181467438" lon="17.4980657556">
        <ele>0</ele>
        <time>2012-08-01T19:18:33Z</time>
      </trkpt>
      <trkpt lat="59.6182197502" lon="17.4980260254">
        <ele>0</ele>
        <time>2012-08-01T19:18:34Z</time>
      </trkpt>
      <trkpt lat="59.6182885656" lon="17.4979932521">
        <ele>0</ele>
        <time>2012-08-01T19:18:35Z</time>
      </trkpt>
      <trkpt lat="59.618355537" lon="17.4979551983">
        <ele>0</ele>
        <time>2012-08-01T19:18:36Z</time>
      </trkpt>
      <trkpt lat="59.6184268669" lon="17.4979160548">
        <ele>0</ele>
        <time>2012-08-01T19:18:37Z</time>
      </trkpt>
      <trkpt lat="59.6184991189" lon="17.4978867182">
        <ele>0</ele>
        <time>2012-08-01T19:18:38Z</time>
      </trkpt>
      <trkpt lat="59.6190229877" lon="17.4977264563">
        <ele>0</ele>
        <time>2012-08-01T19:18:45Z</time>
      </trkpt>
      <trkpt lat="59.6191652285" lon="17.4976932639">
        <ele>0</ele>
        <time>2012-08-01T19:18:47Z</time>
      </trkpt>
      <trkpt lat="59.6192378158" lon="17.497683038">
        <ele>0</ele>
        <time>2012-08-01T19:18:48Z</time>
      </trkpt>
      <trkpt lat="59.6193078884" lon="17.4976729797">
        <ele>0</ele>
        <time>2012-08-01T19:18:49Z</time>
      </trkpt>
      <trkpt lat="59.6193806433" lon="17.4976683697">
        <ele>0</ele>
        <time>2012-08-01T19:18:50Z</time>
      </trkpt>
      <trkpt lat="59.6194514704" lon="17.4976674477">
        <ele>0</ele>
        <time>2012-08-01T19:18:51Z</time>
      </trkpt>
      <trkpt lat="59.619937453" lon="17.4976460738">
        <ele>0</ele>
        <time>2012-08-01T19:18:58Z</time>
      </trkpt>
      <trkpt lat="59.620074497" lon="17.4976411285">
        <ele>0</ele>
        <time>2012-08-01T19:19:00Z</time>
      </trkpt>
      <trkpt lat="59.6201377804" lon="17.497639033">
        <ele>0</ele>
        <time>2012-08-01T19:19:01Z</time>
      </trkpt>
      <trkpt lat="59.6202058414" lon="17.4976376081">
        <ele>0.2</ele>
        <time>2012-08-01T19:19:02Z</time>
      </trkpt>
      <trkpt lat="59.6202779257" lon="17.4976357641">
        <ele>0.6</ele>
        <time>2012-08-01T19:19:03Z</time>
      </trkpt>
      <trkpt lat="59.620353279" lon="17.4976334172">
        <ele>1</ele>
        <time>2012-08-01T19:19:04Z</time>
      </trkpt>
      <trkpt lat="59.6204300572" lon="17.4976341715">
        <ele>1</ele>
        <time>2012-08-01T19:19:05Z</time>
      </trkpt>
      <trkpt lat="59.6210644832" lon="17.4975403781">
        <ele>1</ele>
        <time>2012-08-01T19:19:13Z</time>
      </trkpt>
      <trkpt lat="59.6215440117" lon="17.4973574012">
        <ele>1</ele>
        <time>2012-08-01T19:19:19Z</time>
      </trkpt>
      <trkpt lat="59.6220822135" lon="17.4970324349">
        <ele>1</ele>
        <time>2012-08-01T19:19:26Z</time>
      </trkpt>
      <trkpt lat="59.6226008855" lon="17.4966218895">
        <ele>1</ele>
        <time>2012-08-01T19:19:33Z</time>
      </trkpt>
      <trkpt lat="59.6227519273" lon="17.4965043752">
        <ele>0.6</ele>
        <time>2012-08-01T19:19:35Z</time>
      </trkpt>
      <trkpt lat="59.6228276159" lon="17.4964543353">
        <ele>0.2</ele>
        <time>2012-08-01T19:19:36Z</time>
      </trkpt>
      <trkpt lat="59.6229044779" lon="17.4963985118">
        <ele>0</ele>
        <time>2012-08-01T19:19:37Z</time>
      </trkpt>
      <trkpt lat="59.6229857823" lon="17.49634009">
        <ele>0</ele>
        <time>2012-08-01T19:19:38Z</time>
      </trkpt>
      <trkpt lat="59.6230680088" lon="17.4962741244">
        <ele>0</ele>
        <time>2012-08-01T19:19:39Z</time>
      </trkpt>
      <trkpt lat="59.6235712581" lon="17.4958577955">
        <ele>0</ele>
        <time>2012-08-01T19:19:45Z</time>
      </trkpt>
      <trkpt lat="59.6236569211" lon="17.4957870522">
        <ele>0</ele>
        <time>2012-08-01T19:19:46Z</time>
      </trkpt>
      <trkpt lat="59.623744931" lon="17.4957249424">
        <ele>0</ele>
        <time>2012-08-01T19:19:47Z</time>
      </trkpt>
      <trkpt lat="59.6238324381" lon="17.4956601503">
        <ele>0</ele>
        <time>2012-08-01T19:19:48Z</time>
      </trkpt>
      <trkpt lat="59.6239233817" lon="17.495584797">
        <ele>0</ele>
        <time>2012-08-01T19:19:49Z</time>
      </trkpt>
      <trkpt lat="59.6240145767" lon="17.495514389">
        <ele>0</ele>
        <time>2012-08-01T19:19:50Z</time>
      </trkpt>
      <trkpt lat="59.6241044307" lon="17.4954397901">
        <ele>0</ele>
        <time>2012-08-01T19:19:51Z</time>
      </trkpt>
      <trkpt lat="59.6241974698" lon="17.4953629281">
        <ele>0</ele>
        <time>2012-08-01T19:19:52Z</time>
      </trkpt>
      <trkpt lat="59.6242905927" lon="17.4952803664">
        <ele>0</ele>
        <time>2012-08-01T19:19:53Z</time>
      </trkpt>
      <trkpt lat="59.6243818716" lon="17.4951786101">
        <ele>0</ele>
        <time>2012-08-01T19:19:54Z</time>
      </trkpt>
      <trkpt lat="59.62462897" lon="17.4947877621">
        <ele>0</ele>
        <time>2012-08-01T19:19:57Z</time>
      </trkpt>
      <trkpt lat="59.6247055806" lon="17.4946381452">
        <ele>0</ele>
        <time>2012-08-01T19:19:58Z</time>
      </trkpt>
      <trkpt lat="59.6247809339" lon="17.4944698366">
        <ele>0</ele>
        <time>2012-08-01T19:19:59Z</time>
      </trkpt>
      <trkpt lat="59.6248510066" lon="17.4943049647">
        <ele>0</ele>
        <time>2012-08-01T19:20:00Z</time>
      </trkpt>
      <trkpt lat="59.6249240967" lon="17.4941451218">
        <ele>0</ele>
        <time>2012-08-01T19:20:01Z</time>
      </trkpt>
      <trkpt lat="59.6249962649" lon="17.4939820939">
        <ele>0</ele>
        <time>2012-08-01T19:20:02Z</time>
      </trkpt>
      <trkpt lat="59.6250622304" lon="17.4938090077">
        <ele>0</ele>
        <time>2012-08-01T19:20:03Z</time>
      </trkpt>
      <trkpt lat="59.6251245079" lon="17.4936408667">
        <ele>0</ele>
        <time>2012-08-01T19:20:04Z</time>
      </trkpt>
      <trkpt lat="59.6251768948" lon="17.4934742346">
        <ele>0</ele>
        <time>2012-08-01T19:20:05Z</time>
      </trkpt>
      <trkpt lat="59.6252220733" lon="17.4933044173">
        <ele>0</ele>
        <time>2012-08-01T19:20:06Z</time>
      </trkpt>
      <trkpt lat="59.6252770585" lon="17.4931404673">
        <ele>0</ele>
        <time>2012-08-01T19:20:07Z</time>
      </trkpt>
      <trkpt lat="59.6253275176" lon="17.4930116375">
        <ele>0</ele>
        <time>2012-08-01T19:20:08Z</time>
      </trkpt>
      <trkpt lat="59.6253851012" lon="17.4929153295">
        <ele>0</ele>
        <time>2012-08-01T19:20:09Z</time>
      </trkpt>
      <trkpt lat="59.6254541681" lon="17.4928593384">
        <ele>0</ele>
        <time>2012-08-01T19:20:10Z</time>
      </trkpt>
      <trkpt lat="59.6255228997" lon="17.492842826">
        <ele>0</ele>
        <time>2012-08-01T19:20:11Z</time>
      </trkpt>
      <trkpt lat="59.6255878594" lon="17.4929024213">
        <ele>0</ele>
        <time>2012-08-01T19:20:12Z</time>
      </trkpt>
      <trkpt lat="59.625624153" lon="17.4930420638">
        <ele>0</ele>
        <time>2012-08-01T19:20:13Z</time>
      </trkpt>
      <trkpt lat="59.6256135918" lon="17.4932103724">
        <ele>0</ele>
        <time>2012-08-01T19:20:14Z</time>
      </trkpt>
      <trkpt lat="59.6255723529" lon="17.4933525294">
        <ele>0</ele>
        <time>2012-08-01T19:20:15Z</time>
      </trkpt>
      <trkpt lat="59.6255285993" lon="17.4935039903">
        <ele>0</ele>
        <time>2012-08-01T19:20:16Z</time>
      </trkpt>
      <trkpt lat="59.6254774698" lon="17.4936552836">
        <ele>0</ele>
        <time>2012-08-01T19:20:17Z</time>
      </trkpt>
      <trkpt lat="59.6254351412" lon="17.4938363326">
        <ele>0</ele>
        <time>2012-08-01T19:20:18Z</time>
      </trkpt>
      <trkpt lat="59.6254063074" lon="17.4940224946">
        <ele>0</ele>
        <time>2012-08-01T19:20:19Z</time>
      </trkpt>
      <trkpt lat="59.6253960815" lon="17.4942198884">
        <ele>0</ele>
        <time>2012-08-01T19:20:20Z</time>
      </trkpt>
      <trkpt lat="59.6254276813" lon="17.4946212976">
        <ele>0</ele>
        <time>2012-08-01T19:20:22Z</time>
      </trkpt>
      <trkpt lat="59.6255374003" lon="17.495222196">
        <ele>0</ele>
        <time>2012-08-01T19:20:25Z</time>
      </trkpt>
      <trkpt lat="59.6255850934" lon="17.4953993894">
        <ele>0</ele>
        <time>2012-08-01T19:20:26Z</time>
      </trkpt>
      <trkpt lat="59.6256444372" lon="17.4955588131">
        <ele>0</ele>
        <time>2012-08-01T19:20:27Z</time>
      </trkpt>
      <trkpt lat="59.6257821518" lon="17.4958402773">
        <ele>0</ele>
        <time>2012-08-01T19:20:29Z</time>
      </trkpt>
      <trkpt lat="59.6260332735" lon="17.4961005353">
        <ele>0</ele>
        <time>2012-08-01T19:20:32Z</time>
      </trkpt>
      <trkpt lat="59.6263870735" lon="17.4964629686">
        <ele>0</ele>
        <time>2012-08-01T19:20:36Z</time>
      </trkpt>
      <trkpt lat="59.6264768437" lon="17.4965512301">
        <ele>0</ele>
        <time>2012-08-01T19:20:37Z</time>
      </trkpt>
      <trkpt lat="59.6265720621" lon="17.4966338756">
        <ele>0</ele>
        <time>2012-08-01T19:20:38Z</time>
      </trkpt>
      <trkpt lat="59.6266603235" lon="17.4967174431">
        <ele>0</ele>
        <time>2012-08-01T19:20:39Z</time>
      </trkpt>
      <trkpt lat="59.6267522729" lon="17.4968051178">
        <ele>0</ele>
        <time>2012-08-01T19:20:40Z</time>
      </trkpt>
      <trkpt lat="59.6268399476" lon="17.4969176867">
        <ele>0</ele>
        <time>2012-08-01T19:20:41Z</time>
      </trkpt>
      <trkpt lat="59.6269938393" lon="17.4971884221">
        <ele>0</ele>
        <time>2012-08-01T19:20:43Z</time>
      </trkpt>
      <trkpt lat="59.6271311348" lon="17.4974924336">
        <ele>0</ele>
        <time>2012-08-01T19:20:45Z</time>
      </trkpt>
      <trkpt lat="59.6271817615" lon="17.4976483369">
        <ele>0</ele>
        <time>2012-08-01T19:20:46Z</time>
      </trkpt>
      <trkpt lat="59.6272354895" lon="17.4978008037">
        <ele>0</ele>
        <time>2012-08-01T19:20:47Z</time>
      </trkpt>
      <trkpt lat="59.6272842721" lon="17.4979543601">
        <ele>0</ele>
        <time>2012-08-01T19:20:48Z</time>
      </trkpt>
      <trkpt lat="59.6273367428" lon="17.4980958466">
        <ele>0</ele>
        <time>2012-08-01T19:20:49Z</time>
      </trkpt>
      <trkpt lat="59.6274889581" lon="17.4984977587">
        <ele>0</ele>
        <time>2012-08-01T19:20:52Z</time>
      </trkpt>
      <trkpt lat="59.6277897845" lon="17.4990881797">
        <ele>0</ele>
        <time>2012-08-01T19:20:57Z</time>
      </trkpt>
      <trkpt lat="59.6281566603" lon="17.4994708135">
        <ele>0</ele>
        <time>2012-08-01T19:21:02Z</time>
      </trkpt>
      <trkpt lat="59.628582377" lon="17.4997567201">
        <ele>0</ele>
        <time>2012-08-01T19:21:07Z</time>
      </trkpt>
      <trkpt lat="59.6289898211" lon="17.5001258589">
        <ele>0</ele>
        <time>2012-08-01T19:21:12Z</time>
      </trkpt>
      <trkpt lat="59.6292847802" lon="17.5001496635">
        <ele>0</ele>
        <time>2012-08-01T19:21:15Z</time>
      </trkpt>
      <trkpt lat="59.6293787413" lon="17.5001486577">
        <ele>0</ele>
        <time>2012-08-01T19:21:16Z</time>
      </trkpt>
      <trkpt lat="59.6294697687" lon="17.5001560338">
        <ele>0</ele>
        <time>2012-08-01T19:21:17Z</time>
      </trkpt>
      <trkpt lat="59.6295565214" lon="17.5001821015">
        <ele>0</ele>
        <time>2012-08-01T19:21:18Z</time>
      </trkpt>
      <trkpt lat="59.6296393346" lon="17.5002236757">
        <ele>0</ele>
        <time>2012-08-01T19:21:19Z</time>
      </trkpt>
      <trkpt lat="59.6297264225" lon="17.5002835225">
        <ele>0</ele>
        <time>2012-08-01T19:21:20Z</time>
      </trkpt>
      <trkpt lat="59.6300399056" lon="17.5006885359">
        <ele>0</ele>
        <time>2012-08-01T19:21:24Z</time>
      </trkpt>
      <trkpt lat="59.6302479443" lon="17.5012339461">
        <ele>0</ele>
        <time>2012-08-01T19:21:28Z</time>
      </trkpt>
      <trkpt lat="59.6303238005" lon="17.5015237084">
        <ele>0</ele>
        <time>2012-08-01T19:21:30Z</time>
      </trkpt>
      <trkpt lat="59.630357831" lon="17.5016866525">
        <ele>0</ele>
        <time>2012-08-01T19:21:31Z</time>
      </trkpt>
      <trkpt lat="59.6303864133" lon="17.5018409633">
        <ele>0</ele>
        <time>2012-08-01T19:21:32Z</time>
      </trkpt>
      <trkpt lat="59.6303971421" lon="17.5020067573">
        <ele>0</ele>
        <time>2012-08-01T19:21:33Z</time>
      </trkpt>
      <trkpt lat="59.6303756007" lon="17.5021681089">
        <ele>0</ele>
        <time>2012-08-01T19:21:34Z</time>
      </trkpt>
      <trkpt lat="59.6303440009" lon="17.5023113556">
        <ele>0</ele>
        <time>2012-08-01T19:21:35Z</time>
      </trkpt>
      <trkpt lat="59.6302650434" lon="17.5025655786">
        <ele>0</ele>
        <time>2012-08-01T19:21:37Z</time>
      </trkpt>
      <trkpt lat="59.6301908636" lon="17.5028100786">
        <ele>0</ele>
        <time>2012-08-01T19:21:39Z</time>
      </trkpt>
      <trkpt lat="59.630165215" lon="17.5029410877">
        <ele>0</ele>
        <time>2012-08-01T19:21:40Z</time>
      </trkpt>
      <trkpt lat="59.6300880177" lon="17.503359596">
        <ele>0</ele>
        <time>2012-08-01T19:21:43Z</time>
      </trkpt>
      <trkpt lat="59.6300844973" lon="17.5035066983">
        <ele>0</ele>
        <time>2012-08-01T19:21:44Z</time>
      </trkpt>
      <trkpt lat="59.6300995009" lon="17.503821271">
        <ele>0</ele>
        <time>2012-08-01T19:21:46Z</time>
      </trkpt>
      <trkpt lat="59.6301305139" lon="17.5041503444">
        <ele>0</ele>
        <time>2012-08-01T19:21:48Z</time>
      </trkpt>
      <trkpt lat="59.6302016762" lon="17.5046429487">
        <ele>0</ele>
        <time>2012-08-01T19:21:51Z</time>
      </trkpt>
      <trkpt lat="59.6303761874" lon="17.5057652013">
        <ele>0</ele>
        <time>2012-08-01T19:21:58Z</time>
      </trkpt>
      <trkpt lat="59.6303983156" lon="17.5059155726">
        <ele>0</ele>
        <time>2012-08-01T19:21:59Z</time>
      </trkpt>
      <trkpt lat="59.6305615112" lon="17.5069576942">
        <ele>0</ele>
        <time>2012-08-01T19:22:06Z</time>
      </trkpt>
      <trkpt lat="59.630707943" lon="17.5080789409">
        <ele>0</ele>
        <time>2012-08-01T19:22:13Z</time>
      </trkpt>
      <trkpt lat="59.630750523" lon="17.5084014765">
        <ele>0</ele>
        <time>2012-08-01T19:22:15Z</time>
      </trkpt>
      <trkpt lat="59.6309105335" lon="17.5094953982">
        <ele>0</ele>
        <time>2012-08-01T19:22:22Z</time>
      </trkpt>
      <trkpt lat="59.6310494216" lon="17.5100677144">
        <ele>0</ele>
        <time>2012-08-01T19:22:26Z</time>
      </trkpt>
      <trkpt lat="59.6310950191" lon="17.5101884975">
        <ele>0</ele>
        <time>2012-08-01T19:22:27Z</time>
      </trkpt>
      <trkpt lat="59.6313814287" lon="17.5108292938">
        <ele>0</ele>
        <time>2012-08-01T19:22:33Z</time>
      </trkpt>
      <trkpt lat="59.6315889645" lon="17.5112981773">
        <ele>0</ele>
        <time>2012-08-01T19:22:37Z</time>
      </trkpt>
      <trkpt lat="59.6316379148" lon="17.5114203016">
        <ele>0</ele>
        <time>2012-08-01T19:22:38Z</time>
      </trkpt>
      <trkpt lat="59.631690637" lon="17.5115446051">
        <ele>0</ele>
        <time>2012-08-01T19:22:39Z</time>
      </trkpt>
      <trkpt lat="59.6317384138" lon="17.5116569226">
        <ele>0</ele>
        <time>2012-08-01T19:22:40Z</time>
      </trkpt>
      <trkpt lat="59.6317835084" lon="17.5117733472">
        <ele>0</ele>
        <time>2012-08-01T19:22:41Z</time>
      </trkpt>
      <trkpt lat="59.6319557564" lon="17.5122437394">
        <ele>0</ele>
        <time>2012-08-01T19:22:45Z</time>
      </trkpt>
      <trkpt lat="59.6322162659" lon="17.5130442947">
        <ele>0</ele>
        <time>2012-08-01T19:22:51Z</time>
      </trkpt>
      <trkpt lat="59.6323328581" lon="17.5134414291">
        <ele>0</ele>
        <time>2012-08-01T19:22:54Z</time>
      </trkpt>
      <trkpt lat="59.6323757735" lon="17.5135621285">
        <ele>0</ele>
        <time>2012-08-01T19:22:55Z</time>
      </trkpt>
      <trkpt lat="59.6324207843" lon="17.5136764576">
        <ele>0</ele>
        <time>2012-08-01T19:22:56Z</time>
      </trkpt>
      <trkpt lat="59.63247183" lon="17.5137916249">
        <ele>0</ele>
        <time>2012-08-01T19:22:57Z</time>
      </trkpt>
      <trkpt lat="59.6325285755" lon="17.5139067922">
        <ele>0</ele>
        <time>2012-08-01T19:22:58Z</time>
      </trkpt>
      <trkpt lat="59.6328695512" lon="17.514413059">
        <ele>0</ele>
        <time>2012-08-01T19:23:03Z</time>
      </trkpt>
      <trkpt lat="59.633365592" lon="17.5151242632">
        <ele>0</ele>
        <time>2012-08-01T19:23:10Z</time>
      </trkpt>
      <trkpt lat="59.6335019655" lon="17.5153046417">
        <ele>0</ele>
        <time>2012-08-01T19:23:12Z</time>
      </trkpt>
      <trkpt lat="59.6337068192" lon="17.5155414303">
        <ele>0</ele>
        <time>2012-08-01T19:23:15Z</time>
      </trkpt>
      <trkpt lat="59.6337732876" lon="17.5156200526">
        <ele>0</ele>
        <time>2012-08-01T19:23:16Z</time>
      </trkpt>
      <trkpt lat="59.6338389179" lon="17.5156990939">
        <ele>0</ele>
        <time>2012-08-01T19:23:17Z</time>
      </trkpt>
      <trkpt lat="59.6339146903" lon="17.5157794763">
        <ele>0</ele>
        <time>2012-08-01T19:23:18Z</time>
      </trkpt>
      <trkpt lat="59.6339849306" lon="17.5158584338">
        <ele>0</ele>
        <time>2012-08-01T19:23:19Z</time>
      </trkpt>
      <trkpt lat="59.6345024291" lon="17.5164375393">
        <ele>0</ele>
        <time>2012-08-01T19:23:26Z</time>
      </trkpt>
      <trkpt lat="59.6345757707" lon="17.5165341826">
        <ele>0</ele>
        <time>2012-08-01T19:23:27Z</time>
      </trkpt>
      <trkpt lat="59.6347111384" lon="17.516746999">
        <ele>0</ele>
        <time>2012-08-01T19:23:29Z</time>
      </trkpt>
      <trkpt lat="59.6348877451" lon="17.5171196583">
        <ele>0</ele>
        <time>2012-08-01T19:23:32Z</time>
      </trkpt>
      <trkpt lat="59.6352707141" lon="17.5180582634">
        <ele>0</ele>
        <time>2012-08-01T19:23:39Z</time>
      </trkpt>
      <trkpt lat="59.6353239391" lon="17.5181936311">
        <ele>0</ele>
        <time>2012-08-01T19:23:40Z</time>
      </trkpt>
      <trkpt lat="59.635463414" lon="17.5186397158">
        <ele>0</ele>
        <time>2012-08-01T19:23:43Z</time>
      </trkpt>
      <trkpt lat="59.6355772402" lon="17.5191011394">
        <ele>0</ele>
        <time>2012-08-01T19:23:46Z</time>
      </trkpt>
      <trkpt lat="59.6356044813" lon="17.5192695318">
        <ele>0</ele>
        <time>2012-08-01T19:23:47Z</time>
      </trkpt>
      <trkpt lat="59.6356615621" lon="17.5197473001">
        <ele>0</ele>
        <time>2012-08-01T19:23:50Z</time>
      </trkpt>
      <trkpt lat="59.6357413578" lon="17.5208305769">
        <ele>0</ele>
        <time>2012-08-01T19:23:57Z</time>
      </trkpt>
      <trkpt lat="59.6358525856" lon="17.5215159648">
        <ele>0</ele>
        <time>2012-08-01T19:24:02Z</time>
      </trkpt>
      <trkpt lat="59.6358923996" lon="17.5216266059">
        <ele>0</ele>
        <time>2012-08-01T19:24:03Z</time>
      </trkpt>
      <trkpt lat="59.6360405916" lon="17.5218915578">
        <ele>0</ele>
        <time>2012-08-01T19:24:06Z</time>
      </trkpt>
      <trkpt lat="59.6360957445" lon="17.5219620496">
        <ele>0</ele>
        <time>2012-08-01T19:24:07Z</time>
      </trkpt>
      <trkpt lat="59.6362209701" lon="17.5220661527">
        <ele>0</ele>
        <time>2012-08-01T19:24:09Z</time>
      </trkpt>
      <trkpt lat="59.6364192858" lon="17.5222117464">
        <ele>0</ele>
        <time>2012-08-01T19:24:12Z</time>
      </trkpt>
      <trkpt lat="59.6368570725" lon="17.5226049413">
        <ele>0</ele>
        <time>2012-08-01T19:24:19Z</time>
      </trkpt>
      <trkpt lat="59.6372936018" lon="17.5231461606">
        <ele>0</ele>
        <time>2012-08-01T19:24:26Z</time>
      </trkpt>
      <trkpt lat="59.637418576" lon="17.5233001361">
        <ele>0</ele>
        <time>2012-08-01T19:24:28Z</time>
      </trkpt>
      <trkpt lat="59.6374842062" lon="17.5233744835">
        <ele>0</ele>
        <time>2012-08-01T19:24:29Z</time>
      </trkpt>
      <trkpt lat="59.6375501718" lon="17.5234460649">
        <ele>0</ele>
        <time>2012-08-01T19:24:30Z</time>
      </trkpt>
      <trkpt lat="59.6376189872" lon="17.5235239328">
        <ele>0</ele>
        <time>2012-08-01T19:24:31Z</time>
      </trkpt>
      <trkpt lat="59.6376960168" lon="17.5236047343">
        <ele>0</ele>
        <time>2012-08-01T19:24:32Z</time>
      </trkpt>
      <trkpt lat="59.6378444603" lon="17.5237603024">
        <ele>0</ele>
        <time>2012-08-01T19:24:34Z</time>
      </trkpt>
      <trkpt lat="59.6383493859" lon="17.5243262483">
        <ele>0</ele>
        <time>2012-08-01T19:24:41Z</time>
      </trkpt>
      <trkpt lat="59.6384903695" lon="17.5244890248">
        <ele>0</ele>
        <time>2012-08-01T19:24:43Z</time>
      </trkpt>
      <trkpt lat="59.6389926968" lon="17.5250837206">
        <ele>0</ele>
        <time>2012-08-01T19:24:50Z</time>
      </trkpt>
      <trkpt lat="59.6390646135" lon="17.5251748318">
        <ele>0</ele>
        <time>2012-08-01T19:24:51Z</time>
      </trkpt>
      <trkpt lat="59.6395730595" lon="17.5258787438">
        <ele>0</ele>
        <time>2012-08-01T19:24:58Z</time>
      </trkpt>
      <trkpt lat="59.6396459821" lon="17.5259855292">
        <ele>0</ele>
        <time>2012-08-01T19:24:59Z</time>
      </trkpt>
      <trkpt lat="59.6401467168" lon="17.5267331108">
        <ele>0</ele>
        <time>2012-08-01T19:25:06Z</time>
      </trkpt>
      <trkpt lat="59.6403571863" lon="17.5270668781">
        <ele>0</ele>
        <time>2012-08-01T19:25:09Z</time>
      </trkpt>
      <trkpt lat="59.6406907021" lon="17.5276174013">
        <ele>0</ele>
        <time>2012-08-01T19:25:14Z</time>
      </trkpt>
      <trkpt lat="59.6411635251" lon="17.5283652344">
        <ele>0</ele>
        <time>2012-08-01T19:25:21Z</time>
      </trkpt>
      <trkpt lat="59.6416671096" lon="17.5290493651">
        <ele>0</ele>
        <time>2012-08-01T19:25:28Z</time>
      </trkpt>
      <trkpt lat="59.6418805128" lon="17.529331416">
        <ele>0</ele>
        <time>2012-08-01T19:25:31Z</time>
      </trkpt>
      <trkpt lat="59.6423763022" lon="17.5299821867">
        <ele>0</ele>
        <time>2012-08-01T19:25:38Z</time>
      </trkpt>
      <trkpt lat="59.6424474645" lon="17.5300734656">
        <ele>0</ele>
        <time>2012-08-01T19:25:39Z</time>
      </trkpt>
      <trkpt lat="59.6428442636" lon="17.5306069736">
        <ele>0</ele>
        <time>2012-08-01T19:25:45Z</time>
      </trkpt>
      <trkpt lat="59.6432091277" lon="17.5310921179">
        <ele>0</ele>
        <time>2012-08-01T19:25:51Z</time>
      </trkpt>
      <trkpt lat="59.6432674658" lon="17.5311687285">
        <ele>0</ele>
        <time>2012-08-01T19:25:52Z</time>
      </trkpt>
      <trkpt lat="59.6433236245" lon="17.5312434112">
        <ele>0</ele>
        <time>2012-08-01T19:25:53Z</time>
      </trkpt>
      <trkpt lat="59.6433818787" lon="17.5313207762">
        <ele>0</ele>
        <time>2012-08-01T19:25:54Z</time>
      </trkpt>
      <trkpt lat="59.6434390433" lon="17.5313960456">
        <ele>0</ele>
        <time>2012-08-01T19:25:55Z</time>
      </trkpt>
      <trkpt lat="59.6436057593" lon="17.5316247877">
        <ele>0</ele>
        <time>2012-08-01T19:25:58Z</time>
      </trkpt>
      <trkpt lat="59.6437083537" lon="17.53176728">
        <ele>0</ele>
        <time>2012-08-01T19:26:00Z</time>
      </trkpt>
      <trkpt lat="59.643760992" lon="17.5318382747">
        <ele>0</ele>
        <time>2012-08-01T19:26:01Z</time>
      </trkpt>
      <trkpt lat="59.6438188272" lon="17.5319137956">
        <ele>0</ele>
        <time>2012-08-01T19:26:02Z</time>
      </trkpt>
      <trkpt lat="59.6438748182" lon="17.5319880592">
        <ele>0</ele>
        <time>2012-08-01T19:26:03Z</time>
      </trkpt>
      <trkpt lat="59.6439313961" lon="17.5320631611">
        <ele>0</ele>
        <time>2012-08-01T19:26:04Z</time>
      </trkpt>
      <trkpt lat="59.6439869681" lon="17.5321398554">
        <ele>0</ele>
        <time>2012-08-01T19:26:05Z</time>
      </trkpt>
      <trkpt lat="59.6442713659" lon="17.5325181306">
        <ele>0</ele>
        <time>2012-08-01T19:26:10Z</time>
      </trkpt>
      <trkpt lat="59.6443263512" lon="17.5325881195">
        <ele>0</ele>
        <time>2012-08-01T19:26:11Z</time>
      </trkpt>
      <trkpt lat="59.6443825937" lon="17.5326571025">
        <ele>0</ele>
        <time>2012-08-01T19:26:12Z</time>
      </trkpt>
      <trkpt lat="59.6444400936" lon="17.532724493">
        <ele>0</ele>
        <time>2012-08-01T19:26:13Z</time>
      </trkpt>
      <trkpt lat="59.6444967552" lon="17.5327887821">
        <ele>0</ele>
        <time>2012-08-01T19:26:14Z</time>
      </trkpt>
      <trkpt lat="59.6445508185" lon="17.5328537419">
        <ele>0</ele>
        <time>2012-08-01T19:26:15Z</time>
      </trkpt>
      <trkpt lat="59.644607983" lon="17.5329226411">
        <ele>0</ele>
        <time>2012-08-01T19:26:16Z</time>
      </trkpt>
      <trkpt lat="59.6446701767" lon="17.5329958989">
        <ele>0</ele>
        <time>2012-08-01T19:26:17Z</time>
      </trkpt>
      <trkpt lat="59.6447303588" lon="17.533063457">
        <ele>0</ele>
        <time>2012-08-01T19:26:18Z</time>
      </trkpt>
      <trkpt lat="59.6451388926" lon="17.5335085359">
        <ele>0</ele>
        <time>2012-08-01T19:26:25Z</time>
      </trkpt>
      <trkpt lat="59.6456689639" lon="17.5340541976">
        <ele>0</ele>
        <time>2012-08-01T19:26:33Z</time>
      </trkpt>
      <trkpt lat="59.6458708839" lon="17.5342664273">
        <ele>0</ele>
        <time>2012-08-01T19:26:36Z</time>
      </trkpt>
      <trkpt lat="59.6459373524" lon="17.5343396851">
        <ele>0</ele>
        <time>2012-08-01T19:26:37Z</time>
      </trkpt>
      <trkpt lat="59.6460043238" lon="17.5344135296">
        <ele>0</ele>
        <time>2012-08-01T19:26:38Z</time>
      </trkpt>
      <trkpt lat="59.6460717981" lon="17.5344852787">
        <ele>0</ele>
        <time>2012-08-01T19:26:39Z</time>
      </trkpt>
      <trkpt lat="59.6461429604" lon="17.5345579498">
        <ele>0</ele>
        <time>2012-08-01T19:26:40Z</time>
      </trkpt>
      <trkpt lat="59.6462796692" lon="17.5346932336">
        <ele>0</ele>
        <time>2012-08-01T19:26:42Z</time>
      </trkpt>
      <trkpt lat="59.6467319565" lon="17.5351672301">
        <ele>0</ele>
        <time>2012-08-01T19:26:49Z</time>
      </trkpt>
      <trkpt lat="59.6471233074" lon="17.5355863251">
        <ele>0</ele>
        <time>2012-08-01T19:26:55Z</time>
      </trkpt>
      <trkpt lat="59.6471837409" lon="17.5356579903">
        <ele>0</ele>
        <time>2012-08-01T19:26:56Z</time>
      </trkpt>
      <trkpt lat="59.6472467728" lon="17.5357327569">
        <ele>0</ele>
        <time>2012-08-01T19:26:57Z</time>
      </trkpt>
      <trkpt lat="59.6473097209" lon="17.535811882">
        <ele>0</ele>
        <time>2012-08-01T19:26:58Z</time>
      </trkpt>
      <trkpt lat="59.647372166" lon="17.535894779">
        <ele>0</ele>
        <time>2012-08-01T19:26:59Z</time>
      </trkpt>
      <trkpt lat="59.6477488486" lon="17.5364516724">
        <ele>0</ele>
        <time>2012-08-01T19:27:05Z</time>
      </trkpt>
      <trkpt lat="59.6481989566" lon="17.5371454423">
        <ele>0</ele>
        <time>2012-08-01T19:27:12Z</time>
      </trkpt>
      <trkpt lat="59.6485071591" lon="17.5375994898">
        <ele>0</ele>
        <time>2012-08-01T19:27:17Z</time>
      </trkpt>
      <trkpt lat="59.6485733761" lon="17.5376918584">
        <ele>0</ele>
        <time>2012-08-01T19:27:18Z</time>
      </trkpt>
      <trkpt lat="59.6486376653" lon="17.5377807903">
        <ele>0</ele>
        <time>2012-08-01T19:27:19Z</time>
      </trkpt>
      <trkpt lat="59.6487032117" lon="17.5378708119">
        <ele>0</ele>
        <time>2012-08-01T19:27:20Z</time>
      </trkpt>
      <trkpt lat="59.64876792" lon="17.5379611688">
        <ele>0</ele>
        <time>2012-08-01T19:27:21Z</time>
      </trkpt>
      <trkpt lat="59.6488319577" lon="17.5380508551">
        <ele>0</ele>
        <time>2012-08-01T19:27:22Z</time>
      </trkpt>
      <trkpt lat="59.6491407469" lon="17.5384981133">
        <ele>0</ele>
        <time>2012-08-01T19:27:27Z</time>
      </trkpt>
      <trkpt lat="59.6494870032" lon="17.5390791466">
        <ele>0</ele>
        <time>2012-08-01T19:27:33Z</time>
      </trkpt>
      <trkpt lat="59.6496476004" lon="17.5393508878">
        <ele>0</ele>
        <time>2012-08-01T19:27:36Z</time>
      </trkpt>
      <trkpt lat="59.6496988138" lon="17.5394435078">
        <ele>0</ele>
        <time>2012-08-01T19:27:37Z</time>
      </trkpt>
      <trkpt lat="59.6497481832" lon="17.5395379718">
        <ele>0</ele>
        <time>2012-08-01T19:27:38Z</time>
      </trkpt>
      <trkpt lat="59.6498004863" lon="17.5396341961">
        <ele>0</ele>
        <time>2012-08-01T19:27:39Z</time>
      </trkpt>
      <trkpt lat="59.6498549686" lon="17.5397376287">
        <ele>0</ele>
        <time>2012-08-01T19:27:40Z</time>
      </trkpt>
      <trkpt lat="59.6501671944" lon="17.5403328274">
        <ele>0</ele>
        <time>2012-08-01T19:27:46Z</time>
      </trkpt>
      <trkpt lat="59.6502185754" lon="17.540434919">
        <ele>0</ele>
        <time>2012-08-01T19:27:47Z</time>
      </trkpt>
      <trkpt lat="59.6502725549" lon="17.5405438837">
        <ele>0</ele>
        <time>2012-08-01T19:27:48Z</time>
      </trkpt>
      <trkpt lat="59.6503249418" lon="17.5406520102">
        <ele>0</ele>
        <time>2012-08-01T19:27:49Z</time>
      </trkpt>
      <trkpt lat="59.6503773286" lon="17.5407585441">
        <ele>0</ele>
        <time>2012-08-01T19:27:50Z</time>
      </trkpt>
      <trkpt lat="59.6505333996" lon="17.5410678362">
        <ele>0</ele>
        <time>2012-08-01T19:27:53Z</time>
      </trkpt>
      <trkpt lat="59.6506377543" lon="17.5412781381">
        <ele>0</ele>
        <time>2012-08-01T19:27:55Z</time>
      </trkpt>
      <trkpt lat="59.6506870398" lon="17.541381906">
        <ele>0</ele>
        <time>2012-08-01T19:27:56Z</time>
      </trkpt>
      <trkpt lat="59.6507352358" lon="17.5414853387">
        <ele>0</ele>
        <time>2012-08-01T19:27:57Z</time>
      </trkpt>
      <trkpt lat="59.6507840184" lon="17.5415880169">
        <ele>0</ele>
        <time>2012-08-01T19:27:58Z</time>
      </trkpt>
      <trkpt lat="59.6508327173" lon="17.5416865043">
        <ele>0</ele>
        <time>2012-08-01T19:27:59Z</time>
      </trkpt>
      <trkpt lat="59.6509289415" lon="17.5418748456">
        <ele>0.2</ele>
        <time>2012-08-01T19:28:01Z</time>
      </trkpt>
      <trkpt lat="59.6509752934" lon="17.5419763504">
        <ele>0.6</ele>
        <time>2012-08-01T19:28:02Z</time>
      </trkpt>
      <trkpt lat="59.6510205556" lon="17.54207006">
        <ele>1</ele>
        <time>2012-08-01T19:28:03Z</time>
      </trkpt>
      <trkpt lat="59.6510676619" lon="17.5421647755">
        <ele>1.4</ele>
        <time>2012-08-01T19:28:04Z</time>
      </trkpt>
      <trkpt lat="59.6511151035" lon="17.5422589042">
        <ele>1.8</ele>
        <time>2012-08-01T19:28:05Z</time>
      </trkpt>
      <trkpt lat="59.6511638023" lon="17.5423569725">
        <ele>1.8</ele>
        <time>2012-08-01T19:28:06Z</time>
      </trkpt>
      <trkpt lat="59.6514111522" lon="17.5428612276">
        <ele>2.2</ele>
        <time>2012-08-01T19:28:11Z</time>
      </trkpt>
      <trkpt lat="59.6514593481" lon="17.5429644087">
        <ele>2.6</ele>
        <time>2012-08-01T19:28:12Z</time>
      </trkpt>
      <trkpt lat="59.6515068735" lon="17.5430678414">
        <ele>3</ele>
        <time>2012-08-01T19:28:13Z</time>
      </trkpt>
      <trkpt lat="59.6515545665" lon="17.5431669993">
        <ele>3.4</ele>
        <time>2012-08-01T19:28:14Z</time>
      </trkpt>
      <trkpt lat="59.6516032653" lon="17.5432680012">
        <ele>3.8</ele>
        <time>2012-08-01T19:28:15Z</time>
      </trkpt>
      <trkpt lat="59.651840976" lon="17.5437872599">
        <ele>3.8</ele>
        <time>2012-08-01T19:28:20Z</time>
      </trkpt>
      <trkpt lat="59.6521397069" lon="17.5445709675">
        <ele>3.8</ele>
        <time>2012-08-01T19:28:27Z</time>
      </trkpt>
      <trkpt lat="59.6523603185" lon="17.5452396755">
        <ele>3.8</ele>
        <time>2012-08-01T19:28:32Z</time>
      </trkpt>
      <trkpt lat="59.6526382623" lon="17.5462605909">
        <ele>3.8</ele>
        <time>2012-08-01T19:28:39Z</time>
      </trkpt>
      <trkpt lat="59.652837081" lon="17.5471877967">
        <ele>3.8</ele>
        <time>2012-08-01T19:28:45Z</time>
      </trkpt>
      <trkpt lat="59.6530157831" lon="17.5482728337">
        <ele>3.8</ele>
        <time>2012-08-01T19:28:52Z</time>
      </trkpt>
      <trkpt lat="59.6530752946" lon="17.5487444832">
        <ele>4.2</ele>
        <time>2012-08-01T19:28:55Z</time>
      </trkpt>
      <trkpt lat="59.653093651" lon="17.5488930943">
        <ele>4.6</ele>
        <time>2012-08-01T19:28:56Z</time>
      </trkpt>
      <trkpt lat="59.6531087384" lon="17.5490462316">
        <ele>5</ele>
        <time>2012-08-01T19:28:57Z</time>
      </trkpt>
      <trkpt lat="59.653124664" lon="17.5491991174">
        <ele>5.6</ele>
        <time>2012-08-01T19:28:58Z</time>
      </trkpt>
      <trkpt lat="59.6531405058" lon="17.54934798">
        <ele>6</ele>
        <time>2012-08-01T19:28:59Z</time>
      </trkpt>
      <trkpt lat="59.6532206367" lon="17.5504273172">
        <ele>6</ele>
        <time>2012-08-01T19:29:06Z</time>
      </trkpt>
      <trkpt lat="59.6532466206" lon="17.551504559">
        <ele>6</ele>
        <time>2012-08-01T19:29:13Z</time>
      </trkpt>
      <trkpt lat="59.653242765" lon="17.5516669164">
        <ele>6</ele>
        <time>2012-08-01T19:29:14Z</time>
      </trkpt>
      <trkpt lat="59.6531969998" lon="17.5528741615">
        <ele>6</ele>
        <time>2012-08-01T19:29:21Z</time>
      </trkpt>
      <trkpt lat="59.6531863548" lon="17.5530510196">
        <ele>6</ele>
        <time>2012-08-01T19:29:22Z</time>
      </trkpt>
      <trkpt lat="59.6531135161" lon="17.5539654849">
        <ele>5.6</ele>
        <time>2012-08-01T19:29:27Z</time>
      </trkpt>
      <trkpt lat="59.6530932319" lon="17.5541504734">
        <ele>5</ele>
        <time>2012-08-01T19:29:28Z</time>
      </trkpt>
      <trkpt lat="59.6530703493" lon="17.554335881">
        <ele>4.6</ele>
        <time>2012-08-01T19:29:29Z</time>
      </trkpt>
      <trkpt lat="59.653046377" lon="17.5545198637">
        <ele>4.2</ele>
        <time>2012-08-01T19:29:30Z</time>
      </trkpt>
      <trkpt lat="59.6530198902" lon="17.5547104681">
        <ele>3.8</ele>
        <time>2012-08-01T19:29:31Z</time>
      </trkpt>
      <trkpt lat="59.6528861151" lon="17.555585287">
        <ele>3.8</ele>
        <time>2012-08-01T19:29:36Z</time>
      </trkpt>
      <trkpt lat="59.6528241729" lon="17.5559194734">
        <ele>3.2</ele>
        <time>2012-08-01T19:29:38Z</time>
      </trkpt>
      <trkpt lat="59.6527913158" lon="17.5560861894">
        <ele>2.8</ele>
        <time>2012-08-01T19:29:39Z</time>
      </trkpt>
      <trkpt lat="59.652755106" lon="17.5562578507">
        <ele>2.2</ele>
        <time>2012-08-01T19:29:40Z</time>
      </trkpt>
      <trkpt lat="59.6527158787" lon="17.5564367204">
        <ele>1.8</ele>
        <time>2012-08-01T19:29:41Z</time>
      </trkpt>
      <trkpt lat="59.6526783278" lon="17.5566060348">
        <ele>1.2</ele>
        <time>2012-08-01T19:29:42Z</time>
      </trkpt>
      <trkpt lat="59.6525980292" lon="17.5569465076">
        <ele>1.2</ele>
        <time>2012-08-01T19:29:44Z</time>
      </trkpt>
      <trkpt lat="59.6524660143" lon="17.5574484158">
        <ele>0.8</ele>
        <time>2012-08-01T19:29:47Z</time>
      </trkpt>
      <trkpt lat="59.6524165611" lon="17.5576194065">
        <ele>0.4</ele>
        <time>2012-08-01T19:29:48Z</time>
      </trkpt>
      <trkpt lat="59.6523683652" lon="17.5577802552">
        <ele>0</ele>
        <time>2012-08-01T19:29:49Z</time>
      </trkpt>
      <trkpt lat="59.652319834" lon="17.5579396789">
        <ele>0</ele>
        <time>2012-08-01T19:29:50Z</time>
      </trkpt>
      <trkpt lat="59.6522692073" lon="17.558093403">
        <ele>0</ele>
        <time>2012-08-01T19:29:51Z</time>
      </trkpt>
      <trkpt lat="59.6522164013" lon="17.5582450315">
        <ele>0</ele>
        <time>2012-08-01T19:29:52Z</time>
      </trkpt>
      <trkpt lat="59.6521635115" lon="17.5583977498">
        <ele>0</ele>
        <time>2012-08-01T19:29:53Z</time>
      </trkpt>
      <trkpt lat="59.6521093644" lon="17.5585493783">
        <ele>0</ele>
        <time>2012-08-01T19:29:54Z</time>
      </trkpt>
      <trkpt lat="59.6520491824" lon="17.558708383">
        <ele>0</ele>
        <time>2012-08-01T19:29:55Z</time>
      </trkpt>
      <trkpt lat="59.65193083" lon="17.5590192676">
        <ele>0</ele>
        <time>2012-08-01T19:29:57Z</time>
      </trkpt>
      <trkpt lat="59.6518059397" lon="17.5593276377">
        <ele>0</ele>
        <time>2012-08-01T19:29:59Z</time>
      </trkpt>
      <trkpt lat="59.6517426563" lon="17.5594832058">
        <ele>0</ele>
        <time>2012-08-01T19:30:00Z</time>
      </trkpt>
      <trkpt lat="59.6516720807" lon="17.5596407855">
        <ele>0</ele>
        <time>2012-08-01T19:30:01Z</time>
      </trkpt>
      <trkpt lat="59.6516027624" lon="17.5597904863">
        <ele>0</ele>
        <time>2012-08-01T19:30:02Z</time>
      </trkpt>
      <trkpt lat="59.651533025" lon="17.5599364151">
        <ele>0</ele>
        <time>2012-08-01T19:30:03Z</time>
      </trkpt>
      <trkpt lat="59.6512363057" lon="17.560507474">
        <ele>0</ele>
        <time>2012-08-01T19:30:07Z</time>
      </trkpt>
      <trkpt lat="59.6511593599" lon="17.5606451048">
        <ele>0</ele>
        <time>2012-08-01T19:30:08Z</time>
      </trkpt>
      <trkpt lat="59.6510814082" lon="17.5607819812">
        <ele>0</ele>
        <time>2012-08-01T19:30:09Z</time>
      </trkpt>
      <trkpt lat="59.6510042947" lon="17.560913577">
        <ele>0</ele>
        <time>2012-08-01T19:30:10Z</time>
      </trkpt>
      <trkpt lat="59.6509229903" lon="17.561050202">
        <ele>0</ele>
        <time>2012-08-01T19:30:11Z</time>
      </trkpt>
      <trkpt lat="59.650599449" lon="17.5615167386">
        <ele>0</ele>
        <time>2012-08-01T19:30:15Z</time>
      </trkpt>
      <trkpt lat="59.6505196533" lon="17.5616283017">
        <ele>0</ele>
        <time>2012-08-01T19:30:16Z</time>
      </trkpt>
      <trkpt lat="59.6504390194" lon="17.5617404515">
        <ele>0</ele>
        <time>2012-08-01T19:30:17Z</time>
      </trkpt>
      <trkpt lat="59.6503517638" lon="17.561853188">
        <ele>0</ele>
        <time>2012-08-01T19:30:18Z</time>
      </trkpt>
      <trkpt lat="59.6502672743" lon="17.561956453">
        <ele>0</ele>
        <time>2012-08-01T19:30:19Z</time>
      </trkpt>
      <trkpt lat="59.6501816951" lon="17.5620567844">
        <ele>0</ele>
        <time>2012-08-01T19:30:20Z</time>
      </trkpt>
      <trkpt lat="59.650093266" lon="17.5621538468">
        <ele>0</ele>
        <time>2012-08-01T19:30:21Z</time>
      </trkpt>
      <trkpt lat="59.6497332634" lon="17.5625230695">
        <ele>0</ele>
        <time>2012-08-01T19:30:25Z</time>
      </trkpt>
      <trkpt lat="59.6496441638" lon="17.5626161086">
        <ele>0</ele>
        <time>2012-08-01T19:30:26Z</time>
      </trkpt>
      <trkpt lat="59.6495585846" lon="17.5626985026">
        <ele>0</ele>
        <time>2012-08-01T19:30:27Z</time>
      </trkpt>
      <trkpt lat="59.6494733407" lon="17.5627777116">
        <ele>0</ele>
        <time>2012-08-01T19:30:28Z</time>
      </trkpt>
      <trkpt lat="59.6493884321" lon="17.5628540707">
        <ele>0</ele>
        <time>2012-08-01T19:30:29Z</time>
      </trkpt>
      <trkpt lat="59.6488845961" lon="17.5633205234">
        <ele>0</ele>
        <time>2012-08-01T19:30:35Z</time>
      </trkpt>
      <trkpt lat="59.6488016991" lon="17.5633981398">
        <ele>0</ele>
        <time>2012-08-01T19:30:36Z</time>
      </trkpt>
      <trkpt lat="59.6487221548" lon="17.5634717329">
        <ele>0</ele>
        <time>2012-08-01T19:30:37Z</time>
      </trkpt>
      <trkpt lat="59.6486431973" lon="17.5635473377">
        <ele>0</ele>
        <time>2012-08-01T19:30:38Z</time>
      </trkpt>
      <trkpt lat="59.6485638207" lon="17.5636253731">
        <ele>0</ele>
        <time>2012-08-01T19:30:39Z</time>
      </trkpt>
      <trkpt lat="59.6484860367" lon="17.5637020675">
        <ele>0</ele>
        <time>2012-08-01T19:30:40Z</time>
      </trkpt>
      <trkpt lat="59.6482546125" lon="17.5639197455">
        <ele>0</ele>
        <time>2012-08-01T19:30:43Z</time>
      </trkpt>
      <trkpt lat="59.6477516985" lon="17.5643925685">
        <ele>0</ele>
        <time>2012-08-01T19:30:50Z</time>
      </trkpt>
      <trkpt lat="59.6476834698" lon="17.5644560194">
        <ele>0</ele>
        <time>2012-08-01T19:30:51Z</time>
      </trkpt>
      <trkpt lat="59.6471659713" lon="17.5649430916">
        <ele>0</ele>
        <time>2012-08-01T19:30:59Z</time>
      </trkpt>
      <trkpt lat="59.6468346348" lon="17.5652673874">
        <ele>0</ele>
        <time>2012-08-01T19:31:05Z</time>
      </trkpt>
      <trkpt lat="59.6466115924" lon="17.5654830536">
        <ele>0</ele>
        <time>2012-08-01T19:31:09Z</time>
      </trkpt>
      <trkpt lat="59.6465570262" lon="17.5655361111">
        <ele>0</ele>
        <time>2012-08-01T19:31:10Z</time>
      </trkpt>
      <trkpt lat="59.6465043041" lon="17.5655879112">
        <ele>0</ele>
        <time>2012-08-01T19:31:11Z</time>
      </trkpt>
      <trkpt lat="59.6464509114" lon="17.565638035">
        <ele>0</ele>
        <time>2012-08-01T19:31:12Z</time>
      </trkpt>
      <trkpt lat="59.6462386817" lon="17.5658428886">
        <ele>0</ele>
        <time>2012-08-01T19:31:16Z</time>
      </trkpt>
      <trkpt lat="59.6461829421" lon="17.5658962813">
        <ele>0</ele>
        <time>2012-08-01T19:31:17Z</time>
      </trkpt>
      <trkpt lat="59.6461261966" lon="17.5659475785">
        <ele>0</ele>
        <time>2012-08-01T19:31:18Z</time>
      </trkpt>
      <trkpt lat="59.6460691997" lon="17.5660007198">
        <ele>0</ele>
        <time>2012-08-01T19:31:19Z</time>
      </trkpt>
      <trkpt lat="59.6460164775" lon="17.5660506759">
        <ele>0</ele>
        <time>2012-08-01T19:31:20Z</time>
      </trkpt>
      <trkpt lat="59.6457674513" lon="17.5662875484">
        <ele>0</ele>
        <time>2012-08-01T19:31:25Z</time>
      </trkpt>
      <trkpt lat="59.6455295729" lon="17.5665247562">
        <ele>0</ele>
        <time>2012-08-01T19:31:30Z</time>
      </trkpt>
      <trkpt lat="59.6454815447" lon="17.5665746285">
        <ele>0</ele>
        <time>2012-08-01T19:31:31Z</time>
      </trkpt>
      <trkpt lat="59.645434606" lon="17.5666243331">
        <ele>0</ele>
        <time>2012-08-01T19:31:32Z</time>
      </trkpt>
      <trkpt lat="59.6453875836" lon="17.5666694278">
        <ele>0</ele>
        <time>2012-08-01T19:31:33Z</time>
      </trkpt>
      <trkpt lat="59.6453416507" lon="17.5667079845">
        <ele>0</ele>
        <time>2012-08-01T19:31:34Z</time>
      </trkpt>
      <trkpt lat="59.6452489469" lon="17.5667834216">
        <ele>0</ele>
        <time>2012-08-01T19:31:36Z</time>
      </trkpt>
      <trkpt lat="59.6451688998" lon="17.566865229">
        <ele>0</ele>
        <time>2012-08-01T19:31:38Z</time>
      </trkpt>
      <trkpt lat="59.6451323547" lon="17.5668968287">
        <ele>0</ele>
        <time>2012-08-01T19:31:39Z</time>
      </trkpt>
      <trkpt lat="59.6450948876" lon="17.5669283447">
        <ele>0</ele>
        <time>2012-08-01T19:31:40Z</time>
      </trkpt>
      <trkpt lat="59.6450549059" lon="17.5669612017">
        <ele>0</ele>
        <time>2012-08-01T19:31:41Z</time>
      </trkpt>
      <trkpt lat="59.6450103142" lon="17.566999507">
        <ele>0</ele>
        <time>2012-08-01T19:31:42Z</time>
      </trkpt>
      <trkpt lat="59.6449667284" lon="17.5670441825">
        <ele>0</ele>
        <time>2012-08-01T19:31:43Z</time>
      </trkpt>
      <trkpt lat="59.6447327057" lon="17.5672528918">
        <ele>0</ele>
        <time>2012-08-01T19:31:48Z</time>
      </trkpt>
      <trkpt lat="59.6446887007" lon="17.5672984894">
        <ele>0</ele>
        <time>2012-08-01T19:31:49Z</time>
      </trkpt>
      <trkpt lat="59.644634386" lon="17.5673482779">
        <ele>0</ele>
        <time>2012-08-01T19:31:50Z</time>
      </trkpt>
      <trkpt lat="59.6445783949" lon="17.5674027602">
        <ele>0</ele>
        <time>2012-08-01T19:31:51Z</time>
      </trkpt>
      <trkpt lat="59.6445193864" lon="17.5674648701">
        <ele>0</ele>
        <time>2012-08-01T19:31:52Z</time>
      </trkpt>
      <trkpt lat="59.6444616351" lon="17.5675245492">
        <ele>0</ele>
        <time>2012-08-01T19:31:53Z</time>
      </trkpt>
      <trkpt lat="59.6443511616" lon="17.5676371181">
        <ele>0</ele>
        <time>2012-08-01T19:31:55Z</time>
      </trkpt>
      <trkpt lat="59.6442968469" lon="17.5676947018">
        <ele>0</ele>
        <time>2012-08-01T19:31:56Z</time>
      </trkpt>
      <trkpt lat="59.6442404367" lon="17.5677523693">
        <ele>0</ele>
        <time>2012-08-01T19:31:57Z</time>
      </trkpt>
      <trkpt lat="59.6441866249" lon="17.5678078574">
        <ele>0</ele>
        <time>2012-08-01T19:31:58Z</time>
      </trkpt>
      <trkpt lat="59.6441341542" lon="17.5678688777">
        <ele>0</ele>
        <time>2012-08-01T19:31:59Z</time>
      </trkpt>
      <trkpt lat="59.6439790053" lon="17.5680480827">
        <ele>0</ele>
        <time>2012-08-01T19:32:02Z</time>
      </trkpt>
      <trkpt lat="59.6437319069" lon="17.5683599732">
        <ele>0.4</ele>
        <time>2012-08-01T19:32:07Z</time>
      </trkpt>
      <trkpt lat="59.6436830404" lon="17.5684198199">
        <ele>0.8</ele>
        <time>2012-08-01T19:32:08Z</time>
      </trkpt>
      <trkpt lat="59.6436348445" lon="17.5684815107">
        <ele>1.2</ele>
        <time>2012-08-01T19:32:09Z</time>
      </trkpt>
      <trkpt lat="59.6435870676" lon="17.5685455484">
        <ele>1.6</ele>
        <time>2012-08-01T19:32:10Z</time>
      </trkpt>
      <trkpt lat="59.6435387879" lon="17.568610592">
        <ele>2</ele>
        <time>2012-08-01T19:32:11Z</time>
      </trkpt>
      <trkpt lat="59.6431412344" lon="17.5691766217">
        <ele>2</ele>
        <time>2012-08-01T19:32:19Z</time>
      </trkpt>
      <trkpt lat="59.6429704951" lon="17.5694273243">
        <ele>2.4</ele>
        <time>2012-08-01T19:32:22Z</time>
      </trkpt>
      <trkpt lat="59.642913582" lon="17.5695108919">
        <ele>2.8</ele>
        <time>2012-08-01T19:32:23Z</time>
      </trkpt>
      <trkpt lat="59.6428564174" lon="17.5695920287">
        <ele>3.6</ele>
        <time>2012-08-01T19:32:24Z</time>
      </trkpt>
      <trkpt lat="59.642798247" lon="17.5696750933">
        <ele>4</ele>
        <time>2012-08-01T19:32:25Z</time>
      </trkpt>
      <trkpt lat="59.6423868634" lon="17.5702579706">
        <ele>4</ele>
        <time>2012-08-01T19:32:32Z</time>
      </trkpt>
      <trkpt lat="59.6419280382" lon="17.5709053048">
        <ele>4</ele>
        <time>2012-08-01T19:32:40Z</time>
      </trkpt>
      <trkpt lat="59.6415229409" lon="17.571478962">
        <ele>4</ele>
        <time>2012-08-01T19:32:47Z</time>
      </trkpt>
      <trkpt lat="59.6414073545" lon="17.5716392239">
        <ele>4.6</ele>
        <time>2012-08-01T19:32:49Z</time>
      </trkpt>
      <trkpt lat="59.6413489327" lon="17.5717222885">
        <ele>5</ele>
        <time>2012-08-01T19:32:50Z</time>
      </trkpt>
      <trkpt lat="59.6412947018" lon="17.5718004917">
        <ele>5.4</ele>
        <time>2012-08-01T19:32:51Z</time>
      </trkpt>
      <trkpt lat="59.6412392974" lon="17.5718802035">
        <ele>5.8</ele>
        <time>2012-08-01T19:32:52Z</time>
      </trkpt>
      <trkpt lat="59.6411837254" lon="17.5719590772">
        <ele>6.4</ele>
        <time>2012-08-01T19:32:53Z</time>
      </trkpt>
      <trkpt lat="59.6410706536" lon="17.5721209317">
        <ele>6.4</ele>
        <time>2012-08-01T19:32:55Z</time>
      </trkpt>
      <trkpt lat="59.6406658917" lon="17.5726944213">
        <ele>6.4</ele>
        <time>2012-08-01T19:33:02Z</time>
      </trkpt>
      <trkpt lat="59.640323994" lon="17.5731689207">
        <ele>6.4</ele>
        <time>2012-08-01T19:33:08Z</time>
      </trkpt>
      <trkpt lat="59.6399205731" lon="17.5737562404">
        <ele>6.8</ele>
        <time>2012-08-01T19:33:15Z</time>
      </trkpt>
      <trkpt lat="59.6398624027" lon="17.5738382154">
        <ele>7.2</ele>
        <time>2012-08-01T19:33:16Z</time>
      </trkpt>
      <trkpt lat="59.6398040647" lon="17.5739186816">
        <ele>7.8</ele>
        <time>2012-08-01T19:33:17Z</time>
      </trkpt>
      <trkpt lat="59.639747403" lon="17.5740039255">
        <ele>8.2</ele>
        <time>2012-08-01T19:33:18Z</time>
      </trkpt>
      <trkpt lat="59.6396916634" lon="17.5740890857">
        <ele>8.6</ele>
        <time>2012-08-01T19:33:19Z</time>
      </trkpt>
      <trkpt lat="59.639518661" lon="17.5743252876">
        <ele>8.6</ele>
        <time>2012-08-01T19:33:22Z</time>
      </trkpt>
      <trkpt lat="59.6391049304" lon="17.5749121882">
        <ele>8.6</ele>
        <time>2012-08-01T19:33:29Z</time>
      </trkpt>
      <trkpt lat="59.6386544033" lon="17.5755485421">
        <ele>8.6</ele>
        <time>2012-08-01T19:33:36Z</time>
      </trkpt>
      <trkpt lat="59.6385206282" lon="17.5757393979">
        <ele>8.6</ele>
        <time>2012-08-01T19:33:38Z</time>
      </trkpt>
      <trkpt lat="59.6380395071" lon="17.5764193377">
        <ele>8.6</ele>
        <time>2012-08-01T19:33:45Z</time>
      </trkpt>
      <trkpt lat="59.6379713623" lon="17.5765195014">
        <ele>8.6</ele>
        <time>2012-08-01T19:33:46Z</time>
      </trkpt>
      <trkpt lat="59.6374882295" lon="17.5772859423">
        <ele>8.6</ele>
        <time>2012-08-01T19:33:53Z</time>
      </trkpt>
      <trkpt lat="59.6371444878" lon="17.5778834041">
        <ele>8.2</ele>
        <time>2012-08-01T19:33:58Z</time>
      </trkpt>
      <trkpt lat="59.6370752533" lon="17.5780093841">
        <ele>7.8</ele>
        <time>2012-08-01T19:33:59Z</time>
      </trkpt>
      <trkpt lat="59.6370043425" lon="17.5781377948">
        <ele>7.4</ele>
        <time>2012-08-01T19:34:00Z</time>
      </trkpt>
      <trkpt lat="59.6369356109" lon="17.5782649482">
        <ele>7</ele>
        <time>2012-08-01T19:34:01Z</time>
      </trkpt>
      <trkpt lat="59.6368677175" lon="17.5783933589">
        <ele>6.6</ele>
        <time>2012-08-01T19:34:02Z</time>
      </trkpt>
      <trkpt lat="59.6364679847" lon="17.5791791621">
        <ele>6.6</ele>
        <time>2012-08-01T19:34:08Z</time>
      </trkpt>
      <trkpt lat="59.6362170306" lon="17.5797229797">
        <ele>6.6</ele>
        <time>2012-08-01T19:34:12Z</time>
      </trkpt>
      <trkpt lat="59.6360395019" lon="17.580135453">
        <ele>6.2</ele>
        <time>2012-08-01T19:34:15Z</time>
      </trkpt>
      <trkpt lat="59.635980661" lon="17.5802718265">
        <ele>5.8</ele>
        <time>2012-08-01T19:34:16Z</time>
      </trkpt>
      <trkpt lat="59.6359212333" lon="17.5804101279">
        <ele>5.4</ele>
        <time>2012-08-01T19:34:17Z</time>
      </trkpt>
      <trkpt lat="59.6358617218" lon="17.5805505247">
        <ele>5</ele>
        <time>2012-08-01T19:34:18Z</time>
      </trkpt>
      <trkpt lat="59.6358012883" lon="17.5806965374">
        <ele>4.4</ele>
        <time>2012-08-01T19:34:19Z</time>
      </trkpt>
      <trkpt lat="59.6357393461" lon="17.5808479145">
        <ele>4.4</ele>
        <time>2012-08-01T19:34:20Z</time>
      </trkpt>
      <trkpt lat="59.6353788406" lon="17.5817747012">
        <ele>4.4</ele>
        <time>2012-08-01T19:34:26Z</time>
      </trkpt>
      <trkpt lat="59.6352655173" lon="17.5820992484">
        <ele>4.4</ele>
        <time>2012-08-01T19:34:28Z</time>
      </trkpt>
      <trkpt lat="59.634940551" lon="17.5830425474">
        <ele>4.4</ele>
        <time>2012-08-01T19:34:34Z</time>
      </trkpt>
      <trkpt lat="59.6348426504" lon="17.5833559467">
        <ele>4.4</ele>
        <time>2012-08-01T19:34:36Z</time>
      </trkpt>
      <trkpt lat="59.6345517985" lon="17.5843036881">
        <ele>4.4</ele>
        <time>2012-08-01T19:34:42Z</time>
      </trkpt>
      <trkpt lat="59.6345053628" lon="17.5844641177">
        <ele>4</ele>
        <time>2012-08-01T19:34:43Z</time>
      </trkpt>
      <trkpt lat="59.6344567478" lon="17.5846329291">
        <ele>3.6</ele>
        <time>2012-08-01T19:34:44Z</time>
      </trkpt>
      <trkpt lat="59.6344133295" lon="17.5847915147">
        <ele>3.2</ele>
        <time>2012-08-01T19:34:45Z</time>
      </trkpt>
      <trkpt lat="59.63437142" lon="17.5849547103">
        <ele>2.8</ele>
        <time>2012-08-01T19:34:46Z</time>
      </trkpt>
      <trkpt lat="59.6343311031" lon="17.5851153075">
        <ele>2.4</ele>
        <time>2012-08-01T19:34:47Z</time>
      </trkpt>
      <trkpt lat="59.6341254951" lon="17.5859239094">
        <ele>2</ele>
        <time>2012-08-01T19:34:52Z</time>
      </trkpt>
      <trkpt lat="59.6340841723" lon="17.5860871888">
        <ele>1.6</ele>
        <time>2012-08-01T19:34:53Z</time>
      </trkpt>
      <trkpt lat="59.6340445259" lon="17.5862560002">
        <ele>1</ele>
        <time>2012-08-01T19:34:54Z</time>
      </trkpt>
      <trkpt lat="59.634006975" lon="17.5864282483">
        <ele>0.6</ele>
        <time>2012-08-01T19:34:55Z</time>
      </trkpt>
      <trkpt lat="59.6339713519" lon="17.5865996581">
        <ele>0.2</ele>
        <time>2012-08-01T19:34:56Z</time>
      </trkpt>
      <trkpt lat="59.6338653209" lon="17.5871278855">
        <ele>0.2</ele>
        <time>2012-08-01T19:34:59Z</time>
      </trkpt>
      <trkpt lat="59.6336489002" lon="17.5881679954">
        <ele>0.2</ele>
        <time>2012-08-01T19:35:05Z</time>
      </trkpt>
      <trkpt lat="59.6336135286" lon="17.5883437639">
        <ele>0.2</ele>
        <time>2012-08-01T19:35:06Z</time>
      </trkpt>
      <trkpt lat="59.6335054859" lon="17.5888654533">
        <ele>0</ele>
        <time>2012-08-01T19:35:09Z</time>
      </trkpt>
      <trkpt lat="59.633469779" lon="17.589028146">
        <ele>0</ele>
        <time>2012-08-01T19:35:10Z</time>
      </trkpt>
      <trkpt lat="59.6334339883" lon="17.5891896652">
        <ele>0</ele>
        <time>2012-08-01T19:35:11Z</time>
      </trkpt>
      <trkpt lat="59.6333978623" lon="17.5893485861">
        <ele>0</ele>
        <time>2012-08-01T19:35:12Z</time>
      </trkpt>
      <trkpt lat="59.633361904" lon="17.5895080098">
        <ele>0</ele>
        <time>2012-08-01T19:35:13Z</time>
      </trkpt>
      <trkpt lat="59.6331832019" lon="17.5903093194">
        <ele>0</ele>
        <time>2012-08-01T19:35:18Z</time>
      </trkpt>
      <trkpt lat="59.6331459862" lon="17.5904735209">
        <ele>0</ele>
        <time>2012-08-01T19:35:19Z</time>
      </trkpt>
      <trkpt lat="59.6331101117" lon="17.5906403207">
        <ele>0</ele>
        <time>2012-08-01T19:35:20Z</time>
      </trkpt>
      <trkpt lat="59.6330721417" lon="17.5908160891">
        <ele>0</ele>
        <time>2012-08-01T19:35:21Z</time>
      </trkpt>
      <trkpt lat="59.6330358481" lon="17.5909862417">
        <ele>0</ele>
        <time>2012-08-01T19:35:22Z</time>
      </trkpt>
      <trkpt lat="59.6328236184" lon="17.5919972665">
        <ele>0</ele>
        <time>2012-08-01T19:35:28Z</time>
      </trkpt>
      <trkpt lat="59.6327890849" lon="17.5921648206">
        <ele>0</ele>
        <time>2012-08-01T19:35:29Z</time>
      </trkpt>
      <trkpt lat="59.6325849019" lon="17.5931563156">
        <ele>0</ele>
        <time>2012-08-01T19:35:35Z</time>
      </trkpt>
      <trkpt lat="59.6324830618" lon="17.593640035">
        <ele>0</ele>
        <time>2012-08-01T19:35:38Z</time>
      </trkpt>
      <trkpt lat="59.632380635" lon="17.5941173004">
        <ele>0</ele>
        <time>2012-08-01T19:35:41Z</time>
      </trkpt>
      <trkpt lat="59.6323476103" lon="17.5942756345">
        <ele>0</ele>
        <time>2012-08-01T19:35:42Z</time>
      </trkpt>
      <trkpt lat="59.6323142503" lon="17.5944401712">
        <ele>0</ele>
        <time>2012-08-01T19:35:43Z</time>
      </trkpt>
      <trkpt lat="59.6322802198" lon="17.5946042888">
        <ele>0</ele>
        <time>2012-08-01T19:35:44Z</time>
      </trkpt>
      <trkpt lat="59.6322114044" lon="17.5949455998">
        <ele>0</ele>
        <time>2012-08-01T19:35:46Z</time>
      </trkpt>
      <trkpt lat="59.6321771224" lon="17.5951106394">
        <ele>0</ele>
        <time>2012-08-01T19:35:47Z</time>
      </trkpt>
      <trkpt lat="59.6321426728" lon="17.5952787803">
        <ele>0</ele>
        <time>2012-08-01T19:35:48Z</time>
      </trkpt>
      <trkpt lat="59.632107385" lon="17.595446083">
        <ele>0</ele>
        <time>2012-08-01T19:35:49Z</time>
      </trkpt>
      <trkpt lat="59.6320717619" lon="17.5956112903">
        <ele>0</ele>
        <time>2012-08-01T19:35:50Z</time>
      </trkpt>
      <trkpt lat="59.6319109971" lon="17.5962714487">
        <ele>0</ele>
        <time>2012-08-01T19:35:54Z</time>
      </trkpt>
      <trkpt lat="59.6317349772" lon="17.5968704193">
        <ele>0</ele>
        <time>2012-08-01T19:35:58Z</time>
      </trkpt>
      <trkpt lat="59.6316886253" lon="17.5970114867">
        <ele>0</ele>
        <time>2012-08-01T19:35:59Z</time>
      </trkpt>
      <trkpt lat="59.6316395912" lon="17.597156745">
        <ele>0</ele>
        <time>2012-08-01T19:36:00Z</time>
      </trkpt>
      <trkpt lat="59.6315913114" lon="17.5972953816">
        <ele>0</ele>
        <time>2012-08-01T19:36:01Z</time>
      </trkpt>
      <trkpt lat="59.6315413553" lon="17.597427648">
        <ele>0</ele>
        <time>2012-08-01T19:36:02Z</time>
      </trkpt>
      <trkpt lat="59.6312512578" lon="17.598092668">
        <ele>0</ele>
        <time>2012-08-01T19:36:07Z</time>
      </trkpt>
      <trkpt lat="59.6311919977" lon="17.5982258563">
        <ele>0</ele>
        <time>2012-08-01T19:36:08Z</time>
      </trkpt>
      <trkpt lat="59.6311308937" lon="17.5983561949">
        <ele>0</ele>
        <time>2012-08-01T19:36:09Z</time>
      </trkpt>
      <trkpt lat="59.6310690352" lon="17.5984825101">
        <ele>0</ele>
        <time>2012-08-01T19:36:10Z</time>
      </trkpt>
      <trkpt lat="59.6310049975" lon="17.5986022037">
        <ele>0</ele>
        <time>2012-08-01T19:36:11Z</time>
      </trkpt>
      <trkpt lat="59.6309389482" lon="17.5987153593">
        <ele>0</ele>
        <time>2012-08-01T19:36:12Z</time>
      </trkpt>
      <trkpt lat="59.6308715577" lon="17.5988267548">
        <ele>0</ele>
        <time>2012-08-01T19:36:13Z</time>
      </trkpt>
      <trkpt lat="59.6303680569" lon="17.5995500289">
        <ele>0</ele>
        <time>2012-08-01T19:36:20Z</time>
      </trkpt>
      <trkpt lat="59.6302937933" lon="17.5996413916">
        <ele>0</ele>
        <time>2012-08-01T19:36:21Z</time>
      </trkpt>
      <trkpt lat="59.6300618661" lon="17.5999061758">
        <ele>0</ele>
        <time>2012-08-01T19:36:24Z</time>
      </trkpt>
      <trkpt lat="59.6299841659" lon="17.5999882346">
        <ele>0</ele>
        <time>2012-08-01T19:36:25Z</time>
      </trkpt>
      <trkpt lat="59.629905879" lon="17.6000652643">
        <ele>0</ele>
        <time>2012-08-01T19:36:26Z</time>
      </trkpt>
      <trkpt lat="59.6298279273" lon="17.6001393603">
        <ele>0</ele>
        <time>2012-08-01T19:36:27Z</time>
      </trkpt>
      <trkpt lat="59.6297483831" lon="17.6002064155">
        <ele>0</ele>
        <time>2012-08-01T19:36:28Z</time>
      </trkpt>
      <trkpt lat="59.6291849518" lon="17.6006027117">
        <ele>0</ele>
        <time>2012-08-01T19:36:35Z</time>
      </trkpt>
      <trkpt lat="59.6291054075" lon="17.6006514106">
        <ele>0</ele>
        <time>2012-08-01T19:36:36Z</time>
      </trkpt>
      <trkpt lat="59.6285529565" lon="17.6010016902">
        <ele>0</ele>
        <time>2012-08-01T19:36:43Z</time>
      </trkpt>
      <trkpt lat="59.6284696404" lon="17.6010523168">
        <ele>0</ele>
        <time>2012-08-01T19:36:44Z</time>
      </trkpt>
      <trkpt lat="59.6278899482" lon="17.601428748">
        <ele>0</ele>
        <time>2012-08-01T19:36:51Z</time>
      </trkpt>
      <trkpt lat="59.6278105716" lon="17.6014775306">
        <ele>0</ele>
        <time>2012-08-01T19:36:52Z</time>
      </trkpt>
      <trkpt lat="59.6272531753" lon="17.6018325041">
        <ele>0</ele>
        <time>2012-08-01T19:36:59Z</time>
      </trkpt>
      <trkpt lat="59.6271776544" lon="17.6018801971">
        <ele>0</ele>
        <time>2012-08-01T19:37:00Z</time>
      </trkpt>
      <trkpt lat="59.6268138799" lon="17.6021122919">
        <ele>0</ele>
        <time>2012-08-01T19:37:05Z</time>
      </trkpt>
      <trkpt lat="59.6264394604" lon="17.6023603123">
        <ele>0</ele>
        <time>2012-08-01T19:37:10Z</time>
      </trkpt>
      <trkpt lat="59.6258949722" lon="17.6026972647">
        <ele>0</ele>
        <time>2012-08-01T19:37:17Z</time>
      </trkpt>
      <trkpt lat="59.625334726" lon="17.6030588599">
        <ele>0</ele>
        <time>2012-08-01T19:37:24Z</time>
      </trkpt>
      <trkpt lat="59.6251745479" lon="17.6031593589">
        <ele>0</ele>
        <time>2012-08-01T19:37:26Z</time>
      </trkpt>
      <trkpt lat="59.6250955066" lon="17.6032119972">
        <ele>0</ele>
        <time>2012-08-01T19:37:27Z</time>
      </trkpt>
      <trkpt lat="59.625017974" lon="17.6032612828">
        <ele>0</ele>
        <time>2012-08-01T19:37:28Z</time>
      </trkpt>
      <trkpt lat="59.6249403576" lon="17.6033083891">
        <ele>0</ele>
        <time>2012-08-01T19:37:29Z</time>
      </trkpt>
      <trkpt lat="59.6248614839" lon="17.6033561659">
        <ele>0</ele>
        <time>2012-08-01T19:37:30Z</time>
      </trkpt>
      <trkpt lat="59.624454375" lon="17.603620531">
        <ele>0</ele>
        <time>2012-08-01T19:37:35Z</time>
      </trkpt>
      <trkpt lat="59.6239573284" lon="17.6039377021">
        <ele>0</ele>
        <time>2012-08-01T19:37:41Z</time>
      </trkpt>
      <trkpt lat="59.6238738446" lon="17.6039946152">
        <ele>0</ele>
        <time>2012-08-01T19:37:42Z</time>
      </trkpt>
      <trkpt lat="59.6237886007" lon="17.6040478403">
        <ele>0</ele>
        <time>2012-08-01T19:37:43Z</time>
      </trkpt>
      <trkpt lat="59.6237036083" lon="17.6041007301">
        <ele>0</ele>
        <time>2012-08-01T19:37:44Z</time>
      </trkpt>
      <trkpt lat="59.6236188673" lon="17.6041552124">
        <ele>0</ele>
        <time>2012-08-01T19:37:45Z</time>
      </trkpt>
      <trkpt lat="59.6235280913" lon="17.6042128799">
        <ele>0</ele>
        <time>2012-08-01T19:37:46Z</time>
      </trkpt>
      <trkpt lat="59.62318787" lon="17.6044300549">
        <ele>0</ele>
        <time>2012-08-01T19:37:50Z</time>
      </trkpt>
      <trkpt lat="59.6231012011" lon="17.604481436">
        <ele>0</ele>
        <time>2012-08-01T19:37:51Z</time>
      </trkpt>
      <trkpt lat="59.6230157057" lon="17.6045375947">
        <ele>0</ele>
        <time>2012-08-01T19:37:52Z</time>
      </trkpt>
      <trkpt lat="59.6229262709" lon="17.6045994531">
        <ele>0</ele>
        <time>2012-08-01T19:37:53Z</time>
      </trkpt>
      <trkpt lat="59.6228409431" lon="17.6046561986">
        <ele>0</ele>
        <time>2012-08-01T19:37:54Z</time>
      </trkpt>
      <trkpt lat="59.6226718802" lon="17.6047711144">
        <ele>0</ele>
        <time>2012-08-01T19:37:56Z</time>
      </trkpt>
      <trkpt lat="59.6220822973" lon="17.605143187">
        <ele>0</ele>
        <time>2012-08-01T19:38:03Z</time>
      </trkpt>
      <trkpt lat="59.6219189341" lon="17.6052524031">
        <ele>0</ele>
        <time>2012-08-01T19:38:05Z</time>
      </trkpt>
      <trkpt lat="59.621837965" lon="17.6053087295">
        <ele>0</ele>
        <time>2012-08-01T19:38:06Z</time>
      </trkpt>
      <trkpt lat="59.6217584207" lon="17.6053642177">
        <ele>0</ele>
        <time>2012-08-01T19:38:07Z</time>
      </trkpt>
      <trkpt lat="59.6216778707" lon="17.6054162693">
        <ele>0</ele>
        <time>2012-08-01T19:38:08Z</time>
      </trkpt>
      <trkpt lat="59.6215927944" lon="17.6054667283">
        <ele>0</ele>
        <time>2012-08-01T19:38:09Z</time>
      </trkpt>
      <trkpt lat="59.6211807402" lon="17.6057108092">
        <ele>0</ele>
        <time>2012-08-01T19:38:14Z</time>
      </trkpt>
      <trkpt lat="59.6206006289" lon="17.6060493542">
        <ele>0</ele>
        <time>2012-08-01T19:38:21Z</time>
      </trkpt>
      <trkpt lat="59.620518151" lon="17.6060915151">
        <ele>0</ele>
        <time>2012-08-01T19:38:22Z</time>
      </trkpt>
      <trkpt lat="59.6199597488" lon="17.6063320757">
        <ele>0</ele>
        <time>2012-08-01T19:38:29Z</time>
      </trkpt>
      <trkpt lat="59.6195151728" lon="17.6064683654">
        <ele>0</ele>
        <time>2012-08-01T19:38:35Z</time>
      </trkpt>
      <trkpt lat="59.6194457707" lon="17.6064825308">
        <ele>0</ele>
        <time>2012-08-01T19:38:36Z</time>
      </trkpt>
      <trkpt lat="59.6193748598" lon="17.6064976182">
        <ele>0</ele>
        <time>2012-08-01T19:38:37Z</time>
      </trkpt>
      <trkpt lat="59.6193026078" lon="17.6065195788">
        <ele>0</ele>
        <time>2012-08-01T19:38:38Z</time>
      </trkpt>
      <trkpt lat="59.6192361394" lon="17.6065381028">
        <ele>0</ele>
        <time>2012-08-01T19:38:39Z</time>
      </trkpt>
      <trkpt lat="59.6190389133" lon="17.606576911">
        <ele>0</ele>
        <time>2012-08-01T19:38:42Z</time>
      </trkpt>
      <trkpt lat="59.618839005" lon="17.6065990392">
        <ele>0</ele>
        <time>2012-08-01T19:38:45Z</time>
      </trkpt>
      <trkpt lat="59.6187717821" lon="17.6066084269">
        <ele>0</ele>
        <time>2012-08-01T19:38:46Z</time>
      </trkpt>
      <trkpt lat="59.6187006198" lon="17.6066102709">
        <ele>0</ele>
        <time>2012-08-01T19:38:47Z</time>
      </trkpt>
      <trkpt lat="59.6186341513" lon="17.6066189043">
        <ele>0</ele>
        <time>2012-08-01T19:38:48Z</time>
      </trkpt>
      <trkpt lat="59.6185674314" lon="17.6066266994">
        <ele>0</ele>
        <time>2012-08-01T19:38:49Z</time>
      </trkpt>
      <trkpt lat="59.6185015497" lon="17.6066282082">
        <ele>0</ele>
        <time>2012-08-01T19:38:50Z</time>
      </trkpt>
      <trkpt lat="59.6183062514" lon="17.6066363386">
        <ele>0</ele>
        <time>2012-08-01T19:38:53Z</time>
      </trkpt>
      <trkpt lat="59.6182388609" lon="17.6066365901">
        <ele>0</ele>
        <time>2012-08-01T19:38:54Z</time>
      </trkpt>
      <trkpt lat="59.6181733145" lon="17.6066349975">
        <ele>0</ele>
        <time>2012-08-01T19:38:55Z</time>
      </trkpt>
      <trkpt lat="59.6181080195" lon="17.6066297169">
        <ele>0</ele>
        <time>2012-08-01T19:38:56Z</time>
      </trkpt>
      <trkpt lat="59.6180434788" lon="17.6066242687">
        <ele>0</ele>
        <time>2012-08-01T19:38:57Z</time>
      </trkpt>
      <trkpt lat="59.6179791897" lon="17.6066195748">
        <ele>0</ele>
        <time>2012-08-01T19:38:58Z</time>
      </trkpt>
      <trkpt lat="59.6177897587" lon="17.6066014699">
        <ele>0</ele>
        <time>2012-08-01T19:39:01Z</time>
      </trkpt>
      <trkpt lat="59.6177227035" lon="17.6065934233">
        <ele>0</ele>
        <time>2012-08-01T19:39:02Z</time>
      </trkpt>
      <trkpt lat="59.6176574085" lon="17.6065828621">
        <ele>0</ele>
        <time>2012-08-01T19:39:03Z</time>
      </trkpt>
      <trkpt lat="59.6175920297" lon="17.6065700378">
        <ele>0</ele>
        <time>2012-08-01T19:39:04Z</time>
      </trkpt>
      <trkpt lat="59.6175282434" lon="17.6065597281">
        <ele>0</ele>
        <time>2012-08-01T19:39:05Z</time>
      </trkpt>
      <trkpt lat="59.6174642895" lon="17.6065464008">
        <ele>0</ele>
        <time>2012-08-01T19:39:06Z</time>
      </trkpt>
      <trkpt lat="59.6171490463" lon="17.6064717181">
        <ele>0</ele>
        <time>2012-08-01T19:39:11Z</time>
      </trkpt>
      <trkpt lat="59.6170186239" lon="17.6064312335">
        <ele>0</ele>
        <time>2012-08-01T19:39:13Z</time>
      </trkpt>
      <trkpt lat="59.616414708" lon="17.6062369411">
        <ele>0</ele>
        <time>2012-08-01T19:39:22Z</time>
      </trkpt>
      <trkpt lat="59.6163460603" lon="17.6062103705">
        <ele>0</ele>
        <time>2012-08-01T19:39:23Z</time>
      </trkpt>
      <trkpt lat="59.6157667871" lon="17.6060061036">
        <ele>0</ele>
        <time>2012-08-01T19:39:31Z</time>
      </trkpt>
      <trkpt lat="59.6156939484" lon="17.6059814608">
        <ele>0</ele>
        <time>2012-08-01T19:39:32Z</time>
      </trkpt>
      <trkpt lat="59.6151258233" lon="17.6057936224">
        <ele>0</ele>
        <time>2012-08-01T19:39:40Z</time>
      </trkpt>
      <trkpt lat="59.6150552477" lon="17.6057674709">
        <ele>0</ele>
        <time>2012-08-01T19:39:41Z</time>
      </trkpt>
      <trkpt lat="59.6146308721" lon="17.6056251462">
        <ele>0</ele>
        <time>2012-08-01T19:39:47Z</time>
      </trkpt>
      <trkpt lat="59.6140490006" lon="17.6055166006">
        <ele>0</ele>
        <time>2012-08-01T19:39:55Z</time>
      </trkpt>
      <trkpt lat="59.6139736473" lon="17.6055124097">
        <ele>0</ele>
        <time>2012-08-01T19:39:56Z</time>
      </trkpt>
      <trkpt lat="59.6134605074" lon="17.6055184446">
        <ele>0</ele>
        <time>2012-08-01T19:40:03Z</time>
      </trkpt>
      <trkpt lat="59.6132357048" lon="17.6055644613">
        <ele>0</ele>
        <time>2012-08-01T19:40:06Z</time>
      </trkpt>
      <trkpt lat="59.6131622794" lon="17.6055741843">
        <ele>0</ele>
        <time>2012-08-01T19:40:07Z</time>
      </trkpt>
      <trkpt lat="59.6130875966" lon="17.6055818956">
        <ele>0</ele>
        <time>2012-08-01T19:40:08Z</time>
      </trkpt>
      <trkpt lat="59.6130135845" lon="17.6055926244">
        <ele>0</ele>
        <time>2012-08-01T19:40:09Z</time>
      </trkpt>
      <trkpt lat="59.6129404105" lon="17.605608131">
        <ele>0</ele>
        <time>2012-08-01T19:40:10Z</time>
      </trkpt>
      <trkpt lat="59.6126592815" lon="17.6056844062">
        <ele>0</ele>
        <time>2012-08-01T19:40:14Z</time>
      </trkpt>
      <trkpt lat="59.6125944056" lon="17.6057067021">
        <ele>0</ele>
        <time>2012-08-01T19:40:15Z</time>
      </trkpt>
      <trkpt lat="59.6125312061" lon="17.6057334404">
        <ele>0</ele>
        <time>2012-08-01T19:40:16Z</time>
      </trkpt>
      <trkpt lat="59.6124679228" lon="17.6057602624">
        <ele>0</ele>
        <time>2012-08-01T19:40:17Z</time>
      </trkpt>
      <trkpt lat="59.6122115204" lon="17.6058835602">
        <ele>0</ele>
        <time>2012-08-01T19:40:21Z</time>
      </trkpt>
      <trkpt lat="59.6121461416" lon="17.6059164172">
        <ele>0</ele>
        <time>2012-08-01T19:40:22Z</time>
      </trkpt>
      <trkpt lat="59.6120816848" lon="17.6059482685">
        <ele>0</ele>
        <time>2012-08-01T19:40:23Z</time>
      </trkpt>
      <trkpt lat="59.6120167251" lon="17.60597903">
        <ele>0</ele>
        <time>2012-08-01T19:40:24Z</time>
      </trkpt>
      <trkpt lat="59.6119503404" lon="17.6060156589">
        <ele>0</ele>
        <time>2012-08-01T19:40:25Z</time>
      </trkpt>
      <trkpt lat="59.6118837043" lon="17.6060548024">
        <ele>0</ele>
        <time>2012-08-01T19:40:26Z</time>
      </trkpt>
      <trkpt lat="59.611822265" lon="17.6060944488">
        <ele>0</ele>
        <time>2012-08-01T19:40:27Z</time>
      </trkpt>
      <trkpt lat="59.6117579758" lon="17.6061285631">
        <ele>0</ele>
        <time>2012-08-01T19:40:28Z</time>
      </trkpt>
      <trkpt lat="59.6116945249" lon="17.6061674551">
        <ele>0</ele>
        <time>2012-08-01T19:40:29Z</time>
      </trkpt>
      <trkpt lat="59.6116287269" lon="17.6062065986">
        <ele>0</ele>
        <time>2012-08-01T19:40:30Z</time>
      </trkpt>
      <trkpt lat="59.6112442492" lon="17.6064291381">
        <ele>0</ele>
        <time>2012-08-01T19:40:36Z</time>
      </trkpt>
      <trkpt lat="59.611063284" lon="17.6065282959">
        <ele>0</ele>
        <time>2012-08-01T19:40:39Z</time>
      </trkpt>
      <trkpt lat="59.61100679" lon="17.6065630808">
        <ele>0</ele>
        <time>2012-08-01T19:40:40Z</time>
      </trkpt>
      <trkpt lat="59.6109454345" lon="17.6065917469">
        <ele>0</ele>
        <time>2012-08-01T19:40:41Z</time>
      </trkpt>
      <trkpt lat="59.6108864259" lon="17.6066116958">
        <ele>0</ele>
        <time>2012-08-01T19:40:42Z</time>
      </trkpt>
      <trkpt lat="59.6108267467" lon="17.6066377636">
        <ele>0</ele>
        <time>2012-08-01T19:40:43Z</time>
      </trkpt>
      <trkpt lat="59.6106485476" lon="17.6067425373">
        <ele>0</ele>
        <time>2012-08-01T19:40:46Z</time>
      </trkpt>
      <trkpt lat="59.6105912154" lon="17.6067715387">
        <ele>0</ele>
        <time>2012-08-01T19:40:47Z</time>
      </trkpt>
      <trkpt lat="59.610531201" lon="17.6067983608">
        <ele>0</ele>
        <time>2012-08-01T19:40:48Z</time>
      </trkpt>
      <trkpt lat="59.6104704322" lon="17.606822333">
        <ele>0</ele>
        <time>2012-08-01T19:40:49Z</time>
      </trkpt>
      <trkpt lat="59.610411256" lon="17.6068486522">
        <ele>0</ele>
        <time>2012-08-01T19:40:50Z</time>
      </trkpt>
      <trkpt lat="59.6101199849" lon="17.6069679266">
        <ele>0</ele>
        <time>2012-08-01T19:40:55Z</time>
      </trkpt>
      <trkpt lat="59.6098934222" lon="17.6070566071">
        <ele>0</ele>
        <time>2012-08-01T19:40:59Z</time>
      </trkpt>
      <trkpt lat="59.6098399457" lon="17.6070773104">
        <ele>0</ele>
        <time>2012-08-01T19:41:00Z</time>
      </trkpt>
      <trkpt lat="59.6097873073" lon="17.6070931522">
        <ele>0</ele>
        <time>2012-08-01T19:41:01Z</time>
      </trkpt>
      <trkpt lat="59.6097353395" lon="17.6071095807">
        <ele>0</ele>
        <time>2012-08-01T19:41:02Z</time>
      </trkpt>
      <trkpt lat="59.609682785" lon="17.6071225726">
        <ele>0</ele>
        <time>2012-08-01T19:41:03Z</time>
      </trkpt>
      <trkpt lat="59.6093853952" lon="17.607220138">
        <ele>0</ele>
        <time>2012-08-01T19:41:08Z</time>
      </trkpt>
      <trkpt lat="59.6090730018" lon="17.6073137638">
        <ele>0</ele>
        <time>2012-08-01T19:41:13Z</time>
      </trkpt>
      <trkpt lat="59.6090118139" lon="17.6073352214">
        <ele>0.4</ele>
        <time>2012-08-01T19:41:14Z</time>
      </trkpt>
      <trkpt lat="59.6089509613" lon="17.6073563438">
        <ele>0.8</ele>
        <time>2012-08-01T19:41:15Z</time>
      </trkpt>
      <trkpt lat="59.6088896058" lon="17.6073800646">
        <ele>1.4</ele>
        <time>2012-08-01T19:41:16Z</time>
      </trkpt>
      <trkpt lat="59.6088275798" lon="17.6074034501">
        <ele>1.8</ele>
        <time>2012-08-01T19:41:17Z</time>
      </trkpt>
      <trkpt lat="59.6084632186" lon="17.6075228084">
        <ele>2.2</ele>
        <time>2012-08-01T19:41:23Z</time>
      </trkpt>
      <trkpt lat="59.6084077304" lon="17.6075392369">
        <ele>2.6</ele>
        <time>2012-08-01T19:41:24Z</time>
      </trkpt>
      <trkpt lat="59.6083522422" lon="17.6075571742">
        <ele>3.2</ele>
        <time>2012-08-01T19:41:25Z</time>
      </trkpt>
      <trkpt lat="59.6083017832" lon="17.6075808111">
        <ele>3.6</ele>
        <time>2012-08-01T19:41:26Z</time>
      </trkpt>
      <trkpt lat="59.6082436128" lon="17.6076060406">
        <ele>4</ele>
        <time>2012-08-01T19:41:27Z</time>
      </trkpt>
      <trkpt lat="59.6081871188" lon="17.6076161827">
        <ele>4</ele>
        <time>2012-08-01T19:41:28Z</time>
      </trkpt>
      <trkpt lat="59.6081265177" lon="17.6076327789">
        <ele>4</ele>
        <time>2012-08-01T19:41:29Z</time>
      </trkpt>
      <trkpt lat="59.6078025572" lon="17.6077315177">
        <ele>4</ele>
        <time>2012-08-01T19:41:34Z</time>
      </trkpt>
      <trkpt lat="59.6074458236" lon="17.6078521332">
        <ele>4.4</ele>
        <time>2012-08-01T19:41:40Z</time>
      </trkpt>
      <trkpt lat="59.6073888266" lon="17.6078727527">
        <ele>4.8</ele>
        <time>2012-08-01T19:41:41Z</time>
      </trkpt>
      <trkpt lat="59.6073328356" lon="17.6078965573">
        <ele>5.2</ele>
        <time>2012-08-01T19:41:42Z</time>
      </trkpt>
      <trkpt lat="59.6072723182" lon="17.6079127344">
        <ele>5.6</ele>
        <time>2012-08-01T19:41:43Z</time>
      </trkpt>
      <trkpt lat="59.6072054307" lon="17.6079384668">
        <ele>6</ele>
        <time>2012-08-01T19:41:44Z</time>
      </trkpt>
      <trkpt lat="59.6070500302" lon="17.608000409">
        <ele>6</ele>
        <time>2012-08-01T19:41:46Z</time>
      </trkpt>
      <trkpt lat="59.6065940549" lon="17.6081851461">
        <ele>6</ele>
        <time>2012-08-01T19:41:52Z</time>
      </trkpt>
      <trkpt lat="59.6061390015" lon="17.6083691288">
        <ele>6</ele>
        <time>2012-08-01T19:41:58Z</time>
      </trkpt>
      <trkpt lat="59.6055785877" lon="17.6086085159">
        <ele>6</ele>
        <time>2012-08-01T19:42:05Z</time>
      </trkpt>
      <trkpt lat="59.6054965289" lon="17.6086452286">
        <ele>6</ele>
        <time>2012-08-01T19:42:06Z</time>
      </trkpt>
      <trkpt lat="59.6049749233" lon="17.6088778263">
        <ele>5.6</ele>
        <time>2012-08-01T19:42:12Z</time>
      </trkpt>
      <trkpt lat="59.6048826385" lon="17.6089194844">
        <ele>5.2</ele>
        <time>2012-08-01T19:42:13Z</time>
      </trkpt>
      <trkpt lat="59.6047918626" lon="17.6089575382">
        <ele>4.8</ele>
        <time>2012-08-01T19:42:14Z</time>
      </trkpt>
      <trkpt lat="59.6047024277" lon="17.6089982742">
        <ele>4.4</ele>
        <time>2012-08-01T19:42:15Z</time>
      </trkpt>
      <trkpt lat="59.6046114841" lon="17.6090416925">
        <ele>4</ele>
        <time>2012-08-01T19:42:16Z</time>
      </trkpt>
      <trkpt lat="59.6045211272" lon="17.6090895531">
        <ele>3</ele>
        <time>2012-08-01T19:42:17Z</time>
      </trkpt>
      <trkpt lat="59.6044316923" lon="17.6091307921">
        <ele>2.6</ele>
        <time>2012-08-01T19:42:18Z</time>
      </trkpt>
      <trkpt lat="59.6043382341" lon="17.6091739589">
        <ele>2.2</ele>
        <time>2012-08-01T19:42:19Z</time>
      </trkpt>
      <trkpt lat="59.6042493022" lon="17.6092174609">
        <ele>1.8</ele>
        <time>2012-08-01T19:42:20Z</time>
      </trkpt>
      <trkpt lat="59.604161376" lon="17.6092597057">
        <ele>1.8</ele>
        <time>2012-08-01T19:42:21Z</time>
      </trkpt>
      <trkpt lat="59.6038013734" lon="17.6094320376">
        <ele>1.4</ele>
        <time>2012-08-01T19:42:25Z</time>
      </trkpt>
      <trkpt lat="59.6037071609" lon="17.6094727736">
        <ele>1</ele>
        <time>2012-08-01T19:42:26Z</time>
      </trkpt>
      <trkpt lat="59.6036181451" lon="17.6095176168">
        <ele>0.6</ele>
        <time>2012-08-01T19:42:27Z</time>
      </trkpt>
      <trkpt lat="59.6035305543" lon="17.6095632143">
        <ele>0</ele>
        <time>2012-08-01T19:42:28Z</time>
      </trkpt>
      <trkpt lat="59.6034421252" lon="17.609604118">
        <ele>0</ele>
        <time>2012-08-01T19:42:29Z</time>
      </trkpt>
      <trkpt lat="59.6029097069" lon="17.6098542339">
        <ele>0</ele>
        <time>2012-08-01T19:42:35Z</time>
      </trkpt>
      <trkpt lat="59.6027351958" lon="17.6099383881">
        <ele>0</ele>
        <time>2012-08-01T19:42:37Z</time>
      </trkpt>
      <trkpt lat="59.6026487784" lon="17.6099753523">
        <ele>0</ele>
        <time>2012-08-01T19:42:38Z</time>
      </trkpt>
      <trkpt lat="59.6025629477" lon="17.6100113107">
        <ele>0</ele>
        <time>2012-08-01T19:42:39Z</time>
      </trkpt>
      <trkpt lat="59.6024770332" lon="17.6100539745">
        <ele>0</ele>
        <time>2012-08-01T19:42:40Z</time>
      </trkpt>
      <trkpt lat="59.6023908673" lon="17.6100963031">
        <ele>0</ele>
        <time>2012-08-01T19:42:41Z</time>
      </trkpt>
      <trkpt lat="59.6019472972" lon="17.6103021626">
        <ele>0</ele>
        <time>2012-08-01T19:42:46Z</time>
      </trkpt>
      <trkpt lat="59.601341202" lon="17.6105975407">
        <ele>0</ele>
        <time>2012-08-01T19:42:53Z</time>
      </trkpt>
      <trkpt lat="59.6012562095" lon="17.6106424677">
        <ele>0</ele>
        <time>2012-08-01T19:42:54Z</time>
      </trkpt>
      <trkpt lat="59.6011696245" lon="17.6106853831">
        <ele>0</ele>
        <time>2012-08-01T19:42:55Z</time>
      </trkpt>
      <trkpt lat="59.6010832909" lon="17.6107341657">
        <ele>0</ele>
        <time>2012-08-01T19:42:56Z</time>
      </trkpt>
      <trkpt lat="59.600989246" lon="17.6107847924">
        <ele>0</ele>
        <time>2012-08-01T19:42:57Z</time>
      </trkpt>
      <trkpt lat="59.6008980509" lon="17.6108272886">
        <ele>0</ele>
        <time>2012-08-01T19:42:58Z</time>
      </trkpt>
      <trkpt lat="59.6007188459" lon="17.6109189866">
        <ele>0</ele>
        <time>2012-08-01T19:43:00Z</time>
      </trkpt>
      <trkpt lat="59.6001975755" lon="17.611216125">
        <ele>0</ele>
        <time>2012-08-01T19:43:06Z</time>
      </trkpt>
      <trkpt lat="59.6001126669" lon="17.6112669193">
        <ele>0</ele>
        <time>2012-08-01T19:43:07Z</time>
      </trkpt>
      <trkpt lat="59.5995376686" lon="17.6116287659">
        <ele>0</ele>
        <time>2012-08-01T19:43:15Z</time>
      </trkpt>
      <trkpt lat="59.5993764008" lon="17.611726415">
        <ele>0</ele>
        <time>2012-08-01T19:43:17Z</time>
      </trkpt>
      <trkpt lat="59.5992190725" lon="17.6118251538">
        <ele>0</ele>
        <time>2012-08-01T19:43:19Z</time>
      </trkpt>
      <trkpt lat="59.5991427134" lon="17.6118751099">
        <ele>0</ele>
        <time>2012-08-01T19:43:20Z</time>
      </trkpt>
      <trkpt lat="59.5990712996" lon="17.6119264072">
        <ele>0</ele>
        <time>2012-08-01T19:43:21Z</time>
      </trkpt>
      <trkpt lat="59.5989920069" lon="17.6119808057">
        <ele>0</ele>
        <time>2012-08-01T19:43:22Z</time>
      </trkpt>
      <trkpt lat="59.5989145581" lon="17.61202699">
        <ele>0</ele>
        <time>2012-08-01T19:43:23Z</time>
      </trkpt>
      <trkpt lat="59.5988356844" lon="17.6120838193">
        <ele>0</ele>
        <time>2012-08-01T19:43:24Z</time>
      </trkpt>
      <trkpt lat="59.5982759411" lon="17.6124745834">
        <ele>0</ele>
        <time>2012-08-01T19:43:31Z</time>
      </trkpt>
      <trkpt lat="59.5977498931" lon="17.6128762441">
        <ele>0</ele>
        <time>2012-08-01T19:43:38Z</time>
      </trkpt>
      <trkpt lat="59.5976729473" lon="17.6129334925">
        <ele>0</ele>
        <time>2012-08-01T19:43:39Z</time>
      </trkpt>
      <trkpt lat="59.5971249386" lon="17.6133794095">
        <ele>0</ele>
        <time>2012-08-01T19:43:46Z</time>
      </trkpt>
      <trkpt lat="59.5970458135" lon="17.6134384181">
        <ele>0</ele>
        <time>2012-08-01T19:43:47Z</time>
      </trkpt>
      <trkpt lat="59.5968975377" lon="17.6135875321">
        <ele>0</ele>
        <time>2012-08-01T19:43:49Z</time>
      </trkpt>
      <trkpt lat="59.5967501001" lon="17.6137320361">
        <ele>0</ele>
        <time>2012-08-01T19:43:51Z</time>
      </trkpt>
      <trkpt lat="59.596236122" lon="17.6141911127">
        <ele>0</ele>
        <time>2012-08-01T19:43:58Z</time>
      </trkpt>
      <trkpt lat="59.5961681448" lon="17.6142760214">
        <ele>0</ele>
        <time>2012-08-01T19:43:59Z</time>
      </trkpt>
      <trkpt lat="59.5960664723" lon="17.6146405502">
        <ele>0</ele>
        <time>2012-08-01T19:44:02Z</time>
      </trkpt>
      <trkpt lat="59.5960848287" lon="17.6147920111">
        <ele>0</ele>
        <time>2012-08-01T19:44:03Z</time>
      </trkpt>
      <trkpt lat="59.5961248103" lon="17.6149360122">
        <ele>0</ele>
        <time>2012-08-01T19:44:04Z</time>
      </trkpt>
      <trkpt lat="59.5961789574" lon="17.6150687815">
        <ele>0</ele>
        <time>2012-08-01T19:44:05Z</time>
      </trkpt>
      <trkpt lat="59.5962464317" lon="17.6151882236">
        <ele>0</ele>
        <time>2012-08-01T19:44:06Z</time>
      </trkpt>
      <trkpt lat="59.5963214497" lon="17.6153092582">
        <ele>0</ele>
        <time>2012-08-01T19:44:07Z</time>
      </trkpt>
      <trkpt lat="59.5967504353" lon="17.6161256553">
        <ele>0</ele>
        <time>2012-08-01T19:44:13Z</time>
      </trkpt>
      <trkpt lat="59.5971793372" lon="17.6170248655">
        <ele>0</ele>
        <time>2012-08-01T19:44:19Z</time>
      </trkpt>
      <trkpt lat="59.5972489908" lon="17.6171733928">
        <ele>0</ele>
        <time>2012-08-01T19:44:20Z</time>
      </trkpt>
      <trkpt lat="59.5976677505" lon="17.6180638858">
        <ele>0</ele>
        <time>2012-08-01T19:44:26Z</time>
      </trkpt>
      <trkpt lat="59.5977368173" lon="17.6182134189">
        <ele>0</ele>
        <time>2012-08-01T19:44:27Z</time>
      </trkpt>
      <trkpt lat="59.597805968" lon="17.6183585096">
        <ele>0</ele>
        <time>2012-08-01T19:44:28Z</time>
      </trkpt>
      <trkpt lat="59.5978752025" lon="17.6185034326">
        <ele>0</ele>
        <time>2012-08-01T19:44:29Z</time>
      </trkpt>
      <trkpt lat="59.5979470354" lon="17.6186581625">
        <ele>0</ele>
        <time>2012-08-01T19:44:30Z</time>
      </trkpt>
      <trkpt lat="59.5983476064" lon="17.61955863">
        <ele>0</ele>
        <time>2012-08-01T19:44:36Z</time>
      </trkpt>
      <trkpt lat="59.5984119794" lon="17.619723502">
        <ele>0</ele>
        <time>2012-08-01T19:44:37Z</time>
      </trkpt>
      <trkpt lat="59.5986563956" lon="17.6205609376">
        <ele>0</ele>
        <time>2012-08-01T19:44:42Z</time>
      </trkpt>
      <trkpt lat="59.5988179148" lon="17.6214336611">
        <ele>0</ele>
        <time>2012-08-01T19:44:47Z</time>
      </trkpt>
      <trkpt lat="59.598893771" lon="17.6222295225">
        <ele>0</ele>
        <time>2012-08-01T19:44:52Z</time>
      </trkpt>
      <trkpt lat="59.5989038293" lon="17.6226953047">
        <ele>0</ele>
        <time>2012-08-01T19:44:55Z</time>
      </trkpt>
      <trkpt lat="59.5989046675" lon="17.622845173">
        <ele>0</ele>
        <time>2012-08-01T19:44:56Z</time>
      </trkpt>
      <trkpt lat="59.5988964532" lon="17.622997556">
        <ele>0</ele>
        <time>2012-08-01T19:44:57Z</time>
      </trkpt>
      <trkpt lat="59.5988760852" lon="17.6234415452">
        <ele>0</ele>
        <time>2012-08-01T19:45:00Z</time>
      </trkpt>
      <trkpt lat="59.598861836" lon="17.6235788407">
        <ele>0</ele>
        <time>2012-08-01T19:45:01Z</time>
      </trkpt>
      <trkpt lat="59.5988436472" lon="17.6237210816">
        <ele>0</ele>
        <time>2012-08-01T19:45:02Z</time>
      </trkpt>
      <trkpt lat="59.5988281407" lon="17.623867681">
        <ele>0</ele>
        <time>2012-08-01T19:45:03Z</time>
      </trkpt>
      <trkpt lat="59.5988118798" lon="17.6240081617">
        <ele>0</ele>
        <time>2012-08-01T19:45:04Z</time>
      </trkpt>
      <trkpt lat="59.5987924338" lon="17.6241416015">
        <ele>0</ele>
        <time>2012-08-01T19:45:05Z</time>
      </trkpt>
      <trkpt lat="59.5987709762" lon="17.6242728621">
        <ele>0</ele>
        <time>2012-08-01T19:45:06Z</time>
      </trkpt>
      <trkpt lat="59.5987184216" lon="17.6245457767">
        <ele>0</ele>
        <time>2012-08-01T19:45:08Z</time>
      </trkpt>
      <trkpt lat="59.5986869895" lon="17.6246829884">
        <ele>0</ele>
        <time>2012-08-01T19:45:09Z</time>
      </trkpt>
      <trkpt lat="59.5986554736" lon="17.6248202001">
        <ele>0</ele>
        <time>2012-08-01T19:45:10Z</time>
      </trkpt>
      <trkpt lat="59.5986227003" lon="17.6249567413">
        <ele>0</ele>
        <time>2012-08-01T19:45:11Z</time>
      </trkpt>
      <trkpt lat="59.5983553177" lon="17.6259509184">
        <ele>0</ele>
        <time>2012-08-01T19:45:18Z</time>
      </trkpt>
      <trkpt lat="59.5981020167" lon="17.6269405694">
        <ele>0</ele>
        <time>2012-08-01T19:45:25Z</time>
      </trkpt>
      <trkpt lat="59.5980344586" lon="17.6275845507">
        <ele>0</ele>
        <time>2012-08-01T19:45:29Z</time>
      </trkpt>
      <trkpt lat="59.5980189521" lon="17.6277533622">
        <ele>0</ele>
        <time>2012-08-01T19:45:30Z</time>
      </trkpt>
      <trkpt lat="59.597967571" lon="17.6282571982">
        <ele>0</ele>
        <time>2012-08-01T19:45:33Z</time>
      </trkpt>
      <trkpt lat="59.5979459457" lon="17.6284289434">
        <ele>0</ele>
        <time>2012-08-01T19:45:34Z</time>
      </trkpt>
      <trkpt lat="59.5979229793" lon="17.6285966652">
        <ele>0</ele>
        <time>2012-08-01T19:45:35Z</time>
      </trkpt>
      <trkpt lat="59.5978949838" lon="17.6287724336">
        <ele>0</ele>
        <time>2012-08-01T19:45:36Z</time>
      </trkpt>
      <trkpt lat="59.5978669044" lon="17.6289434244">
        <ele>0</ele>
        <time>2012-08-01T19:45:37Z</time>
      </trkpt>
      <trkpt lat="59.5976603744" lon="17.6300676886">
        <ele>0</ele>
        <time>2012-08-01T19:45:44Z</time>
      </trkpt>
      <trkpt lat="59.5976310378" lon="17.6302134499">
        <ele>0</ele>
        <time>2012-08-01T19:45:45Z</time>
      </trkpt>
      <trkpt lat="59.597446133" lon="17.6310272485">
        <ele>0</ele>
        <time>2012-08-01T19:45:51Z</time>
      </trkpt>
      <trkpt lat="59.5972530141" lon="17.6317882412">
        <ele>0</ele>
        <time>2012-08-01T19:45:57Z</time>
      </trkpt>
      <trkpt lat="59.5969812729" lon="17.6327476335">
        <ele>0</ele>
        <time>2012-08-01T19:46:04Z</time>
      </trkpt>
      <trkpt lat="59.5969017286" lon="17.6330217216">
        <ele>0</ele>
        <time>2012-08-01T19:46:06Z</time>
      </trkpt>
      <trkpt lat="59.5967742399" lon="17.6334631963">
        <ele>0</ele>
        <time>2012-08-01T19:46:09Z</time>
      </trkpt>
      <trkpt lat="59.5966003155" lon="17.6340729795">
        <ele>0</ele>
        <time>2012-08-01T19:46:13Z</time>
      </trkpt>
      <trkpt lat="59.5965574002" lon="17.6342192437">
        <ele>0</ele>
        <time>2012-08-01T19:46:14Z</time>
      </trkpt>
      <trkpt lat="59.5965120541" lon="17.6343759852">
        <ele>0</ele>
        <time>2012-08-01T19:46:15Z</time>
      </trkpt>
      <trkpt lat="59.5964680491" lon="17.6345256021">
        <ele>0</ele>
        <time>2012-08-01T19:46:16Z</time>
      </trkpt>
      <trkpt lat="59.5964239603" lon="17.6346797453">
        <ele>0</ele>
        <time>2012-08-01T19:46:17Z</time>
      </trkpt>
      <trkpt lat="59.5963807097" lon="17.6348328826">
        <ele>0</ele>
        <time>2012-08-01T19:46:18Z</time>
      </trkpt>
      <trkpt lat="59.5963376268" lon="17.6349849303">
        <ele>0</ele>
        <time>2012-08-01T19:46:19Z</time>
      </trkpt>
      <trkpt lat="59.5962952982" lon="17.6351381514">
        <ele>0</ele>
        <time>2012-08-01T19:46:20Z</time>
      </trkpt>
      <trkpt lat="59.5962502036" lon="17.6352895285">
        <ele>0</ele>
        <time>2012-08-01T19:46:21Z</time>
      </trkpt>
      <trkpt lat="59.5962025944" lon="17.6354363794">
        <ele>0</ele>
        <time>2012-08-01T19:46:22Z</time>
      </trkpt>
      <trkpt lat="59.596152303" lon="17.6355915284">
        <ele>0</ele>
        <time>2012-08-01T19:46:23Z</time>
      </trkpt>
      <trkpt lat="59.5958839145" lon="17.6364614019">
        <ele>0</ele>
        <time>2012-08-01T19:46:29Z</time>
      </trkpt>
      <trkpt lat="59.5956031209" lon="17.6372844207">
        <ele>0</ele>
        <time>2012-08-01T19:46:35Z</time>
      </trkpt>
      <trkpt lat="59.595264073" lon="17.6381569765">
        <ele>0</ele>
        <time>2012-08-01T19:46:42Z</time>
      </trkpt>
      <trkpt lat="59.5949804295" lon="17.6389776483">
        <ele>0</ele>
        <time>2012-08-01T19:46:48Z</time>
      </trkpt>
      <trkpt lat="59.5946654377" lon="17.6400180097">
        <ele>0</ele>
        <time>2012-08-01T19:46:55Z</time>
      </trkpt>
      <trkpt lat="59.5946174933" lon="17.6401639386">
        <ele>0</ele>
        <time>2012-08-01T19:46:56Z</time>
      </trkpt>
      <trkpt lat="59.594568962" lon="17.6403116277">
        <ele>0</ele>
        <time>2012-08-01T19:46:57Z</time>
      </trkpt>
      <trkpt lat="59.5945204308" lon="17.6404599035">
        <ele>0</ele>
        <time>2012-08-01T19:46:58Z</time>
      </trkpt>
      <trkpt lat="59.5944694689" lon="17.6406008871">
        <ele>0</ele>
        <time>2012-08-01T19:46:59Z</time>
      </trkpt>
      <trkpt lat="59.5944185908" lon="17.6407381826">
        <ele>0</ele>
        <time>2012-08-01T19:47:00Z</time>
      </trkpt>
      <trkpt lat="59.5941509567" lon="17.6414226486">
        <ele>0</ele>
        <time>2012-08-01T19:47:05Z</time>
      </trkpt>
      <trkpt lat="59.5937275869" lon="17.642298138">
        <ele>0</ele>
        <time>2012-08-01T19:47:12Z</time>
      </trkpt>
      <trkpt lat="59.5934831707" lon="17.6427242738">
        <ele>0</ele>
        <time>2012-08-01T19:47:16Z</time>
      </trkpt>
      <trkpt lat="59.5934152773" lon="17.642824186">
        <ele>0</ele>
        <time>2012-08-01T19:47:17Z</time>
      </trkpt>
      <trkpt lat="59.5933514911" lon="17.6429256909">
        <ele>0</ele>
        <time>2012-08-01T19:47:18Z</time>
      </trkpt>
      <trkpt lat="59.5932880401" lon="17.643028872">
        <ele>0</ele>
        <time>2012-08-01T19:47:19Z</time>
      </trkpt>
      <trkpt lat="59.5932231642" lon="17.6431290358">
        <ele>0</ele>
        <time>2012-08-01T19:47:20Z</time>
      </trkpt>
      <trkpt lat="59.5928508402" lon="17.6436970771">
        <ele>0</ele>
        <time>2012-08-01T19:47:26Z</time>
      </trkpt>
      <trkpt lat="59.5926454836" lon="17.6440457642">
        <ele>0</ele>
        <time>2012-08-01T19:47:30Z</time>
      </trkpt>
      <trkpt lat="59.5923978823" lon="17.6445799426">
        <ele>0</ele>
        <time>2012-08-01T19:47:35Z</time>
      </trkpt>
      <trkpt lat="59.5920072858" lon="17.6453995248">
        <ele>0</ele>
        <time>2012-08-01T19:47:42Z</time>
      </trkpt>
      <trkpt lat="59.5915670684" lon="17.6462273213">
        <ele>0</ele>
        <time>2012-08-01T19:47:49Z</time>
      </trkpt>
      <trkpt lat="59.591438993" lon="17.6464373717">
        <ele>0</ele>
        <time>2012-08-01T19:47:51Z</time>
      </trkpt>
      <trkpt lat="59.5910321355" lon="17.6469745677">
        <ele>0</ele>
        <time>2012-08-01T19:47:57Z</time>
      </trkpt>
      <trkpt lat="59.5906179858" lon="17.6474713629">
        <ele>0</ele>
        <time>2012-08-01T19:48:03Z</time>
      </trkpt>
      <trkpt lat="59.5902918461" lon="17.6479902863">
        <ele>0</ele>
        <time>2012-08-01T19:48:08Z</time>
      </trkpt>
      <trkpt lat="59.589965874" lon="17.6487590742">
        <ele>0</ele>
        <time>2012-08-01T19:48:14Z</time>
      </trkpt>
      <trkpt lat="59.5897096393" lon="17.6496565242">
        <ele>0</ele>
        <time>2012-08-01T19:48:20Z</time>
      </trkpt>
      <trkpt lat="59.5894326175" lon="17.6507125598">
        <ele>0</ele>
        <time>2012-08-01T19:48:27Z</time>
      </trkpt>
      <trkpt lat="59.5893586054" lon="17.6510017353">
        <ele>0</ele>
        <time>2012-08-01T19:48:29Z</time>
      </trkpt>
      <trkpt lat="59.589106394" lon="17.6519576072">
        <ele>0</ele>
        <time>2012-08-01T19:48:36Z</time>
      </trkpt>
      <trkpt lat="59.5890759677" lon="17.6520870237">
        <ele>0</ele>
        <time>2012-08-01T19:48:37Z</time>
      </trkpt>
      <trkpt lat="59.5888170508" lon="17.6531075201">
        <ele>0</ele>
        <time>2012-08-01T19:48:45Z</time>
      </trkpt>
      <trkpt lat="59.5885828605" lon="17.6540006115">
        <ele>0</ele>
        <time>2012-08-01T19:48:52Z</time>
      </trkpt>
      <trkpt lat="59.5883455689" lon="17.6549128975">
        <ele>0</ele>
        <time>2012-08-01T19:48:59Z</time>
      </trkpt>
      <trkpt lat="59.5880437367" lon="17.6559574499">
        <ele>0</ele>
        <time>2012-08-01T19:49:07Z</time>
      </trkpt>
      <trkpt lat="59.5879589119" lon="17.6562301131">
        <ele>0</ele>
        <time>2012-08-01T19:49:09Z</time>
      </trkpt>
      <trkpt lat="59.5876220433" lon="17.6571185107">
        <ele>0</ele>
        <time>2012-08-01T19:49:16Z</time>
      </trkpt>
      <trkpt lat="59.5872867673" lon="17.6579647473">
        <ele>0</ele>
        <time>2012-08-01T19:49:23Z</time>
      </trkpt>
      <trkpt lat="59.5869934008" lon="17.6586754486">
        <ele>0</ele>
        <time>2012-08-01T19:49:29Z</time>
      </trkpt>
      <trkpt lat="59.5866485695" lon="17.6595067654">
        <ele>0</ele>
        <time>2012-08-01T19:49:36Z</time>
      </trkpt>
      <trkpt lat="59.5865980266" lon="17.6596230224">
        <ele>0</ele>
        <time>2012-08-01T19:49:37Z</time>
      </trkpt>
      <trkpt lat="59.5863056659" lon="17.6603630603">
        <ele>0</ele>
        <time>2012-08-01T19:49:43Z</time>
      </trkpt>
      <trkpt lat="59.5862549554" lon="17.6604846817">
        <ele>0</ele>
        <time>2012-08-01T19:49:44Z</time>
      </trkpt>
      <trkpt lat="59.5862049155" lon="17.6606052973">
        <ele>0</ele>
        <time>2012-08-01T19:49:45Z</time>
      </trkpt>
      <trkpt lat="59.5861534506" lon="17.6607219733">
        <ele>0</ele>
        <time>2012-08-01T19:49:46Z</time>
      </trkpt>
      <trkpt lat="59.586102824" lon="17.6608396552">
        <ele>0</ele>
        <time>2012-08-01T19:49:47Z</time>
      </trkpt>
      <trkpt lat="59.5858959587" lon="17.6613491909">
        <ele>0</ele>
        <time>2012-08-01T19:49:51Z</time>
      </trkpt>
      <trkpt lat="59.5855467687" lon="17.662216047">
        <ele>0</ele>
        <time>2012-08-01T19:49:58Z</time>
      </trkpt>
      <trkpt lat="59.5852350458" lon="17.6630821487">
        <ele>0</ele>
        <time>2012-08-01T19:50:05Z</time>
      </trkpt>
      <trkpt lat="59.585152065" lon="17.6633316779">
        <ele>0</ele>
        <time>2012-08-01T19:50:07Z</time>
      </trkpt>
      <trkpt lat="59.5848778093" lon="17.6642519267">
        <ele>0</ele>
        <time>2012-08-01T19:50:14Z</time>
      </trkpt>
      <trkpt lat="59.5848010311" lon="17.6645118494">
        <ele>0</ele>
        <time>2012-08-01T19:50:16Z</time>
      </trkpt>
      <trkpt lat="59.5845470595" lon="17.6654757679">
        <ele>0</ele>
        <time>2012-08-01T19:50:23Z</time>
      </trkpt>
      <trkpt lat="59.5843101032" lon="17.6664064102">
        <ele>0</ele>
        <time>2012-08-01T19:50:29Z</time>
      </trkpt>
      <trkpt lat="59.5840456542" lon="17.6673967317">
        <ele>0</ele>
        <time>2012-08-01T19:50:35Z</time>
      </trkpt>
      <trkpt lat="59.5840039124" lon="17.6675615199">
        <ele>0</ele>
        <time>2012-08-01T19:50:36Z</time>
      </trkpt>
      <trkpt lat="59.5837297404" lon="17.668530719">
        <ele>0</ele>
        <time>2012-08-01T19:50:42Z</time>
      </trkpt>
      <trkpt lat="59.5836797843" lon="17.6686857003">
        <ele>0</ele>
        <time>2012-08-01T19:50:43Z</time>
      </trkpt>
      <trkpt lat="59.5833697378" lon="17.6695808034">
        <ele>0</ele>
        <time>2012-08-01T19:50:49Z</time>
      </trkpt>
      <trkpt lat="59.583262198" lon="17.6698413129">
        <ele>0</ele>
        <time>2012-08-01T19:50:51Z</time>
      </trkpt>
      <trkpt lat="59.5829352201" lon="17.6705501701">
        <ele>0</ele>
        <time>2012-08-01T19:50:57Z</time>
      </trkpt>
      <trkpt lat="59.5825420252" lon="17.6712654815">
        <ele>0</ele>
        <time>2012-08-01T19:51:04Z</time>
      </trkpt>
      <trkpt lat="59.5824857826" lon="17.6713603646">
        <ele>0</ele>
        <time>2012-08-01T19:51:05Z</time>
      </trkpt>
      <trkpt lat="59.582027628" lon="17.6721180884">
        <ele>0</ele>
        <time>2012-08-01T19:51:13Z</time>
      </trkpt>
      <trkpt lat="59.5815717365" lon="17.6728380098">
        <ele>0</ele>
        <time>2012-08-01T19:51:21Z</time>
      </trkpt>
      <trkpt lat="59.5815195172" lon="17.67292032">
        <ele>0</ele>
        <time>2012-08-01T19:51:22Z</time>
      </trkpt>
      <trkpt lat="59.5812512126" lon="17.6733652313">
        <ele>0</ele>
        <time>2012-08-01T19:51:27Z</time>
      </trkpt>
      <trkpt lat="59.5809325328" lon="17.6738826459">
        <ele>0</ele>
        <time>2012-08-01T19:51:33Z</time>
      </trkpt>
      <trkpt lat="59.580534644" lon="17.6744831253">
        <ele>0</ele>
        <time>2012-08-01T19:51:40Z</time>
      </trkpt>
      <trkpt lat="59.5803015433" lon="17.6747971951">
        <ele>0</ele>
        <time>2012-08-01T19:51:44Z</time>
      </trkpt>
      <trkpt lat="59.5802439597" lon="17.6748593888">
        <ele>0</ele>
        <time>2012-08-01T19:51:45Z</time>
      </trkpt>
      <trkpt lat="59.5801841967" lon="17.6749204928">
        <ele>0</ele>
        <time>2012-08-01T19:51:46Z</time>
      </trkpt>
      <trkpt lat="59.580125272" lon="17.6749851173">
        <ele>0</ele>
        <time>2012-08-01T19:51:47Z</time>
      </trkpt>
      <trkpt lat="59.5796839649" lon="17.6753746241">
        <ele>0</ele>
        <time>2012-08-01T19:51:54Z</time>
      </trkpt>
      <trkpt lat="59.5793045163" lon="17.6755870215">
        <ele>0</ele>
        <time>2012-08-01T19:52:00Z</time>
      </trkpt>
      <trkpt lat="59.5789891054" lon="17.6757166057">
        <ele>0</ele>
        <time>2012-08-01T19:52:05Z</time>
      </trkpt>
      <trkpt lat="59.5789228884" lon="17.6757494627">
        <ele>0</ele>
        <time>2012-08-01T19:52:06Z</time>
      </trkpt>
      <trkpt lat="59.5788613653" lon="17.6757774583">
        <ele>0</ele>
        <time>2012-08-01T19:52:07Z</time>
      </trkpt>
      <trkpt lat="59.5788010156" lon="17.6757975748">
        <ele>0</ele>
        <time>2012-08-01T19:52:08Z</time>
      </trkpt>
      <trkpt lat="59.5787390733" lon="17.6758152606">
        <ele>0</ele>
        <time>2012-08-01T19:52:09Z</time>
      </trkpt>
      <trkpt lat="59.5786774664" lon="17.6758348743">
        <ele>0</ele>
        <time>2012-08-01T19:52:10Z</time>
      </trkpt>
      <trkpt lat="59.5786205533" lon="17.6758552423">
        <ele>0</ele>
        <time>2012-08-01T19:52:11Z</time>
      </trkpt>
      <trkpt lat="59.5785632211" lon="17.6758751074">
        <ele>0</ele>
        <time>2012-08-01T19:52:12Z</time>
      </trkpt>
      <trkpt lat="59.5785047154" lon="17.6758871773">
        <ele>0</ele>
        <time>2012-08-01T19:52:13Z</time>
      </trkpt>
      <trkpt lat="59.5784436114" lon="17.6759041088">
        <ele>0</ele>
        <time>2012-08-01T19:52:14Z</time>
      </trkpt>
      <trkpt lat="59.5783838484" lon="17.6759293383">
        <ele>0</ele>
        <time>2012-08-01T19:52:15Z</time>
      </trkpt>
      <trkpt lat="59.5783225767" lon="17.675945683">
        <ele>0</ele>
        <time>2012-08-01T19:52:16Z</time>
      </trkpt>
      <trkpt lat="59.5782625623" lon="17.6759629497">
        <ele>0</ele>
        <time>2012-08-01T19:52:17Z</time>
      </trkpt>
      <trkpt lat="59.5781997819" lon="17.6759779533">
        <ele>0</ele>
        <time>2012-08-01T19:52:18Z</time>
      </trkpt>
      <trkpt lat="59.5781365824" lon="17.6760004168">
        <ele>0</ele>
        <time>2012-08-01T19:52:19Z</time>
      </trkpt>
      <trkpt lat="59.5780749754" lon="17.6760219583">
        <ele>0</ele>
        <time>2012-08-01T19:52:20Z</time>
      </trkpt>
      <trkpt lat="59.5779529349" lon="17.676072082">
        <ele>0</ele>
        <time>2012-08-01T19:52:22Z</time>
      </trkpt>
      <trkpt lat="59.5778933396" lon="17.676098485">
        <ele>0</ele>
        <time>2012-08-01T19:52:23Z</time>
      </trkpt>
      <trkpt lat="59.5778356722" lon="17.676128157">
        <ele>0</ele>
        <time>2012-08-01T19:52:24Z</time>
      </trkpt>
      <trkpt lat="59.5777785076" lon="17.6761632771">
        <ele>0</ele>
        <time>2012-08-01T19:52:25Z</time>
      </trkpt>
      <trkpt lat="59.5777236062" lon="17.6761946254">
        <ele>0</ele>
        <time>2012-08-01T19:52:26Z</time>
      </trkpt>
      <trkpt lat="59.5776238616" lon="17.6762597528">
        <ele>0</ele>
        <time>2012-08-01T19:52:28Z</time>
      </trkpt>
      <trkpt lat="59.577414817" lon="17.6764063522">
        <ele>0</ele>
        <time>2012-08-01T19:52:32Z</time>
      </trkpt>
      <trkpt lat="59.577361089" lon="17.6764537938">
        <ele>0</ele>
        <time>2012-08-01T19:52:33Z</time>
      </trkpt>
      <trkpt lat="59.5773088698" lon="17.6765133891">
        <ele>0</ele>
        <time>2012-08-01T19:52:34Z</time>
      </trkpt>
      <trkpt lat="59.577251789" lon="17.6765827074">
        <ele>0</ele>
        <time>2012-08-01T19:52:35Z</time>
      </trkpt>
      <trkpt lat="59.5770261483" lon="17.6768458152">
        <ele>0</ele>
        <time>2012-08-01T19:52:39Z</time>
      </trkpt>
      <trkpt lat="59.5769715821" lon="17.6769110264">
        <ele>0</ele>
        <time>2012-08-01T19:52:40Z</time>
      </trkpt>
      <trkpt lat="59.5769139146" lon="17.6769801771">
        <ele>0</ele>
        <time>2012-08-01T19:52:41Z</time>
      </trkpt>
      <trkpt lat="59.5768524753" lon="17.6770563686">
        <ele>0.2</ele>
        <time>2012-08-01T19:52:42Z</time>
      </trkpt>
      <trkpt lat="59.57679288" lon="17.6771318895">
        <ele>0.8</ele>
        <time>2012-08-01T19:52:43Z</time>
      </trkpt>
      <trkpt lat="59.5765609528" lon="17.6773991883">
        <ele>0.8</ele>
        <time>2012-08-01T19:52:47Z</time>
      </trkpt>
      <trkpt lat="59.5764467075" lon="17.6775369867">
        <ele>1.2</ele>
        <time>2012-08-01T19:52:49Z</time>
      </trkpt>
      <trkpt lat="59.5763882857" lon="17.677608149">
        <ele>1.6</ele>
        <time>2012-08-01T19:52:50Z</time>
      </trkpt>
      <trkpt lat="59.5763352282" lon="17.6776759586">
        <ele>2</ele>
        <time>2012-08-01T19:52:51Z</time>
      </trkpt>
      <trkpt lat="59.5762831766" lon="17.6777441873">
        <ele>2.4</ele>
        <time>2012-08-01T19:52:52Z</time>
      </trkpt>
      <trkpt lat="59.5762297001" lon="17.6778147629">
        <ele>2.8</ele>
        <time>2012-08-01T19:52:53Z</time>
      </trkpt>
      <trkpt lat="59.5760780716" lon="17.6780243942">
        <ele>2.8</ele>
        <time>2012-08-01T19:52:56Z</time>
      </trkpt>
      <trkpt lat="59.5758002116" lon="17.6785112988">
        <ele>2.8</ele>
        <time>2012-08-01T19:53:01Z</time>
      </trkpt>
      <trkpt lat="59.5754868961" lon="17.6792879656">
        <ele>2.8</ele>
        <time>2012-08-01T19:53:07Z</time>
      </trkpt>
      <trkpt lat="59.5752257161" lon="17.6802071248">
        <ele>2.8</ele>
        <time>2012-08-01T19:53:13Z</time>
      </trkpt>
      <trkpt lat="59.5749619378" lon="17.6812455584">
        <ele>2.8</ele>
        <time>2012-08-01T19:53:20Z</time>
      </trkpt>
      <trkpt lat="59.574728418" lon="17.6819336285">
        <ele>2.8</ele>
        <time>2012-08-01T19:53:25Z</time>
      </trkpt>
      <trkpt lat="59.5743829999" lon="17.6825502011">
        <ele>2.8</ele>
        <time>2012-08-01T19:53:30Z</time>
      </trkpt>
      <trkpt lat="59.5743035395" lon="17.6826606745">
        <ele>2.4</ele>
        <time>2012-08-01T19:53:31Z</time>
      </trkpt>
      <trkpt lat="59.574222738" lon="17.6827639395">
        <ele>1.8</ele>
        <time>2012-08-01T19:53:32Z</time>
      </trkpt>
      <trkpt lat="59.5741414336" lon="17.682866534">
        <ele>1.4</ele>
        <time>2012-08-01T19:53:33Z</time>
      </trkpt>
      <trkpt lat="59.5740567764" lon="17.6829596569">
        <ele>1</ele>
        <time>2012-08-01T19:53:34Z</time>
      </trkpt>
      <trkpt lat="59.5739717839" lon="17.6830468287">
        <ele>0.6</ele>
        <time>2012-08-01T19:53:35Z</time>
      </trkpt>
      <trkpt lat="59.5738830196" lon="17.6831241098">
        <ele>0.6</ele>
        <time>2012-08-01T19:53:36Z</time>
      </trkpt>
      <trkpt lat="59.5737001265" lon="17.6832558733">
        <ele>0</ele>
        <time>2012-08-01T19:53:38Z</time>
      </trkpt>
      <trkpt lat="59.5736115298" lon="17.6833148818">
        <ele>0</ele>
        <time>2012-08-01T19:53:39Z</time>
      </trkpt>
      <trkpt lat="59.5735215082" lon="17.683368526">
        <ele>0</ele>
        <time>2012-08-01T19:53:40Z</time>
      </trkpt>
      <trkpt lat="59.573432241" lon="17.6834224216">
        <ele>0</ele>
        <time>2012-08-01T19:53:41Z</time>
      </trkpt>
      <trkpt lat="59.5733450692" lon="17.6834804244">
        <ele>0</ele>
        <time>2012-08-01T19:53:42Z</time>
      </trkpt>
      <trkpt lat="59.5729173409" lon="17.6837125192">
        <ele>0</ele>
        <time>2012-08-01T19:53:47Z</time>
      </trkpt>
      <trkpt lat="59.5723349665" lon="17.6840527405">
        <ele>0</ele>
        <time>2012-08-01T19:53:54Z</time>
      </trkpt>
      <trkpt lat="59.5722516504" lon="17.6841045406">
        <ele>0</ele>
        <time>2012-08-01T19:53:55Z</time>
      </trkpt>
      <trkpt lat="59.5716718744" lon="17.6844550717">
        <ele>0</ele>
        <time>2012-08-01T19:54:02Z</time>
      </trkpt>
      <trkpt lat="59.5715888936" lon="17.6845091349">
        <ele>0</ele>
        <time>2012-08-01T19:54:03Z</time>
      </trkpt>
      <trkpt lat="59.5713343352" lon="17.6846673014">
        <ele>0</ele>
        <time>2012-08-01T19:54:06Z</time>
      </trkpt>
      <trkpt lat="59.57124599" lon="17.6847224543">
        <ele>0</ele>
        <time>2012-08-01T19:54:07Z</time>
      </trkpt>
      <trkpt lat="59.5711624225" lon="17.6847740868">
        <ele>0</ele>
        <time>2012-08-01T19:54:08Z</time>
      </trkpt>
      <trkpt lat="59.5710784358" lon="17.6848246297">
        <ele>0</ele>
        <time>2012-08-01T19:54:09Z</time>
      </trkpt>
      <trkpt lat="59.5709946168" lon="17.6848733285">
        <ele>0</ele>
        <time>2012-08-01T19:54:10Z</time>
      </trkpt>
      <trkpt lat="59.5708271465" lon="17.6849722349">
        <ele>0</ele>
        <time>2012-08-01T19:54:12Z</time>
      </trkpt>
      <trkpt lat="59.5707433275" lon="17.6850222749">
        <ele>0</ele>
        <time>2012-08-01T19:54:13Z</time>
      </trkpt>
      <trkpt lat="59.5706554013" lon="17.6850733206">
        <ele>0</ele>
        <time>2012-08-01T19:54:14Z</time>
      </trkpt>
      <trkpt lat="59.5705733425" lon="17.6851255399">
        <ele>0</ele>
        <time>2012-08-01T19:54:15Z</time>
      </trkpt>
      <trkpt lat="59.5704913676" lon="17.6851687905">
        <ele>0</ele>
        <time>2012-08-01T19:54:16Z</time>
      </trkpt>
      <trkpt lat="59.5704124939" lon="17.6852139689">
        <ele>0</ele>
        <time>2012-08-01T19:54:17Z</time>
      </trkpt>
      <trkpt lat="59.570186434" lon="17.685353779">
        <ele>0</ele>
        <time>2012-08-01T19:54:20Z</time>
      </trkpt>
      <trkpt lat="59.5698887928" lon="17.6855086765">
        <ele>0</ele>
        <time>2012-08-01T19:54:24Z</time>
      </trkpt>
      <trkpt lat="59.5698226596" lon="17.6855586326">
        <ele>0</ele>
        <time>2012-08-01T19:54:25Z</time>
      </trkpt>
      <trkpt lat="59.5696262717" lon="17.6856687708">
        <ele>0</ele>
        <time>2012-08-01T19:54:28Z</time>
      </trkpt>
      <trkpt lat="59.5695660058" lon="17.6857161285">
        <ele>0</ele>
        <time>2012-08-01T19:54:29Z</time>
      </trkpt>
      <trkpt lat="59.5692993776" lon="17.6858702717">
        <ele>0</ele>
        <time>2012-08-01T19:54:33Z</time>
      </trkpt>
      <trkpt lat="59.5689558873" lon="17.686055847">
        <ele>0</ele>
        <time>2012-08-01T19:54:38Z</time>
      </trkpt>
      <trkpt lat="59.5688134788" lon="17.6861463715">
        <ele>0</ele>
        <time>2012-08-01T19:54:40Z</time>
      </trkpt>
      <trkpt lat="59.5687428194" lon="17.6861915499">
        <ele>0</ele>
        <time>2012-08-01T19:54:41Z</time>
      </trkpt>
      <trkpt lat="59.5686703998" lon="17.6862383209">
        <ele>0</ele>
        <time>2012-08-01T19:54:42Z</time>
      </trkpt>
      <trkpt lat="59.5685990698" lon="17.6862867683">
        <ele>0</ele>
        <time>2012-08-01T19:54:43Z</time>
      </trkpt>
      <trkpt lat="59.5685252253" lon="17.6863306895">
        <ele>0</ele>
        <time>2012-08-01T19:54:44Z</time>
      </trkpt>
      <trkpt lat="59.568021976" lon="17.6867129041">
        <ele>0</ele>
        <time>2012-08-01T19:54:51Z</time>
      </trkpt>
      <trkpt lat="59.5674937487" lon="17.6873019002">
        <ele>0</ele>
        <time>2012-08-01T19:54:59Z</time>
      </trkpt>
      <trkpt lat="59.5670650983" lon="17.6880024594">
        <ele>0</ele>
        <time>2012-08-01T19:55:06Z</time>
      </trkpt>
      <trkpt lat="59.5666420638" lon="17.6888658789">
        <ele>0</ele>
        <time>2012-08-01T19:55:13Z</time>
      </trkpt>
      <trkpt lat="59.5662385591" lon="17.6897571264">
        <ele>0</ele>
        <time>2012-08-01T19:55:20Z</time>
      </trkpt>
      <trkpt lat="59.5658545005" lon="17.690599172">
        <ele>0</ele>
        <time>2012-08-01T19:55:27Z</time>
      </trkpt>
      <trkpt lat="59.5658062207" lon="17.6907224698">
        <ele>0</ele>
        <time>2012-08-01T19:55:28Z</time>
      </trkpt>
      <trkpt lat="59.5657580248" lon="17.6908403193">
        <ele>0</ele>
        <time>2012-08-01T19:55:29Z</time>
      </trkpt>
      <trkpt lat="59.5657071467" lon="17.690971496">
        <ele>0</ele>
        <time>2012-08-01T19:55:30Z</time>
      </trkpt>
      <trkpt lat="59.5656581964" lon="17.6910885074">
        <ele>0</ele>
        <time>2012-08-01T19:55:31Z</time>
      </trkpt>
      <trkpt lat="59.5656137723" lon="17.691215074">
        <ele>0</ele>
        <time>2012-08-01T19:55:32Z</time>
      </trkpt>
      <trkpt lat="59.5655198112" lon="17.691484133">
        <ele>0</ele>
        <time>2012-08-01T19:55:34Z</time>
      </trkpt>
      <trkpt lat="59.5654380039" lon="17.6917491687">
        <ele>0</ele>
        <time>2012-08-01T19:55:36Z</time>
      </trkpt>
      <trkpt lat="59.5653993633" lon="17.6918852908">
        <ele>0</ele>
        <time>2012-08-01T19:55:37Z</time>
      </trkpt>
      <trkpt lat="59.5653584596" lon="17.6920225863">
        <ele>0</ele>
        <time>2012-08-01T19:55:38Z</time>
      </trkpt>
      <trkpt lat="59.5653253511" lon="17.6921566967">
        <ele>0</ele>
        <time>2012-08-01T19:55:39Z</time>
      </trkpt>
      <trkpt lat="59.5652873811" lon="17.6922847721">
        <ele>0</ele>
        <time>2012-08-01T19:55:40Z</time>
      </trkpt>
      <trkpt lat="59.5650931725" lon="17.6930898536">
        <ele>0</ele>
        <time>2012-08-01T19:55:46Z</time>
      </trkpt>
      <trkpt lat="59.5649122073" lon="17.6940211665">
        <ele>0</ele>
        <time>2012-08-01T19:55:52Z</time>
      </trkpt>
      <trkpt lat="59.5648088585" lon="17.694984163">
        <ele>0</ele>
        <time>2012-08-01T19:55:58Z</time>
      </trkpt>
      <trkpt lat="59.5647185854" lon="17.6960883107">
        <ele>0</ele>
        <time>2012-08-01T19:56:05Z</time>
      </trkpt>
      <trkpt lat="59.5646226126" lon="17.6972052827">
        <ele>0</ele>
        <time>2012-08-01T19:56:12Z</time>
      </trkpt>
      <trkpt lat="59.5646106265" lon="17.6973650417">
        <ele>0</ele>
        <time>2012-08-01T19:56:13Z</time>
      </trkpt>
      <trkpt lat="59.5645283163" lon="17.6983000427">
        <ele>0</ele>
        <time>2012-08-01T19:56:19Z</time>
      </trkpt>
      <trkpt lat="59.5644444134" lon="17.6993848282">
        <ele>0</ele>
        <time>2012-08-01T19:56:26Z</time>
      </trkpt>
      <trkpt lat="59.5643501171" lon="17.7004748104">
        <ele>0</ele>
        <time>2012-08-01T19:56:33Z</time>
      </trkpt>
      <trkpt lat="59.5643354487" lon="17.7006263552">
        <ele>0</ele>
        <time>2012-08-01T19:56:34Z</time>
      </trkpt>
      <trkpt lat="59.5642500372" lon="17.7017354482">
        <ele>0</ele>
        <time>2012-08-01T19:56:41Z</time>
      </trkpt>
      <trkpt lat="59.5641531424" lon="17.702894162">
        <ele>0</ele>
        <time>2012-08-01T19:56:48Z</time>
      </trkpt>
      <trkpt lat="59.5640698263" lon="17.7039056059">
        <ele>0</ele>
        <time>2012-08-01T19:56:54Z</time>
      </trkpt>
      <trkpt lat="59.5639939701" lon="17.7048142039">
        <ele>0</ele>
        <time>2012-08-01T19:57:00Z</time>
      </trkpt>
      <trkpt lat="59.5639123304" lon="17.7055656412">
        <ele>0</ele>
        <time>2012-08-01T19:57:05Z</time>
      </trkpt>
      <trkpt lat="59.5637389089" lon="17.7067312282">
        <ele>0</ele>
        <time>2012-08-01T19:57:13Z</time>
      </trkpt>
      <trkpt lat="59.5635213148" lon="17.7076713421">
        <ele>0</ele>
        <time>2012-08-01T19:57:19Z</time>
      </trkpt>
      <trkpt lat="59.5633143657" lon="17.7085417186">
        <ele>0</ele>
        <time>2012-08-01T19:57:25Z</time>
      </trkpt>
      <trkpt lat="59.5631774054" lon="17.7094299486">
        <ele>0</ele>
        <time>2012-08-01T19:57:31Z</time>
      </trkpt>
      <trkpt lat="59.5631712028" lon="17.7095814095">
        <ele>0</ele>
        <time>2012-08-01T19:57:32Z</time>
      </trkpt>
      <trkpt lat="59.5631805906" lon="17.710041492">
        <ele>0</ele>
        <time>2012-08-01T19:57:35Z</time>
      </trkpt>
      <trkpt lat="59.5631357474" lon="17.7103341879">
        <ele>0</ele>
        <time>2012-08-01T19:57:37Z</time>
      </trkpt>
      <trkpt lat="59.5630044868" lon="17.7105122195">
        <ele>0</ele>
        <time>2012-08-01T19:57:39Z</time>
      </trkpt>
      <trkpt lat="59.5627591486" lon="17.710642558">
        <ele>0</ele>
        <time>2012-08-01T19:57:42Z</time>
      </trkpt>
      <trkpt lat="59.5626775927" lon="17.7106942744">
        <ele>0</ele>
        <time>2012-08-01T19:57:43Z</time>
      </trkpt>
      <trkpt lat="59.5621243873" lon="17.7110635809">
        <ele>0</ele>
        <time>2012-08-01T19:57:50Z</time>
      </trkpt>
      <trkpt lat="59.5620471062" lon="17.7111183985">
        <ele>0</ele>
        <time>2012-08-01T19:57:51Z</time>
      </trkpt>
      <trkpt lat="59.561531787" lon="17.7114938238">
        <ele>0</ele>
        <time>2012-08-01T19:57:58Z</time>
      </trkpt>
      <trkpt lat="59.5614628878" lon="17.7115565204">
        <ele>0</ele>
        <time>2012-08-01T19:57:59Z</time>
      </trkpt>
      <trkpt lat="59.5610188986" lon="17.7119606118">
        <ele>0</ele>
        <time>2012-08-01T19:58:05Z</time>
      </trkpt>
      <trkpt lat="59.5609504184" lon="17.712030014">
        <ele>0</ele>
        <time>2012-08-01T19:58:06Z</time>
      </trkpt>
      <trkpt lat="59.5605491769" lon="17.7125082852">
        <ele>0</ele>
        <time>2012-08-01T19:58:12Z</time>
      </trkpt>
      <trkpt lat="59.5602488534" lon="17.7129504304">
        <ele>0</ele>
        <time>2012-08-01T19:58:17Z</time>
      </trkpt>
      <trkpt lat="59.5598690695" lon="17.7136991017">
        <ele>0</ele>
        <time>2012-08-01T19:58:24Z</time>
      </trkpt>
      <trkpt lat="59.5595793072" lon="17.7143968111">
        <ele>0</ele>
        <time>2012-08-01T19:58:30Z</time>
      </trkpt>
      <trkpt lat="59.5592286085" lon="17.715384618">
        <ele>0</ele>
        <time>2012-08-01T19:58:38Z</time>
      </trkpt>
      <trkpt lat="59.5589447136" lon="17.7163423339">
        <ele>0</ele>
        <time>2012-08-01T19:58:45Z</time>
      </trkpt>
      <trkpt lat="59.5586479943" lon="17.7172653487">
        <ele>0</ele>
        <time>2012-08-01T19:58:51Z</time>
      </trkpt>
      <trkpt lat="59.5583727327" lon="17.71808996">
        <ele>0</ele>
        <time>2012-08-01T19:58:56Z</time>
      </trkpt>
      <trkpt lat="59.5583180827" lon="17.7182461148">
        <ele>0</ele>
        <time>2012-08-01T19:58:57Z</time>
      </trkpt>
      <trkpt lat="59.5582617564" lon="17.7183994198">
        <ele>0</ele>
        <time>2012-08-01T19:58:58Z</time>
      </trkpt>
      <trkpt lat="59.558203586" lon="17.7185513836">
        <ele>0</ele>
        <time>2012-08-01T19:58:59Z</time>
      </trkpt>
      <trkpt lat="59.5581444098" lon="17.7187008329">
        <ele>0</ele>
        <time>2012-08-01T19:59:00Z</time>
      </trkpt>
      <trkpt lat="59.5580812102" lon="17.7188562333">
        <ele>0</ele>
        <time>2012-08-01T19:59:01Z</time>
      </trkpt>
      <trkpt lat="59.5580215311" lon="17.7190049282">
        <ele>0</ele>
        <time>2012-08-01T19:59:02Z</time>
      </trkpt>
      <trkpt lat="59.5579631093" lon="17.7191470014">
        <ele>0</ele>
        <time>2012-08-01T19:59:03Z</time>
      </trkpt>
      <trkpt lat="59.5578450921" lon="17.7194265378">
        <ele>0</ele>
        <time>2012-08-01T19:59:05Z</time>
      </trkpt>
      <trkpt lat="59.5575027753" lon="17.72014143">
        <ele>0</ele>
        <time>2012-08-01T19:59:11Z</time>
      </trkpt>
      <trkpt lat="59.5571615482" lon="17.7208038516">
        <ele>0</ele>
        <time>2012-08-01T19:59:18Z</time>
      </trkpt>
      <trkpt lat="59.5570209837" lon="17.7210672109">
        <ele>0</ele>
        <time>2012-08-01T19:59:21Z</time>
      </trkpt>
      <trkpt lat="59.5569715305" lon="17.721148683">
        <ele>0</ele>
        <time>2012-08-01T19:59:22Z</time>
      </trkpt>
      <trkpt lat="59.5569240051" lon="17.7212275566">
        <ele>0</ele>
        <time>2012-08-01T19:59:23Z</time>
      </trkpt>
      <trkpt lat="59.5568760607" lon="17.7213061789">
        <ele>0</ele>
        <time>2012-08-01T19:59:24Z</time>
      </trkpt>
      <trkpt lat="59.5568305469" lon="17.721373737">
        <ele>0</ele>
        <time>2012-08-01T19:59:25Z</time>
      </trkpt>
      <trkpt lat="59.556785117" lon="17.7214493417">
        <ele>0</ele>
        <time>2012-08-01T19:59:26Z</time>
      </trkpt>
      <trkpt lat="59.5567411959" lon="17.7215275448">
        <ele>0</ele>
        <time>2012-08-01T19:59:27Z</time>
      </trkpt>
      <trkpt lat="59.5566949278" lon="17.7216063347">
        <ele>0</ele>
        <time>2012-08-01T19:59:28Z</time>
      </trkpt>
      <trkpt lat="59.5566494979" lon="17.7216873877">
        <ele>0</ele>
        <time>2012-08-01T19:59:29Z</time>
      </trkpt>
      <trkpt lat="59.5566027269" lon="17.7217670995">
        <ele>0</ele>
        <time>2012-08-01T19:59:30Z</time>
      </trkpt>
      <trkpt lat="59.5565562912" lon="17.7218472305">
        <ele>0</ele>
        <time>2012-08-01T19:59:31Z</time>
      </trkpt>
      <trkpt lat="59.5564150562" lon="17.7220959215">
        <ele>0</ele>
        <time>2012-08-01T19:59:34Z</time>
      </trkpt>
      <trkpt lat="59.5563696263" lon="17.7221787347">
        <ele>0</ele>
        <time>2012-08-01T19:59:35Z</time>
      </trkpt>
      <trkpt lat="59.5563231905" lon="17.7222618831">
        <ele>0</ele>
        <time>2012-08-01T19:59:36Z</time>
      </trkpt>
      <trkpt lat="59.5562774254" lon="17.7223474623">
        <ele>0</ele>
        <time>2012-08-01T19:59:37Z</time>
      </trkpt>
      <trkpt lat="59.5562324146" lon="17.7224279285">
        <ele>0</ele>
        <time>2012-08-01T19:59:38Z</time>
      </trkpt>
      <trkpt lat="59.5559750902" lon="17.7228856641">
        <ele>0</ele>
        <time>2012-08-01T19:59:44Z</time>
      </trkpt>
      <trkpt lat="59.5559306662" lon="17.7229647054">
        <ele>0</ele>
        <time>2012-08-01T19:59:45Z</time>
      </trkpt>
      <trkpt lat="59.5558849848" lon="17.7230429924">
        <ele>0</ele>
        <time>2012-08-01T19:59:46Z</time>
      </trkpt>
      <trkpt lat="59.5558415666" lon="17.7231199382">
        <ele>0.2</ele>
        <time>2012-08-01T19:59:47Z</time>
      </trkpt>
      <trkpt lat="59.5557988189" lon="17.7231926931">
        <ele>0.8</ele>
        <time>2012-08-01T19:59:48Z</time>
      </trkpt>
      <trkpt lat="59.5557539757" lon="17.7232679626">
        <ele>1.2</ele>
        <time>2012-08-01T19:59:49Z</time>
      </trkpt>
      <trkpt lat="59.5557072885" lon="17.7233454113">
        <ele>1.2</ele>
        <time>2012-08-01T19:59:50Z</time>
      </trkpt>
      <trkpt lat="59.5554470305" lon="17.7237804319">
        <ele>1.2</ele>
        <time>2012-08-01T19:59:55Z</time>
      </trkpt>
      <trkpt lat="59.5553124172" lon="17.7240359961">
        <ele>1.6</ele>
        <time>2012-08-01T19:59:58Z</time>
      </trkpt>
      <trkpt lat="59.5552670711" lon="17.7241227487">
        <ele>2</ele>
        <time>2012-08-01T19:59:59Z</time>
      </trkpt>
      <trkpt lat="59.5552206354" lon="17.7242131056">
        <ele>2.4</ele>
        <time>2012-08-01T20:00:00Z</time>
      </trkpt>
      <trkpt lat="59.5551693382" lon="17.7243139399">
        <ele>2.8</ele>
        <time>2012-08-01T20:00:01Z</time>
      </trkpt>
      <trkpt lat="59.5551187115" lon="17.7244110023">
        <ele>3.2</ele>
        <time>2012-08-01T20:00:02Z</time>
      </trkpt>
      <trkpt lat="59.554828111" lon="17.7250003336">
        <ele>3.2</ele>
        <time>2012-08-01T20:00:08Z</time>
      </trkpt>
      <trkpt lat="59.5545676854" lon="17.7255894974">
        <ele>3.2</ele>
        <time>2012-08-01T20:00:14Z</time>
      </trkpt>
      <trkpt lat="59.5542882329" lon="17.7262469736">
        <ele>3.2</ele>
        <time>2012-08-01T20:00:20Z</time>
      </trkpt>
      <trkpt lat="59.5540490973" lon="17.7268889434">
        <ele>3.2</ele>
        <time>2012-08-01T20:00:25Z</time>
      </trkpt>
      <trkpt lat="59.5539509452" lon="17.7271506263">
        <ele>3.8</ele>
        <time>2012-08-01T20:00:27Z</time>
      </trkpt>
      <trkpt lat="59.553902414" lon="17.7272787855">
        <ele>4.2</ele>
        <time>2012-08-01T20:00:28Z</time>
      </trkpt>
      <trkpt lat="59.5538544695" lon="17.7274041787">
        <ele>4.6</ele>
        <time>2012-08-01T20:00:29Z</time>
      </trkpt>
      <trkpt lat="59.5538078662" lon="17.7275340982">
        <ele>5.2</ele>
        <time>2012-08-01T20:00:30Z</time>
      </trkpt>
      <trkpt lat="59.5537612628" lon="17.7276673704">
        <ele>5.6</ele>
        <time>2012-08-01T20:00:31Z</time>
      </trkpt>
      <trkpt lat="59.5536626917" lon="17.7279412909">
        <ele>5.6</ele>
        <time>2012-08-01T20:00:33Z</time>
      </trkpt>
      <trkpt lat="59.5532964026" lon="17.7289175308">
        <ele>5.6</ele>
        <time>2012-08-01T20:00:40Z</time>
      </trkpt>
      <trkpt lat="59.5531886114" lon="17.7292097238">
        <ele>5.2</ele>
        <time>2012-08-01T20:00:42Z</time>
      </trkpt>
      <trkpt lat="59.5531306086" lon="17.7293600113">
        <ele>4.8</ele>
        <time>2012-08-01T20:00:43Z</time>
      </trkpt>
      <trkpt lat="59.5530762101" lon="17.7295128133">
        <ele>4.4</ele>
        <time>2012-08-01T20:00:44Z</time>
      </trkpt>
      <trkpt lat="59.5530203028" lon="17.7296644419">
        <ele>4</ele>
        <time>2012-08-01T20:00:45Z</time>
      </trkpt>
      <trkpt lat="59.5529639765" lon="17.7298178307">
        <ele>3.6</ele>
        <time>2012-08-01T20:00:46Z</time>
      </trkpt>
      <trkpt lat="59.5528473004" lon="17.7301391927">
        <ele>3.6</ele>
        <time>2012-08-01T20:00:48Z</time>
      </trkpt>
      <trkpt lat="59.5527881242" lon="17.7302960181">
        <ele>3.2</ele>
        <time>2012-08-01T20:00:49Z</time>
      </trkpt>
      <trkpt lat="59.5527302053" lon="17.7304541007">
        <ele>2.6</ele>
        <time>2012-08-01T20:00:50Z</time>
      </trkpt>
      <trkpt lat="59.5526737113" lon="17.7306155361">
        <ele>2.2</ele>
        <time>2012-08-01T20:00:51Z</time>
      </trkpt>
      <trkpt lat="59.5526160438" lon="17.7307749598">
        <ele>1.8</ele>
        <time>2012-08-01T20:00:52Z</time>
      </trkpt>
      <trkpt lat="59.5525564485" lon="17.7309392451">
        <ele>1.4</ele>
        <time>2012-08-01T20:00:53Z</time>
      </trkpt>
      <trkpt lat="59.5524342404" lon="17.7312822324">
        <ele>0.8</ele>
        <time>2012-08-01T20:00:55Z</time>
      </trkpt>
      <trkpt lat="59.5523675205" lon="17.7314424944">
        <ele>0.2</ele>
        <time>2012-08-01T20:00:56Z</time>
      </trkpt>
      <trkpt lat="59.5523014711" lon="17.7316091265">
        <ele>0</ele>
        <time>2012-08-01T20:00:57Z</time>
      </trkpt>
      <trkpt lat="59.5522331586" lon="17.7317794467">
        <ele>0</ele>
        <time>2012-08-01T20:00:58Z</time>
      </trkpt>
      <trkpt lat="59.5521623316" lon="17.731950186">
        <ele>0</ele>
        <time>2012-08-01T20:00:59Z</time>
      </trkpt>
      <trkpt lat="59.5520915883" lon="17.7321274632">
        <ele>0</ele>
        <time>2012-08-01T20:01:00Z</time>
      </trkpt>
      <trkpt lat="59.5520199231" lon="17.732306333">
        <ele>0</ele>
        <time>2012-08-01T20:01:01Z</time>
      </trkpt>
      <trkpt lat="59.5519473358" lon="17.7324812632">
        <ele>0</ele>
        <time>2012-08-01T20:01:02Z</time>
      </trkpt>
      <trkpt lat="59.5518672887" lon="17.7326676767">
        <ele>0</ele>
        <time>2012-08-01T20:01:03Z</time>
      </trkpt>
      <trkpt lat="59.5517879959" lon="17.7328414335">
        <ele>0</ele>
        <time>2012-08-01T20:01:04Z</time>
      </trkpt>
      <trkpt lat="59.5517087031" lon="17.7330147712">
        <ele>0</ele>
        <time>2012-08-01T20:01:05Z</time>
      </trkpt>
      <trkpt lat="59.5516278178" lon="17.733184337">
        <ele>0</ele>
        <time>2012-08-01T20:01:06Z</time>
      </trkpt>
      <trkpt lat="59.551543915" lon="17.7333516397">
        <ele>0</ele>
        <time>2012-08-01T20:01:07Z</time>
      </trkpt>
      <trkpt lat="59.5514575814" lon="17.7335156735">
        <ele>0</ele>
        <time>2012-08-01T20:01:08Z</time>
      </trkpt>
      <trkpt lat="59.5513694038" lon="17.733680294">
        <ele>0</ele>
        <time>2012-08-01T20:01:09Z</time>
      </trkpt>
      <trkpt lat="59.5512813939" lon="17.7338449145">
        <ele>0</ele>
        <time>2012-08-01T20:01:10Z</time>
      </trkpt>
      <trkpt lat="59.5511875166" lon="17.7340111276">
        <ele>0</ele>
        <time>2012-08-01T20:01:11Z</time>
      </trkpt>
      <trkpt lat="59.5511010154" lon="17.7341666119">
        <ele>0</ele>
        <time>2012-08-01T20:01:12Z</time>
      </trkpt>
      <trkpt lat="59.5510148495" lon="17.7343191624">
        <ele>0</ele>
        <time>2012-08-01T20:01:13Z</time>
      </trkpt>
      <trkpt lat="59.5509314495" lon="17.7344728027">
        <ele>0</ele>
        <time>2012-08-01T20:01:14Z</time>
      </trkpt>
      <trkpt lat="59.5508433558" lon="17.7346153788">
        <ele>0</ele>
        <time>2012-08-01T20:01:15Z</time>
      </trkpt>
      <trkpt lat="59.550753418" lon="17.7347467231">
        <ele>0</ele>
        <time>2012-08-01T20:01:16Z</time>
      </trkpt>
      <trkpt lat="59.5506661624" lon="17.7348763911">
        <ele>0</ele>
        <time>2012-08-01T20:01:17Z</time>
      </trkpt>
      <trkpt lat="59.5505789068" lon="17.7350127647">
        <ele>0</ele>
        <time>2012-08-01T20:01:18Z</time>
      </trkpt>
      <trkpt lat="59.5504951717" lon="17.7351405886">
        <ele>0</ele>
        <time>2012-08-01T20:01:19Z</time>
      </trkpt>
      <trkpt lat="59.5504113527" lon="17.7352582705">
        <ele>0</ele>
        <time>2012-08-01T20:01:20Z</time>
      </trkpt>
      <trkpt lat="59.55032921" lon="17.7353759524">
        <ele>0</ele>
        <time>2012-08-01T20:01:21Z</time>
      </trkpt>
      <trkpt lat="59.5499062594" lon="17.7359390484">
        <ele>0</ele>
        <time>2012-08-01T20:01:26Z</time>
      </trkpt>
      <trkpt lat="59.5494404772" lon="17.7365133762">
        <ele>0</ele>
        <time>2012-08-01T20:01:32Z</time>
      </trkpt>
      <trkpt lat="59.5493605138" lon="17.736598201">
        <ele>0</ele>
        <time>2012-08-01T20:01:33Z</time>
      </trkpt>
      <trkpt lat="59.5488344658" lon="17.7371255064">
        <ele>0</ele>
        <time>2012-08-01T20:01:40Z</time>
      </trkpt>
      <trkpt lat="59.5487592802" lon="17.7371841797">
        <ele>0</ele>
        <time>2012-08-01T20:01:41Z</time>
      </trkpt>
      <trkpt lat="59.5482414464" lon="17.737579051">
        <ele>0</ele>
        <time>2012-08-01T20:01:48Z</time>
      </trkpt>
      <trkpt lat="59.5477200922" lon="17.7379267322">
        <ele>0</ele>
        <time>2012-08-01T20:01:55Z</time>
      </trkpt>
      <trkpt lat="59.5476407156" lon="17.7379740899">
        <ele>0</ele>
        <time>2012-08-01T20:01:56Z</time>
      </trkpt>
      <trkpt lat="59.5475665358" lon="17.7380135687">
        <ele>0</ele>
        <time>2012-08-01T20:01:57Z</time>
      </trkpt>
      <trkpt lat="59.5474912663" lon="17.7380540533">
        <ele>0</ele>
        <time>2012-08-01T20:01:58Z</time>
      </trkpt>
      <trkpt lat="59.5474144881" lon="17.7380936158">
        <ele>0</ele>
        <time>2012-08-01T20:01:59Z</time>
      </trkpt>
      <trkpt lat="59.5473389672" lon="17.7381337651">
        <ele>0</ele>
        <time>2012-08-01T20:02:00Z</time>
      </trkpt>
      <trkpt lat="59.5471953853" lon="17.7382042569">
        <ele>0</ele>
        <time>2012-08-01T20:02:02Z</time>
      </trkpt>
      <trkpt lat="59.5468058784" lon="17.7383617528">
        <ele>0</ele>
        <time>2012-08-01T20:02:08Z</time>
      </trkpt>
      <trkpt lat="59.5465378252" lon="17.7384564683">
        <ele>0</ele>
        <time>2012-08-01T20:02:12Z</time>
      </trkpt>
      <trkpt lat="59.5464701833" lon="17.7384772554">
        <ele>0</ele>
        <time>2012-08-01T20:02:13Z</time>
      </trkpt>
      <trkpt lat="59.5464074867" lon="17.7385011438">
        <ele>0</ele>
        <time>2012-08-01T20:02:14Z</time>
      </trkpt>
      <trkpt lat="59.5463477237" lon="17.7385221824">
        <ele>0</ele>
        <time>2012-08-01T20:02:15Z</time>
      </trkpt>
      <trkpt lat="59.5462894695" lon="17.738535761">
        <ele>0</ele>
        <time>2012-08-01T20:02:16Z</time>
      </trkpt>
      <trkpt lat="59.5462297066" lon="17.738551519">
        <ele>0</ele>
        <time>2012-08-01T20:02:17Z</time>
      </trkpt>
      <trkpt lat="59.5461686025" lon="17.7385708812">
        <ele>0</ele>
        <time>2012-08-01T20:02:18Z</time>
      </trkpt>
      <trkpt lat="59.5461028884" lon="17.7386011399">
        <ele>0</ele>
        <time>2012-08-01T20:02:19Z</time>
      </trkpt>
      <trkpt lat="59.5460421196" lon="17.7386260341">
        <ele>0</ele>
        <time>2012-08-01T20:02:20Z</time>
      </trkpt>
      <trkpt lat="59.5459212526" lon="17.7386691171">
        <ele>0</ele>
        <time>2012-08-01T20:02:22Z</time>
      </trkpt>
      <trkpt lat="59.5458632499" lon="17.7386935084">
        <ele>0</ele>
        <time>2012-08-01T20:02:23Z</time>
      </trkpt>
      <trkpt lat="59.5458072588" lon="17.7387163072">
        <ele>0</ele>
        <time>2012-08-01T20:02:24Z</time>
      </trkpt>
      <trkpt lat="59.5457542014" lon="17.7387363399">
        <ele>0</ele>
        <time>2012-08-01T20:02:25Z</time>
      </trkpt>
      <trkpt lat="59.5457005572" lon="17.738758971">
        <ele>0</ele>
        <time>2012-08-01T20:02:26Z</time>
      </trkpt>
      <trkpt lat="59.5453577375" lon="17.7388926623">
        <ele>0</ele>
        <time>2012-08-01T20:02:32Z</time>
      </trkpt>
      <trkpt lat="59.5450091343" lon="17.7390198158">
        <ele>0</ele>
        <time>2012-08-01T20:02:37Z</time>
      </trkpt>
      <trkpt lat="59.5449399836" lon="17.7390442909">
        <ele>0</ele>
        <time>2012-08-01T20:02:38Z</time>
      </trkpt>
      <trkpt lat="59.5448717549" lon="17.7390679279">
        <ele>0</ele>
        <time>2012-08-01T20:02:39Z</time>
      </trkpt>
      <trkpt lat="59.5448033586" lon="17.7390918163">
        <ele>0</ele>
        <time>2012-08-01T20:02:40Z</time>
      </trkpt>
      <trkpt lat="59.5444904623" lon="17.7392082409">
        <ele>0</ele>
        <time>2012-08-01T20:02:45Z</time>
      </trkpt>
      <trkpt lat="59.544119228" lon="17.7393425189">
        <ele>0</ele>
        <time>2012-08-01T20:02:51Z</time>
      </trkpt>
      <trkpt lat="59.5436957744" lon="17.7395072233">
        <ele>0</ele>
        <time>2012-08-01T20:02:57Z</time>
      </trkpt>
      <trkpt lat="59.5436251988" lon="17.7395357217">
        <ele>0</ele>
        <time>2012-08-01T20:02:58Z</time>
      </trkpt>
      <trkpt lat="59.5434827903" lon="17.7395871866">
        <ele>0</ele>
        <time>2012-08-01T20:03:00Z</time>
      </trkpt>
      <trkpt lat="59.5434099516" lon="17.7396141763">
        <ele>0</ele>
        <time>2012-08-01T20:03:01Z</time>
      </trkpt>
      <trkpt lat="59.5433364423" lon="17.7396435968">
        <ele>0</ele>
        <time>2012-08-01T20:03:02Z</time>
      </trkpt>
      <trkpt lat="59.5432611729" lon="17.7396668146">
        <ele>0</ele>
        <time>2012-08-01T20:03:03Z</time>
      </trkpt>
      <trkpt lat="59.542740573" lon="17.7398569999">
        <ele>0</ele>
        <time>2012-08-01T20:03:10Z</time>
      </trkpt>
      <trkpt lat="59.5423021159" lon="17.7399969777">
        <ele>0</ele>
        <time>2012-08-01T20:03:16Z</time>
      </trkpt>
      <trkpt lat="59.541737092" lon="17.7402069443">
        <ele>0</ele>
        <time>2012-08-01T20:03:24Z</time>
      </trkpt>
      <trkpt lat="59.541323529" lon="17.7403810363">
        <ele>0</ele>
        <time>2012-08-01T20:03:30Z</time>
      </trkpt>
      <trkpt lat="59.5409531329" lon="17.740561331">
        <ele>0</ele>
        <time>2012-08-01T20:03:35Z</time>
      </trkpt>
      <trkpt lat="59.5403888634" lon="17.7409086769">
        <ele>0</ele>
        <time>2012-08-01T20:03:43Z</time>
      </trkpt>
      <trkpt lat="59.5401799864" lon="17.7410385126">
        <ele>0</ele>
        <time>2012-08-01T20:03:46Z</time>
      </trkpt>
      <trkpt lat="59.5401113387" lon="17.7410841939">
        <ele>0</ele>
        <time>2012-08-01T20:03:47Z</time>
      </trkpt>
      <trkpt lat="59.5400428585" lon="17.7411290371">
        <ele>0</ele>
        <time>2012-08-01T20:03:48Z</time>
      </trkpt>
      <trkpt lat="59.5399784017" lon="17.7411799152">
        <ele>0</ele>
        <time>2012-08-01T20:03:49Z</time>
      </trkpt>
      <trkpt lat="59.5399157051" lon="17.7412308772">
        <ele>0</ele>
        <time>2012-08-01T20:03:50Z</time>
      </trkpt>
      <trkpt lat="59.5398568642" lon="17.7412776482">
        <ele>0</ele>
        <time>2012-08-01T20:03:51Z</time>
      </trkpt>
      <trkpt lat="59.5396544413" lon="17.741439335">
        <ele>0</ele>
        <time>2012-08-01T20:03:54Z</time>
      </trkpt>
      <trkpt lat="59.5395807644" lon="17.7414995171">
        <ele>0</ele>
        <time>2012-08-01T20:03:55Z</time>
      </trkpt>
      <trkpt lat="59.5390376173" lon="17.7419717533">
        <ele>0</ele>
        <time>2012-08-01T20:04:02Z</time>
      </trkpt>
      <trkpt lat="59.5384659717" lon="17.7424747511">
        <ele>0</ele>
        <time>2012-08-01T20:04:09Z</time>
      </trkpt>
      <trkpt lat="59.5383829071" lon="17.7425449915">
        <ele>0</ele>
        <time>2012-08-01T20:04:10Z</time>
      </trkpt>
      <trkpt lat="59.5378139437" lon="17.7430628252">
        <ele>0</ele>
        <time>2012-08-01T20:04:17Z</time>
      </trkpt>
      <trkpt lat="59.5377359082" lon="17.7431369212">
        <ele>0</ele>
        <time>2012-08-01T20:04:18Z</time>
      </trkpt>
      <trkpt lat="59.5376555258" lon="17.7432073292">
        <ele>0</ele>
        <time>2012-08-01T20:04:19Z</time>
      </trkpt>
      <trkpt lat="59.5375744728" lon="17.7432887174">
        <ele>0</ele>
        <time>2012-08-01T20:04:20Z</time>
      </trkpt>
      <trkpt lat="59.5374916596" lon="17.743373207">
        <ele>0</ele>
        <time>2012-08-01T20:04:21Z</time>
      </trkpt>
      <trkpt lat="59.5374023086" lon="17.7434631448">
        <ele>0</ele>
        <time>2012-08-01T20:04:22Z</time>
      </trkpt>
      <trkpt lat="59.5373160588" lon="17.7435518253">
        <ele>0</ele>
        <time>2012-08-01T20:04:23Z</time>
      </trkpt>
      <trkpt lat="59.5370569743" lon="17.7438481254">
        <ele>0</ele>
        <time>2012-08-01T20:04:26Z</time>
      </trkpt>
      <trkpt lat="59.5369677909" lon="17.7439497141">
        <ele>0</ele>
        <time>2012-08-01T20:04:27Z</time>
      </trkpt>
      <trkpt lat="59.5368767634" lon="17.74405256">
        <ele>0</ele>
        <time>2012-08-01T20:04:28Z</time>
      </trkpt>
      <trkpt lat="59.5367864066" lon="17.7441526399">
        <ele>0</ele>
        <time>2012-08-01T20:04:29Z</time>
      </trkpt>
      <trkpt lat="59.5366921102" lon="17.7442588385">
        <ele>0</ele>
        <time>2012-08-01T20:04:30Z</time>
      </trkpt>
      <trkpt lat="59.5361710913" lon="17.7448608266">
        <ele>0</ele>
        <time>2012-08-01T20:04:36Z</time>
      </trkpt>
      <trkpt lat="59.5358620506" lon="17.7452275347">
        <ele>0</ele>
        <time>2012-08-01T20:04:40Z</time>
      </trkpt>
      <trkpt lat="59.535787787" lon="17.7453146227">
        <ele>0</ele>
        <time>2012-08-01T20:04:41Z</time>
      </trkpt>
      <trkpt lat="59.5357144454" lon="17.745404309">
        <ele>0</ele>
        <time>2012-08-01T20:04:42Z</time>
      </trkpt>
      <trkpt lat="59.5356420258" lon="17.745490894">
        <ele>0</ele>
        <time>2012-08-01T20:04:43Z</time>
      </trkpt>
      <trkpt lat="59.5352382696" lon="17.7459502221">
        <ele>0</ele>
        <time>2012-08-01T20:04:49Z</time>
      </trkpt>
      <trkpt lat="59.5349345096" lon="17.7462965623">
        <ele>0</ele>
        <time>2012-08-01T20:04:54Z</time>
      </trkpt>
      <trkpt lat="59.5345450027" lon="17.7467306609">
        <ele>0</ele>
        <time>2012-08-01T20:05:00Z</time>
      </trkpt>
      <trkpt lat="59.5344799591" lon="17.7468090316">
        <ele>0</ele>
        <time>2012-08-01T20:05:01Z</time>
      </trkpt>
      <trkpt lat="59.5342097267" lon="17.7470648472">
        <ele>0</ele>
        <time>2012-08-01T20:05:05Z</time>
      </trkpt>
      <trkpt lat="59.5341482035" lon="17.7471308966">
        <ele>0</ele>
        <time>2012-08-01T20:05:06Z</time>
      </trkpt>
      <trkpt lat="59.5340824894" lon="17.7472004664">
        <ele>0</ele>
        <time>2012-08-01T20:05:07Z</time>
      </trkpt>
      <trkpt lat="59.5340166077" lon="17.7472633306">
        <ele>0</ele>
        <time>2012-08-01T20:05:08Z</time>
      </trkpt>
      <trkpt lat="59.5339487981" lon="17.747323345">
        <ele>0</ele>
        <time>2012-08-01T20:05:09Z</time>
      </trkpt>
      <trkpt lat="59.5338155259" lon="17.7474536836">
        <ele>0</ele>
        <time>2012-08-01T20:05:11Z</time>
      </trkpt>
      <trkpt lat="59.5334276116" lon="17.7478032088">
        <ele>0</ele>
        <time>2012-08-01T20:05:17Z</time>
      </trkpt>
      <trkpt lat="59.5333619813" lon="17.747855428">
        <ele>0</ele>
        <time>2012-08-01T20:05:18Z</time>
      </trkpt>
      <trkpt lat="59.5332940879" lon="17.747911">
        <ele>0</ele>
        <time>2012-08-01T20:05:19Z</time>
      </trkpt>
      <trkpt lat="59.53322368" lon="17.7479690866">
        <ele>0</ele>
        <time>2012-08-01T20:05:20Z</time>
      </trkpt>
      <trkpt lat="59.5331531882" lon="17.7480240718">
        <ele>0</ele>
        <time>2012-08-01T20:05:21Z</time>
      </trkpt>
      <trkpt lat="59.532952777" lon="17.748189782">
        <ele>0</ele>
        <time>2012-08-01T20:05:24Z</time>
      </trkpt>
      <trkpt lat="59.5324398885" lon="17.7485683924">
        <ele>0</ele>
        <time>2012-08-01T20:05:32Z</time>
      </trkpt>
      <trkpt lat="59.5323792874" lon="17.7486057757">
        <ele>0</ele>
        <time>2012-08-01T20:05:33Z</time>
      </trkpt>
      <trkpt lat="59.5323157526" lon="17.7486581626">
        <ele>0</ele>
        <time>2012-08-01T20:05:34Z</time>
      </trkpt>
      <trkpt lat="59.5321847435" lon="17.7487603379">
        <ele>0</ele>
        <time>2012-08-01T20:05:36Z</time>
      </trkpt>
      <trkpt lat="59.5320415806" lon="17.7488563945">
        <ele>0</ele>
        <time>2012-08-01T20:05:38Z</time>
      </trkpt>
      <trkpt lat="59.5318285965" lon="17.7489884933">
        <ele>0</ele>
        <time>2012-08-01T20:05:41Z</time>
      </trkpt>
      <trkpt lat="59.5317586915" lon="17.7490342584">
        <ele>0</ele>
        <time>2012-08-01T20:05:42Z</time>
      </trkpt>
      <trkpt lat="59.5316859366" lon="17.7490737372">
        <ele>0</ele>
        <time>2012-08-01T20:05:43Z</time>
      </trkpt>
      <trkpt lat="59.5316147743" lon="17.7491186642">
        <ele>0</ele>
        <time>2012-08-01T20:05:44Z</time>
      </trkpt>
      <trkpt lat="59.5315420194" lon="17.7491651837">
        <ele>0</ele>
        <time>2012-08-01T20:05:45Z</time>
      </trkpt>
      <trkpt lat="59.530959142" lon="17.7494843665">
        <ele>0</ele>
        <time>2012-08-01T20:05:53Z</time>
      </trkpt>
      <trkpt lat="59.5304929408" lon="17.7496940816">
        <ele>0</ele>
        <time>2012-08-01T20:05:59Z</time>
      </trkpt>
      <trkpt lat="59.5299808905" lon="17.749916202">
        <ele>0</ele>
        <time>2012-08-01T20:06:07Z</time>
      </trkpt>
      <trkpt lat="59.5293946604" lon="17.7501104944">
        <ele>0</ele>
        <time>2012-08-01T20:06:15Z</time>
      </trkpt>
      <trkpt lat="59.5288417065" lon="17.7502756178">
        <ele>0</ele>
        <time>2012-08-01T20:06:22Z</time>
      </trkpt>
      <trkpt lat="59.5286733141" lon="17.7503240652">
        <ele>0</ele>
        <time>2012-08-01T20:06:24Z</time>
      </trkpt>
      <trkpt lat="59.5281424045" lon="17.7504834051">
        <ele>0</ele>
        <time>2012-08-01T20:06:30Z</time>
      </trkpt>
      <trkpt lat="59.5277739362" lon="17.7506065352">
        <ele>0</ele>
        <time>2012-08-01T20:06:34Z</time>
      </trkpt>
      <trkpt lat="59.5276824059" lon="17.7506388056">
        <ele>0</ele>
        <time>2012-08-01T20:06:35Z</time>
      </trkpt>
      <trkpt lat="59.5275903726" lon="17.7506749315">
        <ele>0</ele>
        <time>2012-08-01T20:06:36Z</time>
      </trkpt>
      <trkpt lat="59.5274985908" lon="17.7507128177">
        <ele>0</ele>
        <time>2012-08-01T20:06:37Z</time>
      </trkpt>
      <trkpt lat="59.5274018637" lon="17.7507583314">
        <ele>0</ele>
        <time>2012-08-01T20:06:38Z</time>
      </trkpt>
      <trkpt lat="59.5270416096" lon="17.7509166655">
        <ele>0</ele>
        <time>2012-08-01T20:06:42Z</time>
      </trkpt>
      <trkpt lat="59.5269545217" lon="17.7509612572">
        <ele>0</ele>
        <time>2012-08-01T20:06:43Z</time>
      </trkpt>
      <trkpt lat="59.5268685234" lon="17.7510054299">
        <ele>0</ele>
        <time>2012-08-01T20:06:44Z</time>
      </trkpt>
      <trkpt lat="59.5267825251" lon="17.7510533743">
        <ele>0</ele>
        <time>2012-08-01T20:06:45Z</time>
      </trkpt>
      <trkpt lat="59.5266930902" lon="17.7511055936">
        <ele>0</ele>
        <time>2012-08-01T20:06:46Z</time>
      </trkpt>
      <trkpt lat="59.5265201716" lon="17.7512122951">
        <ele>0</ele>
        <time>2012-08-01T20:06:48Z</time>
      </trkpt>
      <trkpt lat="59.5264324131" lon="17.7512692921">
        <ele>0</ele>
        <time>2012-08-01T20:06:49Z</time>
      </trkpt>
      <trkpt lat="59.5263470016" lon="17.7513266243">
        <ele>0</ele>
        <time>2012-08-01T20:06:50Z</time>
      </trkpt>
      <trkpt lat="59.5262596622" lon="17.751383705">
        <ele>0</ele>
        <time>2012-08-01T20:06:51Z</time>
      </trkpt>
      <trkpt lat="59.5261718199" lon="17.7514418754">
        <ele>0</ele>
        <time>2012-08-01T20:06:52Z</time>
      </trkpt>
      <trkpt lat="59.5257277468" lon="17.7517629022">
        <ele>0</ele>
        <time>2012-08-01T20:06:57Z</time>
      </trkpt>
      <trkpt lat="59.5256417485" lon="17.7518200667">
        <ele>0</ele>
        <time>2012-08-01T20:06:58Z</time>
      </trkpt>
      <trkpt lat="59.5255573428" lon="17.751889385">
        <ele>0</ele>
        <time>2012-08-01T20:06:59Z</time>
      </trkpt>
      <trkpt lat="59.5254721827" lon="17.751961637">
        <ele>0</ele>
        <time>2012-08-01T20:07:00Z</time>
      </trkpt>
      <trkpt lat="59.525383586" lon="17.7520283569">
        <ele>0</ele>
        <time>2012-08-01T20:07:01Z</time>
      </trkpt>
      <trkpt lat="59.5249669217" lon="17.7524134214">
        <ele>0</ele>
        <time>2012-08-01T20:07:06Z</time>
      </trkpt>
      <trkpt lat="59.5248849468" lon="17.7524894453">
        <ele>0</ele>
        <time>2012-08-01T20:07:07Z</time>
      </trkpt>
      <trkpt lat="59.5248037261" lon="17.75256966">
        <ele>0</ele>
        <time>2012-08-01T20:07:08Z</time>
      </trkpt>
      <trkpt lat="59.5247192366" lon="17.7526584244">
        <ele>0</ele>
        <time>2012-08-01T20:07:09Z</time>
      </trkpt>
      <trkpt lat="59.5246387703" lon="17.7527409861">
        <ele>0</ele>
        <time>2012-08-01T20:07:10Z</time>
      </trkpt>
      <trkpt lat="59.5245572983" lon="17.7528189377">
        <ele>0</ele>
        <time>2012-08-01T20:07:11Z</time>
      </trkpt>
      <trkpt lat="59.5243972878" lon="17.7529947062">
        <ele>0</ele>
        <time>2012-08-01T20:07:13Z</time>
      </trkpt>
      <trkpt lat="59.523909126" lon="17.7535578022">
        <ele>0</ele>
        <time>2012-08-01T20:07:19Z</time>
      </trkpt>
      <trkpt lat="59.5236741813" lon="17.7538504982">
        <ele>0</ele>
        <time>2012-08-01T20:07:22Z</time>
      </trkpt>
      <trkpt lat="59.5235212954" lon="17.7540442039">
        <ele>0</ele>
        <time>2012-08-01T20:07:24Z</time>
      </trkpt>
      <trkpt lat="59.5234388175" lon="17.7541447867">
        <ele>0</ele>
        <time>2012-08-01T20:07:25Z</time>
      </trkpt>
      <trkpt lat="59.52335986" lon="17.7542400889">
        <ele>0</ele>
        <time>2012-08-01T20:07:26Z</time>
      </trkpt>
      <trkpt lat="59.5232804835" lon="17.7543326251">
        <ele>0</ele>
        <time>2012-08-01T20:07:27Z</time>
      </trkpt>
      <trkpt lat="59.5231995143" lon="17.7544197968">
        <ele>0</ele>
        <time>2012-08-01T20:07:28Z</time>
      </trkpt>
      <trkpt lat="59.5230382465" lon="17.7545917096">
        <ele>0</ele>
        <time>2012-08-01T20:07:30Z</time>
      </trkpt>
      <trkpt lat="59.5225677705" lon="17.7551698931">
        <ele>0</ele>
        <time>2012-08-01T20:07:36Z</time>
      </trkpt>
      <trkpt lat="59.5224890645" lon="17.7552661173">
        <ele>0</ele>
        <time>2012-08-01T20:07:37Z</time>
      </trkpt>
      <trkpt lat="59.5224103584" lon="17.7553569771">
        <ele>0</ele>
        <time>2012-08-01T20:07:38Z</time>
      </trkpt>
      <trkpt lat="59.5223301436" lon="17.7554446517">
        <ele>0</ele>
        <time>2012-08-01T20:07:39Z</time>
      </trkpt>
      <trkpt lat="59.5222446483" lon="17.7555400378">
        <ele>0</ele>
        <time>2012-08-01T20:07:40Z</time>
      </trkpt>
      <trkpt lat="59.5217601744" lon="17.7560349051">
        <ele>0</ele>
        <time>2012-08-01T20:07:46Z</time>
      </trkpt>
      <trkpt lat="59.5211840864" lon="17.7565177864">
        <ele>0</ele>
        <time>2012-08-01T20:07:53Z</time>
      </trkpt>
      <trkpt lat="59.5210223996" lon="17.7566365579">
        <ele>0</ele>
        <time>2012-08-01T20:07:55Z</time>
      </trkpt>
      <trkpt lat="59.5206884647" lon="17.7568622825">
        <ele>0</ele>
        <time>2012-08-01T20:07:59Z</time>
      </trkpt>
      <trkpt lat="59.5206030531" lon="17.7569151723">
        <ele>0</ele>
        <time>2012-08-01T20:08:00Z</time>
      </trkpt>
      <trkpt lat="59.520518815" lon="17.7569663857">
        <ele>0</ele>
        <time>2012-08-01T20:08:01Z</time>
      </trkpt>
      <trkpt lat="59.5204297993" lon="17.7570163418">
        <ele>0</ele>
        <time>2012-08-01T20:08:02Z</time>
      </trkpt>
      <trkpt lat="59.5203436333" lon="17.757067639">
        <ele>0</ele>
        <time>2012-08-01T20:08:03Z</time>
      </trkpt>
      <trkpt lat="59.5197563974" lon="17.7573625981">
        <ele>0</ele>
        <time>2012-08-01T20:08:10Z</time>
      </trkpt>
      <trkpt lat="59.5196698962" lon="17.7574040885">
        <ele>0</ele>
        <time>2012-08-01T20:08:11Z</time>
      </trkpt>
      <trkpt lat="59.51908836" lon="17.7576901627">
        <ele>0</ele>
        <time>2012-08-01T20:08:18Z</time>
      </trkpt>
      <trkpt lat="59.519009151" lon="17.7577344192">
        <ele>0</ele>
        <time>2012-08-01T20:08:19Z</time>
      </trkpt>
      <trkpt lat="59.5184472285" lon="17.7580023047">
        <ele>0</ele>
        <time>2012-08-01T20:08:26Z</time>
      </trkpt>
      <trkpt lat="59.5178868984" lon="17.7582777339">
        <ele>0</ele>
        <time>2012-08-01T20:08:33Z</time>
      </trkpt>
      <trkpt lat="59.5176441586" lon="17.758392063">
        <ele>0</ele>
        <time>2012-08-01T20:08:36Z</time>
      </trkpt>
      <trkpt lat="59.5171072141" lon="17.7586737787">
        <ele>0</ele>
        <time>2012-08-01T20:08:43Z</time>
      </trkpt>
      <trkpt lat="59.5170331181" lon="17.7587105752">
        <ele>0</ele>
        <time>2012-08-01T20:08:44Z</time>
      </trkpt>
      <trkpt lat="59.5165745444" lon="17.7589241461">
        <ele>0</ele>
        <time>2012-08-01T20:08:50Z</time>
      </trkpt>
      <trkpt lat="59.5160145496" lon="17.7592090468">
        <ele>0</ele>
        <time>2012-08-01T20:08:58Z</time>
      </trkpt>
      <trkpt lat="59.5159483326" lon="17.759246011">
        <ele>0</ele>
        <time>2012-08-01T20:08:59Z</time>
      </trkpt>
      <trkpt lat="59.5158783437" lon="17.7592840648">
        <ele>0</ele>
        <time>2012-08-01T20:09:00Z</time>
      </trkpt>
      <trkpt lat="59.5158123782" lon="17.7593215319">
        <ele>0</ele>
        <time>2012-08-01T20:09:01Z</time>
      </trkpt>
      <trkpt lat="59.5157449039" lon="17.7593606754">
        <ele>0</ele>
        <time>2012-08-01T20:09:02Z</time>
      </trkpt>
      <trkpt lat="59.5156759209" lon="17.7594036746">
        <ele>0</ele>
        <time>2012-08-01T20:09:03Z</time>
      </trkpt>
      <trkpt lat="59.5156112126" lon="17.7594493559">
        <ele>0</ele>
        <time>2012-08-01T20:09:04Z</time>
      </trkpt>
      <trkpt lat="59.5155436545" lon="17.7594807042">
        <ele>0</ele>
        <time>2012-08-01T20:09:05Z</time>
      </trkpt>
      <trkpt lat="59.5153369568" lon="17.7595811194">
        <ele>0</ele>
        <time>2012-08-01T20:09:08Z</time>
      </trkpt>
      <trkpt lat="59.5151958056" lon="17.7596488451">
        <ele>0</ele>
        <time>2012-08-01T20:09:10Z</time>
      </trkpt>
      <trkpt lat="59.5151259006" lon="17.7596731526">
        <ele>0</ele>
        <time>2012-08-01T20:09:11Z</time>
      </trkpt>
      <trkpt lat="59.5150574205" lon="17.7596960352">
        <ele>0</ele>
        <time>2012-08-01T20:09:12Z</time>
      </trkpt>
      <trkpt lat="59.5149926284" lon="17.7597303172">
        <ele>0</ele>
        <time>2012-08-01T20:09:13Z</time>
      </trkpt>
      <trkpt lat="59.5147845058" lon="17.7598079336">
        <ele>0</ele>
        <time>2012-08-01T20:09:16Z</time>
      </trkpt>
      <trkpt lat="59.5145823344" lon="17.7599085164">
        <ele>0</ele>
        <time>2012-08-01T20:09:19Z</time>
      </trkpt>
      <trkpt lat="59.5145206436" lon="17.7599434689">
        <ele>0</ele>
        <time>2012-08-01T20:09:20Z</time>
      </trkpt>
      <trkpt lat="59.5144585337" lon="17.7599695366">
        <ele>0</ele>
        <time>2012-08-01T20:09:21Z</time>
      </trkpt>
      <trkpt lat="59.5143973458" lon="17.759969369">
        <ele>0</ele>
        <time>2012-08-01T20:09:22Z</time>
      </trkpt>
      <trkpt lat="59.5143400136" lon="17.7599309799">
        <ele>0</ele>
        <time>2012-08-01T20:09:23Z</time>
      </trkpt>
      <trkpt lat="59.5142950867" lon="17.759843389">
        <ele>0</ele>
        <time>2012-08-01T20:09:24Z</time>
      </trkpt>
      <trkpt lat="59.5142634031" lon="17.7597272159">
        <ele>0</ele>
        <time>2012-08-01T20:09:25Z</time>
      </trkpt>
      <trkpt lat="59.5142391794" lon="17.7595910938">
        <ele>0</ele>
        <time>2012-08-01T20:09:26Z</time>
      </trkpt>
      <trkpt lat="59.5142184761" lon="17.7594584922">
        <ele>0</ele>
        <time>2012-08-01T20:09:27Z</time>
      </trkpt>
      <trkpt lat="59.5141290412" lon="17.7588108228">
        <ele>0</ele>
        <time>2012-08-01T20:09:32Z</time>
      </trkpt>
      <trkpt lat="59.5139777479" lon="17.7579728004">
        <ele>0</ele>
        <time>2012-08-01T20:09:39Z</time>
      </trkpt>
      <trkpt lat="59.5138530252" lon="17.7574170804">
        <ele>0</ele>
        <time>2012-08-01T20:09:44Z</time>
      </trkpt>
      <trkpt lat="59.5138205035" lon="17.7573138154">
        <ele>0</ele>
        <time>2012-08-01T20:09:45Z</time>
      </trkpt>
      <trkpt lat="59.5137314039" lon="17.7569608536">
        <ele>0</ele>
        <time>2012-08-01T20:09:48Z</time>
      </trkpt>
      <trkpt lat="59.5135651908" lon="17.7563760485">
        <ele>0</ele>
        <time>2012-08-01T20:09:53Z</time>
      </trkpt>
      <trkpt lat="59.5135378658" lon="17.7562641501">
        <ele>0</ele>
        <time>2012-08-01T20:09:54Z</time>
      </trkpt>
      <trkpt lat="59.5135107085" lon="17.756139176">
        <ele>0</ele>
        <time>2012-08-01T20:09:55Z</time>
      </trkpt>
      <trkpt lat="59.5134778514" lon="17.7560241763">
        <ele>0</ele>
        <time>2012-08-01T20:09:56Z</time>
      </trkpt>
      <trkpt lat="59.5134413063" lon="17.7559065782">
        <ele>0</ele>
        <time>2012-08-01T20:09:57Z</time>
      </trkpt>
      <trkpt lat="59.5134057671" lon="17.7557921653">
        <ele>0</ele>
        <time>2012-08-01T20:09:58Z</time>
      </trkpt>
      <trkpt lat="59.5133724071" lon="17.7556772495">
        <ele>0</ele>
        <time>2012-08-01T20:09:59Z</time>
      </trkpt>
      <trkpt lat="59.5133405559" lon="17.7555625851">
        <ele>0</ele>
        <time>2012-08-01T20:10:00Z</time>
      </trkpt>
      <trkpt lat="59.5133071959" lon="17.755449178">
        <ele>0</ele>
        <time>2012-08-01T20:10:01Z</time>
      </trkpt>
      <trkpt lat="59.5132708185" lon="17.7553401294">
        <ele>0</ele>
        <time>2012-08-01T20:10:02Z</time>
      </trkpt>
      <trkpt lat="59.5132321779" lon="17.7552260518">
        <ele>0</ele>
        <time>2012-08-01T20:10:03Z</time>
      </trkpt>
      <trkpt lat="59.5131269851" lon="17.754896224">
        <ele>0</ele>
        <time>2012-08-01T20:10:06Z</time>
      </trkpt>
      <trkpt lat="59.51284594" lon="17.7541010332">
        <ele>0</ele>
        <time>2012-08-01T20:10:13Z</time>
      </trkpt>
      <trkpt lat="59.5126288488" lon="17.7535383562">
        <ele>0</ele>
        <time>2012-08-01T20:10:18Z</time>
      </trkpt>
      <trkpt lat="59.5125823292" lon="17.7534294753">
        <ele>0</ele>
        <time>2012-08-01T20:10:19Z</time>
      </trkpt>
      <trkpt lat="59.5125402521" lon="17.7533236958">
        <ele>0</ele>
        <time>2012-08-01T20:10:20Z</time>
      </trkpt>
      <trkpt lat="59.5124957442" lon="17.7532211013">
        <ele>0</ele>
        <time>2012-08-01T20:10:21Z</time>
      </trkpt>
      <trkpt lat="59.5124525774" lon="17.7531191774">
        <ele>0</ele>
        <time>2012-08-01T20:10:22Z</time>
      </trkpt>
      <trkpt lat="59.5121270244" lon="17.7524018544">
        <ele>0</ele>
        <time>2012-08-01T20:10:29Z</time>
      </trkpt>
      <trkpt lat="59.5119843645" lon="17.7521068953">
        <ele>0</ele>
        <time>2012-08-01T20:10:32Z</time>
      </trkpt>
      <trkpt lat="59.5119321452" lon="17.7520099168">
        <ele>0</ele>
        <time>2012-08-01T20:10:33Z</time>
      </trkpt>
      <trkpt lat="59.5118842008" lon="17.7519082443">
        <ele>0</ele>
        <time>2012-08-01T20:10:34Z</time>
      </trkpt>
      <trkpt lat="59.5118330712" lon="17.7518200667">
        <ele>0</ele>
        <time>2012-08-01T20:10:35Z</time>
      </trkpt>
      <trkpt lat="59.5117829474" lon="17.7517225852">
        <ele>0</ele>
        <time>2012-08-01T20:10:36Z</time>
      </trkpt>
      <trkpt lat="59.5114204302" lon="17.7510774304">
        <ele>0</ele>
        <time>2012-08-01T20:10:43Z</time>
      </trkpt>
      <trkpt lat="59.5109761057" lon="17.7504073813">
        <ele>0</ele>
        <time>2012-08-01T20:10:51Z</time>
      </trkpt>
      <trkpt lat="59.510918103" lon="17.750325993">
        <ele>0</ele>
        <time>2012-08-01T20:10:52Z</time>
      </trkpt>
      <trkpt lat="59.51085834" lon="17.750236642">
        <ele>0</ele>
        <time>2012-08-01T20:10:53Z</time>
      </trkpt>
      <trkpt lat="59.5108001696" lon="17.7501437705">
        <ele>0</ele>
        <time>2012-08-01T20:10:54Z</time>
      </trkpt>
      <trkpt lat="59.5106097329" lon="17.7498867815">
        <ele>0</ele>
        <time>2012-08-01T20:10:57Z</time>
      </trkpt>
      <trkpt lat="59.5101354011" lon="17.7493343305">
        <ele>0</ele>
        <time>2012-08-01T20:11:04Z</time>
      </trkpt>
      <trkpt lat="59.5096447247" lon="17.7488180892">
        <ele>0</ele>
        <time>2012-08-01T20:11:11Z</time>
      </trkpt>
      <trkpt lat="59.5095710478" lon="17.7487480165">
        <ele>0</ele>
        <time>2012-08-01T20:11:12Z</time>
      </trkpt>
      <trkpt lat="59.5090463409" lon="17.7482859224">
        <ele>0</ele>
        <time>2012-08-01T20:11:19Z</time>
      </trkpt>
      <trkpt lat="59.5089680539" lon="17.74822222">
        <ele>0</ele>
        <time>2012-08-01T20:11:20Z</time>
      </trkpt>
      <trkpt lat="59.5088150004" lon="17.7480989222">
        <ele>0</ele>
        <time>2012-08-01T20:11:22Z</time>
      </trkpt>
      <trkpt lat="59.508736462" lon="17.7480428473">
        <ele>0</ele>
        <time>2012-08-01T20:11:23Z</time>
      </trkpt>
      <trkpt lat="59.5086589295" lon="17.7479893708">
        <ele>0</ele>
        <time>2012-08-01T20:11:24Z</time>
      </trkpt>
      <trkpt lat="59.5085833247" lon="17.7479349722">
        <ele>0</ele>
        <time>2012-08-01T20:11:25Z</time>
      </trkpt>
      <trkpt lat="59.5085078038" lon="17.7478824177">
        <ele>0</ele>
        <time>2012-08-01T20:11:26Z</time>
      </trkpt>
      <trkpt lat="59.5083656468" lon="17.7477758838">
        <ele>0</ele>
        <time>2012-08-01T20:11:28Z</time>
      </trkpt>
      <trkpt lat="59.5082935624" lon="17.7477426076">
        <ele>0</ele>
        <time>2012-08-01T20:11:29Z</time>
      </trkpt>
      <trkpt lat="59.5080752978" lon="17.747650742">
        <ele>0</ele>
        <time>2012-08-01T20:11:32Z</time>
      </trkpt>
      <trkpt lat="59.5074947674" lon="17.747404398">
        <ele>0</ele>
        <time>2012-08-01T20:11:40Z</time>
      </trkpt>
      <trkpt lat="59.5071695496" lon="17.7472735565">
        <ele>0</ele>
        <time>2012-08-01T20:11:45Z</time>
      </trkpt>
      <trkpt lat="59.5071120498" lon="17.7472499196">
        <ele>0</ele>
        <time>2012-08-01T20:11:46Z</time>
      </trkpt>
      <trkpt lat="59.5070580704" lon="17.7472966067">
        <ele>0</ele>
        <time>2012-08-01T20:11:47Z</time>
      </trkpt>
      <trkpt lat="59.5070250457" lon="17.7473767377">
        <ele>0</ele>
        <time>2012-08-01T20:11:48Z</time>
      </trkpt>
      <trkpt lat="59.5069840582" lon="17.7474805056">
        <ele>0</ele>
        <time>2012-08-01T20:11:49Z</time>
      </trkpt>
      <trkpt lat="59.5069346888" lon="17.7477500675">
        <ele>0</ele>
        <time>2012-08-01T20:11:51Z</time>
      </trkpt>
      <trkpt lat="59.5069126444" lon="17.7479015285">
        <ele>0</ele>
        <time>2012-08-01T20:11:52Z</time>
      </trkpt>
      <trkpt lat="59.5068657896" lon="17.7483848288">
        <ele>0</ele>
        <time>2012-08-01T20:11:55Z</time>
      </trkpt>
      <trkpt lat="59.5067708227" lon="17.7494038164">
        <ele>0</ele>
        <time>2012-08-01T20:12:01Z</time>
      </trkpt>
      <trkpt lat="59.5066631991" lon="17.7500539166">
        <ele>0</ele>
        <time>2012-08-01T20:12:05Z</time>
      </trkpt>
      <trkpt lat="59.5066336948" lon="17.7502135079">
        <ele>0</ele>
        <time>2012-08-01T20:12:06Z</time>
      </trkpt>
      <trkpt lat="59.5066069565" lon="17.7503776255">
        <ele>0</ele>
        <time>2012-08-01T20:12:07Z</time>
      </trkpt>
      <trkpt lat="59.5065804697" lon="17.7505414917">
        <ele>0</ele>
        <time>2012-08-01T20:12:08Z</time>
      </trkpt>
      <trkpt lat="59.5063836627" lon="17.7514865509">
        <ele>0</ele>
        <time>2012-08-01T20:12:14Z</time>
      </trkpt>
      <trkpt lat="59.5061300264" lon="17.7524422552">
        <ele>0</ele>
        <time>2012-08-01T20:12:20Z</time>
      </trkpt>
      <trkpt lat="59.5058965905" lon="17.7533604923">
        <ele>0</ele>
        <time>2012-08-01T20:12:26Z</time>
      </trkpt>
      <trkpt lat="59.5056837741" lon="17.7542375743">
        <ele>0</ele>
        <time>2012-08-01T20:12:32Z</time>
      </trkpt>
      <trkpt lat="59.5056114383" lon="17.754512333">
        <ele>0</ele>
        <time>2012-08-01T20:12:34Z</time>
      </trkpt>
      <trkpt lat="59.5055709537" lon="17.7546518078">
        <ele>0</ele>
        <time>2012-08-01T20:12:35Z</time>
      </trkpt>
      <trkpt lat="59.5055329837" lon="17.7547803862">
        <ele>0</ele>
        <time>2012-08-01T20:12:36Z</time>
      </trkpt>
      <trkpt lat="59.5054938402" lon="17.7549063661">
        <ele>0</ele>
        <time>2012-08-01T20:12:37Z</time>
      </trkpt>
      <trkpt lat="59.5054538585" lon="17.7550229583">
        <ele>0</ele>
        <time>2012-08-01T20:12:38Z</time>
      </trkpt>
      <trkpt lat="59.5054014717" lon="17.7550995689">
        <ele>0</ele>
        <time>2012-08-01T20:12:39Z</time>
      </trkpt>
      <trkpt lat="59.5053065047" lon="17.7552091203">
        <ele>0</ele>
        <time>2012-08-01T20:12:41Z</time>
      </trkpt>
      <trkpt lat="59.5052638409" lon="17.7553033329">
        <ele>0</ele>
        <time>2012-08-01T20:12:42Z</time>
      </trkpt>
      <trkpt lat="59.5052260385" lon="17.7554279718">
        <ele>0</ele>
        <time>2012-08-01T20:12:43Z</time>
      </trkpt>
      <trkpt lat="59.5051797704" lon="17.7555525268">
        <ele>0</ele>
        <time>2012-08-01T20:12:44Z</time>
      </trkpt>
      <trkpt lat="59.505114643" lon="17.7556567976">
        <ele>0</ele>
        <time>2012-08-01T20:12:45Z</time>
      </trkpt>
      <trkpt lat="59.5048599171" lon="17.7559128647">
        <ele>0</ele>
        <time>2012-08-01T20:12:48Z</time>
      </trkpt>
      <trkpt lat="59.504770147" lon="17.7560041436">
        <ele>0</ele>
        <time>2012-08-01T20:12:49Z</time>
      </trkpt>
      <trkpt lat="59.5046665467" lon="17.7560972665">
        <ele>0</ele>
        <time>2012-08-01T20:12:50Z</time>
      </trkpt>
      <trkpt lat="59.504552469" lon="17.7561443727">
        <ele>0</ele>
        <time>2012-08-01T20:12:51Z</time>
      </trkpt>
      <trkpt lat="59.5044296742" lon="17.7561450433">
        <ele>0</ele>
        <time>2012-08-01T20:12:52Z</time>
      </trkpt>
      <trkpt lat="59.5043047839" lon="17.7561442889">
        <ele>0</ele>
        <time>2012-08-01T20:12:53Z</time>
      </trkpt>
      <trkpt lat="59.5041829949" lon="17.7561554369">
        <ele>0</ele>
        <time>2012-08-01T20:12:54Z</time>
      </trkpt>
      <trkpt lat="59.5040658997" lon="17.7561667524">
        <ele>0</ele>
        <time>2012-08-01T20:12:55Z</time>
      </trkpt>
      <trkpt lat="59.5039410094" lon="17.7561759725">
        <ele>0</ele>
        <time>2012-08-01T20:12:56Z</time>
      </trkpt>
      <trkpt lat="59.5038240819" lon="17.7561719492">
        <ele>0</ele>
        <time>2012-08-01T20:12:57Z</time>
      </trkpt>
      <trkpt lat="59.5037100042" lon="17.7561497372">
        <ele>0</ele>
        <time>2012-08-01T20:12:58Z</time>
      </trkpt>
      <trkpt lat="59.5035992793" lon="17.7561312132">
        <ele>0</ele>
        <time>2012-08-01T20:12:59Z</time>
      </trkpt>
      <trkpt lat="59.503389648" lon="17.7560772337">
        <ele>0</ele>
        <time>2012-08-01T20:13:01Z</time>
      </trkpt>
      <trkpt lat="59.5030943537" lon="17.7560120225">
        <ele>0</ele>
        <time>2012-08-01T20:13:04Z</time>
      </trkpt>
      <trkpt lat="59.5030013984" lon="17.7559835241">
        <ele>0</ele>
        <time>2012-08-01T20:13:05Z</time>
      </trkpt>
      <trkpt lat="59.5029217704" lon="17.7559504156">
        <ele>0</ele>
        <time>2012-08-01T20:13:06Z</time>
      </trkpt>
      <trkpt lat="59.5028509433" lon="17.7559336518">
        <ele>0</ele>
        <time>2012-08-01T20:13:07Z</time>
      </trkpt>
      <trkpt lat="59.5027824632" lon="17.7559774053">
        <ele>0</ele>
        <time>2012-08-01T20:13:08Z</time>
      </trkpt>
      <trkpt lat="59.502740889" lon="17.7560869567">
        <ele>0</ele>
        <time>2012-08-01T20:13:09Z</time>
      </trkpt>
      <trkpt lat="59.5027027513" lon="17.7562395073">
        <ele>0</ele>
        <time>2012-08-01T20:13:10Z</time>
      </trkpt>
      <trkpt lat="59.5026689723" lon="17.7564141023">
        <ele>0</ele>
        <time>2012-08-01T20:13:11Z</time>
      </trkpt>
      <trkpt lat="59.5026239615" lon="17.7566088976">
        <ele>0</ele>
        <time>2012-08-01T20:13:12Z</time>
      </trkpt>
      <trkpt lat="59.5025691438" lon="17.7567995021">
        <ele>0</ele>
        <time>2012-08-01T20:13:13Z</time>
      </trkpt>
      <trkpt lat="59.5024260648" lon="17.7573170006">
        <ele>0</ele>
        <time>2012-08-01T20:13:16Z</time>
      </trkpt>
      <trkpt lat="59.5023124901" lon="17.7575950282">
        <ele>0</ele>
        <time>2012-08-01T20:13:18Z</time>
      </trkpt>
      <trkpt lat="59.5022358795" lon="17.7576779252">
        <ele>0</ele>
        <time>2012-08-01T20:13:19Z</time>
      </trkpt>
      <trkpt lat="59.5019885296" lon="17.7577895721">
        <ele>0</ele>
        <time>2012-08-01T20:13:22Z</time>
      </trkpt>
      <trkpt lat="59.5019102427" lon="17.7578106945">
        <ele>0</ele>
        <time>2012-08-01T20:13:23Z</time>
      </trkpt>
      <trkpt lat="59.5015649084" lon="17.757888227">
        <ele>0</ele>
        <time>2012-08-01T20:13:27Z</time>
      </trkpt>
      <trkpt lat="59.5013059077" lon="17.7579115287">
        <ele>0</ele>
        <time>2012-08-01T20:13:30Z</time>
      </trkpt>
      <trkpt lat="59.5011433826" lon="17.7578255304">
        <ele>0</ele>
        <time>2012-08-01T20:13:32Z</time>
      </trkpt>
      <trkpt lat="59.5006681289" lon="17.7575081079">
        <ele>0</ele>
        <time>2012-08-01T20:13:38Z</time>
      </trkpt>
      <trkpt lat="59.500356406" lon="17.7572744205">
        <ele>0</ele>
        <time>2012-08-01T20:13:42Z</time>
      </trkpt>
      <trkpt lat="59.5002958887" lon="17.7571463451">
        <ele>0</ele>
        <time>2012-08-01T20:13:43Z</time>
      </trkpt>
      <trkpt lat="59.500161946" lon="17.7569045273">
        <ele>0</ele>
        <time>2012-08-01T20:13:45Z</time>
      </trkpt>
      <trkpt lat="59.4999913743" lon="17.7567995021">
        <ele>0</ele>
        <time>2012-08-01T20:13:47Z</time>
      </trkpt>
      <trkpt lat="59.499655763" lon="17.7568086383">
        <ele>0</ele>
        <time>2012-08-01T20:13:51Z</time>
      </trkpt>
      <trkpt lat="59.4995799907" lon="17.7568411601">
        <ele>0</ele>
        <time>2012-08-01T20:13:52Z</time>
      </trkpt>
      <trkpt lat="59.4992530966" lon="17.7568958101">
        <ele>0</ele>
        <time>2012-08-01T20:13:56Z</time>
      </trkpt>
      <trkpt lat="59.4991706187" lon="17.7568791301">
        <ele>0</ele>
        <time>2012-08-01T20:13:57Z</time>
      </trkpt>
      <trkpt lat="59.4988445627" lon="17.756792126">
        <ele>0</ele>
        <time>2012-08-01T20:14:01Z</time>
      </trkpt>
      <trkpt lat="59.4987683713" lon="17.7567422537">
        <ele>0</ele>
        <time>2012-08-01T20:14:02Z</time>
      </trkpt>
      <trkpt lat="59.4985498551" lon="17.7565316165">
        <ele>0</ele>
        <time>2012-08-01T20:14:05Z</time>
      </trkpt>
      <trkpt lat="59.4981315983" lon="17.7560185604">
        <ele>0</ele>
        <time>2012-08-01T20:14:11Z</time>
      </trkpt>
      <trkpt lat="59.4976208053" lon="17.7555279678">
        <ele>0</ele>
        <time>2012-08-01T20:14:18Z</time>
      </trkpt>
      <trkpt lat="59.4971792469" lon="17.7552050132">
        <ele>0</ele>
        <time>2012-08-01T20:14:24Z</time>
      </trkpt>
      <trkpt lat="59.4968965254" lon="17.754997645">
        <ele>0</ele>
        <time>2012-08-01T20:14:28Z</time>
      </trkpt>
      <trkpt lat="59.496824441" lon="17.7549450905">
        <ele>0</ele>
        <time>2012-08-01T20:14:29Z</time>
      </trkpt>
      <trkpt lat="59.4967511832" lon="17.754905025">
        <ele>0</ele>
        <time>2012-08-01T20:14:30Z</time>
      </trkpt>
      <trkpt lat="59.4966749079" lon="17.754862445">
        <ele>0</ele>
        <time>2012-08-01T20:14:31Z</time>
      </trkpt>
      <trkpt lat="59.4965983812" lon="17.7548145843">
        <ele>0</ele>
        <time>2012-08-01T20:14:32Z</time>
      </trkpt>
      <trkpt lat="59.4965252072" lon="17.7547861697">
        <ele>0</ele>
        <time>2012-08-01T20:14:33Z</time>
      </trkpt>
      <trkpt lat="59.4963775181" lon="17.7547248142">
        <ele>0</ele>
        <time>2012-08-01T20:14:35Z</time>
      </trkpt>
      <trkpt lat="59.495835293" lon="17.7545066333">
        <ele>0</ele>
        <time>2012-08-01T20:14:42Z</time>
      </trkpt>
      <trkpt lat="59.4953215664" lon="17.7542985107">
        <ele>0</ele>
        <time>2012-08-01T20:14:49Z</time>
      </trkpt>
      <trkpt lat="59.4949208277" lon="17.7541509893">
        <ele>0</ele>
        <time>2012-08-01T20:14:55Z</time>
      </trkpt>
      <trkpt lat="59.4946899064" lon="17.7539873746">
        <ele>0</ele>
        <time>2012-08-01T20:14:59Z</time>
      </trkpt>
      <trkpt lat="59.49463358" lon="17.7539308806">
        <ele>0</ele>
        <time>2012-08-01T20:15:00Z</time>
      </trkpt>
      <trkpt lat="59.4945797682" lon="17.7538595506">
        <ele>0</ele>
        <time>2012-08-01T20:15:01Z</time>
      </trkpt>
      <trkpt lat="59.4944415507" lon="17.7535420443">
        <ele>0</ele>
        <time>2012-08-01T20:15:04Z</time>
      </trkpt>
      <trkpt lat="59.4944058438" lon="17.7534141365">
        <ele>0</ele>
        <time>2012-08-01T20:15:05Z</time>
      </trkpt>
      <trkpt lat="59.4943807819" lon="17.7532713927">
        <ele>0</ele>
        <time>2012-08-01T20:15:06Z</time>
      </trkpt>
      <trkpt lat="59.4943435663" lon="17.7529645313">
        <ele>0</ele>
        <time>2012-08-01T20:15:08Z</time>
      </trkpt>
      <trkpt lat="59.4942828813" lon="17.7519866989">
        <ele>0</ele>
        <time>2012-08-01T20:15:14Z</time>
      </trkpt>
      <trkpt lat="59.494199649" lon="17.7511937711">
        <ele>0</ele>
        <time>2012-08-01T20:15:19Z</time>
      </trkpt>
      <trkpt lat="59.4941447476" lon="17.7510704734">
        <ele>0</ele>
        <time>2012-08-01T20:15:20Z</time>
      </trkpt>
      <trkpt lat="59.4939950469" lon="17.7509325073">
        <ele>0</ele>
        <time>2012-08-01T20:15:22Z</time>
      </trkpt>
      <trkpt lat="59.4939207832" lon="17.7508729958">
        <ele>0</ele>
        <time>2012-08-01T20:15:23Z</time>
      </trkpt>
      <trkpt lat="59.4935852558" lon="17.750536714">
        <ele>0</ele>
        <time>2012-08-01T20:15:28Z</time>
      </trkpt>
      <trkpt lat="59.493520799" lon="17.7504545714">
        <ele>0</ele>
        <time>2012-08-01T20:15:29Z</time>
      </trkpt>
      <trkpt lat="59.4930903046" lon="17.7500006077">
        <ele>0</ele>
        <time>2012-08-01T20:15:35Z</time>
      </trkpt>
      <trkpt lat="59.4925816071" lon="17.7494747273">
        <ele>0</ele>
        <time>2012-08-01T20:15:42Z</time>
      </trkpt>
      <trkpt lat="59.4924378575" lon="17.7493436344">
        <ele>0</ele>
        <time>2012-08-01T20:15:44Z</time>
      </trkpt>
      <trkpt lat="59.492131499" lon="17.7491133836">
        <ele>0</ele>
        <time>2012-08-01T20:15:48Z</time>
      </trkpt>
      <trkpt lat="59.4920622645" lon="17.7490183328">
        <ele>0</ele>
        <time>2012-08-01T20:15:49Z</time>
      </trkpt>
      <trkpt lat="59.4918450057" lon="17.7487931112">
        <ele>0</ele>
        <time>2012-08-01T20:15:52Z</time>
      </trkpt>
      <trkpt lat="59.4917606" lon="17.7487559794">
        <ele>0</ele>
        <time>2012-08-01T20:15:53Z</time>
      </trkpt>
      <trkpt lat="59.4913974961" lon="17.7485223758">
        <ele>0</ele>
        <time>2012-08-01T20:15:58Z</time>
      </trkpt>
      <trkpt lat="59.4913384037" lon="17.7484417419">
        <ele>0</ele>
        <time>2012-08-01T20:15:59Z</time>
      </trkpt>
      <trkpt lat="59.4912715999" lon="17.7483937975">
        <ele>0</ele>
        <time>2012-08-01T20:16:00Z</time>
      </trkpt>
      <trkpt lat="59.491203036" lon="17.748338896">
        <ele>0</ele>
        <time>2012-08-01T20:16:01Z</time>
      </trkpt>
      <trkpt lat="59.4911347235" lon="17.7483074639">
        <ele>0</ele>
        <time>2012-08-01T20:16:02Z</time>
      </trkpt>
      <trkpt lat="59.4910638964" lon="17.7482758641">
        <ele>0</ele>
        <time>2012-08-01T20:16:03Z</time>
      </trkpt>
      <trkpt lat="59.4905698672" lon="17.7479637222">
        <ele>0</ele>
        <time>2012-08-01T20:16:10Z</time>
      </trkpt>
      <trkpt lat="59.490109198" lon="17.7476718644">
        <ele>0</ele>
        <time>2012-08-01T20:16:17Z</time>
      </trkpt>
      <trkpt lat="59.4897100519" lon="17.7473821859">
        <ele>0</ele>
        <time>2012-08-01T20:16:23Z</time>
      </trkpt>
      <trkpt lat="59.4893986644" lon="17.7470791803">
        <ele>0</ele>
        <time>2012-08-01T20:16:28Z</time>
      </trkpt>
      <trkpt lat="59.4889378275" lon="17.7466471771">
        <ele>0</ele>
        <time>2012-08-01T20:16:35Z</time>
      </trkpt>
      <trkpt lat="59.4884378472" lon="17.7462114022">
        <ele>0</ele>
        <time>2012-08-01T20:16:42Z</time>
      </trkpt>
      <trkpt lat="59.4883668525" lon="17.7461458557">
        <ele>0</ele>
        <time>2012-08-01T20:16:43Z</time>
      </trkpt>
      <trkpt lat="59.48803736" lon="17.7458776349">
        <ele>0</ele>
        <time>2012-08-01T20:16:48Z</time>
      </trkpt>
      <trkpt lat="59.4879744119" lon="17.745909989">
        <ele>0</ele>
        <time>2012-08-01T20:16:49Z</time>
      </trkpt>
      <trkpt lat="59.4878805346" lon="17.746090619">
        <ele>0</ele>
        <time>2012-08-01T20:16:51Z</time>
      </trkpt>
      <trkpt lat="59.4878517009" lon="17.7462107316">
        <ele>0</ele>
        <time>2012-08-01T20:16:52Z</time>
      </trkpt>
      <trkpt lat="59.4878297403" lon="17.746334197">
        <ele>0</ele>
        <time>2012-08-01T20:16:53Z</time>
      </trkpt>
      <trkpt lat="59.4878106296" lon="17.7464682236">
        <ele>0</ele>
        <time>2012-08-01T20:16:54Z</time>
      </trkpt>
      <trkpt lat="59.4877940334" lon="17.746594455">
        <ele>0</ele>
        <time>2012-08-01T20:16:55Z</time>
      </trkpt>
      <trkpt lat="59.4877242122" lon="17.7471099418">
        <ele>0</ele>
        <time>2012-08-01T20:16:59Z</time>
      </trkpt>
      <trkpt lat="59.4877051015" lon="17.7472355865">
        <ele>0</ele>
        <time>2012-08-01T20:17:00Z</time>
      </trkpt>
      <trkpt lat="59.4876841467" lon="17.7473633267">
        <ele>0</ele>
        <time>2012-08-01T20:17:01Z</time>
      </trkpt>
      <trkpt lat="59.4876634434" lon="17.7475005384">
        <ele>0</ele>
        <time>2012-08-01T20:17:02Z</time>
      </trkpt>
      <trkpt lat="59.4876464282" lon="17.74763314">
        <ele>0</ele>
        <time>2012-08-01T20:17:03Z</time>
      </trkpt>
      <trkpt lat="59.48755297" lon="17.748307883">
        <ele>0</ele>
        <time>2012-08-01T20:17:08Z</time>
      </trkpt>
      <trkpt lat="59.4874298399" lon="17.7492469911">
        <ele>0</ele>
        <time>2012-08-01T20:17:15Z</time>
      </trkpt>
      <trkpt lat="59.4873584261" lon="17.7499895436">
        <ele>0</ele>
        <time>2012-08-01T20:17:21Z</time>
      </trkpt>
      <trkpt lat="59.487351972" lon="17.7501082313">
        <ele>0</ele>
        <time>2012-08-01T20:17:22Z</time>
      </trkpt>
      <trkpt lat="59.4873483678" lon="17.7502321996">
        <ele>0</ele>
        <time>2012-08-01T20:17:23Z</time>
      </trkpt>
      <trkpt lat="59.487345015" lon="17.7503511387">
        <ele>0</ele>
        <time>2012-08-01T20:17:24Z</time>
      </trkpt>
      <trkpt lat="59.4873441769" lon="17.7504653002">
        <ele>0</ele>
        <time>2012-08-01T20:17:25Z</time>
      </trkpt>
      <trkpt lat="59.4873446798" lon="17.7505831497">
        <ele>0</ele>
        <time>2012-08-01T20:17:26Z</time>
      </trkpt>
      <trkpt lat="59.4873509662" lon="17.7507001611">
        <ele>0</ele>
        <time>2012-08-01T20:17:27Z</time>
      </trkpt>
      <trkpt lat="59.4873663051" lon="17.7508061083">
        <ele>0</ele>
        <time>2012-08-01T20:17:28Z</time>
      </trkpt>
      <trkpt lat="59.4873985754" lon="17.7508993988">
        <ele>0</ele>
        <time>2012-08-01T20:17:29Z</time>
      </trkpt>
      <trkpt lat="59.4874528063" lon="17.7510486805">
        <ele>0</ele>
        <time>2012-08-01T20:17:31Z</time>
      </trkpt>
      <trkpt lat="59.4875073724" lon="17.7512231078">
        <ele>0</ele>
        <time>2012-08-01T20:17:33Z</time>
      </trkpt>
      <trkpt lat="59.4875267346" lon="17.7513098605">
        <ele>0</ele>
        <time>2012-08-01T20:17:34Z</time>
      </trkpt>
      <trkpt lat="59.4875362062" lon="17.7514122873">
        <ele>0</ele>
        <time>2012-08-01T20:17:35Z</time>
      </trkpt>
      <trkpt lat="59.4875386369" lon="17.751518486">
        <ele>0</ele>
        <time>2012-08-01T20:17:36Z</time>
      </trkpt>
      <trkpt lat="59.4875288301" lon="17.7516229244">
        <ele>0</ele>
        <time>2012-08-01T20:17:37Z</time>
      </trkpt>
      <trkpt lat="59.4875091326" lon="17.751715293">
        <ele>0</ele>
        <time>2012-08-01T20:17:38Z</time>
      </trkpt>
      <trkpt lat="59.487489519" lon="17.7518178874">
        <ele>0</ele>
        <time>2012-08-01T20:17:39Z</time>
      </trkpt>
      <trkpt lat="59.4874681452" lon="17.751920901">
        <ele>0</ele>
        <time>2012-08-01T20:17:40Z</time>
      </trkpt>
      <trkpt lat="59.4874488668" lon="17.7520242498">
        <ele>0</ele>
        <time>2012-08-01T20:17:41Z</time>
      </trkpt>
      <trkpt lat="59.4873521397" lon="17.7524138405">
        <ele>0</ele>
        <time>2012-08-01T20:17:45Z</time>
      </trkpt>
      <trkpt lat="59.4872729307" lon="17.7527258148">
        <ele>0</ele>
        <time>2012-08-01T20:17:48Z</time>
      </trkpt>
      <trkpt lat="59.48724175" lon="17.7528287446">
        <ele>0</ele>
        <time>2012-08-01T20:17:49Z</time>
      </trkpt>
      <trkpt lat="59.4872095635" lon="17.7529273995">
        <ele>0</ele>
        <time>2012-08-01T20:17:50Z</time>
      </trkpt>
      <trkpt lat="59.4871787181" lon="17.7530240428">
        <ele>0</ele>
        <time>2012-08-01T20:17:51Z</time>
      </trkpt>
      <trkpt lat="59.4871469507" lon="17.7531195127">
        <ele>0</ele>
        <time>2012-08-01T20:17:52Z</time>
      </trkpt>
      <trkpt lat="59.4869984235" lon="17.753534752">
        <ele>0</ele>
        <time>2012-08-01T20:17:57Z</time>
      </trkpt>
      <trkpt lat="59.4869383253" lon="17.75368571">
        <ele>0</ele>
        <time>2012-08-01T20:17:59Z</time>
      </trkpt>
      <trkpt lat="59.4869122575" lon="17.7537548607">
        <ele>0</ele>
        <time>2012-08-01T20:18:00Z</time>
      </trkpt>
      <trkpt lat="59.4868748743" lon="17.7538173897">
        <ele>0</ele>
        <time>2012-08-01T20:18:01Z</time>
      </trkpt>
      <trkpt lat="59.4868353955" lon="17.7538764821">
        <ele>0</ele>
        <time>2012-08-01T20:18:02Z</time>
      </trkpt>
      <trkpt lat="59.4868009459" lon="17.7539263544">
        <ele>0</ele>
        <time>2012-08-01T20:18:03Z</time>
      </trkpt>
      <trkpt lat="59.486727269" lon="17.754019142">
        <ele>0</ele>
        <time>2012-08-01T20:18:05Z</time>
      </trkpt>
      <trkpt lat="59.4866056476" lon="17.7541241672">
        <ele>0</ele>
        <time>2012-08-01T20:18:08Z</time>
      </trkpt>
      <trkpt lat="59.4865588766" lon="17.7541591197">
        <ele>0</ele>
        <time>2012-08-01T20:18:09Z</time>
      </trkpt>
      <trkpt lat="59.4865095911" lon="17.7542027894">
        <ele>0</ele>
        <time>2012-08-01T20:18:10Z</time>
      </trkpt>
      <trkpt lat="59.4864569527" lon="17.7542145241">
        <ele>0</ele>
        <time>2012-08-01T20:18:11Z</time>
      </trkpt>
      <trkpt lat="59.4863978603" lon="17.754225672">
        <ele>0</ele>
        <time>2012-08-01T20:18:12Z</time>
      </trkpt>
      <trkpt lat="59.486341534" lon="17.7542558469">
        <ele>0</ele>
        <time>2012-08-01T20:18:13Z</time>
      </trkpt>
      <trkpt lat="59.4862246065" lon="17.7543045457">
        <ele>0</ele>
        <time>2012-08-01T20:18:15Z</time>
      </trkpt>
      <trkpt lat="59.4861638377" lon="17.7543420966">
        <ele>0</ele>
        <time>2012-08-01T20:18:16Z</time>
      </trkpt>
      <trkpt lat="59.4861065055" lon="17.7543793122">
        <ele>0</ele>
        <time>2012-08-01T20:18:17Z</time>
      </trkpt>
      <trkpt lat="59.4860529452" lon="17.7544036198">
        <ele>0</ele>
        <time>2012-08-01T20:18:18Z</time>
      </trkpt>
      <trkpt lat="59.4860004745" lon="17.7544486306">
        <ele>0</ele>
        <time>2012-08-01T20:18:19Z</time>
      </trkpt>
      <trkpt lat="59.4859449025" lon="17.7544870197">
        <ele>0</ele>
        <time>2012-08-01T20:18:20Z</time>
      </trkpt>
      <trkpt lat="59.4858897496" lon="17.7545318628">
        <ele>0</ele>
        <time>2012-08-01T20:18:21Z</time>
      </trkpt>
      <trkpt lat="59.4858390391" lon="17.7545814837">
        <ele>0</ele>
        <time>2012-08-01T20:18:22Z</time>
      </trkpt>
      <trkpt lat="59.4858030807" lon="17.754684581">
        <ele>0</ele>
        <time>2012-08-01T20:18:23Z</time>
      </trkpt>
      <trkpt lat="59.4857420605" lon="17.7550483555">
        <ele>0</ele>
        <time>2012-08-01T20:18:26Z</time>
      </trkpt>
      <trkpt lat="59.4857233688" lon="17.7551627684">
        <ele>0</ele>
        <time>2012-08-01T20:18:27Z</time>
      </trkpt>
      <trkpt lat="59.4857024979" lon="17.7552765946">
        <ele>0</ele>
        <time>2012-08-01T20:18:28Z</time>
      </trkpt>
      <trkpt lat="59.4856805373" lon="17.7553817875">
        <ele>0</ele>
        <time>2012-08-01T20:18:29Z</time>
      </trkpt>
      <trkpt lat="59.4856527094" lon="17.755488992">
        <ele>0</ele>
        <time>2012-08-01T20:18:30Z</time>
      </trkpt>
      <trkpt lat="59.4856258874" lon="17.7555946877">
        <ele>0</ele>
        <time>2012-08-01T20:18:31Z</time>
      </trkpt>
      <trkpt lat="59.4855925274" lon="17.7556906605">
        <ele>0</ele>
        <time>2012-08-01T20:18:32Z</time>
      </trkpt>
      <trkpt lat="59.4854271525" lon="17.7557894831">
        <ele>0</ele>
        <time>2012-08-01T20:18:35Z</time>
      </trkpt>
      <trkpt lat="59.4853687307" lon="17.7558038161">
        <ele>0</ele>
        <time>2012-08-01T20:18:36Z</time>
      </trkpt>
      <trkpt lat="59.4850648868" lon="17.7559072488">
        <ele>0</ele>
        <time>2012-08-01T20:18:41Z</time>
      </trkpt>
      <trkpt lat="59.4850026093" lon="17.755918732">
        <ele>0</ele>
        <time>2012-08-01T20:18:42Z</time>
      </trkpt>
      <trkpt lat="59.4849410861" lon="17.7559318916">
        <ele>0</ele>
        <time>2012-08-01T20:18:43Z</time>
      </trkpt>
      <trkpt lat="59.4848767131" lon="17.7559364178">
        <ele>0</ele>
        <time>2012-08-01T20:18:44Z</time>
      </trkpt>
      <trkpt lat="59.484810999" lon="17.7559570373">
        <ele>0.4</ele>
        <time>2012-08-01T20:18:45Z</time>
      </trkpt>
      <trkpt lat="59.4846062292" lon="17.756028954">
        <ele>0.4</ele>
        <time>2012-08-01T20:18:48Z</time>
      </trkpt>
      <trkpt lat="59.4840749844" lon="17.7562156189">
        <ele>0.4</ele>
        <time>2012-08-01T20:18:56Z</time>
      </trkpt>
      <trkpt lat="59.4836323363" lon="17.7563636433">
        <ele>0.4</ele>
        <time>2012-08-01T20:19:02Z</time>
      </trkpt>
      <trkpt lat="59.4832133251" lon="17.7565265036">
        <ele>0</ele>
        <time>2012-08-01T20:19:07Z</time>
      </trkpt>
      <trkpt lat="59.4831303443" lon="17.7565673234">
        <ele>0</ele>
        <time>2012-08-01T20:19:08Z</time>
      </trkpt>
      <trkpt lat="59.4830487046" lon="17.7566187045">
        <ele>0</ele>
        <time>2012-08-01T20:19:09Z</time>
      </trkpt>
      <trkpt lat="59.4829666458" lon="17.756668912">
        <ele>0</ele>
        <time>2012-08-01T20:19:10Z</time>
      </trkpt>
      <trkpt lat="59.4828787196" lon="17.7567203769">
        <ele>0</ele>
        <time>2012-08-01T20:19:11Z</time>
      </trkpt>
      <trkpt lat="59.4827108302" lon="17.7568413277">
        <ele>0</ele>
        <time>2012-08-01T20:19:13Z</time>
      </trkpt>
      <trkpt lat="59.4826265083" lon="17.7569065389">
        <ele>0</ele>
        <time>2012-08-01T20:19:14Z</time>
      </trkpt>
      <trkpt lat="59.482539085" lon="17.756968565">
        <ele>0</ele>
        <time>2012-08-01T20:19:15Z</time>
      </trkpt>
      <trkpt lat="59.4824513265" lon="17.7570318483">
        <ele>0</ele>
        <time>2012-08-01T20:19:16Z</time>
      </trkpt>
      <trkpt lat="59.4823612211" lon="17.7570936229">
        <ele>0</ele>
        <time>2012-08-01T20:19:17Z</time>
      </trkpt>
      <trkpt lat="59.4822674277" lon="17.7571470156">
        <ele>0</ele>
        <time>2012-08-01T20:19:18Z</time>
      </trkpt>
      <trkpt lat="59.4821678507" lon="17.7571916912">
        <ele>0</ele>
        <time>2012-08-01T20:19:19Z</time>
      </trkpt>
      <trkpt lat="59.482070453" lon="17.7572278171">
        <ele>0</ele>
        <time>2012-08-01T20:19:20Z</time>
      </trkpt>
      <trkpt lat="59.4819718819" lon="17.7572583273">
        <ele>0</ele>
        <time>2012-08-01T20:19:21Z</time>
      </trkpt>
      <trkpt lat="59.4818749871" lon="17.7572780247">
        <ele>0</ele>
        <time>2012-08-01T20:19:22Z</time>
      </trkpt>
      <trkpt lat="59.4817756616" lon="17.7572879992">
        <ele>0</ele>
        <time>2012-08-01T20:19:23Z</time>
      </trkpt>
      <trkpt lat="59.4816745759" lon="17.7572897594">
        <ele>0</ele>
        <time>2012-08-01T20:19:24Z</time>
      </trkpt>
      <trkpt lat="59.4815739093" lon="17.757281126">
        <ele>0</ele>
        <time>2012-08-01T20:19:25Z</time>
      </trkpt>
      <trkpt lat="59.4814664533" lon="17.7572916034">
        <ele>0</ele>
        <time>2012-08-01T20:19:26Z</time>
      </trkpt>
      <trkpt lat="59.4813684689" lon="17.7572861552">
        <ele>0</ele>
        <time>2012-08-01T20:19:27Z</time>
      </trkpt>
      <trkpt lat="59.4812705683" lon="17.757267715">
        <ele>0</ele>
        <time>2012-08-01T20:19:28Z</time>
      </trkpt>
      <trkpt lat="59.4811731706" lon="17.7572364505">
        <ele>0</ele>
        <time>2012-08-01T20:19:29Z</time>
      </trkpt>
      <trkpt lat="59.4810757729" lon="17.7572066109">
        <ele>0</ele>
        <time>2012-08-01T20:19:30Z</time>
      </trkpt>
      <trkpt lat="59.480978962" lon="17.7571870811">
        <ele>0</ele>
        <time>2012-08-01T20:19:31Z</time>
      </trkpt>
      <trkpt lat="59.4808831569" lon="17.7571657073">
        <ele>0</ele>
        <time>2012-08-01T20:19:32Z</time>
      </trkpt>
      <trkpt lat="59.480790034" lon="17.7571874164">
        <ele>0</ele>
        <time>2012-08-01T20:19:33Z</time>
      </trkpt>
      <trkpt lat="59.4807070532" lon="17.7572434075">
        <ele>0</ele>
        <time>2012-08-01T20:19:34Z</time>
      </trkpt>
      <trkpt lat="59.4806239047" lon="17.7572765998">
        <ele>0</ele>
        <time>2012-08-01T20:19:35Z</time>
      </trkpt>
      <trkpt lat="59.4805576039" lon="17.7573459181">
        <ele>0</ele>
        <time>2012-08-01T20:19:36Z</time>
      </trkpt>
      <trkpt lat="59.4805101623" lon="17.7574363588">
        <ele>0</ele>
        <time>2012-08-01T20:19:37Z</time>
      </trkpt>
      <trkpt lat="59.480481161" lon="17.7575190043">
        <ele>0</ele>
        <time>2012-08-01T20:19:38Z</time>
      </trkpt>
      <trkpt lat="59.4804741202" lon="17.7576179108">
        <ele>0</ele>
        <time>2012-08-01T20:19:39Z</time>
      </trkpt>
      <trkpt lat="59.4804871959" lon="17.7577204214">
        <ele>0</ele>
        <time>2012-08-01T20:19:40Z</time>
      </trkpt>
      <trkpt lat="59.4805185442" lon="17.757839612">
        <ele>0</ele>
        <time>2012-08-01T20:19:41Z</time>
      </trkpt>
      <trkpt lat="59.4805603699" lon="17.7579660111">
        <ele>0</ele>
        <time>2012-08-01T20:19:42Z</time>
      </trkpt>
      <trkpt lat="59.48060756" lon="17.7580809269">
        <ele>0</ele>
        <time>2012-08-01T20:19:43Z</time>
      </trkpt>
      <trkpt lat="59.4806650598" lon="17.7582044761">
        <ele>0</ele>
        <time>2012-08-01T20:19:44Z</time>
      </trkpt>
      <trkpt lat="59.4807678219" lon="17.7584686736">
        <ele>0</ele>
        <time>2012-08-01T20:19:46Z</time>
      </trkpt>
      <trkpt lat="59.481012741" lon="17.7590003375">
        <ele>0</ele>
        <time>2012-08-01T20:19:50Z</time>
      </trkpt>
      <trkpt lat="59.4812462608" lon="17.759347432">
        <ele>0</ele>
        <time>2012-08-01T20:19:53Z</time>
      </trkpt>
      <trkpt lat="59.481334606" lon="17.7594490206">
        <ele>0</ele>
        <time>2012-08-01T20:19:54Z</time>
      </trkpt>
      <trkpt lat="59.48142907" lon="17.7595392937">
        <ele>0</ele>
        <time>2012-08-01T20:19:55Z</time>
      </trkpt>
      <trkpt lat="59.4815273059" lon="17.7596260464">
        <ele>0</ele>
        <time>2012-08-01T20:19:56Z</time>
      </trkpt>
      <trkpt lat="59.4816271343" lon="17.7596968734">
        <ele>0</ele>
        <time>2012-08-01T20:19:57Z</time>
      </trkpt>
      <trkpt lat="59.4817272142" lon="17.7597601568">
        <ele>0</ele>
        <time>2012-08-01T20:19:58Z</time>
      </trkpt>
      <trkpt lat="59.4820475704" lon="17.7599270404">
        <ele>0</ele>
        <time>2012-08-01T20:20:01Z</time>
      </trkpt>
      <trkpt lat="59.4821587982" lon="17.7599728056">
        <ele>0</ele>
        <time>2012-08-01T20:20:02Z</time>
      </trkpt>
      <trkpt lat="59.482270026" lon="17.7600083448">
        <ele>0</ele>
        <time>2012-08-01T20:20:03Z</time>
      </trkpt>
      <trkpt lat="59.4823827626" lon="17.7600375138">
        <ele>0</ele>
        <time>2012-08-01T20:20:04Z</time>
      </trkpt>
      <trkpt lat="59.4824917273" lon="17.7600783337">
        <ele>0</ele>
        <time>2012-08-01T20:20:05Z</time>
      </trkpt>
      <trkpt lat="59.4825926454" lon="17.7601373423">
        <ele>0</ele>
        <time>2012-08-01T20:20:06Z</time>
      </trkpt>
      <trkpt lat="59.482694234" lon="17.7602094266">
        <ele>0</ele>
        <time>2012-08-01T20:20:07Z</time>
      </trkpt>
      <trkpt lat="59.4827932242" lon="17.7603096741">
        <ele>0</ele>
        <time>2012-08-01T20:20:08Z</time>
      </trkpt>
      <trkpt lat="59.4828861795" lon="17.7604279427">
        <ele>0</ele>
        <time>2012-08-01T20:20:09Z</time>
      </trkpt>
      <trkpt lat="59.4830572541" lon="17.7606923079">
        <ele>0</ele>
        <time>2012-08-01T20:20:11Z</time>
      </trkpt>
      <trkpt lat="59.483134619" lon="17.76083765">
        <ele>0</ele>
        <time>2012-08-01T20:20:12Z</time>
      </trkpt>
      <trkpt lat="59.4832064519" lon="17.7610044498">
        <ele>0</ele>
        <time>2012-08-01T20:20:13Z</time>
      </trkpt>
      <trkpt lat="59.4832655443" lon="17.7611716687">
        <ele>0</ele>
        <time>2012-08-01T20:20:14Z</time>
      </trkpt>
      <trkpt lat="59.4833194399" lon="17.7613440006">
        <ele>0</ele>
        <time>2012-08-01T20:20:15Z</time>
      </trkpt>
      <trkpt lat="59.4833677197" lon="17.7615191823">
        <ele>0</ele>
        <time>2012-08-01T20:20:16Z</time>
      </trkpt>
      <trkpt lat="59.483415748" lon="17.7616954537">
        <ele>0</ele>
        <time>2012-08-01T20:20:17Z</time>
      </trkpt>
      <trkpt lat="59.483525467" lon="17.7622608128">
        <ele>0</ele>
        <time>2012-08-01T20:20:20Z</time>
      </trkpt>
      <trkpt lat="59.4835438234" lon="17.7624475615">
        <ele>0</ele>
        <time>2012-08-01T20:20:21Z</time>
      </trkpt>
      <trkpt lat="59.4835517862" lon="17.7626255931">
        <ele>0</ele>
        <time>2012-08-01T20:20:22Z</time>
      </trkpt>
      <trkpt lat="59.4835538817" lon="17.7627994337">
        <ele>0</ele>
        <time>2012-08-01T20:20:23Z</time>
      </trkpt>
      <trkpt lat="59.4835418117" lon="17.7629650601">
        <ele>0</ele>
        <time>2012-08-01T20:20:24Z</time>
      </trkpt>
      <trkpt lat="59.4835288198" lon="17.7631197061">
        <ele>0</ele>
        <time>2012-08-01T20:20:25Z</time>
      </trkpt>
      <trkpt lat="59.4834899278" lon="17.7634069538">
        <ele>0</ele>
        <time>2012-08-01T20:20:27Z</time>
      </trkpt>
      <trkpt lat="59.4834150774" lon="17.7638176669">
        <ele>0</ele>
        <time>2012-08-01T20:20:30Z</time>
      </trkpt>
      <trkpt lat="59.4833700666" lon="17.7640894919">
        <ele>0</ele>
        <time>2012-08-01T20:20:32Z</time>
      </trkpt>
      <trkpt lat="59.483353219" lon="17.7642293858">
        <ele>0</ele>
        <time>2012-08-01T20:20:33Z</time>
      </trkpt>
      <trkpt lat="59.4833373772" lon="17.7643691121">
        <ele>0</ele>
        <time>2012-08-01T20:20:34Z</time>
      </trkpt>
      <trkpt lat="59.4833141593" lon="17.7645200701">
        <ele>0</ele>
        <time>2012-08-01T20:20:35Z</time>
      </trkpt>
      <trkpt lat="59.4832964735" lon="17.7646680945">
        <ele>0</ele>
        <time>2012-08-01T20:20:36Z</time>
      </trkpt>
      <trkpt lat="59.4832785363" lon="17.7648151968">
        <ele>0</ele>
        <time>2012-08-01T20:20:37Z</time>
      </trkpt>
      <trkpt lat="59.4832609343" lon="17.7649555098">
        <ele>0</ele>
        <time>2012-08-01T20:20:38Z</time>
      </trkpt>
      <trkpt lat="59.4832428294" lon="17.7650992594">
        <ele>0</ele>
        <time>2012-08-01T20:20:39Z</time>
      </trkpt>
      <trkpt lat="59.4832268199" lon="17.7652420032">
        <ele>0</ele>
        <time>2012-08-01T20:20:40Z</time>
      </trkpt>
      <trkpt lat="59.4832094694" lon="17.7653844117">
        <ele>0</ele>
        <time>2012-08-01T20:20:41Z</time>
      </trkpt>
      <trkpt lat="59.4831875088" lon="17.765523635">
        <ele>0</ele>
        <time>2012-08-01T20:20:42Z</time>
      </trkpt>
      <trkpt lat="59.4831689848" lon="17.7656618526">
        <ele>0</ele>
        <time>2012-08-01T20:20:43Z</time>
      </trkpt>
      <trkpt lat="59.4831523887" lon="17.7657933646">
        <ele>0</ele>
        <time>2012-08-01T20:20:44Z</time>
      </trkpt>
      <trkpt lat="59.48313881" lon="17.7659070231">
        <ele>0</ele>
        <time>2012-08-01T20:20:45Z</time>
      </trkpt>
      <trkpt lat="59.4831235549" lon="17.7660375293">
        <ele>0</ele>
        <time>2012-08-01T20:20:46Z</time>
      </trkpt>
      <trkpt lat="59.4831072102" lon="17.7661635931">
        <ele>0</ele>
        <time>2012-08-01T20:20:47Z</time>
      </trkpt>
      <trkpt lat="59.4830958947" lon="17.7662987931">
        <ele>0</ele>
        <time>2012-08-01T20:20:48Z</time>
      </trkpt>
      <trkpt lat="59.4830831542" lon="17.7664211689">
        <ele>0</ele>
        <time>2012-08-01T20:20:49Z</time>
      </trkpt>
      <trkpt lat="59.4830373052" lon="17.7668025453">
        <ele>0</ele>
        <time>2012-08-01T20:20:52Z</time>
      </trkpt>
      <trkpt lat="59.4830249" lon="17.7669336382">
        <ele>0</ele>
        <time>2012-08-01T20:20:53Z</time>
      </trkpt>
      <trkpt lat="59.483010986" lon="17.7670586124">
        <ele>0</ele>
        <time>2012-08-01T20:20:54Z</time>
      </trkpt>
      <trkpt lat="59.4829951442" lon="17.7671861849">
        <ele>0</ele>
        <time>2012-08-01T20:20:55Z</time>
      </trkpt>
      <trkpt lat="59.4829852536" lon="17.7673107399">
        <ele>0</ele>
        <time>2012-08-01T20:20:56Z</time>
      </trkpt>
      <trkpt lat="59.4829490438" lon="17.7675814753">
        <ele>0</ele>
        <time>2012-08-01T20:20:58Z</time>
      </trkpt>
      <trkpt lat="59.4829328667" lon="17.7676958044">
        <ele>0</ele>
        <time>2012-08-01T20:20:59Z</time>
      </trkpt>
      <trkpt lat="59.4829233113" lon="17.7678097983">
        <ele>0</ele>
        <time>2012-08-01T20:21:00Z</time>
      </trkpt>
      <trkpt lat="59.482911409" lon="17.7679214452">
        <ele>0</ele>
        <time>2012-08-01T20:21:01Z</time>
      </trkpt>
      <trkpt lat="59.482897076" lon="17.7680293202">
        <ele>0</ele>
        <time>2012-08-01T20:21:02Z</time>
      </trkpt>
      <trkpt lat="59.4828814018" lon="17.7681273884">
        <ele>0</ele>
        <time>2012-08-01T20:21:03Z</time>
      </trkpt>
      <trkpt lat="59.4828675717" lon="17.7682163204">
        <ele>0</ele>
        <time>2012-08-01T20:21:04Z</time>
      </trkpt>
      <trkpt lat="59.4828590222" lon="17.76830081">
        <ele>0</ele>
        <time>2012-08-01T20:21:05Z</time>
      </trkpt>
      <trkpt lat="59.4828477904" lon="17.7683990458">
        <ele>0</ele>
        <time>2012-08-01T20:21:06Z</time>
      </trkpt>
      <trkpt lat="59.4828371454" lon="17.7684917496">
        <ele>0</ele>
        <time>2012-08-01T20:21:07Z</time>
      </trkpt>
      <trkpt lat="59.4827937272" lon="17.768819901">
        <ele>0</ele>
        <time>2012-08-01T20:21:10Z</time>
      </trkpt>
      <trkpt lat="59.482778975" lon="17.7689538438">
        <ele>0</ele>
        <time>2012-08-01T20:21:11Z</time>
      </trkpt>
      <trkpt lat="59.4827598643" lon="17.7690887086">
        <ele>0</ele>
        <time>2012-08-01T20:21:12Z</time>
      </trkpt>
      <trkpt lat="59.4827414241" lon="17.7692120063">
        <ele>0</ele>
        <time>2012-08-01T20:21:13Z</time>
      </trkpt>
      <trkpt lat="59.482723403" lon="17.7693270898">
        <ele>0</ele>
        <time>2012-08-01T20:21:14Z</time>
      </trkpt>
      <trkpt lat="59.4827083994" lon="17.7694354678">
        <ele>0</ele>
        <time>2012-08-01T20:21:15Z</time>
      </trkpt>
      <trkpt lat="59.4826907974" lon="17.7695403253">
        <ele>0</ele>
        <time>2012-08-01T20:21:16Z</time>
      </trkpt>
      <trkpt lat="59.4826728602" lon="17.7696518884">
        <ele>0</ele>
        <time>2012-08-01T20:21:17Z</time>
      </trkpt>
      <trkpt lat="59.4826583595" lon="17.7697712467">
        <ele>0</ele>
        <time>2012-08-01T20:21:18Z</time>
      </trkpt>
      <trkpt lat="59.4825828386" lon="17.7703537887">
        <ele>0</ele>
        <time>2012-08-01T20:21:23Z</time>
      </trkpt>
      <trkpt lat="59.4825456229" lon="17.7706680262">
        <ele>0</ele>
        <time>2012-08-01T20:21:26Z</time>
      </trkpt>
      <trkpt lat="59.4825376601" lon="17.7707597241">
        <ele>0</ele>
        <time>2012-08-01T20:21:27Z</time>
      </trkpt>
      <trkpt lat="59.482520561" lon="17.7708685212">
        <ele>0</ele>
        <time>2012-08-01T20:21:28Z</time>
      </trkpt>
      <trkpt lat="59.4825081558" lon="17.7709811739">
        <ele>0</ele>
        <time>2012-08-01T20:21:29Z</time>
      </trkpt>
      <trkpt lat="59.4824929846" lon="17.7711108419">
        <ele>0</ele>
        <time>2012-08-01T20:21:30Z</time>
      </trkpt>
      <trkpt lat="59.4824410168" lon="17.7715364748">
        <ele>0</ele>
        <time>2012-08-01T20:21:33Z</time>
      </trkpt>
      <trkpt lat="59.4823861154" lon="17.7719781171">
        <ele>0</ele>
        <time>2012-08-01T20:21:36Z</time>
      </trkpt>
      <trkpt lat="59.4823694354" lon="17.7721177596">
        <ele>0</ele>
        <time>2012-08-01T20:21:37Z</time>
      </trkpt>
      <trkpt lat="59.4823514981" lon="17.7722533787">
        <ele>0</ele>
        <time>2012-08-01T20:21:38Z</time>
      </trkpt>
      <trkpt lat="59.4823365783" lon="17.7723845555">
        <ele>0</ele>
        <time>2012-08-01T20:21:39Z</time>
      </trkpt>
      <trkpt lat="59.4823245084" lon="17.7725119603">
        <ele>0</ele>
        <time>2012-08-01T20:21:40Z</time>
      </trkpt>
      <trkpt lat="59.4822432878" lon="17.7731513317">
        <ele>0</ele>
        <time>2012-08-01T20:21:45Z</time>
      </trkpt>
      <trkpt lat="59.4821534338" lon="17.7739108156">
        <ele>0</ele>
        <time>2012-08-01T20:21:50Z</time>
      </trkpt>
      <trkpt lat="59.4820355005" lon="17.7749041546">
        <ele>0</ele>
        <time>2012-08-01T20:21:56Z</time>
      </trkpt>
      <trkpt lat="59.4819128733" lon="17.7758718449">
        <ele>0</ele>
        <time>2012-08-01T20:22:01Z</time>
      </trkpt>
      <trkpt lat="59.4817274657" lon="17.7769106976">
        <ele>0</ele>
        <time>2012-08-01T20:22:06Z</time>
      </trkpt>
      <trkpt lat="59.481671726" lon="17.7771002962">
        <ele>0</ele>
        <time>2012-08-01T20:22:07Z</time>
      </trkpt>
      <trkpt lat="59.4815251266" lon="17.7777106662">
        <ele>0</ele>
        <time>2012-08-01T20:22:10Z</time>
      </trkpt>
      <trkpt lat="59.4814751705" lon="17.7779272545">
        <ele>0</ele>
        <time>2012-08-01T20:22:11Z</time>
      </trkpt>
      <trkpt lat="59.481426304" lon="17.7781305994">
        <ele>0</ele>
        <time>2012-08-01T20:22:12Z</time>
      </trkpt>
      <trkpt lat="59.4813785272" lon="17.7783344472">
        <ele>0</ele>
        <time>2012-08-01T20:22:13Z</time>
      </trkpt>
      <trkpt lat="59.4813238772" lon="17.7785405581">
        <ele>0</ele>
        <time>2012-08-01T20:22:14Z</time>
      </trkpt>
      <trkpt lat="59.4812712388" lon="17.7787490159">
        <ele>0</ele>
        <time>2012-08-01T20:22:15Z</time>
      </trkpt>
      <trkpt lat="59.4812156668" lon="17.778961078">
        <ele>0</ele>
        <time>2012-08-01T20:22:16Z</time>
      </trkpt>
      <trkpt lat="59.4811657107" lon="17.7791732239">
        <ele>0</ele>
        <time>2012-08-01T20:22:17Z</time>
      </trkpt>
      <trkpt lat="59.4811105578" lon="17.7793935002">
        <ele>0</ele>
        <time>2012-08-01T20:22:18Z</time>
      </trkpt>
      <trkpt lat="59.481059093" lon="17.7795983539">
        <ele>0</ele>
        <time>2012-08-01T20:22:19Z</time>
      </trkpt>
      <trkpt lat="59.4809583425" lon="17.7800033673">
        <ele>0</ele>
        <time>2012-08-01T20:22:21Z</time>
      </trkpt>
      <trkpt lat="59.4809145052" lon="17.7802082209">
        <ele>0</ele>
        <time>2012-08-01T20:22:22Z</time>
      </trkpt>
      <trkpt lat="59.4808689076" lon="17.7804076263">
        <ele>0</ele>
        <time>2012-08-01T20:22:23Z</time>
      </trkpt>
      <trkpt lat="59.4808204603" lon="17.7806070317">
        <ele>0</ele>
        <time>2012-08-01T20:22:24Z</time>
      </trkpt>
      <trkpt lat="59.4807710909" lon="17.7808155734">
        <ele>0</ele>
        <time>2012-08-01T20:22:25Z</time>
      </trkpt>
      <trkpt lat="59.4807224759" lon="17.7810127995">
        <ele>0</ele>
        <time>2012-08-01T20:22:26Z</time>
      </trkpt>
      <trkpt lat="59.480674699" lon="17.7812022304">
        <ele>0</ele>
        <time>2012-08-01T20:22:27Z</time>
      </trkpt>
      <trkpt lat="59.4804983438" lon="17.7819213136">
        <ele>0</ele>
        <time>2012-08-01T20:22:31Z</time>
      </trkpt>
      <trkpt lat="59.4804525787" lon="17.7820980041">
        <ele>0</ele>
        <time>2012-08-01T20:22:32Z</time>
      </trkpt>
      <trkpt lat="59.480407484" lon="17.78226011">
        <ele>0</ele>
        <time>2012-08-01T20:22:33Z</time>
      </trkpt>
      <trkpt lat="59.4803606292" lon="17.7824160134">
        <ele>0</ele>
        <time>2012-08-01T20:22:34Z</time>
      </trkpt>
      <trkpt lat="59.4803126848" lon="17.7825658817">
        <ele>0</ele>
        <time>2012-08-01T20:22:35Z</time>
      </trkpt>
      <trkpt lat="59.4802129402" lon="17.7828601703">
        <ele>0</ele>
        <time>2012-08-01T20:22:37Z</time>
      </trkpt>
      <trkpt lat="59.4801596313" lon="17.7830087813">
        <ele>0</ele>
        <time>2012-08-01T20:22:38Z</time>
      </trkpt>
      <trkpt lat="59.4801057356" lon="17.7831567219">
        <ele>0</ele>
        <time>2012-08-01T20:22:39Z</time>
      </trkpt>
      <trkpt lat="59.4800489064" lon="17.7833080152">
        <ele>0</ele>
        <time>2012-08-01T20:22:40Z</time>
      </trkpt>
      <trkpt lat="59.4799899816" lon="17.7834477414">
        <ele>0</ele>
        <time>2012-08-01T20:22:41Z</time>
      </trkpt>
      <trkpt lat="59.4797370159" lon="17.7839916429">
        <ele>0</ele>
        <time>2012-08-01T20:22:45Z</time>
      </trkpt>
      <trkpt lat="59.4794397099" lon="17.7844951437">
        <ele>0</ele>
        <time>2012-08-01T20:22:49Z</time>
      </trkpt>
      <trkpt lat="59.4793568967" lon="17.7846128255">
        <ele>0</ele>
        <time>2012-08-01T20:22:50Z</time>
      </trkpt>
      <trkpt lat="59.4792737483" lon="17.7847362909">
        <ele>0</ele>
        <time>2012-08-01T20:22:51Z</time>
      </trkpt>
      <trkpt lat="59.4791874985" lon="17.7848444174">
        <ele>0</ele>
        <time>2012-08-01T20:22:52Z</time>
      </trkpt>
      <trkpt lat="59.4790958843" lon="17.7849519572">
        <ele>0</ele>
        <time>2012-08-01T20:22:53Z</time>
      </trkpt>
      <trkpt lat="59.4790030129" lon="17.7850515342">
        <ele>0</ele>
        <time>2012-08-01T20:22:54Z</time>
      </trkpt>
      <trkpt lat="59.4789023463" lon="17.7851564756">
        <ele>0</ele>
        <time>2012-08-01T20:22:55Z</time>
      </trkpt>
      <trkpt lat="59.4788037751" lon="17.7852446532">
        <ele>0</ele>
        <time>2012-08-01T20:22:56Z</time>
      </trkpt>
      <trkpt lat="59.4787046172" lon="17.7853407936">
        <ele>0</ele>
        <time>2012-08-01T20:22:57Z</time>
      </trkpt>
      <trkpt lat="59.4786043697" lon="17.7854215951">
        <ele>0</ele>
        <time>2012-08-01T20:22:58Z</time>
      </trkpt>
      <trkpt lat="59.4784064731" lon="17.7855748162">
        <ele>0</ele>
        <time>2012-08-01T20:23:00Z</time>
      </trkpt>
      <trkpt lat="59.478308321" lon="17.7856368423">
        <ele>0</ele>
        <time>2012-08-01T20:23:01Z</time>
      </trkpt>
      <trkpt lat="59.478207822" lon="17.7856893968">
        <ele>0</ele>
        <time>2012-08-01T20:23:02Z</time>
      </trkpt>
      <trkpt lat="59.4781113464" lon="17.785744885">
        <ele>0</ele>
        <time>2012-08-01T20:23:03Z</time>
      </trkpt>
      <trkpt lat="59.4780180558" lon="17.7857966851">
        <ele>0</ele>
        <time>2012-08-01T20:23:04Z</time>
      </trkpt>
      <trkpt lat="59.4776533593" lon="17.7859549354">
        <ele>0</ele>
        <time>2012-08-01T20:23:08Z</time>
      </trkpt>
      <trkpt lat="59.4775628348" lon="17.7859838529">
        <ele>0</ele>
        <time>2012-08-01T20:23:09Z</time>
      </trkpt>
      <trkpt lat="59.4774656048" lon="17.7860098368">
        <ele>0</ele>
        <time>2012-08-01T20:23:10Z</time>
      </trkpt>
      <trkpt lat="59.4773739068" lon="17.786027355">
        <ele>0</ele>
        <time>2012-08-01T20:23:11Z</time>
      </trkpt>
      <trkpt lat="59.4772817897" lon="17.7860586195">
        <ele>0</ele>
        <time>2012-08-01T20:23:12Z</time>
      </trkpt>
      <trkpt lat="59.4770127307" lon="17.7861452883">
        <ele>0</ele>
        <time>2012-08-01T20:23:15Z</time>
      </trkpt>
      <trkpt lat="59.4764322842" lon="17.7863166144">
        <ele>0</ele>
        <time>2012-08-01T20:23:22Z</time>
      </trkpt>
      <trkpt lat="59.4763515665" lon="17.7863319532">
        <ele>0</ele>
        <time>2012-08-01T20:23:23Z</time>
      </trkpt>
      <trkpt lat="59.4762767999" lon="17.7863610384">
        <ele>0</ele>
        <time>2012-08-01T20:23:24Z</time>
      </trkpt>
      <trkpt lat="59.4761949926" lon="17.7863841725">
        <ele>0</ele>
        <time>2012-08-01T20:23:25Z</time>
      </trkpt>
      <trkpt lat="59.4761057253" lon="17.7864080609">
        <ele>0</ele>
        <time>2012-08-01T20:23:26Z</time>
      </trkpt>
      <trkpt lat="59.4760219902" lon="17.7864518144">
        <ele>0</ele>
        <time>2012-08-01T20:23:27Z</time>
      </trkpt>
      <trkpt lat="59.47578495" lon="17.786525156">
        <ele>0</ele>
        <time>2012-08-01T20:23:30Z</time>
      </trkpt>
      <trkpt lat="59.4757054058" lon="17.7865401596">
        <ele>0</ele>
        <time>2012-08-01T20:23:31Z</time>
      </trkpt>
      <trkpt lat="59.4756290467" lon="17.7865810633">
        <ele>0</ele>
        <time>2012-08-01T20:23:32Z</time>
      </trkpt>
      <trkpt lat="59.4755457306" lon="17.7866091427">
        <ele>0</ele>
        <time>2012-08-01T20:23:33Z</time>
      </trkpt>
      <trkpt lat="59.4754671084" lon="17.7866438437">
        <ele>0</ele>
        <time>2012-08-01T20:23:34Z</time>
      </trkpt>
      <trkpt lat="59.4751539606" lon="17.7867736794">
        <ele>0</ele>
        <time>2012-08-01T20:23:38Z</time>
      </trkpt>
      <trkpt lat="59.4746324388" lon="17.7870575743">
        <ele>0</ele>
        <time>2012-08-01T20:23:45Z</time>
      </trkpt>
      <trkpt lat="59.4742297723" lon="17.7873898328">
        <ele>0</ele>
        <time>2012-08-01T20:23:51Z</time>
      </trkpt>
      <trkpt lat="59.473840936" lon="17.7878191538">
        <ele>0</ele>
        <time>2012-08-01T20:23:57Z</time>
      </trkpt>
      <trkpt lat="59.4737871242" lon="17.7879165514">
        <ele>0</ele>
        <time>2012-08-01T20:23:58Z</time>
      </trkpt>
      <trkpt lat="59.4736835239" lon="17.7881142804">
        <ele>0</ele>
        <time>2012-08-01T20:24:00Z</time>
      </trkpt>
      <trkpt lat="59.4736546901" lon="17.7882261788">
        <ele>0</ele>
        <time>2012-08-01T20:24:01Z</time>
      </trkpt>
      <trkpt lat="59.4736295444" lon="17.7883388316">
        <ele>0</ele>
        <time>2012-08-01T20:24:02Z</time>
      </trkpt>
      <trkpt lat="59.4736092602" lon="17.7884528254">
        <ele>0</ele>
        <time>2012-08-01T20:24:03Z</time>
      </trkpt>
      <trkpt lat="59.4735874673" lon="17.7885809008">
        <ele>0</ele>
        <time>2012-08-01T20:24:04Z</time>
      </trkpt>
      <trkpt lat="59.4735438814" lon="17.7888309329">
        <ele>0</ele>
        <time>2012-08-01T20:24:06Z</time>
      </trkpt>
      <trkpt lat="59.4733723877" lon="17.7896697096">
        <ele>0</ele>
        <time>2012-08-01T20:24:12Z</time>
      </trkpt>
      <trkpt lat="59.4732832881" lon="17.7899627409">
        <ele>0</ele>
        <time>2012-08-01T20:24:14Z</time>
      </trkpt>
      <trkpt lat="59.4731896623" lon="17.790277565">
        <ele>0</ele>
        <time>2012-08-01T20:24:16Z</time>
      </trkpt>
      <trkpt lat="59.4730000637" lon="17.7909475303">
        <ele>0</ele>
        <time>2012-08-01T20:24:20Z</time>
      </trkpt>
      <trkpt lat="59.4729594953" lon="17.7911263162">
        <ele>0</ele>
        <time>2012-08-01T20:24:21Z</time>
      </trkpt>
      <trkpt lat="59.4729217768" lon="17.7913071976">
        <ele>0</ele>
        <time>2012-08-01T20:24:22Z</time>
      </trkpt>
      <trkpt lat="59.4728848126" lon="17.7914937787">
        <ele>0</ele>
        <time>2012-08-01T20:24:23Z</time>
      </trkpt>
      <trkpt lat="59.4728542187" lon="17.7916810304">
        <ele>0</ele>
        <time>2012-08-01T20:24:24Z</time>
      </trkpt>
      <trkpt lat="59.4728216969" lon="17.7918608221">
        <ele>0</ele>
        <time>2012-08-01T20:24:25Z</time>
      </trkpt>
      <trkpt lat="59.4727939528" lon="17.7920385184">
        <ele>0</ele>
        <time>2012-08-01T20:24:26Z</time>
      </trkpt>
      <trkpt lat="59.4727686395" lon="17.7922100121">
        <ele>0</ele>
        <time>2012-08-01T20:24:27Z</time>
      </trkpt>
      <trkpt lat="59.4727396381" lon="17.7923868702">
        <ele>0</ele>
        <time>2012-08-01T20:24:28Z</time>
      </trkpt>
      <trkpt lat="59.4727123969" lon="17.7925566875">
        <ele>0</ele>
        <time>2012-08-01T20:24:29Z</time>
      </trkpt>
      <trkpt lat="59.4725423282" lon="17.7935323406">
        <ele>0</ele>
        <time>2012-08-01T20:24:35Z</time>
      </trkpt>
      <trkpt lat="59.4724074634" lon="17.7942402759">
        <ele>0</ele>
        <time>2012-08-01T20:24:40Z</time>
      </trkpt>
      <trkpt lat="59.4723667274" lon="17.7943632384">
        <ele>0</ele>
        <time>2012-08-01T20:24:41Z</time>
      </trkpt>
      <trkpt lat="59.4721501391" lon="17.7947413459">
        <ele>0</ele>
        <time>2012-08-01T20:24:45Z</time>
      </trkpt>
      <trkpt lat="59.4719046332" lon="17.7949176172">
        <ele>0</ele>
        <time>2012-08-01T20:24:49Z</time>
      </trkpt>
      <trkpt lat="59.4715822654" lon="17.79514879">
        <ele>0</ele>
        <time>2012-08-01T20:24:54Z</time>
      </trkpt>
      <trkpt lat="59.4715174733" lon="17.7952152585">
        <ele>0</ele>
        <time>2012-08-01T20:24:55Z</time>
      </trkpt>
      <trkpt lat="59.4710690416" lon="17.7957339305">
        <ele>0</ele>
        <time>2012-08-01T20:25:02Z</time>
      </trkpt>
      <trkpt lat="59.4707424828" lon="17.7960254529">
        <ele>0</ele>
        <time>2012-08-01T20:25:07Z</time>
      </trkpt>
      <trkpt lat="59.4703212085" lon="17.7963448872">
        <ele>0</ele>
        <time>2012-08-01T20:25:13Z</time>
      </trkpt>
      <trkpt lat="59.4699479625" lon="17.7967669158">
        <ele>0</ele>
        <time>2012-08-01T20:25:19Z</time>
      </trkpt>
      <trkpt lat="59.4695274426" lon="17.797305872">
        <ele>0</ele>
        <time>2012-08-01T20:25:26Z</time>
      </trkpt>
      <trkpt lat="59.4690710481" lon="17.7979094526">
        <ele>0</ele>
        <time>2012-08-01T20:25:33Z</time>
      </trkpt>
      <trkpt lat="59.4688952797" lon="17.7984902345">
        <ele>0</ele>
        <time>2012-08-01T20:25:37Z</time>
      </trkpt>
      <trkpt lat="59.4688730676" lon="17.7990060566">
        <ele>0</ele>
        <time>2012-08-01T20:25:40Z</time>
      </trkpt>
      <trkpt lat="59.468876588" lon="17.7991826632">
        <ele>0</ele>
        <time>2012-08-01T20:25:41Z</time>
      </trkpt>
      <trkpt lat="59.4689084393" lon="17.7993598566">
        <ele>0</ele>
        <time>2012-08-01T20:25:42Z</time>
      </trkpt>
      <trkpt lat="59.4689441462" lon="17.7995314341">
        <ele>0</ele>
        <time>2012-08-01T20:25:43Z</time>
      </trkpt>
      <trkpt lat="59.4689922583" lon="17.7996958031">
        <ele>0</ele>
        <time>2012-08-01T20:25:44Z</time>
      </trkpt>
      <trkpt lat="59.4690444775" lon="17.7998357809">
        <ele>0</ele>
        <time>2012-08-01T20:25:45Z</time>
      </trkpt>
      <trkpt lat="59.4691013906" lon="17.7999699751">
        <ele>0</ele>
        <time>2012-08-01T20:25:46Z</time>
      </trkpt>
      <trkpt lat="59.4691610697" lon="17.8001011518">
        <ele>0</ele>
        <time>2012-08-01T20:25:47Z</time>
      </trkpt>
      <trkpt lat="59.4692189048" lon="17.8002276347">
        <ele>0</ele>
        <time>2012-08-01T20:25:48Z</time>
      </trkpt>
      <trkpt lat="59.4695545999" lon="17.8009074906">
        <ele>0</ele>
        <time>2012-08-01T20:25:54Z</time>
      </trkpt>
      <trkpt lat="59.4698832542" lon="17.8016745183">
        <ele>0</ele>
        <time>2012-08-01T20:26:01Z</time>
      </trkpt>
      <trkpt lat="59.4699202184" lon="17.8017937927">
        <ele>0</ele>
        <time>2012-08-01T20:26:02Z</time>
      </trkpt>
      <trkpt lat="59.4699498903" lon="17.8019192698">
        <ele>0</ele>
        <time>2012-08-01T20:26:03Z</time>
      </trkpt>
      <trkpt lat="59.4699772153" lon="17.8020431542">
        <ele>0</ele>
        <time>2012-08-01T20:26:04Z</time>
      </trkpt>
      <trkpt lat="59.4699990921" lon="17.8021699724">
        <ele>0</ele>
        <time>2012-08-01T20:26:05Z</time>
      </trkpt>
      <trkpt lat="59.470008396" lon="17.8023050048">
        <ele>0</ele>
        <time>2012-08-01T20:26:06Z</time>
      </trkpt>
      <trkpt lat="59.4700182028" lon="17.8024381094">
        <ele>0</ele>
        <time>2012-08-01T20:26:07Z</time>
      </trkpt>
      <trkpt lat="59.4700239025" lon="17.8025667715">
        <ele>0</ele>
        <time>2012-08-01T20:26:08Z</time>
      </trkpt>
      <trkpt lat="59.4700220585" lon="17.8027127004">
        <ele>0</ele>
        <time>2012-08-01T20:26:09Z</time>
      </trkpt>
      <trkpt lat="59.4700177837" lon="17.8028480681">
        <ele>0</ele>
        <time>2012-08-01T20:26:10Z</time>
      </trkpt>
      <trkpt lat="59.4700051271" lon="17.8029869562">
        <ele>0</ele>
        <time>2012-08-01T20:26:11Z</time>
      </trkpt>
      <trkpt lat="59.4699933924" lon="17.8031261795">
        <ele>0</ele>
        <time>2012-08-01T20:26:12Z</time>
      </trkpt>
      <trkpt lat="59.4699692525" lon="17.8032553446">
        <ele>0</ele>
        <time>2012-08-01T20:26:13Z</time>
      </trkpt>
      <trkpt lat="59.4699378204" lon="17.8034018602">
        <ele>0</ele>
        <time>2012-08-01T20:26:14Z</time>
      </trkpt>
      <trkpt lat="59.4698640597" lon="17.8037783752">
        <ele>0</ele>
        <time>2012-08-01T20:26:17Z</time>
      </trkpt>
      <trkpt lat="59.4698353098" lon="17.8039050257">
        <ele>0</ele>
        <time>2012-08-01T20:26:18Z</time>
      </trkpt>
      <trkpt lat="59.4698041291" lon="17.8040286587">
        <ele>0</ele>
        <time>2012-08-01T20:26:19Z</time>
      </trkpt>
      <trkpt lat="59.4697756306" lon="17.804151705">
        <ele>0</ele>
        <time>2012-08-01T20:26:20Z</time>
      </trkpt>
      <trkpt lat="59.4697530833" lon="17.8042655312">
        <ele>0</ele>
        <time>2012-08-01T20:26:21Z</time>
      </trkpt>
      <trkpt lat="59.4696598766" lon="17.8046508471">
        <ele>0</ele>
        <time>2012-08-01T20:26:25Z</time>
      </trkpt>
      <trkpt lat="59.4695887981" lon="17.8049661742">
        <ele>0</ele>
        <time>2012-08-01T20:26:28Z</time>
      </trkpt>
      <trkpt lat="59.4695650773" lon="17.8050589619">
        <ele>0</ele>
        <time>2012-08-01T20:26:29Z</time>
      </trkpt>
      <trkpt lat="59.4695411889" lon="17.8051568624">
        <ele>0</ele>
        <time>2012-08-01T20:26:30Z</time>
      </trkpt>
      <trkpt lat="59.4695187254" lon="17.8052509912">
        <ele>0</ele>
        <time>2012-08-01T20:26:31Z</time>
      </trkpt>
      <trkpt lat="59.4694746366" lon="17.8054560963">
        <ele>0</ele>
        <time>2012-08-01T20:26:33Z</time>
      </trkpt>
      <trkpt lat="59.4694484013" lon="17.8055488001">
        <ele>0</ele>
        <time>2012-08-01T20:26:34Z</time>
      </trkpt>
      <trkpt lat="59.4694230879" lon="17.8056415039">
        <ele>0</ele>
        <time>2012-08-01T20:26:35Z</time>
      </trkpt>
      <trkpt lat="59.4694011273" lon="17.8057360517">
        <ele>0</ele>
        <time>2012-08-01T20:26:36Z</time>
      </trkpt>
      <trkpt lat="59.4693763169" lon="17.8058331141">
        <ele>0</ele>
        <time>2012-08-01T20:26:37Z</time>
      </trkpt>
      <trkpt lat="59.4693544402" lon="17.8059251474">
        <ele>0</ele>
        <time>2012-08-01T20:26:38Z</time>
      </trkpt>
      <trkpt lat="59.4693334016" lon="17.8060213716">
        <ele>0</ele>
        <time>2012-08-01T20:26:39Z</time>
      </trkpt>
      <trkpt lat="59.4693140394" lon="17.8061108903">
        <ele>0</ele>
        <time>2012-08-01T20:26:40Z</time>
      </trkpt>
      <trkpt lat="59.4692913245" lon="17.8062115569">
        <ele>0</ele>
        <time>2012-08-01T20:26:41Z</time>
      </trkpt>
      <trkpt lat="59.4692690286" lon="17.8063153248">
        <ele>0</ele>
        <time>2012-08-01T20:26:42Z</time>
      </trkpt>
      <trkpt lat="59.4692175637" lon="17.8065141435">
        <ele>0</ele>
        <time>2012-08-01T20:26:44Z</time>
      </trkpt>
      <trkpt lat="59.4691969443" lon="17.8066093619">
        <ele>0</ele>
        <time>2012-08-01T20:26:45Z</time>
      </trkpt>
      <trkpt lat="59.4691782526" lon="17.8066939353">
        <ele>0</ele>
        <time>2012-08-01T20:26:46Z</time>
      </trkpt>
      <trkpt lat="59.4691608183" lon="17.8067745691">
        <ele>0</ele>
        <time>2012-08-01T20:26:47Z</time>
      </trkpt>
      <trkpt lat="59.4691445574" lon="17.8068488328">
        <ele>0</ele>
        <time>2012-08-01T20:26:48Z</time>
      </trkpt>
      <trkpt lat="59.4691188249" lon="17.8069403631">
        <ele>0</ele>
        <time>2012-08-01T20:26:49Z</time>
      </trkpt>
      <trkpt lat="59.4691081799" lon="17.8070567877">
        <ele>0</ele>
        <time>2012-08-01T20:26:50Z</time>
      </trkpt>
      <trkpt lat="59.4690671924" lon="17.8072969292">
        <ele>0</ele>
        <time>2012-08-01T20:26:52Z</time>
      </trkpt>
      <trkpt lat="59.4690342516" lon="17.8075440276">
        <ele>0</ele>
        <time>2012-08-01T20:26:54Z</time>
      </trkpt>
      <trkpt lat="59.4690184098" lon="17.8076604522">
        <ele>0</ele>
        <time>2012-08-01T20:26:55Z</time>
      </trkpt>
      <trkpt lat="59.46900349" lon="17.8077664832">
        <ele>0</ele>
        <time>2012-08-01T20:26:56Z</time>
      </trkpt>
      <trkpt lat="59.4689909172" lon="17.807879555">
        <ele>0</ele>
        <time>2012-08-01T20:26:57Z</time>
      </trkpt>
      <trkpt lat="59.4689473313" lon="17.8082279068">
        <ele>0</ele>
        <time>2012-08-01T20:27:00Z</time>
      </trkpt>
      <trkpt lat="59.4688345109" lon="17.8090222594">
        <ele>0</ele>
        <time>2012-08-01T20:27:07Z</time>
      </trkpt>
      <trkpt lat="59.4687716467" lon="17.8092108522">
        <ele>0</ele>
        <time>2012-08-01T20:27:09Z</time>
      </trkpt>
      <trkpt lat="59.4687365265" lon="17.8092888039">
        <ele>0</ele>
        <time>2012-08-01T20:27:10Z</time>
      </trkpt>
      <trkpt lat="59.4686806192" lon="17.80934337">
        <ele>0</ele>
        <time>2012-08-01T20:27:11Z</time>
      </trkpt>
      <trkpt lat="59.4686322557" lon="17.8093896381">
        <ele>0</ele>
        <time>2012-08-01T20:27:12Z</time>
      </trkpt>
      <trkpt lat="59.4685657872" lon="17.809405899">
        <ele>0</ele>
        <time>2012-08-01T20:27:13Z</time>
      </trkpt>
      <trkpt lat="59.4684456746" lon="17.8094157897">
        <ele>0</ele>
        <time>2012-08-01T20:27:15Z</time>
      </trkpt>
      <trkpt lat="59.4679047906" lon="17.8092368361">
        <ele>0</ele>
        <time>2012-08-01T20:27:23Z</time>
      </trkpt>
      <trkpt lat="59.4675820036" lon="17.8092028056">
        <ele>0</ele>
        <time>2012-08-01T20:27:28Z</time>
      </trkpt>
      <trkpt lat="59.4675159542" lon="17.8092128639">
        <ele>0</ele>
        <time>2012-08-01T20:27:29Z</time>
      </trkpt>
      <trkpt lat="59.4674502401" lon="17.809238261">
        <ele>0</ele>
        <time>2012-08-01T20:27:30Z</time>
      </trkpt>
      <trkpt lat="59.4673880464" lon="17.8092517559">
        <ele>0</ele>
        <time>2012-08-01T20:27:31Z</time>
      </trkpt>
      <trkpt lat="59.4673256013" lon="17.80926282">
        <ele>0</ele>
        <time>2012-08-01T20:27:32Z</time>
      </trkpt>
      <trkpt lat="59.4672597195" lon="17.8092798352">
        <ele>0</ele>
        <time>2012-08-01T20:27:33Z</time>
      </trkpt>
      <trkpt lat="59.4669958573" lon="17.8094084136">
        <ele>0</ele>
        <time>2012-08-01T20:27:37Z</time>
      </trkpt>
      <trkpt lat="59.4669298079" lon="17.8094625607">
        <ele>0</ele>
        <time>2012-08-01T20:27:38Z</time>
      </trkpt>
      <trkpt lat="59.46656025" lon="17.8098617906">
        <ele>0</ele>
        <time>2012-08-01T20:27:44Z</time>
      </trkpt>
      <trkpt lat="59.466503756" lon="17.8099593559">
        <ele>0</ele>
        <time>2012-08-01T20:27:45Z</time>
      </trkpt>
      <trkpt lat="59.4664484354" lon="17.810050048">
        <ele>0</ele>
        <time>2012-08-01T20:27:46Z</time>
      </trkpt>
      <trkpt lat="59.4663960486" lon="17.8101455179">
        <ele>0</ele>
        <time>2012-08-01T20:27:47Z</time>
      </trkpt>
      <trkpt lat="59.46634165" lon="17.8102471065">
        <ele>0</ele>
        <time>2012-08-01T20:27:48Z</time>
      </trkpt>
      <trkpt lat="59.4662874191" lon="17.810356155">
        <ele>0</ele>
        <time>2012-08-01T20:27:49Z</time>
      </trkpt>
      <trkpt lat="59.466234697" lon="17.8104686401">
        <ele>0</ele>
        <time>2012-08-01T20:27:50Z</time>
      </trkpt>
      <trkpt lat="59.4661863334" lon="17.8105813767">
        <ele>0</ele>
        <time>2012-08-01T20:27:51Z</time>
      </trkpt>
      <trkpt lat="59.4661421608" lon="17.810686821">
        <ele>0</ele>
        <time>2012-08-01T20:27:52Z</time>
      </trkpt>
      <trkpt lat="59.4661015086" lon="17.810809532">
        <ele>0</ele>
        <time>2012-08-01T20:27:53Z</time>
      </trkpt>
      <trkpt lat="59.4660624489" lon="17.8109274653">
        <ele>0</ele>
        <time>2012-08-01T20:27:54Z</time>
      </trkpt>
      <trkpt lat="59.4660250657" lon="17.8110386093">
        <ele>0</ele>
        <time>2012-08-01T20:27:55Z</time>
      </trkpt>
      <trkpt lat="59.4658224751" lon="17.8115740451">
        <ele>0</ele>
        <time>2012-08-01T20:28:00Z</time>
      </trkpt>
      <trkpt lat="59.4655990975" lon="17.8121758655">
        <ele>0</ele>
        <time>2012-08-01T20:28:05Z</time>
      </trkpt>
      <trkpt lat="59.4655610437" lon="17.8122992471">
        <ele>0</ele>
        <time>2012-08-01T20:28:06Z</time>
      </trkpt>
      <trkpt lat="59.4655218164" lon="17.8124113131">
        <ele>0</ele>
        <time>2012-08-01T20:28:07Z</time>
      </trkpt>
      <trkpt lat="59.4654790687" lon="17.8125251393">
        <ele>0</ele>
        <time>2012-08-01T20:28:08Z</time>
      </trkpt>
      <trkpt lat="59.4654376621" lon="17.8126340202">
        <ele>0</ele>
        <time>2012-08-01T20:28:09Z</time>
      </trkpt>
      <trkpt lat="59.4653461318" lon="17.8128271391">
        <ele>0</ele>
        <time>2012-08-01T20:28:11Z</time>
      </trkpt>
      <trkpt lat="59.4652854468" lon="17.8128631813">
        <ele>0</ele>
        <time>2012-08-01T20:28:12Z</time>
      </trkpt>
      <trkpt lat="59.4651569523" lon="17.8127936954">
        <ele>0</ele>
        <time>2012-08-01T20:28:14Z</time>
      </trkpt>
      <trkpt lat="59.4651000392" lon="17.8126646141">
        <ele>0</ele>
        <time>2012-08-01T20:28:15Z</time>
      </trkpt>
      <trkpt lat="59.4648941797" lon="17.8121150967">
        <ele>0</ele>
        <time>2012-08-01T20:28:19Z</time>
      </trkpt>
      <trkpt lat="59.4646426389" lon="17.8111740608">
        <ele>0</ele>
        <time>2012-08-01T20:28:25Z</time>
      </trkpt>
      <trkpt lat="59.4644057664" lon="17.8102082145">
        <ele>0</ele>
        <time>2012-08-01T20:28:31Z</time>
      </trkpt>
      <trkpt lat="59.4643665391" lon="17.8100355473">
        <ele>0</ele>
        <time>2012-08-01T20:28:32Z</time>
      </trkpt>
      <trkpt lat="59.4643319219" lon="17.8098570129">
        <ele>0</ele>
        <time>2012-08-01T20:28:33Z</time>
      </trkpt>
      <trkpt lat="59.4643061894" lon="17.8096674143">
        <ele>0</ele>
        <time>2012-08-01T20:28:34Z</time>
      </trkpt>
      <trkpt lat="59.4642930298" lon="17.8094778157">
        <ele>0</ele>
        <time>2012-08-01T20:28:35Z</time>
      </trkpt>
      <trkpt lat="59.4642882522" lon="17.8092862055">
        <ele>0</ele>
        <time>2012-08-01T20:28:36Z</time>
      </trkpt>
      <trkpt lat="59.464285989" lon="17.8090956849">
        <ele>0</ele>
        <time>2012-08-01T20:28:37Z</time>
      </trkpt>
      <trkpt lat="59.4642909344" lon="17.8088930944">
        <ele>0</ele>
        <time>2012-08-01T20:28:38Z</time>
      </trkpt>
      <trkpt lat="59.4642963826" lon="17.8086941081">
        <ele>0</ele>
        <time>2012-08-01T20:28:39Z</time>
      </trkpt>
      <trkpt lat="59.4643180917" lon="17.8081140806">
        <ele>0</ele>
        <time>2012-08-01T20:28:42Z</time>
      </trkpt>
      <trkpt lat="59.464312392" lon="17.8079195367">
        <ele>0</ele>
        <time>2012-08-01T20:28:43Z</time>
      </trkpt>
      <trkpt lat="59.4642344404" lon="17.8073796585">
        <ele>0</ele>
        <time>2012-08-01T20:28:46Z</time>
      </trkpt>
      <trkpt lat="59.4640142478" lon="17.806799631">
        <ele>0</ele>
        <time>2012-08-01T20:28:50Z</time>
      </trkpt>
      <trkpt lat="59.463943337" lon="17.8066833741">
        <ele>0</ele>
        <time>2012-08-01T20:28:51Z</time>
      </trkpt>
      <trkpt lat="59.4638618649" lon="17.8065772592">
        <ele>0</ele>
        <time>2012-08-01T20:28:52Z</time>
      </trkpt>
      <trkpt lat="59.4637011839" lon="17.8064482618">
        <ele>0</ele>
        <time>2012-08-01T20:28:54Z</time>
      </trkpt>
      <trkpt lat="59.4633617169" lon="17.8063166659">
        <ele>0</ele>
        <time>2012-08-01T20:28:58Z</time>
      </trkpt>
      <trkpt lat="59.4632761377" lon="17.8062900115">
        <ele>0</ele>
        <time>2012-08-01T20:28:59Z</time>
      </trkpt>
      <trkpt lat="59.4631929055" lon="17.8062768519">
        <ele>0</ele>
        <time>2012-08-01T20:29:00Z</time>
      </trkpt>
      <trkpt lat="59.4630249322" lon="17.8062807076">
        <ele>0</ele>
        <time>2012-08-01T20:29:02Z</time>
      </trkpt>
      <trkpt lat="59.4626795141" lon="17.8063734114">
        <ele>0</ele>
        <time>2012-08-01T20:29:06Z</time>
      </trkpt>
      <trkpt lat="59.4621161666" lon="17.8065373614">
        <ele>0</ele>
        <time>2012-08-01T20:29:12Z</time>
      </trkpt>
      <trkpt lat="59.4615124183" lon="17.8065709728">
        <ele>0</ele>
        <time>2012-08-01T20:29:19Z</time>
      </trkpt>
      <trkpt lat="59.4609297086" lon="17.8066376927">
        <ele>0</ele>
        <time>2012-08-01T20:29:26Z</time>
      </trkpt>
      <trkpt lat="59.4608472308" lon="17.8066406264">
        <ele>0</ele>
        <time>2012-08-01T20:29:27Z</time>
      </trkpt>
      <trkpt lat="59.460759137" lon="17.8066391176">
        <ele>0</ele>
        <time>2012-08-01T20:29:28Z</time>
      </trkpt>
      <trkpt lat="59.4606660141" lon="17.8066332503">
        <ele>0</ele>
        <time>2012-08-01T20:29:29Z</time>
      </trkpt>
      <trkpt lat="59.4605735617" lon="17.8066221024">
        <ele>0</ele>
        <time>2012-08-01T20:29:30Z</time>
      </trkpt>
      <trkpt lat="59.4604800197" lon="17.806610703">
        <ele>0</ele>
        <time>2012-08-01T20:29:31Z</time>
      </trkpt>
      <trkpt lat="59.4601000682" lon="17.8065617527">
        <ele>0</ele>
        <time>2012-08-01T20:29:35Z</time>
      </trkpt>
      <trkpt lat="59.4600118068" lon="17.8065507724">
        <ele>0</ele>
        <time>2012-08-01T20:29:36Z</time>
      </trkpt>
      <trkpt lat="59.4599259761" lon="17.8065414685">
        <ele>0</ele>
        <time>2012-08-01T20:29:37Z</time>
      </trkpt>
      <trkpt lat="59.4598390558" lon="17.8065286442">
        <ele>0</ele>
        <time>2012-08-01T20:29:38Z</time>
      </trkpt>
      <trkpt lat="59.4597456815" lon="17.8065148141">
        <ele>0</ele>
        <time>2012-08-01T20:29:39Z</time>
      </trkpt>
      <trkpt lat="59.4594807296" lon="17.806472234">
        <ele>0</ele>
        <time>2012-08-01T20:29:42Z</time>
      </trkpt>
      <trkpt lat="59.458881759" lon="17.8063600842">
        <ele>0</ele>
        <time>2012-08-01T20:29:49Z</time>
      </trkpt>
      <trkpt lat="59.4584412902" lon="17.8062502813">
        <ele>0</ele>
        <time>2012-08-01T20:29:54Z</time>
      </trkpt>
      <trkpt lat="59.4583554595" lon="17.8062281531">
        <ele>0</ele>
        <time>2012-08-01T20:29:55Z</time>
      </trkpt>
      <trkpt lat="59.4582690421" lon="17.8062020016">
        <ele>0</ele>
        <time>2012-08-01T20:29:56Z</time>
      </trkpt>
      <trkpt lat="59.4581836306" lon="17.8061704856">
        <ele>0</ele>
        <time>2012-08-01T20:29:57Z</time>
      </trkpt>
      <trkpt lat="59.4581003983" lon="17.806140646">
        <ele>0</ele>
        <time>2012-08-01T20:29:58Z</time>
      </trkpt>
      <trkpt lat="59.4580172499" lon="17.8061108903">
        <ele>0</ele>
        <time>2012-08-01T20:29:59Z</time>
      </trkpt>
      <trkpt lat="59.4579355263" lon="17.8060788714">
        <ele>0</ele>
        <time>2012-08-01T20:30:00Z</time>
      </trkpt>
      <trkpt lat="59.4578477678" lon="17.8060392251">
        <ele>0</ele>
        <time>2012-08-01T20:30:01Z</time>
      </trkpt>
      <trkpt lat="59.4577674692" lon="17.8060033505">
        <ele>0</ele>
        <time>2012-08-01T20:30:02Z</time>
      </trkpt>
      <trkpt lat="59.457685159" lon="17.8059668054">
        <ele>0</ele>
        <time>2012-08-01T20:30:03Z</time>
      </trkpt>
      <trkpt lat="59.4576030164" lon="17.8059295898">
        <ele>0</ele>
        <time>2012-08-01T20:30:04Z</time>
      </trkpt>
      <trkpt lat="59.4575206223" lon="17.8059045279">
        <ele>0</ele>
        <time>2012-08-01T20:30:05Z</time>
      </trkpt>
      <trkpt lat="59.45743739" lon="17.8058901949">
        <ele>0</ele>
        <time>2012-08-01T20:30:06Z</time>
      </trkpt>
      <trkpt lat="59.4573549121" lon="17.8058626184">
        <ele>0</ele>
        <time>2012-08-01T20:30:07Z</time>
      </trkpt>
      <trkpt lat="59.4572771281" lon="17.8058181944">
        <ele>0</ele>
        <time>2012-08-01T20:30:08Z</time>
      </trkpt>
      <trkpt lat="59.4571679119" lon="17.8056447728">
        <ele>0</ele>
        <time>2012-08-01T20:30:10Z</time>
      </trkpt>
      <trkpt lat="59.4571545009" lon="17.8054012786">
        <ele>0</ele>
        <time>2012-08-01T20:30:12Z</time>
      </trkpt>
      <trkpt lat="59.4571784731" lon="17.8052747958">
        <ele>0</ele>
        <time>2012-08-01T20:30:13Z</time>
      </trkpt>
      <trkpt lat="59.4572163593" lon="17.8051535935">
        <ele>0</ele>
        <time>2012-08-01T20:30:14Z</time>
      </trkpt>
      <trkpt lat="59.4572702549" lon="17.8050343191">
        <ele>0</ele>
        <time>2012-08-01T20:30:15Z</time>
      </trkpt>
      <trkpt lat="59.4573372263" lon="17.8049230074">
        <ele>0</ele>
        <time>2012-08-01T20:30:16Z</time>
      </trkpt>
      <trkpt lat="59.4574171058" lon="17.8048237657">
        <ele>0</ele>
        <time>2012-08-01T20:30:17Z</time>
      </trkpt>
      <trkpt lat="59.4574964824" lon="17.8047436348">
        <ele>0</ele>
        <time>2012-08-01T20:30:18Z</time>
      </trkpt>
      <trkpt lat="59.4575783736" lon="17.8046629171">
        <ele>0</ele>
        <time>2012-08-01T20:30:19Z</time>
      </trkpt>
      <trkpt lat="59.4576620249" lon="17.8045868094">
        <ele>0</ele>
        <time>2012-08-01T20:30:20Z</time>
      </trkpt>
      <trkpt lat="59.4577482747" lon="17.8045140545">
        <ele>0</ele>
        <time>2012-08-01T20:30:21Z</time>
      </trkpt>
      <trkpt lat="59.4578371228" lon="17.804445742">
        <ele>0</ele>
        <time>2012-08-01T20:30:22Z</time>
      </trkpt>
      <trkpt lat="59.4580237039" lon="17.8043377832">
        <ele>0</ele>
        <time>2012-08-01T20:30:24Z</time>
      </trkpt>
      <trkpt lat="59.4582010649" lon="17.8042822112">
        <ele>0</ele>
        <time>2012-08-01T20:30:26Z</time>
      </trkpt>
      <trkpt lat="59.4583741512" lon="17.804303585">
        <ele>0</ele>
        <time>2012-08-01T20:30:28Z</time>
      </trkpt>
      <trkpt lat="59.4586176454" lon="17.8043335922">
        <ele>0</ele>
        <time>2012-08-01T20:30:31Z</time>
      </trkpt>
      <trkpt lat="59.4586950941" lon="17.8043350171">
        <ele>0</ele>
        <time>2012-08-01T20:30:32Z</time>
      </trkpt>
      <trkpt lat="59.4587634066" lon="17.804340633">
        <ele>0</ele>
        <time>2012-08-01T20:30:33Z</time>
      </trkpt>
      <trkpt lat="59.4588287854" lon="17.8043252941">
        <ele>0</ele>
        <time>2012-08-01T20:30:34Z</time>
      </trkpt>
      <trkpt lat="59.4588887998" lon="17.8042888329">
        <ele>0</ele>
        <time>2012-08-01T20:30:35Z</time>
      </trkpt>
    </trkseg>
  </trk>
</gpx>